<?xml version='1.0' encoding='UTF-8'?><gpx version="1.1" creator="JPX - https://github.com/jenetics/jpx" xmlns="http://www.topografix.com/GPX/1/1"><trk><trkseg><trkpt lat="42.8475742" lon="13.5926595"><ele>180.0</ele><time>2026-03-29T07:28:56.781Z</time></trkpt><trkpt lat="42.84751" lon="13.592575"><ele>180.0</ele><time>2026-03-29T07:29:00.781Z</time></trkpt><trkpt lat="42.8474417" lon="13.59257"><ele>180.0</ele><time>2026-03-29T07:29:01.78Z</time></trkpt><trkpt lat="42.8473767" lon="13.5925933"><ele>180.0</ele><time>2026-03-29T07:29:02.781Z</time></trkpt><trkpt lat="42.8472833" lon="13.592735"><ele>180.0</ele><time>2026-03-29T07:29:04.781Z</time></trkpt><trkpt lat="42.8472217" lon="13.59282"><ele>179.83333333333334</ele><time>2026-03-29T07:29:05.781Z</time></trkpt><trkpt lat="42.8471567" lon="13.5929083"><ele>179.66666666666666</ele><time>2026-03-29T07:29:06.781Z</time></trkpt><trkpt lat="42.8470933" lon="13.5929767"><ele>179.5</ele><time>2026-03-29T07:29:07.78Z</time></trkpt><trkpt lat="42.8470267" lon="13.593005"><ele>179.33333333333331</ele><time>2026-03-29T07:29:08.78Z</time></trkpt><trkpt lat="42.8469133" lon="13.5930367"><ele>179.16666666666666</ele><time>2026-03-29T07:29:10.781Z</time></trkpt><trkpt lat="42.8468483" lon="13.59308"><ele>179.0</ele><time>2026-03-29T07:29:11.781Z</time></trkpt><trkpt lat="42.8467533" lon="13.5931633"><ele>180.5</ele><time>2026-03-29T07:29:13.781Z</time></trkpt><trkpt lat="42.8466933" lon="13.5933133"><ele>182.0</ele><time>2026-03-29T07:29:15.781Z</time></trkpt><trkpt lat="42.84666" lon="13.5934033"><ele>183.5</ele><time>2026-03-29T07:29:16.781Z</time></trkpt><trkpt lat="42.8466217" lon="13.593495"><ele>185.0</ele><time>2026-03-29T07:29:17.78Z</time></trkpt><trkpt lat="42.8465767" lon="13.5935883"><ele>186.5</ele><time>2026-03-29T07:29:18.781Z</time></trkpt><trkpt lat="42.8465333" lon="13.59368"><ele>188.0</ele><time>2026-03-29T07:29:19.78Z</time></trkpt><trkpt lat="42.8464783" lon="13.5937683"><ele>188.0</ele><time>2026-03-29T07:29:20.781Z</time></trkpt><trkpt lat="42.8464167" lon="13.5938433"><ele>188.0</ele><time>2026-03-29T07:29:21.78Z</time></trkpt><trkpt lat="42.8463433" lon="13.5939"><ele>188.0</ele><time>2026-03-29T07:29:22.781Z</time></trkpt><trkpt lat="42.84627" lon="13.5939383"><ele>188.0</ele><time>2026-03-29T07:29:23.781Z</time></trkpt><trkpt lat="42.8462017" lon="13.5939483"><ele>188.0</ele><time>2026-03-29T07:29:24.781Z</time></trkpt><trkpt lat="42.846135" lon="13.59396"><ele>188.0</ele><time>2026-03-29T07:29:25.781Z</time></trkpt><trkpt lat="42.8460717" lon="13.593965"><ele>188.0</ele><time>2026-03-29T07:29:26.78Z</time></trkpt><trkpt lat="42.84599" lon="13.5939717"><ele>190.4</ele><time>2026-03-29T07:29:27.781Z</time></trkpt><trkpt lat="42.8459117" lon="13.5939233"><ele>192.8</ele><time>2026-03-29T07:29:28.781Z</time></trkpt><trkpt lat="42.8458567" lon="13.59385"><ele>195.2</ele><time>2026-03-29T07:29:29.781Z</time></trkpt><trkpt lat="42.8458333" lon="13.593705"><ele>197.6</ele><time>2026-03-29T07:29:30.78Z</time></trkpt><trkpt lat="42.8458433" lon="13.5935667"><ele>200.0</ele><time>2026-03-29T07:29:31.78Z</time></trkpt><trkpt lat="42.845885" lon="13.593395"><ele>201.4</ele><time>2026-03-29T07:29:32.781Z</time></trkpt><trkpt lat="42.8459333" lon="13.593215"><ele>202.8</ele><time>2026-03-29T07:29:33.781Z</time></trkpt><trkpt lat="42.845955" lon="13.59305"><ele>204.2</ele><time>2026-03-29T07:29:34.78Z</time></trkpt><trkpt lat="42.84596" lon="13.5929167"><ele>205.6</ele><time>2026-03-29T07:29:35.781Z</time></trkpt><trkpt lat="42.8459433" lon="13.5928117"><ele>207.0</ele><time>2026-03-29T07:29:36.781Z</time></trkpt><trkpt lat="42.845915" lon="13.592725"><ele>207.0</ele><time>2026-03-29T07:29:37.781Z</time></trkpt><trkpt lat="42.8458217" lon="13.5926683"><ele>207.0</ele><time>2026-03-29T07:29:39.781Z</time></trkpt><trkpt lat="42.8457233" lon="13.5927183"><ele>207.0</ele><time>2026-03-29T07:29:41.78Z</time></trkpt><trkpt lat="42.8456683" lon="13.5927983"><ele>207.0</ele><time>2026-03-29T07:29:42.781Z</time></trkpt><trkpt lat="42.8456067" lon="13.5928767"><ele>207.0</ele><time>2026-03-29T07:29:43.781Z</time></trkpt><trkpt lat="42.8455633" lon="13.5929433"><ele>207.0</ele><time>2026-03-29T07:29:44.78Z</time></trkpt><trkpt lat="42.8455017" lon="13.5930433"><ele>207.0</ele><time>2026-03-29T07:29:46.781Z</time></trkpt><trkpt lat="42.8454517" lon="13.59311"><ele>207.0</ele><time>2026-03-29T07:29:48.781Z</time></trkpt><trkpt lat="42.84538" lon="13.5930933"><ele>207.0</ele><time>2026-03-29T07:30:32.781Z</time></trkpt><trkpt lat="42.8453083" lon="13.5930167"><ele>207.0</ele><time>2026-03-29T07:30:34.781Z</time></trkpt><trkpt lat="42.8452383" lon="13.5929633"><ele>207.0</ele><time>2026-03-29T07:30:36.78Z</time></trkpt><trkpt lat="42.845175" lon="13.5929933"><ele>207.0</ele><time>2026-03-29T07:30:39.781Z</time></trkpt><trkpt lat="42.84509" lon="13.5930283"><ele>210.57142857142858</ele><time>2026-03-29T07:30:55.781Z</time></trkpt><trkpt lat="42.8450017" lon="13.59305"><ele>214.14285714285717</ele><time>2026-03-29T07:30:58.781Z</time></trkpt><trkpt lat="42.84494" lon="13.5930883"><ele>217.71428571428572</ele><time>2026-03-29T07:31:01.781Z</time></trkpt><trkpt lat="42.8448683" lon="13.5930817"><ele>221.2857142857143</ele><time>2026-03-29T07:31:03.781Z</time></trkpt><trkpt lat="42.8447933" lon="13.59307"><ele>224.85714285714286</ele><time>2026-03-29T07:31:05.78Z</time></trkpt><trkpt lat="42.844725" lon="13.5930983"><ele>228.42857142857147</ele><time>2026-03-29T07:31:07.78Z</time></trkpt><trkpt lat="42.8446583" lon="13.5931117"><ele>232.00000000000003</ele><time>2026-03-29T07:31:09.781Z</time></trkpt><trkpt lat="42.8445817" lon="13.5931033"><ele>232.0</ele><time>2026-03-29T07:31:11.781Z</time></trkpt><trkpt lat="42.8444967" lon="13.5930717"><ele>232.0</ele><time>2026-03-29T07:31:13.781Z</time></trkpt><trkpt lat="42.8444167" lon="13.59305"><ele>232.0</ele><time>2026-03-29T07:31:15.781Z</time></trkpt><trkpt lat="42.8443317" lon="13.5930533"><ele>232.0</ele><time>2026-03-29T07:31:17.78Z</time></trkpt><trkpt lat="42.8442267" lon="13.5930717"><ele>232.0</ele><time>2026-03-29T07:31:19.781Z</time></trkpt><trkpt lat="42.8441217" lon="13.593075"><ele>234.83333333333331</ele><time>2026-03-29T07:31:21.781Z</time></trkpt><trkpt lat="42.844045" lon="13.593045"><ele>237.66666666666666</ele><time>2026-03-29T07:31:23.78Z</time></trkpt><trkpt lat="42.8439833" lon="13.5929983"><ele>240.5</ele><time>2026-03-29T07:31:25.781Z</time></trkpt><trkpt lat="42.8439033" lon="13.5929417"><ele>243.33333333333331</ele><time>2026-03-29T07:31:27.781Z</time></trkpt><trkpt lat="42.8438167" lon="13.5928733"><ele>246.16666666666666</ele><time>2026-03-29T07:31:29.781Z</time></trkpt><trkpt lat="42.843725" lon="13.5928167"><ele>249.0</ele><time>2026-03-29T07:31:31.781Z</time></trkpt><trkpt lat="42.8436383" lon="13.5927583"><ele>250.6</ele><time>2026-03-29T07:31:33.781Z</time></trkpt><trkpt lat="42.8435633" lon="13.5926767"><ele>252.2</ele><time>2026-03-29T07:31:35.781Z</time></trkpt><trkpt lat="42.8435117" lon="13.5925533"><ele>253.79999999999998</ele><time>2026-03-29T07:31:37.781Z</time></trkpt><trkpt lat="42.84348" lon="13.59241"><ele>255.39999999999998</ele><time>2026-03-29T07:31:39.781Z</time></trkpt><trkpt lat="42.8434517" lon="13.59228"><ele>257.0</ele><time>2026-03-29T07:31:41.78Z</time></trkpt><trkpt lat="42.8434067" lon="13.592175"><ele>259.33333333333337</ele><time>2026-03-29T07:31:43.781Z</time></trkpt><trkpt lat="42.8433533" lon="13.59206"><ele>261.6666666666667</ele><time>2026-03-29T07:31:45.78Z</time></trkpt><trkpt lat="42.8433183" lon="13.5919867"><ele>264.0</ele><time>2026-03-29T07:31:46.781Z</time></trkpt><trkpt lat="42.8432833" lon="13.5919133"><ele>266.3333333333333</ele><time>2026-03-29T07:31:47.78Z</time></trkpt><trkpt lat="42.8432283" lon="13.5918017"><ele>268.66666666666663</ele><time>2026-03-29T07:31:49.781Z</time></trkpt><trkpt lat="42.8431933" lon="13.59172"><ele>271.0</ele><time>2026-03-29T07:31:51.781Z</time></trkpt><trkpt lat="42.843135" lon="13.59164"><ele>273.0</ele><time>2026-03-29T07:32:28.78Z</time></trkpt><trkpt lat="42.843035" lon="13.5915217"><ele>275.0</ele><time>2026-03-29T07:32:30.78Z</time></trkpt><trkpt lat="42.8429733" lon="13.5914633"><ele>277.0</ele><time>2026-03-29T07:32:31.78Z</time></trkpt><trkpt lat="42.8429" lon="13.5913983"><ele>279.0</ele><time>2026-03-29T07:32:32.78Z</time></trkpt><trkpt lat="42.842815" lon="13.59133"><ele>281.0</ele><time>2026-03-29T07:32:33.78Z</time></trkpt><trkpt lat="42.8427317" lon="13.59126"><ele>281.0</ele><time>2026-03-29T07:32:34.78Z</time></trkpt><trkpt lat="42.84266" lon="13.5911867"><ele>281.0</ele><time>2026-03-29T07:32:35.78Z</time></trkpt><trkpt lat="42.8425867" lon="13.5911233"><ele>281.0</ele><time>2026-03-29T07:32:36.78Z</time></trkpt><trkpt lat="42.8425183" lon="13.591055"><ele>281.0</ele><time>2026-03-29T07:32:37.78Z</time></trkpt><trkpt lat="42.842445" lon="13.5909933"><ele>281.0</ele><time>2026-03-29T07:32:38.78Z</time></trkpt><trkpt lat="42.84236" lon="13.59094"><ele>281.0</ele><time>2026-03-29T07:32:39.78Z</time></trkpt><trkpt lat="42.8422683" lon="13.5909083"><ele>284.2</ele><time>2026-03-29T07:32:40.78Z</time></trkpt><trkpt lat="42.8421767" lon="13.5909017"><ele>287.40000000000003</ele><time>2026-03-29T07:32:41.78Z</time></trkpt><trkpt lat="42.8420867" lon="13.59091"><ele>290.6</ele><time>2026-03-29T07:32:42.78Z</time></trkpt><trkpt lat="42.8419917" lon="13.59092"><ele>293.8</ele><time>2026-03-29T07:32:43.78Z</time></trkpt><trkpt lat="42.8419" lon="13.59092"><ele>297.0</ele><time>2026-03-29T07:32:44.78Z</time></trkpt><trkpt lat="42.84181" lon="13.5909167"><ele>298.6666666666667</ele><time>2026-03-29T07:32:45.78Z</time></trkpt><trkpt lat="42.8417217" lon="13.59091"><ele>300.3333333333333</ele><time>2026-03-29T07:32:46.78Z</time></trkpt><trkpt lat="42.8416467" lon="13.5909217"><ele>302.0</ele><time>2026-03-29T07:32:47.78Z</time></trkpt><trkpt lat="42.8415683" lon="13.5909583"><ele>303.66666666666663</ele><time>2026-03-29T07:32:48.78Z</time></trkpt><trkpt lat="42.8415017" lon="13.5910067"><ele>305.3333333333333</ele><time>2026-03-29T07:32:49.78Z</time></trkpt><trkpt lat="42.8414533" lon="13.5910833"><ele>307.0</ele><time>2026-03-29T07:32:50.78Z</time></trkpt><trkpt lat="42.8414217" lon="13.5911683"><ele>307.2857142857143</ele><time>2026-03-29T07:32:51.78Z</time></trkpt><trkpt lat="42.8414333" lon="13.5912583"><ele>307.57142857142856</ele><time>2026-03-29T07:32:52.779Z</time></trkpt><trkpt lat="42.8414667" lon="13.59134"><ele>307.8571428571429</ele><time>2026-03-29T07:32:53.779Z</time></trkpt><trkpt lat="42.841515" lon="13.5913967"><ele>308.1428571428571</ele><time>2026-03-29T07:32:54.78Z</time></trkpt><trkpt lat="42.8415917" lon="13.5914217"><ele>308.42857142857144</ele><time>2026-03-29T07:32:55.78Z</time></trkpt><trkpt lat="42.8416733" lon="13.5914467"><ele>308.7142857142857</ele><time>2026-03-29T07:32:56.78Z</time></trkpt><trkpt lat="42.8417433" lon="13.5915017"><ele>309.0</ele><time>2026-03-29T07:32:57.779Z</time></trkpt><trkpt lat="42.8417917" lon="13.5915783"><ele>309.0</ele><time>2026-03-29T07:32:58.78Z</time></trkpt><trkpt lat="42.8418133" lon="13.59167"><ele>309.0</ele><time>2026-03-29T07:32:59.779Z</time></trkpt><trkpt lat="42.8418083" lon="13.591775"><ele>309.0</ele><time>2026-03-29T07:33:00.78Z</time></trkpt><trkpt lat="42.8417767" lon="13.59187"><ele>309.0</ele><time>2026-03-29T07:33:01.78Z</time></trkpt><trkpt lat="42.8417333" lon="13.5919617"><ele>309.0</ele><time>2026-03-29T07:33:02.779Z</time></trkpt><trkpt lat="42.8416867" lon="13.59205"><ele>309.0</ele><time>2026-03-29T07:33:03.78Z</time></trkpt><trkpt lat="42.8416267" lon="13.592125"><ele>308.1666666666667</ele><time>2026-03-29T07:33:04.78Z</time></trkpt><trkpt lat="42.8415667" lon="13.5921883"><ele>307.3333333333333</ele><time>2026-03-29T07:33:05.78Z</time></trkpt><trkpt lat="42.8415117" lon="13.5922667"><ele>306.5</ele><time>2026-03-29T07:33:06.78Z</time></trkpt><trkpt lat="42.8414533" lon="13.5923367"><ele>305.66666666666663</ele><time>2026-03-29T07:33:07.78Z</time></trkpt><trkpt lat="42.8413833" lon="13.592395"><ele>304.8333333333333</ele><time>2026-03-29T07:33:08.78Z</time></trkpt><trkpt lat="42.8413183" lon="13.5924367"><ele>304.0</ele><time>2026-03-29T07:33:09.78Z</time></trkpt><trkpt lat="42.8412467" lon="13.5924533"><ele>304.0</ele><time>2026-03-29T07:33:10.78Z</time></trkpt><trkpt lat="42.8411733" lon="13.59244"><ele>304.0</ele><time>2026-03-29T07:33:11.78Z</time></trkpt><trkpt lat="42.8411117" lon="13.592395"><ele>304.0</ele><time>2026-03-29T07:33:12.78Z</time></trkpt><trkpt lat="42.8410517" lon="13.5923217"><ele>304.0</ele><time>2026-03-29T07:33:13.78Z</time></trkpt><trkpt lat="42.840995" lon="13.5922317"><ele>304.0</ele><time>2026-03-29T07:33:14.78Z</time></trkpt><trkpt lat="42.840945" lon="13.5921383"><ele>304.0</ele><time>2026-03-29T07:33:15.78Z</time></trkpt><trkpt lat="42.8408917" lon="13.592045"><ele>309.79999999999995</ele><time>2026-03-29T07:33:16.78Z</time></trkpt><trkpt lat="42.8408333" lon="13.5919583"><ele>315.59999999999997</ele><time>2026-03-29T07:33:17.779Z</time></trkpt><trkpt lat="42.840775" lon="13.5918683"><ele>321.4</ele><time>2026-03-29T07:33:18.78Z</time></trkpt><trkpt lat="42.8407133" lon="13.5917767"><ele>327.2</ele><time>2026-03-29T07:33:19.78Z</time></trkpt><trkpt lat="42.8406417" lon="13.5916767"><ele>333.0</ele><time>2026-03-29T07:33:20.78Z</time></trkpt><trkpt lat="42.840585" lon="13.591595"><ele>333.0</ele><time>2026-03-29T07:33:21.779Z</time></trkpt><trkpt lat="42.8405217" lon="13.59154"><ele>333.0</ele><time>2026-03-29T07:33:22.78Z</time></trkpt><trkpt lat="42.840455" lon="13.5915117"><ele>333.0</ele><time>2026-03-29T07:33:23.78Z</time></trkpt><trkpt lat="42.840375" lon="13.59152"><ele>333.0</ele><time>2026-03-29T07:33:24.779Z</time></trkpt><trkpt lat="42.8402883" lon="13.5915467"><ele>333.0</ele><time>2026-03-29T07:33:25.78Z</time></trkpt><trkpt lat="42.8402" lon="13.5915667"><ele>333.0</ele><time>2026-03-29T07:33:26.78Z</time></trkpt><trkpt lat="42.8400967" lon="13.59155"><ele>335.79999999999995</ele><time>2026-03-29T07:33:27.779Z</time></trkpt><trkpt lat="42.8399933" lon="13.5915183"><ele>338.6</ele><time>2026-03-29T07:33:28.78Z</time></trkpt><trkpt lat="42.8398867" lon="13.5915"><ele>341.4</ele><time>2026-03-29T07:33:29.78Z</time></trkpt><trkpt lat="42.839775" lon="13.591465"><ele>344.20000000000005</ele><time>2026-03-29T07:33:30.78Z</time></trkpt><trkpt lat="42.8396667" lon="13.59144"><ele>347.0</ele><time>2026-03-29T07:33:31.78Z</time></trkpt><trkpt lat="42.839565" lon="13.5914317"><ele>347.0</ele><time>2026-03-29T07:33:32.78Z</time></trkpt><trkpt lat="42.839475" lon="13.5914733"><ele>347.0</ele><time>2026-03-29T07:33:33.779Z</time></trkpt><trkpt lat="42.8393817" lon="13.59152"><ele>347.0</ele><time>2026-03-29T07:33:34.78Z</time></trkpt><trkpt lat="42.8393083" lon="13.591615"><ele>347.0</ele><time>2026-03-29T07:33:35.78Z</time></trkpt><trkpt lat="42.839235" lon="13.5916967"><ele>347.0</ele><time>2026-03-29T07:33:36.78Z</time></trkpt><trkpt lat="42.83917" lon="13.5917567"><ele>349.6666666666667</ele><time>2026-03-29T07:33:37.78Z</time></trkpt><trkpt lat="42.8391083" lon="13.5918017"><ele>352.33333333333337</ele><time>2026-03-29T07:33:38.779Z</time></trkpt><trkpt lat="42.8390317" lon="13.5917517"><ele>355.0</ele><time>2026-03-29T07:33:40.779Z</time></trkpt><trkpt lat="42.8390033" lon="13.5916683"><ele>357.6666666666667</ele><time>2026-03-29T07:33:41.78Z</time></trkpt><trkpt lat="42.8389667" lon="13.5915583"><ele>360.3333333333333</ele><time>2026-03-29T07:33:42.779Z</time></trkpt><trkpt lat="42.8389167" lon="13.59145"><ele>363.0</ele><time>2026-03-29T07:33:43.78Z</time></trkpt><trkpt lat="42.838865" lon="13.5913383"><ele>363.0</ele><time>2026-03-29T07:33:44.78Z</time></trkpt><trkpt lat="42.838825" lon="13.591235"><ele>363.0</ele><time>2026-03-29T07:33:45.78Z</time></trkpt><trkpt lat="42.838765" lon="13.5911083"><ele>363.0</ele><time>2026-03-29T07:33:46.78Z</time></trkpt><trkpt lat="42.8387017" lon="13.5909833"><ele>363.0</ele><time>2026-03-29T07:33:47.78Z</time></trkpt><trkpt lat="42.8386367" lon="13.5908417"><ele>363.0</ele><time>2026-03-29T07:33:48.78Z</time></trkpt><trkpt lat="42.838575" lon="13.5906817"><ele>365.0</ele><time>2026-03-29T07:33:49.78Z</time></trkpt><trkpt lat="42.8384967" lon="13.59051"><ele>367.0</ele><time>2026-03-29T07:33:50.78Z</time></trkpt><trkpt lat="42.8384417" lon="13.5903233"><ele>369.0</ele><time>2026-03-29T07:33:51.779Z</time></trkpt><trkpt lat="42.8383917" lon="13.5901133"><ele>374.0</ele><time>2026-03-29T07:33:52.78Z</time></trkpt><trkpt lat="42.83833" lon="13.5899633"><ele>379.0</ele><time>2026-03-29T07:33:53.78Z</time></trkpt><trkpt lat="42.8382617" lon="13.5898283"><ele>384.0</ele><time>2026-03-29T07:33:54.78Z</time></trkpt><trkpt lat="42.8381883" lon="13.5897317"><ele>389.0</ele><time>2026-03-29T07:33:55.78Z</time></trkpt><trkpt lat="42.8381117" lon="13.5896567"><ele>394.0</ele><time>2026-03-29T07:33:56.78Z</time></trkpt><trkpt lat="42.83804" lon="13.5896083"><ele>394.0</ele><time>2026-03-29T07:33:57.78Z</time></trkpt><trkpt lat="42.83797" lon="13.5896017"><ele>394.0</ele><time>2026-03-29T07:33:58.779Z</time></trkpt><trkpt lat="42.837915" lon="13.58965"><ele>394.0</ele><time>2026-03-29T07:33:59.78Z</time></trkpt><trkpt lat="42.8378767" lon="13.5897283"><ele>394.0</ele><time>2026-03-29T07:34:00.78Z</time></trkpt><trkpt lat="42.8378417" lon="13.589865"><ele>394.0</ele><time>2026-03-29T07:34:01.78Z</time></trkpt><trkpt lat="42.8378033" lon="13.5900483"><ele>394.0</ele><time>2026-03-29T07:34:02.78Z</time></trkpt><trkpt lat="42.8377733" lon="13.590285"><ele>394.0</ele><time>2026-03-29T07:34:03.78Z</time></trkpt><trkpt lat="42.8377467" lon="13.5904817"><ele>394.0</ele><time>2026-03-29T07:34:04.78Z</time></trkpt><trkpt lat="42.83773" lon="13.5906283"><ele>394.0</ele><time>2026-03-29T07:34:05.78Z</time></trkpt><trkpt lat="42.83771" lon="13.59074"><ele>394.1666666666667</ele><time>2026-03-29T07:34:06.779Z</time></trkpt><trkpt lat="42.83767" lon="13.5908083"><ele>394.33333333333337</ele><time>2026-03-29T07:34:07.78Z</time></trkpt><trkpt lat="42.8375717" lon="13.590805"><ele>394.5</ele><time>2026-03-29T07:34:09.78Z</time></trkpt><trkpt lat="42.8375383" lon="13.5907"><ele>394.66666666666663</ele><time>2026-03-29T07:34:10.78Z</time></trkpt><trkpt lat="42.837495" lon="13.5905933"><ele>394.8333333333333</ele><time>2026-03-29T07:34:11.78Z</time></trkpt><trkpt lat="42.83745" lon="13.5905033"><ele>395.0</ele><time>2026-03-29T07:34:12.779Z</time></trkpt><trkpt lat="42.8374017" lon="13.5904367"><ele>399.49999999999994</ele><time>2026-03-29T07:34:13.78Z</time></trkpt><trkpt lat="42.8373167" lon="13.5904067"><ele>404.0</ele><time>2026-03-29T07:34:15.78Z</time></trkpt><trkpt lat="42.8372567" lon="13.59055"><ele>408.5</ele><time>2026-03-29T07:34:17.78Z</time></trkpt><trkpt lat="42.8372433" lon="13.5906683"><ele>413.0</ele><time>2026-03-29T07:34:18.779Z</time></trkpt><trkpt lat="42.8372217" lon="13.59078"><ele>417.49999999999994</ele><time>2026-03-29T07:34:19.78Z</time></trkpt><trkpt lat="42.837205" lon="13.5908633"><ele>422.0</ele><time>2026-03-29T07:34:20.78Z</time></trkpt><trkpt lat="42.8371333" lon="13.5909233"><ele>421.99999999999994</ele><time>2026-03-29T07:34:22.78Z</time></trkpt><trkpt lat="42.8370633" lon="13.5908633"><ele>422.0</ele><time>2026-03-29T07:34:24.78Z</time></trkpt><trkpt lat="42.8370433" lon="13.590775"><ele>422.0</ele><time>2026-03-29T07:34:25.78Z</time></trkpt><trkpt lat="42.8370133" lon="13.5906583"><ele>422.0</ele><time>2026-03-29T07:34:26.78Z</time></trkpt><trkpt lat="42.83697" lon="13.590535"><ele>421.99999999999994</ele><time>2026-03-29T07:34:27.78Z</time></trkpt><trkpt lat="42.8369067" lon="13.590425"><ele>422.0</ele><time>2026-03-29T07:34:28.78Z</time></trkpt><trkpt lat="42.8368283" lon="13.5903267"><ele>427.0</ele><time>2026-03-29T07:34:29.78Z</time></trkpt><trkpt lat="42.8367467" lon="13.5902617"><ele>432.0</ele><time>2026-03-29T07:34:30.78Z</time></trkpt><trkpt lat="42.8366633" lon="13.590225"><ele>437.00000000000006</ele><time>2026-03-29T07:34:31.78Z</time></trkpt><trkpt lat="42.836575" lon="13.5901967"><ele>442.0</ele><time>2026-03-29T07:34:32.78Z</time></trkpt><trkpt lat="42.836485" lon="13.590215"><ele>447.0</ele><time>2026-03-29T07:34:33.78Z</time></trkpt><trkpt lat="42.8363867" lon="13.5902983"><ele>446.6</ele><time>2026-03-29T07:34:34.78Z</time></trkpt><trkpt lat="42.8362983" lon="13.5903983"><ele>446.20000000000005</ele><time>2026-03-29T07:34:35.78Z</time></trkpt><trkpt lat="42.836225" lon="13.5905017"><ele>445.8</ele><time>2026-03-29T07:34:36.78Z</time></trkpt><trkpt lat="42.8361517" lon="13.5905833"><ele>445.4</ele><time>2026-03-29T07:34:37.78Z</time></trkpt><trkpt lat="42.8360883" lon="13.590635"><ele>445.0</ele><time>2026-03-29T07:34:38.779Z</time></trkpt><trkpt lat="42.8359833" lon="13.5906417"><ele>448.6</ele><time>2026-03-29T07:34:40.779Z</time></trkpt><trkpt lat="42.83592" lon="13.5905867"><ele>452.2</ele><time>2026-03-29T07:34:41.78Z</time></trkpt><trkpt lat="42.8358383" lon="13.5905233"><ele>455.79999999999995</ele><time>2026-03-29T07:34:42.78Z</time></trkpt><trkpt lat="42.8357383" lon="13.5904717"><ele>459.4</ele><time>2026-03-29T07:34:43.78Z</time></trkpt><trkpt lat="42.83563" lon="13.5904567"><ele>463.0</ele><time>2026-03-29T07:34:44.78Z</time></trkpt><trkpt lat="42.83552" lon="13.5904717"><ele>463.0</ele><time>2026-03-29T07:34:45.779Z</time></trkpt><trkpt lat="42.835425" lon="13.59049"><ele>462.99999999999994</ele><time>2026-03-29T07:34:46.78Z</time></trkpt><trkpt lat="42.8353533" lon="13.5904917"><ele>462.99999999999994</ele><time>2026-03-29T07:34:47.779Z</time></trkpt><trkpt lat="42.835275" lon="13.590465"><ele>463.0</ele><time>2026-03-29T07:34:48.78Z</time></trkpt><trkpt lat="42.835175" lon="13.5904217"><ele>463.0</ele><time>2026-03-29T07:34:49.78Z</time></trkpt><trkpt lat="42.8350817" lon="13.5903817"><ele>466.0</ele><time>2026-03-29T07:34:50.78Z</time></trkpt><trkpt lat="42.8350017" lon="13.5903533"><ele>468.99999999999994</ele><time>2026-03-29T07:34:51.78Z</time></trkpt><trkpt lat="42.83492" lon="13.5903133"><ele>471.99999999999994</ele><time>2026-03-29T07:34:52.779Z</time></trkpt><trkpt lat="42.8348333" lon="13.5902733"><ele>475.0</ele><time>2026-03-29T07:34:53.78Z</time></trkpt><trkpt lat="42.834725" lon="13.59024"><ele>478.0</ele><time>2026-03-29T07:34:54.779Z</time></trkpt><trkpt lat="42.8346133" lon="13.5902317"><ele>480.0</ele><time>2026-03-29T07:34:55.779Z</time></trkpt><trkpt lat="42.8345" lon="13.5902417"><ele>481.99999999999994</ele><time>2026-03-29T07:34:56.779Z</time></trkpt><trkpt lat="42.8343883" lon="13.5902667"><ele>483.99999999999994</ele><time>2026-03-29T07:34:57.78Z</time></trkpt><trkpt lat="42.8342917" lon="13.590285"><ele>486.0</ele><time>2026-03-29T07:34:58.779Z</time></trkpt><trkpt lat="42.8342167" lon="13.590285"><ele>488.0</ele><time>2026-03-29T07:34:59.78Z</time></trkpt><trkpt lat="42.8341417" lon="13.5902983"><ele>490.66666666666663</ele><time>2026-03-29T07:35:00.78Z</time></trkpt><trkpt lat="42.8340733" lon="13.59033"><ele>493.3333333333333</ele><time>2026-03-29T07:35:01.78Z</time></trkpt><trkpt lat="42.8339733" lon="13.5904017"><ele>496.0</ele><time>2026-03-29T07:35:03.78Z</time></trkpt><trkpt lat="42.833915" lon="13.5904583"><ele>498.66666666666663</ele><time>2026-03-29T07:35:06.78Z</time></trkpt><trkpt lat="42.8339033" lon="13.59056"><ele>501.3333333333333</ele><time>2026-03-29T07:35:21.78Z</time></trkpt><trkpt lat="42.83389" lon="13.59069"><ele>504.0</ele><time>2026-03-29T07:35:23.779Z</time></trkpt><trkpt lat="42.83388" lon="13.5907833"><ele>504.0</ele><time>2026-03-29T07:35:24.78Z</time></trkpt><trkpt lat="42.833865" lon="13.5908833"><ele>504.0</ele><time>2026-03-29T07:35:25.779Z</time></trkpt><trkpt lat="42.83385" lon="13.5909783"><ele>504.0</ele><time>2026-03-29T07:35:26.779Z</time></trkpt><trkpt lat="42.8338433" lon="13.591125"><ele>504.0</ele><time>2026-03-29T07:35:28.78Z</time></trkpt><trkpt lat="42.8338183" lon="13.5912417"><ele>504.0</ele><time>2026-03-29T07:35:30.779Z</time></trkpt><trkpt lat="42.8337533" lon="13.5913417"><ele>504.0</ele><time>2026-03-29T07:35:32.78Z</time></trkpt><trkpt lat="42.8336633" lon="13.591405"><ele>504.2</ele><time>2026-03-29T07:35:34.78Z</time></trkpt><trkpt lat="42.83355" lon="13.5914067"><ele>504.4</ele><time>2026-03-29T07:35:36.78Z</time></trkpt><trkpt lat="42.833455" lon="13.5913367"><ele>504.6</ele><time>2026-03-29T07:35:38.78Z</time></trkpt><trkpt lat="42.833385" lon="13.591285"><ele>504.8</ele><time>2026-03-29T07:35:40.779Z</time></trkpt><trkpt lat="42.833345" lon="13.5912167"><ele>505.0</ele><time>2026-03-29T07:35:44.779Z</time></trkpt><trkpt lat="42.83326" lon="13.5911883"><ele>506.83333333333337</ele><time>2026-03-29T07:35:46.779Z</time></trkpt><trkpt lat="42.8331967" lon="13.5911767"><ele>508.6666666666667</ele><time>2026-03-29T07:35:47.779Z</time></trkpt><trkpt lat="42.8331183" lon="13.5911817"><ele>510.5</ele><time>2026-03-29T07:35:48.779Z</time></trkpt><trkpt lat="42.8330317" lon="13.5912"><ele>512.3333333333334</ele><time>2026-03-29T07:35:49.779Z</time></trkpt><trkpt lat="42.8329433" lon="13.59124"><ele>514.1666666666666</ele><time>2026-03-29T07:35:50.779Z</time></trkpt><trkpt lat="42.8328683" lon="13.5912717"><ele>516.0</ele><time>2026-03-29T07:35:51.779Z</time></trkpt><trkpt lat="42.83277" lon="13.59127"><ele>516.0</ele><time>2026-03-29T07:35:53.779Z</time></trkpt><trkpt lat="42.8326767" lon="13.591205"><ele>516.0</ele><time>2026-03-29T07:35:55.779Z</time></trkpt><trkpt lat="42.8326017" lon="13.5911633"><ele>516.0</ele><time>2026-03-29T07:35:57.779Z</time></trkpt><trkpt lat="42.8324767" lon="13.5910967"><ele>516.0</ele><time>2026-03-29T07:35:59.779Z</time></trkpt><trkpt lat="42.8323967" lon="13.5910383"><ele>516.0</ele><time>2026-03-29T07:36:00.779Z</time></trkpt><trkpt lat="42.83231" lon="13.5909417"><ele>521.0</ele><time>2026-03-29T07:36:01.779Z</time></trkpt><trkpt lat="42.8322483" lon="13.590805"><ele>526.0</ele><time>2026-03-29T07:36:02.779Z</time></trkpt><trkpt lat="42.8322083" lon="13.5906633"><ele>531.0</ele><time>2026-03-29T07:36:03.779Z</time></trkpt><trkpt lat="42.8321983" lon="13.5905133"><ele>536.0</ele><time>2026-03-29T07:36:04.779Z</time></trkpt><trkpt lat="42.8321883" lon="13.5903783"><ele>541.0</ele><time>2026-03-29T07:36:05.779Z</time></trkpt><trkpt lat="42.8321717" lon="13.5902367"><ele>544.4</ele><time>2026-03-29T07:36:06.779Z</time></trkpt><trkpt lat="42.8321533" lon="13.5900917"><ele>547.8</ele><time>2026-03-29T07:36:07.779Z</time></trkpt><trkpt lat="42.8321333" lon="13.5899467"><ele>551.1999999999999</ele><time>2026-03-29T07:36:08.779Z</time></trkpt><trkpt lat="42.8321117" lon="13.5898083"><ele>554.6</ele><time>2026-03-29T07:36:09.779Z</time></trkpt><trkpt lat="42.83209" lon="13.5896783"><ele>558.0</ele><time>2026-03-29T07:36:10.779Z</time></trkpt><trkpt lat="42.8320617" lon="13.5895567"><ele>560.1999999999999</ele><time>2026-03-29T07:36:11.778Z</time></trkpt><trkpt lat="42.8320233" lon="13.58943"><ele>562.4</ele><time>2026-03-29T07:36:12.779Z</time></trkpt><trkpt lat="42.8319917" lon="13.58931"><ele>564.5999999999999</ele><time>2026-03-29T07:36:13.779Z</time></trkpt><trkpt lat="42.83196" lon="13.5891883"><ele>566.8</ele><time>2026-03-29T07:36:14.779Z</time></trkpt><trkpt lat="42.8319267" lon="13.5890633"><ele>569.0</ele><time>2026-03-29T07:36:15.778Z</time></trkpt><trkpt lat="42.831885" lon="13.58894"><ele>569.0</ele><time>2026-03-29T07:36:16.778Z</time></trkpt><trkpt lat="42.8318283" lon="13.5888117"><ele>569.0</ele><time>2026-03-29T07:36:17.778Z</time></trkpt><trkpt lat="42.8317667" lon="13.5886967"><ele>569.0</ele><time>2026-03-29T07:36:18.779Z</time></trkpt><trkpt lat="42.8316933" lon="13.5885933"><ele>569.0</ele><time>2026-03-29T07:36:19.779Z</time></trkpt><trkpt lat="42.8316" lon="13.5885167"><ele>569.0</ele><time>2026-03-29T07:36:20.779Z</time></trkpt><trkpt lat="42.831505" lon="13.588445"><ele>565.4</ele><time>2026-03-29T07:36:21.779Z</time></trkpt><trkpt lat="42.8314033" lon="13.5883867"><ele>561.8</ele><time>2026-03-29T07:36:22.779Z</time></trkpt><trkpt lat="42.8313033" lon="13.5883267"><ele>558.2</ele><time>2026-03-29T07:36:23.779Z</time></trkpt><trkpt lat="42.831205" lon="13.5882683"><ele>554.6</ele><time>2026-03-29T07:36:24.779Z</time></trkpt><trkpt lat="42.8311033" lon="13.5882083"><ele>551.0</ele><time>2026-03-29T07:36:25.779Z</time></trkpt><trkpt lat="42.83099" lon="13.588155"><ele>550.5</ele><time>2026-03-29T07:36:26.779Z</time></trkpt><trkpt lat="42.8308817" lon="13.5880933"><ele>550.0</ele><time>2026-03-29T07:36:27.779Z</time></trkpt><trkpt lat="42.83077" lon="13.5880267"><ele>549.5</ele><time>2026-03-29T07:36:28.779Z</time></trkpt><trkpt lat="42.83066" lon="13.587975"><ele>549.0</ele><time>2026-03-29T07:36:29.779Z</time></trkpt><trkpt lat="42.8305633" lon="13.5879283"><ele>549.0</ele><time>2026-03-29T07:36:30.779Z</time></trkpt><trkpt lat="42.8304717" lon="13.5879033"><ele>549.0</ele><time>2026-03-29T07:36:31.779Z</time></trkpt><trkpt lat="42.83039" lon="13.5879133"><ele>549.0</ele><time>2026-03-29T07:36:32.779Z</time></trkpt><trkpt lat="42.8303133" lon="13.5879417"><ele>549.0</ele><time>2026-03-29T07:36:33.778Z</time></trkpt><trkpt lat="42.8301933" lon="13.5879633"><ele>549.0</ele><time>2026-03-29T07:36:35.779Z</time></trkpt><trkpt lat="42.83009" lon="13.5878767"><ele>550.8333333333334</ele><time>2026-03-29T07:36:37.779Z</time></trkpt><trkpt lat="42.8300183" lon="13.5877517"><ele>552.6666666666666</ele><time>2026-03-29T07:36:39.779Z</time></trkpt><trkpt lat="42.8299617" lon="13.5876367"><ele>554.5</ele><time>2026-03-29T07:36:41.779Z</time></trkpt><trkpt lat="42.8299317" lon="13.5875567"><ele>556.3333333333333</ele><time>2026-03-29T07:36:42.779Z</time></trkpt><trkpt lat="42.8299117" lon="13.5874567"><ele>558.1666666666666</ele><time>2026-03-29T07:36:43.779Z</time></trkpt><trkpt lat="42.8298883" lon="13.58734"><ele>560.0</ele><time>2026-03-29T07:36:44.779Z</time></trkpt><trkpt lat="42.8298633" lon="13.5872183"><ele>560.0</ele><time>2026-03-29T07:36:45.779Z</time></trkpt><trkpt lat="42.8298383" lon="13.58709"><ele>560.0</ele><time>2026-03-29T07:36:46.779Z</time></trkpt><trkpt lat="42.8298067" lon="13.5869567"><ele>560.0</ele><time>2026-03-29T07:36:47.779Z</time></trkpt><trkpt lat="42.8297767" lon="13.586835"><ele>560.0</ele><time>2026-03-29T07:36:48.779Z</time></trkpt><trkpt lat="42.829735" lon="13.5867317"><ele>560.0</ele><time>2026-03-29T07:36:49.779Z</time></trkpt><trkpt lat="42.8297033" lon="13.5866317"><ele>561.1666666666666</ele><time>2026-03-29T07:36:50.779Z</time></trkpt><trkpt lat="42.82968" lon="13.5865367"><ele>562.3333333333333</ele><time>2026-03-29T07:36:51.779Z</time></trkpt><trkpt lat="42.8296717" lon="13.58644"><ele>563.5</ele><time>2026-03-29T07:36:52.779Z</time></trkpt><trkpt lat="42.8296917" lon="13.5863567"><ele>564.6666666666666</ele><time>2026-03-29T07:36:53.779Z</time></trkpt><trkpt lat="42.8297367" lon="13.5862917"><ele>565.8333333333334</ele><time>2026-03-29T07:36:54.779Z</time></trkpt><trkpt lat="42.8298067" lon="13.5862467"><ele>567.0</ele><time>2026-03-29T07:36:55.778Z</time></trkpt><trkpt lat="42.8299033" lon="13.5862133"><ele>567.8000000000001</ele><time>2026-03-29T07:36:56.779Z</time></trkpt><trkpt lat="42.8300133" lon="13.5861667"><ele>568.6</ele><time>2026-03-29T07:36:57.779Z</time></trkpt><trkpt lat="42.8301133" lon="13.586115"><ele>569.4000000000001</ele><time>2026-03-29T07:36:58.779Z</time></trkpt><trkpt lat="42.8302017" lon="13.5860567"><ele>570.2</ele><time>2026-03-29T07:36:59.779Z</time></trkpt><trkpt lat="42.83028" lon="13.5859967"><ele>571.0</ele><time>2026-03-29T07:37:00.779Z</time></trkpt><trkpt lat="42.8303567" lon="13.58593"><ele>571.0</ele><time>2026-03-29T07:37:01.779Z</time></trkpt><trkpt lat="42.8304267" lon="13.5858633"><ele>571.0</ele><time>2026-03-29T07:37:02.778Z</time></trkpt><trkpt lat="42.8304933" lon="13.5857917"><ele>571.0</ele><time>2026-03-29T07:37:03.779Z</time></trkpt><trkpt lat="42.8305433" lon="13.58573"><ele>571.0</ele><time>2026-03-29T07:37:04.779Z</time></trkpt><trkpt lat="42.8306067" lon="13.585645"><ele>571.0</ele><time>2026-03-29T07:37:06.779Z</time></trkpt><trkpt lat="42.830695" lon="13.5856383"><ele>571.0</ele><time>2026-03-29T07:37:10.779Z</time></trkpt><trkpt lat="42.830755" lon="13.58569"><ele>571.0</ele><time>2026-03-29T07:37:12.779Z</time></trkpt><trkpt lat="42.830845" lon="13.58577"><ele>571.0</ele><time>2026-03-29T07:37:14.779Z</time></trkpt><trkpt lat="42.8309183" lon="13.585785"><ele>571.0</ele><time>2026-03-29T07:37:16.779Z</time></trkpt><trkpt lat="42.8309733" lon="13.5858833"><ele>571.0</ele><time>2026-03-29T07:37:21.779Z</time></trkpt><trkpt lat="42.8310217" lon="13.5859867"><ele>571.0</ele><time>2026-03-29T07:37:23.779Z</time></trkpt><trkpt lat="42.8310783" lon="13.5860767"><ele>571.0</ele><time>2026-03-29T07:37:25.779Z</time></trkpt><trkpt lat="42.831145" lon="13.58615"><ele>568.0</ele><time>2026-03-29T07:37:27.778Z</time></trkpt><trkpt lat="42.8312433" lon="13.58621"><ele>565.0</ele><time>2026-03-29T07:37:29.779Z</time></trkpt><trkpt lat="42.83133" lon="13.5862033"><ele>562.0</ele><time>2026-03-29T07:37:31.779Z</time></trkpt><trkpt lat="42.831415" lon="13.586145"><ele>559.0</ele><time>2026-03-29T07:37:33.779Z</time></trkpt><trkpt lat="42.8315017" lon="13.5860817"><ele>556.0</ele><time>2026-03-29T07:37:35.779Z</time></trkpt><trkpt lat="42.8315633" lon="13.5860533"><ele>556.0</ele><time>2026-03-29T07:37:36.779Z</time></trkpt><trkpt lat="42.8316217" lon="13.5860167"><ele>556.0</ele><time>2026-03-29T07:37:37.779Z</time></trkpt><trkpt lat="42.8316783" lon="13.5859767"><ele>556.0</ele><time>2026-03-29T07:37:38.779Z</time></trkpt><trkpt lat="42.83174" lon="13.5859467"><ele>556.0</ele><time>2026-03-29T07:37:39.779Z</time></trkpt><trkpt lat="42.8318033" lon="13.58591"><ele>556.0</ele><time>2026-03-29T07:37:40.778Z</time></trkpt><trkpt lat="42.8318617" lon="13.5858683"><ele>556.0</ele><time>2026-03-29T07:37:41.779Z</time></trkpt><trkpt lat="42.8319233" lon="13.5858317"><ele>556.0</ele><time>2026-03-29T07:37:42.779Z</time></trkpt><trkpt lat="42.8319817" lon="13.58579"><ele>552.7142857142857</ele><time>2026-03-29T07:37:43.779Z</time></trkpt><trkpt lat="42.8320417" lon="13.5857517"><ele>549.4285714285714</ele><time>2026-03-29T07:37:44.779Z</time></trkpt><trkpt lat="42.8321033" lon="13.58571"><ele>546.1428571428571</ele><time>2026-03-29T07:37:45.779Z</time></trkpt><trkpt lat="42.8321583" lon="13.585665"><ele>542.8571428571429</ele><time>2026-03-29T07:37:46.779Z</time></trkpt><trkpt lat="42.8322233" lon="13.5856133"><ele>539.5714285714286</ele><time>2026-03-29T07:37:47.779Z</time></trkpt><trkpt lat="42.8322833" lon="13.58556"><ele>536.2857142857142</ele><time>2026-03-29T07:37:48.779Z</time></trkpt><trkpt lat="42.83235" lon="13.585505"><ele>533.0</ele><time>2026-03-29T07:37:49.778Z</time></trkpt><trkpt lat="42.8324467" lon="13.5854167"><ele>533.0</ele><time>2026-03-29T07:37:51.779Z</time></trkpt><trkpt lat="42.8325583" lon="13.5853717"><ele>533.0</ele><time>2026-03-29T07:37:53.779Z</time></trkpt><trkpt lat="42.8326533" lon="13.5853233"><ele>533.0</ele><time>2026-03-29T07:37:55.778Z</time></trkpt><trkpt lat="42.8327733" lon="13.5852617"><ele>533.0</ele><time>2026-03-29T07:37:57.778Z</time></trkpt><trkpt lat="42.83284" lon="13.5852167"><ele>533.0</ele><time>2026-03-29T07:37:58.778Z</time></trkpt><trkpt lat="42.8329217" lon="13.585155"><ele>531.5</ele><time>2026-03-29T07:37:59.779Z</time></trkpt><trkpt lat="42.8330017" lon="13.5851017"><ele>530.0</ele><time>2026-03-29T07:38:00.779Z</time></trkpt><trkpt lat="42.8330733" lon="13.5850467"><ele>528.5</ele><time>2026-03-29T07:38:01.779Z</time></trkpt><trkpt lat="42.8331367" lon="13.584975"><ele>527.0</ele><time>2026-03-29T07:38:02.779Z</time></trkpt><trkpt lat="42.833195" lon="13.5849083"><ele>525.5</ele><time>2026-03-29T07:38:03.779Z</time></trkpt><trkpt lat="42.8332517" lon="13.5848383"><ele>524.0</ele><time>2026-03-29T07:38:04.778Z</time></trkpt><trkpt lat="42.8333" lon="13.5847683"><ele>524.0</ele><time>2026-03-29T07:38:05.779Z</time></trkpt><trkpt lat="42.8333883" lon="13.584675"><ele>524.0</ele><time>2026-03-29T07:38:07.779Z</time></trkpt><trkpt lat="42.83348" lon="13.58463"><ele>524.0</ele><time>2026-03-29T07:38:09.779Z</time></trkpt><trkpt lat="42.8335733" lon="13.584565"><ele>524.0</ele><time>2026-03-29T07:38:11.779Z</time></trkpt><trkpt lat="42.8336467" lon="13.58447"><ele>524.0</ele><time>2026-03-29T07:38:13.779Z</time></trkpt><trkpt lat="42.8336783" lon="13.5843917"><ele>523.0</ele><time>2026-03-29T07:38:14.779Z</time></trkpt><trkpt lat="42.8337033" lon="13.5842967"><ele>522.0</ele><time>2026-03-29T07:38:15.779Z</time></trkpt><trkpt lat="42.8337417" lon="13.5841783"><ele>521.0</ele><time>2026-03-29T07:38:16.779Z</time></trkpt><trkpt lat="42.8337883" lon="13.5840433"><ele>520.0</ele><time>2026-03-29T07:38:17.779Z</time></trkpt><trkpt lat="42.8338333" lon="13.5839483"><ele>519.0</ele><time>2026-03-29T07:38:18.779Z</time></trkpt><trkpt lat="42.8339183" lon="13.5838433"><ele>519.0</ele><time>2026-03-29T07:38:20.779Z</time></trkpt><trkpt lat="42.834" lon="13.583795"><ele>519.0</ele><time>2026-03-29T07:38:22.779Z</time></trkpt><trkpt lat="42.8341167" lon="13.5837167"><ele>519.0</ele><time>2026-03-29T07:38:24.779Z</time></trkpt><trkpt lat="42.834175" lon="13.58368"><ele>519.0</ele><time>2026-03-29T07:38:25.779Z</time></trkpt><trkpt lat="42.834245" lon="13.5836433"><ele>519.0</ele><time>2026-03-29T07:38:26.779Z</time></trkpt><trkpt lat="42.8343217" lon="13.5836167"><ele>519.0</ele><time>2026-03-29T07:38:27.779Z</time></trkpt><trkpt lat="42.83441" lon="13.5835883"><ele>520.2</ele><time>2026-03-29T07:38:28.778Z</time></trkpt><trkpt lat="42.8344983" lon="13.5835633"><ele>521.4</ele><time>2026-03-29T07:38:29.779Z</time></trkpt><trkpt lat="42.83459" lon="13.58354"><ele>522.6</ele><time>2026-03-29T07:38:30.779Z</time></trkpt><trkpt lat="42.834675" lon="13.5835317"><ele>523.8</ele><time>2026-03-29T07:38:31.779Z</time></trkpt><trkpt lat="42.8347467" lon="13.5835333"><ele>525.0</ele><time>2026-03-29T07:38:32.779Z</time></trkpt><trkpt lat="42.8348583" lon="13.58352"><ele>525.0</ele><time>2026-03-29T07:38:34.779Z</time></trkpt><trkpt lat="42.8349183" lon="13.5834717"><ele>525.0</ele><time>2026-03-29T07:38:35.779Z</time></trkpt><trkpt lat="42.8349633" lon="13.5833967"><ele>525.0</ele><time>2026-03-29T07:38:36.779Z</time></trkpt><trkpt lat="42.8350183" lon="13.5833067"><ele>525.0</ele><time>2026-03-29T07:38:37.778Z</time></trkpt><trkpt lat="42.835065" lon="13.5832067"><ele>525.0</ele><time>2026-03-29T07:38:38.779Z</time></trkpt><trkpt lat="42.8351067" lon="13.583105"><ele>525.0</ele><time>2026-03-29T07:38:39.778Z</time></trkpt><trkpt lat="42.835145" lon="13.5830017"><ele>523.1428571428571</ele><time>2026-03-29T07:38:40.779Z</time></trkpt><trkpt lat="42.835175" lon="13.5829033"><ele>521.2857142857142</ele><time>2026-03-29T07:38:41.779Z</time></trkpt><trkpt lat="42.835205" lon="13.5827983"><ele>519.4285714285714</ele><time>2026-03-29T07:38:42.779Z</time></trkpt><trkpt lat="42.83523" lon="13.582705"><ele>517.5714285714286</ele><time>2026-03-29T07:38:43.779Z</time></trkpt><trkpt lat="42.83526" lon="13.582625"><ele>515.7142857142857</ele><time>2026-03-29T07:38:44.779Z</time></trkpt><trkpt lat="42.835295" lon="13.58255"><ele>513.8571428571429</ele><time>2026-03-29T07:38:45.779Z</time></trkpt><trkpt lat="42.8353283" lon="13.58247"><ele>512.0</ele><time>2026-03-29T07:38:46.778Z</time></trkpt><trkpt lat="42.8353683" lon="13.5823383"><ele>512.0</ele><time>2026-03-29T07:38:48.779Z</time></trkpt><trkpt lat="42.8354" lon="13.582185"><ele>512.0</ele><time>2026-03-29T07:38:50.779Z</time></trkpt><trkpt lat="42.8354017" lon="13.5820517"><ele>512.0</ele><time>2026-03-29T07:38:52.778Z</time></trkpt><trkpt lat="42.83541" lon="13.581945"><ele>512.0</ele><time>2026-03-29T07:38:54.778Z</time></trkpt><trkpt lat="42.8354433" lon="13.5818117"><ele>512.0</ele><time>2026-03-29T07:38:56.779Z</time></trkpt><trkpt lat="42.8354717" lon="13.5816633"><ele>512.0</ele><time>2026-03-29T07:38:58.779Z</time></trkpt><trkpt lat="42.8354817" lon="13.5814967"><ele>512.0</ele><time>2026-03-29T07:39:00.779Z</time></trkpt><trkpt lat="42.835475" lon="13.5813283"><ele>512.0</ele><time>2026-03-29T07:39:02.779Z</time></trkpt><trkpt lat="42.8354783" lon="13.581165"><ele>512.0</ele><time>2026-03-29T07:39:04.779Z</time></trkpt><trkpt lat="42.8354883" lon="13.5810767"><ele>512.0</ele><time>2026-03-29T07:39:05.779Z</time></trkpt><trkpt lat="42.83549" lon="13.5809833"><ele>512.8000000000001</ele><time>2026-03-29T07:39:06.779Z</time></trkpt><trkpt lat="42.83549" lon="13.5808217"><ele>513.6</ele><time>2026-03-29T07:39:08.779Z</time></trkpt><trkpt lat="42.835485" lon="13.5806733"><ele>514.4000000000001</ele><time>2026-03-29T07:39:10.779Z</time></trkpt><trkpt lat="42.8354783" lon="13.580585"><ele>515.2</ele><time>2026-03-29T07:39:11.779Z</time></trkpt><trkpt lat="42.83546" lon="13.5804233"><ele>516.0</ele><time>2026-03-29T07:39:13.779Z</time></trkpt><trkpt lat="42.83545" lon="13.5803033"><ele>516.0</ele><time>2026-03-29T07:39:15.779Z</time></trkpt><trkpt lat="42.8353917" lon="13.5802467"><ele>516.0</ele><time>2026-03-29T07:39:18.779Z</time></trkpt><trkpt lat="42.83532" lon="13.580335"><ele>516.0</ele><time>2026-03-29T07:39:21.778Z</time></trkpt><trkpt lat="42.8352433" lon="13.580415"><ele>516.0</ele><time>2026-03-29T07:39:24.779Z</time></trkpt><trkpt lat="42.835185" lon="13.5804783"><ele>516.0</ele><time>2026-03-29T07:39:26.779Z</time></trkpt><trkpt lat="42.835125" lon="13.5806133"><ele>520.3333333333334</ele><time>2026-03-29T07:39:28.779Z</time></trkpt><trkpt lat="42.8351033" lon="13.5807"><ele>524.6666666666666</ele><time>2026-03-29T07:39:29.779Z</time></trkpt><trkpt lat="42.8350683" lon="13.5807833"><ele>529.0</ele><time>2026-03-29T07:39:30.778Z</time></trkpt><trkpt lat="42.834985" lon="13.5808917"><ele>533.3333333333333</ele><time>2026-03-29T07:39:32.779Z</time></trkpt><trkpt lat="42.8349183" lon="13.5809167"><ele>537.6666666666666</ele><time>2026-03-29T07:39:34.779Z</time></trkpt><trkpt lat="42.8348267" lon="13.5808683"><ele>542.0</ele><time>2026-03-29T07:39:36.778Z</time></trkpt><trkpt lat="42.8347433" lon="13.580775"><ele>542.0</ele><time>2026-03-29T07:39:38.778Z</time></trkpt><trkpt lat="42.8346817" lon="13.5806767"><ele>542.0</ele><time>2026-03-29T07:39:40.778Z</time></trkpt><trkpt lat="42.834625" lon="13.5805767"><ele>542.0</ele><time>2026-03-29T07:39:42.778Z</time></trkpt><trkpt lat="42.8345717" lon="13.5804467"><ele>542.0</ele><time>2026-03-29T07:39:44.778Z</time></trkpt><trkpt lat="42.83451" lon="13.5802983"><ele>542.0</ele><time>2026-03-29T07:39:46.777Z</time></trkpt><trkpt lat="42.8344867" lon="13.5802183"><ele>542.5</ele><time>2026-03-29T07:39:47.778Z</time></trkpt><trkpt lat="42.8344333" lon="13.5800917"><ele>543.0</ele><time>2026-03-29T07:39:49.777Z</time></trkpt><trkpt lat="42.8343933" lon="13.5800083"><ele>543.5</ele><time>2026-03-29T07:39:51.778Z</time></trkpt><trkpt lat="42.8344117" lon="13.57991"><ele>544.0</ele><time>2026-03-29T07:39:53.778Z</time></trkpt><trkpt lat="42.83445" lon="13.5798067"><ele>544.5</ele><time>2026-03-29T07:39:55.778Z</time></trkpt><trkpt lat="42.8344683" lon="13.579695"><ele>545.0</ele><time>2026-03-29T07:39:57.777Z</time></trkpt><trkpt lat="42.83446" lon="13.5795533"><ele>546.0</ele><time>2026-03-29T07:39:59.778Z</time></trkpt><trkpt lat="42.8344483" lon="13.5794033"><ele>547.0</ele><time>2026-03-29T07:40:01.778Z</time></trkpt><trkpt lat="42.8344717" lon="13.5792383"><ele>548.0</ele><time>2026-03-29T07:40:03.778Z</time></trkpt><trkpt lat="42.8345217" lon="13.5791433"><ele>549.0</ele><time>2026-03-29T07:40:05.778Z</time></trkpt><trkpt lat="42.8346017" lon="13.5790533"><ele>550.0</ele><time>2026-03-29T07:40:07.777Z</time></trkpt><trkpt lat="42.8346733" lon="13.5789583"><ele>550.0</ele><time>2026-03-29T07:40:09.778Z</time></trkpt><trkpt lat="42.8347033" lon="13.5788283"><ele>550.0</ele><time>2026-03-29T07:40:11.778Z</time></trkpt><trkpt lat="42.8347017" lon="13.578675"><ele>550.0</ele><time>2026-03-29T07:40:13.777Z</time></trkpt><trkpt lat="42.8346867" lon="13.5785683"><ele>550.0</ele><time>2026-03-29T07:40:15.778Z</time></trkpt><trkpt lat="42.8346783" lon="13.57846"><ele>550.0</ele><time>2026-03-29T07:40:17.778Z</time></trkpt><trkpt lat="42.834645" lon="13.5783333"><ele>551.6</ele><time>2026-03-29T07:40:19.778Z</time></trkpt><trkpt lat="42.8345567" lon="13.5783233"><ele>553.2</ele><time>2026-03-29T07:40:22.778Z</time></trkpt><trkpt lat="42.8344883" lon="13.5782983"><ele>554.8</ele><time>2026-03-29T07:40:25.777Z</time></trkpt><trkpt lat="42.8344733" lon="13.5782133"><ele>556.4</ele><time>2026-03-29T07:40:27.778Z</time></trkpt><trkpt lat="42.8344617" lon="13.57809"><ele>558.0</ele><time>2026-03-29T07:40:29.778Z</time></trkpt><trkpt lat="42.8344317" lon="13.577875"><ele>559.1999999999999</ele><time>2026-03-29T07:42:55.778Z</time></trkpt><trkpt lat="42.8344417" lon="13.5777383"><ele>560.4</ele><time>2026-03-29T07:42:57.778Z</time></trkpt><trkpt lat="42.834485" lon="13.57764"><ele>561.5999999999999</ele><time>2026-03-29T07:42:59.777Z</time></trkpt><trkpt lat="42.8345383" lon="13.57754"><ele>562.8</ele><time>2026-03-29T07:43:01.778Z</time></trkpt><trkpt lat="42.8345983" lon="13.5774333"><ele>564.0</ele><time>2026-03-29T07:43:03.778Z</time></trkpt><trkpt lat="42.8346683" lon="13.5773467"><ele>564.0</ele><time>2026-03-29T07:43:05.778Z</time></trkpt><trkpt lat="42.8347567" lon="13.57723"><ele>564.0</ele><time>2026-03-29T07:43:07.778Z</time></trkpt><trkpt lat="42.83481" lon="13.577105"><ele>564.0</ele><time>2026-03-29T07:43:09.778Z</time></trkpt><trkpt lat="42.83487" lon="13.5769967"><ele>564.0</ele><time>2026-03-29T07:43:11.778Z</time></trkpt><trkpt lat="42.8348767" lon="13.5768767"><ele>564.0</ele><time>2026-03-29T07:43:13.778Z</time></trkpt><trkpt lat="42.83487" lon="13.5767233"><ele>563.0</ele><time>2026-03-29T07:43:15.778Z</time></trkpt><trkpt lat="42.83488" lon="13.5765867"><ele>562.0</ele><time>2026-03-29T07:43:17.777Z</time></trkpt><trkpt lat="42.8348833" lon="13.5764533"><ele>561.0</ele><time>2026-03-29T07:43:19.777Z</time></trkpt><trkpt lat="42.8349033" lon="13.5763"><ele>560.0</ele><time>2026-03-29T07:43:21.778Z</time></trkpt><trkpt lat="42.8348883" lon="13.5761467"><ele>559.0</ele><time>2026-03-29T07:43:23.778Z</time></trkpt><trkpt lat="42.83489" lon="13.5760267"><ele>558.0</ele><time>2026-03-29T07:43:25.777Z</time></trkpt><trkpt lat="42.8349383" lon="13.575965"><ele>557.0</ele><time>2026-03-29T07:43:27.778Z</time></trkpt><trkpt lat="42.83501" lon="13.5759183"><ele>556.0</ele><time>2026-03-29T07:43:29.778Z</time></trkpt><trkpt lat="42.8350717" lon="13.5758417"><ele>555.0</ele><time>2026-03-29T07:43:31.778Z</time></trkpt><trkpt lat="42.8351383" lon="13.5757817"><ele>554.0</ele><time>2026-03-29T07:43:34.778Z</time></trkpt><trkpt lat="42.8352167" lon="13.57584"><ele>553.0</ele><time>2026-03-29T07:43:38.778Z</time></trkpt><trkpt lat="42.8352567" lon="13.5759267"><ele>550.6</ele><time>2026-03-29T07:43:40.778Z</time></trkpt><trkpt lat="42.8353" lon="13.5760583"><ele>548.1999999999999</ele><time>2026-03-29T07:43:42.778Z</time></trkpt><trkpt lat="42.8353633" lon="13.5761517"><ele>545.8</ele><time>2026-03-29T07:43:44.778Z</time></trkpt><trkpt lat="42.835445" lon="13.5762017"><ele>543.4</ele><time>2026-03-29T07:43:46.778Z</time></trkpt><trkpt lat="42.83553" lon="13.5761"><ele>541.0</ele><time>2026-03-29T07:43:49.778Z</time></trkpt><trkpt lat="42.83555" lon="13.57601"><ele>540.6</ele><time>2026-03-29T07:43:50.777Z</time></trkpt><trkpt lat="42.83556" lon="13.575855"><ele>540.2</ele><time>2026-03-29T07:43:52.777Z</time></trkpt><trkpt lat="42.8355583" lon="13.5757383"><ele>539.8</ele><time>2026-03-29T07:43:54.778Z</time></trkpt><trkpt lat="42.8355483" lon="13.5756017"><ele>539.4</ele><time>2026-03-29T07:43:56.777Z</time></trkpt><trkpt lat="42.8355767" lon="13.575465"><ele>539.0</ele><time>2026-03-29T07:43:58.778Z</time></trkpt><trkpt lat="42.8356567" lon="13.5753367"><ele>538.3333333333333</ele><time>2026-03-29T07:44:00.778Z</time></trkpt><trkpt lat="42.8357" lon="13.57527"><ele>537.6666666666666</ele><time>2026-03-29T07:44:01.778Z</time></trkpt><trkpt lat="42.835775" lon="13.5751817"><ele>537.0</ele><time>2026-03-29T07:44:03.778Z</time></trkpt><trkpt lat="42.835885" lon="13.5751983"><ele>536.3333333333334</ele><time>2026-03-29T07:44:05.778Z</time></trkpt><trkpt lat="42.8359483" lon="13.5752517"><ele>535.6666666666667</ele><time>2026-03-29T07:44:06.778Z</time></trkpt><trkpt lat="42.836" lon="13.5753267"><ele>535.0</ele><time>2026-03-29T07:44:07.778Z</time></trkpt><trkpt lat="42.8360517" lon="13.5754433"><ele>530.4</ele><time>2026-03-29T07:44:08.778Z</time></trkpt><trkpt lat="42.8360967" lon="13.5755617"><ele>525.8</ele><time>2026-03-29T07:44:09.778Z</time></trkpt><trkpt lat="42.8361283" lon="13.5756883"><ele>521.2</ele><time>2026-03-29T07:44:10.778Z</time></trkpt><trkpt lat="42.836155" lon="13.5758067"><ele>516.6</ele><time>2026-03-29T07:44:11.778Z</time></trkpt><trkpt lat="42.8361783" lon="13.57593"><ele>512.0</ele><time>2026-03-29T07:44:12.778Z</time></trkpt><trkpt lat="42.8361833" lon="13.576025"><ele>512.0</ele><time>2026-03-29T07:44:13.778Z</time></trkpt><trkpt lat="42.836195" lon="13.5761417"><ele>512.0</ele><time>2026-03-29T07:44:15.778Z</time></trkpt><trkpt lat="42.83625" lon="13.57596"><ele>512.0</ele><time>2026-03-29T07:44:19.778Z</time></trkpt><trkpt lat="42.8362533" lon="13.57586"><ele>512.0</ele><time>2026-03-29T07:44:20.778Z</time></trkpt><trkpt lat="42.83627" lon="13.5757283"><ele>512.0</ele><time>2026-03-29T07:44:21.778Z</time></trkpt><trkpt lat="42.8362967" lon="13.575595"><ele>512.0</ele><time>2026-03-29T07:44:22.778Z</time></trkpt><trkpt lat="42.836345" lon="13.5754533"><ele>512.0</ele><time>2026-03-29T07:44:23.778Z</time></trkpt><trkpt lat="42.8363767" lon="13.5753117"><ele>512.0</ele><time>2026-03-29T07:44:24.778Z</time></trkpt><trkpt lat="42.836385" lon="13.5751733"><ele>512.0</ele><time>2026-03-29T07:44:25.778Z</time></trkpt><trkpt lat="42.836395" lon="13.5750333"><ele>512.0</ele><time>2026-03-29T07:44:26.777Z</time></trkpt><trkpt lat="42.836415" lon="13.5749117"><ele>511.49999999999994</ele><time>2026-03-29T07:44:27.778Z</time></trkpt><trkpt lat="42.8364467" lon="13.5747833"><ele>511.0</ele><time>2026-03-29T07:44:28.778Z</time></trkpt><trkpt lat="42.8364967" lon="13.5746783"><ele>510.5</ele><time>2026-03-29T07:44:29.778Z</time></trkpt><trkpt lat="42.8365517" lon="13.5745933"><ele>510.0</ele><time>2026-03-29T07:44:30.778Z</time></trkpt><trkpt lat="42.8366017" lon="13.5745333"><ele>509.49999999999994</ele><time>2026-03-29T07:44:31.778Z</time></trkpt><trkpt lat="42.83667" lon="13.5745133"><ele>509.0</ele><time>2026-03-29T07:44:32.778Z</time></trkpt><trkpt lat="42.8367317" lon="13.57461"><ele>508.99999999999994</ele><time>2026-03-29T07:44:34.778Z</time></trkpt><trkpt lat="42.836745" lon="13.574695"><ele>509.0</ele><time>2026-03-29T07:44:35.778Z</time></trkpt><trkpt lat="42.8367517" lon="13.5747967"><ele>508.99999999999994</ele><time>2026-03-29T07:44:36.777Z</time></trkpt><trkpt lat="42.8367667" lon="13.5748967"><ele>508.99999999999994</ele><time>2026-03-29T07:44:37.778Z</time></trkpt><trkpt lat="42.8367917" lon="13.5749867"><ele>509.0</ele><time>2026-03-29T07:44:38.778Z</time></trkpt><trkpt lat="42.8368317" lon="13.5750567"><ele>508.99999999999994</ele><time>2026-03-29T07:44:39.778Z</time></trkpt><trkpt lat="42.8369183" lon="13.5750583"><ele>508.99999999999994</ele><time>2026-03-29T07:44:41.778Z</time></trkpt><trkpt lat="42.8369633" lon="13.5749117"><ele>505.16666666666663</ele><time>2026-03-29T07:44:43.778Z</time></trkpt><trkpt lat="42.836985" lon="13.5748083"><ele>501.3333333333333</ele><time>2026-03-29T07:44:44.777Z</time></trkpt><trkpt lat="42.837005" lon="13.5747017"><ele>497.5</ele><time>2026-03-29T07:44:45.778Z</time></trkpt><trkpt lat="42.83703" lon="13.5746117"><ele>493.66666666666663</ele><time>2026-03-29T07:44:46.777Z</time></trkpt><trkpt lat="42.8370683" lon="13.5744817"><ele>489.8333333333333</ele><time>2026-03-29T07:44:48.777Z</time></trkpt><trkpt lat="42.837025" lon="13.5744033"><ele>486.0</ele><time>2026-03-29T07:44:50.778Z</time></trkpt><trkpt lat="42.8369067" lon="13.574295"><ele>485.5</ele><time>2026-03-29T07:44:52.778Z</time></trkpt><trkpt lat="42.8368333" lon="13.5741867"><ele>485.0</ele><time>2026-03-29T07:44:53.778Z</time></trkpt><trkpt lat="42.8367467" lon="13.5740333"><ele>484.5</ele><time>2026-03-29T07:44:54.777Z</time></trkpt><trkpt lat="42.836665" lon="13.573865"><ele>484.0</ele><time>2026-03-29T07:44:55.778Z</time></trkpt><trkpt lat="42.8365933" lon="13.5737117"><ele>487.6</ele><time>2026-03-29T07:44:56.778Z</time></trkpt><trkpt lat="42.836525" lon="13.573575"><ele>491.2</ele><time>2026-03-29T07:44:57.778Z</time></trkpt><trkpt lat="42.836485" lon="13.5734467"><ele>494.80000000000007</ele><time>2026-03-29T07:44:58.778Z</time></trkpt><trkpt lat="42.836475" lon="13.5733183"><ele>498.40000000000003</ele><time>2026-03-29T07:44:59.778Z</time></trkpt><trkpt lat="42.8364817" lon="13.5731783"><ele>502.0</ele><time>2026-03-29T07:45:00.778Z</time></trkpt><trkpt lat="42.8365133" lon="13.57302"><ele>502.0</ele><time>2026-03-29T07:45:01.778Z</time></trkpt><trkpt lat="42.8365383" lon="13.5728783"><ele>502.00000000000006</ele><time>2026-03-29T07:45:02.778Z</time></trkpt><trkpt lat="42.8365467" lon="13.5727533"><ele>502.00000000000006</ele><time>2026-03-29T07:45:03.778Z</time></trkpt><trkpt lat="42.8365433" lon="13.5726317"><ele>502.0</ele><time>2026-03-29T07:45:04.778Z</time></trkpt><trkpt lat="42.8365183" lon="13.5725083"><ele>502.0</ele><time>2026-03-29T07:45:05.778Z</time></trkpt><trkpt lat="42.8364767" lon="13.5723933"><ele>502.40000000000003</ele><time>2026-03-29T07:45:06.777Z</time></trkpt><trkpt lat="42.8364133" lon="13.572285"><ele>502.80000000000007</ele><time>2026-03-29T07:45:07.778Z</time></trkpt><trkpt lat="42.836345" lon="13.5721933"><ele>503.2</ele><time>2026-03-29T07:45:08.778Z</time></trkpt><trkpt lat="42.8362733" lon="13.57213"><ele>503.6</ele><time>2026-03-29T07:45:09.778Z</time></trkpt><trkpt lat="42.8361817" lon="13.57209"><ele>504.0</ele><time>2026-03-29T07:45:10.778Z</time></trkpt><trkpt lat="42.83609" lon="13.5720517"><ele>504.0</ele><time>2026-03-29T07:45:11.778Z</time></trkpt><trkpt lat="42.836005" lon="13.5719933"><ele>504.0</ele><time>2026-03-29T07:45:12.777Z</time></trkpt><trkpt lat="42.8359317" lon="13.571925"><ele>504.0</ele><time>2026-03-29T07:45:13.778Z</time></trkpt><trkpt lat="42.8358767" lon="13.5718567"><ele>504.0</ele><time>2026-03-29T07:45:14.777Z</time></trkpt><trkpt lat="42.8358267" lon="13.5718017"><ele>504.0</ele><time>2026-03-29T07:45:15.778Z</time></trkpt><trkpt lat="42.8357667" lon="13.57169"><ele>504.0</ele><time>2026-03-29T07:45:17.777Z</time></trkpt><trkpt lat="42.8357567" lon="13.5715833"><ele>507.3333333333333</ele><time>2026-03-29T07:45:19.778Z</time></trkpt><trkpt lat="42.8357333" lon="13.5714833"><ele>510.66666666666663</ele><time>2026-03-29T07:45:21.778Z</time></trkpt><trkpt lat="42.83567" lon="13.5714"><ele>514.0</ele><time>2026-03-29T07:45:23.778Z</time></trkpt><trkpt lat="42.8356583" lon="13.5712933"><ele>517.3333333333333</ele><time>2026-03-29T07:45:25.778Z</time></trkpt><trkpt lat="42.8356733" lon="13.5712033"><ele>520.6666666666666</ele><time>2026-03-29T07:45:26.778Z</time></trkpt><trkpt lat="42.835705" lon="13.5710833"><ele>524.0</ele><time>2026-03-29T07:45:27.778Z</time></trkpt><trkpt lat="42.8357517" lon="13.5709633"><ele>524.8</ele><time>2026-03-29T07:45:28.778Z</time></trkpt><trkpt lat="42.8357883" lon="13.5708517"><ele>525.5999999999999</ele><time>2026-03-29T07:45:29.778Z</time></trkpt><trkpt lat="42.8358117" lon="13.5707433"><ele>526.4</ele><time>2026-03-29T07:45:30.777Z</time></trkpt><trkpt lat="42.83582" lon="13.5706267"><ele>527.1999999999999</ele><time>2026-03-29T07:45:31.778Z</time></trkpt><trkpt lat="42.83583" lon="13.57049"><ele>528.0</ele><time>2026-03-29T07:45:32.778Z</time></trkpt><trkpt lat="42.8358367" lon="13.5703667"><ele>528.3333333333334</ele><time>2026-03-29T07:45:33.778Z</time></trkpt><trkpt lat="42.8358383" lon="13.570265"><ele>528.6666666666666</ele><time>2026-03-29T07:45:34.778Z</time></trkpt><trkpt lat="42.8358283" lon="13.5701683"><ele>529.0</ele><time>2026-03-29T07:45:35.778Z</time></trkpt><trkpt lat="42.835805" lon="13.5700767"><ele>529.3333333333333</ele><time>2026-03-29T07:45:36.777Z</time></trkpt><trkpt lat="42.8357767" lon="13.5699517"><ele>529.6666666666666</ele><time>2026-03-29T07:45:37.778Z</time></trkpt><trkpt lat="42.8357617" lon="13.5698133"><ele>530.0</ele><time>2026-03-29T07:45:38.778Z</time></trkpt><trkpt lat="42.8357633" lon="13.5696983"><ele>530.0</ele><time>2026-03-29T07:45:39.776Z</time></trkpt><trkpt lat="42.8357833" lon="13.5695933"><ele>530.0</ele><time>2026-03-29T07:45:40.777Z</time></trkpt><trkpt lat="42.8358467" lon="13.5695217"><ele>530.0</ele><time>2026-03-29T07:45:41.777Z</time></trkpt><trkpt lat="42.8358783" lon="13.56943"><ele>530.0</ele><time>2026-03-29T07:45:42.777Z</time></trkpt><trkpt lat="42.8359017" lon="13.5693333"><ele>530.0</ele><time>2026-03-29T07:45:43.777Z</time></trkpt><trkpt lat="42.8359117" lon="13.56922"><ele>530.0</ele><time>2026-03-29T07:45:44.777Z</time></trkpt><trkpt lat="42.8359117" lon="13.5690983"><ele>531.0</ele><time>2026-03-29T07:45:45.777Z</time></trkpt><trkpt lat="42.8359167" lon="13.5689767"><ele>532.0</ele><time>2026-03-29T07:45:46.777Z</time></trkpt><trkpt lat="42.83592" lon="13.56884"><ele>533.0</ele><time>2026-03-29T07:45:47.777Z</time></trkpt><trkpt lat="42.8359283" lon="13.5687033"><ele>534.0</ele><time>2026-03-29T07:45:48.776Z</time></trkpt><trkpt lat="42.8359233" lon="13.5685817"><ele>535.0</ele><time>2026-03-29T07:45:49.777Z</time></trkpt><trkpt lat="42.8359233" lon="13.568475"><ele>535.3333333333334</ele><time>2026-03-29T07:45:50.777Z</time></trkpt><trkpt lat="42.835935" lon="13.5683767"><ele>535.6666666666667</ele><time>2026-03-29T07:45:51.777Z</time></trkpt><trkpt lat="42.8359533" lon="13.5682717"><ele>536.0</ele><time>2026-03-29T07:45:52.777Z</time></trkpt><trkpt lat="42.8359733" lon="13.5681767"><ele>536.3333333333334</ele><time>2026-03-29T07:45:53.777Z</time></trkpt><trkpt lat="42.836015" lon="13.5680283"><ele>536.6666666666666</ele><time>2026-03-29T07:45:55.777Z</time></trkpt><trkpt lat="42.8360333" lon="13.567945"><ele>537.0</ele><time>2026-03-29T07:45:56.777Z</time></trkpt><trkpt lat="42.83605" lon="13.5678533"><ele>535.6</ele><time>2026-03-29T07:45:57.777Z</time></trkpt><trkpt lat="42.8360467" lon="13.5677517"><ele>534.2</ele><time>2026-03-29T07:45:58.777Z</time></trkpt><trkpt lat="42.83603" lon="13.5676467"><ele>532.8</ele><time>2026-03-29T07:45:59.776Z</time></trkpt><trkpt lat="42.8360067" lon="13.5675233"><ele>531.4</ele><time>2026-03-29T07:46:00.776Z</time></trkpt><trkpt lat="42.8359767" lon="13.567385"><ele>530.0</ele><time>2026-03-29T07:46:01.777Z</time></trkpt><trkpt lat="42.835945" lon="13.5672567"><ele>530.0</ele><time>2026-03-29T07:46:02.777Z</time></trkpt><trkpt lat="42.835925" lon="13.56716"><ele>530.0</ele><time>2026-03-29T07:46:03.777Z</time></trkpt><trkpt lat="42.8359217" lon="13.5670733"><ele>530.0</ele><time>2026-03-29T07:46:04.777Z</time></trkpt><trkpt lat="42.83594" lon="13.5669567"><ele>530.0</ele><time>2026-03-29T07:46:05.777Z</time></trkpt><trkpt lat="42.8359617" lon="13.5668383"><ele>530.0</ele><time>2026-03-29T07:46:06.777Z</time></trkpt><trkpt lat="42.8359667" lon="13.5667183"><ele>530.0</ele><time>2026-03-29T07:46:07.777Z</time></trkpt><trkpt lat="42.8359617" lon="13.566625"><ele>529.0</ele><time>2026-03-29T07:46:08.777Z</time></trkpt><trkpt lat="42.8359267" lon="13.56648"><ele>528.0</ele><time>2026-03-29T07:46:10.777Z</time></trkpt><trkpt lat="42.83586" lon="13.566345"><ele>527.0</ele><time>2026-03-29T07:46:12.777Z</time></trkpt><trkpt lat="42.8357683" lon="13.5662167"><ele>526.0</ele><time>2026-03-29T07:46:14.777Z</time></trkpt><trkpt lat="42.83572" lon="13.5661583"><ele>525.0</ele><time>2026-03-29T07:46:15.777Z</time></trkpt><trkpt lat="42.83567" lon="13.5661033"><ele>524.0</ele><time>2026-03-29T07:46:16.777Z</time></trkpt><trkpt lat="42.835615" lon="13.566055"><ele>523.0</ele><time>2026-03-29T07:46:17.777Z</time></trkpt><trkpt lat="42.8355233" lon="13.5659783"><ele>522.0</ele><time>2026-03-29T07:46:19.777Z</time></trkpt><trkpt lat="42.8355283" lon="13.5658667"><ele>521.0</ele><time>2026-03-29T07:46:21.777Z</time></trkpt><trkpt lat="42.8354767" lon="13.5657267"><ele>520.0</ele><time>2026-03-29T07:46:23.777Z</time></trkpt><trkpt lat="42.835365" lon="13.56564"><ele>520.0</ele><time>2026-03-29T07:46:25.776Z</time></trkpt><trkpt lat="42.8352967" lon="13.5655933"><ele>520.0</ele><time>2026-03-29T07:46:26.776Z</time></trkpt><trkpt lat="42.83524" lon="13.5655533"><ele>520.0</ele><time>2026-03-29T07:46:27.777Z</time></trkpt><trkpt lat="42.835185" lon="13.5655017"><ele>520.0</ele><time>2026-03-29T07:46:28.777Z</time></trkpt><trkpt lat="42.835085" lon="13.565415"><ele>520.0</ele><time>2026-03-29T07:46:30.777Z</time></trkpt><trkpt lat="42.83499" lon="13.56541"><ele>520.0</ele><time>2026-03-29T07:46:32.777Z</time></trkpt><trkpt lat="42.8348817" lon="13.5654383"><ele>524.0</ele><time>2026-03-29T07:46:34.777Z</time></trkpt><trkpt lat="42.8347717" lon="13.56543"><ele>528.0</ele><time>2026-03-29T07:46:36.776Z</time></trkpt><trkpt lat="42.8346467" lon="13.5654417"><ele>532.0</ele><time>2026-03-29T07:46:38.777Z</time></trkpt><trkpt lat="42.8345783" lon="13.565465"><ele>536.0</ele><time>2026-03-29T07:46:39.777Z</time></trkpt><trkpt lat="42.8345033" lon="13.5654933"><ele>540.0</ele><time>2026-03-29T07:46:40.776Z</time></trkpt><trkpt lat="42.83443" lon="13.5655167"><ele>540.0</ele><time>2026-03-29T07:46:41.777Z</time></trkpt><trkpt lat="42.8343667" lon="13.5655417"><ele>540.0</ele><time>2026-03-29T07:46:42.777Z</time></trkpt><trkpt lat="42.8342917" lon="13.565555"><ele>540.0</ele><time>2026-03-29T07:46:43.777Z</time></trkpt><trkpt lat="42.83417" lon="13.565585"><ele>540.0</ele><time>2026-03-29T07:46:45.776Z</time></trkpt><trkpt lat="42.8340533" lon="13.5656167"><ele>540.0</ele><time>2026-03-29T07:46:47.777Z</time></trkpt><trkpt lat="42.8339483" lon="13.5656583"><ele>541.4</ele><time>2026-03-29T07:46:49.777Z</time></trkpt><trkpt lat="42.8338283" lon="13.5656567"><ele>542.8</ele><time>2026-03-29T07:46:51.777Z</time></trkpt><trkpt lat="42.8337083" lon="13.565605"><ele>544.2</ele><time>2026-03-29T07:46:53.776Z</time></trkpt><trkpt lat="42.833645" lon="13.5656033"><ele>545.6</ele><time>2026-03-29T07:46:54.776Z</time></trkpt><trkpt lat="42.8335867" lon="13.5656367"><ele>547.0</ele><time>2026-03-29T07:46:55.777Z</time></trkpt><trkpt lat="42.8334733" lon="13.5656733"><ele>547.0</ele><time>2026-03-29T07:46:57.777Z</time></trkpt><trkpt lat="42.8334083" lon="13.5656867"><ele>547.0</ele><time>2026-03-29T07:46:58.777Z</time></trkpt><trkpt lat="42.83329" lon="13.5657417"><ele>547.0</ele><time>2026-03-29T07:47:00.777Z</time></trkpt><trkpt lat="42.8332333" lon="13.5657867"><ele>547.0</ele><time>2026-03-29T07:47:01.777Z</time></trkpt><trkpt lat="42.833135" lon="13.56587"><ele>547.0</ele><time>2026-03-29T07:47:03.777Z</time></trkpt><trkpt lat="42.8330317" lon="13.565935"><ele>547.0</ele><time>2026-03-29T07:47:05.777Z</time></trkpt><trkpt lat="42.83294" lon="13.5659733"><ele>547.0</ele><time>2026-03-29T07:47:07.777Z</time></trkpt><trkpt lat="42.8328383" lon="13.56601"><ele>547.0</ele><time>2026-03-29T07:47:09.777Z</time></trkpt><trkpt lat="42.8327767" lon="13.56603"><ele>547.0</ele><time>2026-03-29T07:47:10.777Z</time></trkpt><trkpt lat="42.8327133" lon="13.5660517"><ele>547.0</ele><time>2026-03-29T07:47:11.777Z</time></trkpt><trkpt lat="42.8326417" lon="13.5660867"><ele>547.0</ele><time>2026-03-29T07:47:12.777Z</time></trkpt><trkpt lat="42.8325783" lon="13.5661117"><ele>547.0</ele><time>2026-03-29T07:47:13.777Z</time></trkpt><trkpt lat="42.8324617" lon="13.5661717"><ele>547.0</ele><time>2026-03-29T07:47:15.777Z</time></trkpt><trkpt lat="42.8324067" lon="13.566225"><ele>547.0</ele><time>2026-03-29T07:47:16.777Z</time></trkpt><trkpt lat="42.8323517" lon="13.5662867"><ele>547.0</ele><time>2026-03-29T07:47:17.777Z</time></trkpt><trkpt lat="42.8323033" lon="13.566345"><ele>547.0</ele><time>2026-03-29T07:47:18.777Z</time></trkpt><trkpt lat="42.8322517" lon="13.566405"><ele>547.0</ele><time>2026-03-29T07:47:19.777Z</time></trkpt><trkpt lat="42.8321583" lon="13.566465"><ele>552.2</ele><time>2026-03-29T07:47:21.777Z</time></trkpt><trkpt lat="42.8320317" lon="13.5664033"><ele>557.4000000000001</ele><time>2026-03-29T07:47:23.777Z</time></trkpt><trkpt lat="42.8319533" lon="13.566355"><ele>562.5999999999999</ele><time>2026-03-29T07:47:24.776Z</time></trkpt><trkpt lat="42.831885" lon="13.5663133"><ele>567.8</ele><time>2026-03-29T07:47:25.777Z</time></trkpt><trkpt lat="42.8317933" lon="13.5662383"><ele>573.0</ele><time>2026-03-29T07:47:27.777Z</time></trkpt><trkpt lat="42.8317" lon="13.56625"><ele>574.0</ele><time>2026-03-29T07:47:29.777Z</time></trkpt><trkpt lat="42.8316083" lon="13.5662167"><ele>575.0</ele><time>2026-03-29T07:47:31.777Z</time></trkpt><trkpt lat="42.831545" lon="13.5661033"><ele>576.0</ele><time>2026-03-29T07:47:33.777Z</time></trkpt><trkpt lat="42.8314883" lon="13.566"><ele>577.0</ele><time>2026-03-29T07:47:34.777Z</time></trkpt><trkpt lat="42.8314183" lon="13.56589"><ele>578.0</ele><time>2026-03-29T07:47:35.777Z</time></trkpt><trkpt lat="42.8313533" lon="13.5658033"><ele>574.0</ele><time>2026-03-29T07:47:36.777Z</time></trkpt><trkpt lat="42.8312633" lon="13.5656733"><ele>570.0</ele><time>2026-03-29T07:47:38.777Z</time></trkpt><trkpt lat="42.83122" lon="13.5655767"><ele>566.0</ele><time>2026-03-29T07:47:39.776Z</time></trkpt><trkpt lat="42.83117" lon="13.565495"><ele>562.0</ele><time>2026-03-29T07:47:40.776Z</time></trkpt><trkpt lat="42.8311067" lon="13.5654017"><ele>558.0</ele><time>2026-03-29T07:47:41.777Z</time></trkpt><trkpt lat="42.8310367" lon="13.5653033"><ele>558.8333333333334</ele><time>2026-03-29T07:47:42.777Z</time></trkpt><trkpt lat="42.8309783" lon="13.5652117"><ele>559.6666666666666</ele><time>2026-03-29T07:47:43.777Z</time></trkpt><trkpt lat="42.83093" lon="13.5651233"><ele>560.5</ele><time>2026-03-29T07:47:44.777Z</time></trkpt><trkpt lat="42.8308867" lon="13.565055"><ele>561.3333333333333</ele><time>2026-03-29T07:47:45.777Z</time></trkpt><trkpt lat="42.83084" lon="13.5649917"><ele>562.1666666666666</ele><time>2026-03-29T07:47:46.777Z</time></trkpt><trkpt lat="42.8307717" lon="13.5649317"><ele>563.0</ele><time>2026-03-29T07:47:47.777Z</time></trkpt><trkpt lat="42.83068" lon="13.56489"><ele>563.0</ele><time>2026-03-29T07:47:48.777Z</time></trkpt><trkpt lat="42.830595" lon="13.5648683"><ele>563.0</ele><time>2026-03-29T07:47:49.777Z</time></trkpt><trkpt lat="42.8305083" lon="13.5648467"><ele>563.0</ele><time>2026-03-29T07:47:50.776Z</time></trkpt><trkpt lat="42.8304217" lon="13.5648233"><ele>563.0</ele><time>2026-03-29T07:47:51.777Z</time></trkpt><trkpt lat="42.8303333" lon="13.564825"><ele>563.0</ele><time>2026-03-29T07:47:52.777Z</time></trkpt><trkpt lat="42.83024" lon="13.5648483"><ele>563.0</ele><time>2026-03-29T07:47:53.777Z</time></trkpt><trkpt lat="42.8301333" lon="13.5648733"><ele>563.0</ele><time>2026-03-29T07:47:54.776Z</time></trkpt><trkpt lat="42.8300333" lon="13.564895"><ele>563.0</ele><time>2026-03-29T07:47:55.777Z</time></trkpt><trkpt lat="42.8299417" lon="13.56492"><ele>563.0</ele><time>2026-03-29T07:47:56.777Z</time></trkpt><trkpt lat="42.8298517" lon="13.5649467"><ele>563.0</ele><time>2026-03-29T07:47:57.777Z</time></trkpt><trkpt lat="42.829775" lon="13.5649617"><ele>563.0</ele><time>2026-03-29T07:47:58.777Z</time></trkpt><trkpt lat="42.829705" lon="13.56496"><ele>563.0</ele><time>2026-03-29T07:47:59.777Z</time></trkpt><trkpt lat="42.8295983" lon="13.564965"><ele>563.0</ele><time>2026-03-29T07:48:01.776Z</time></trkpt><trkpt lat="42.82954" lon="13.5650083"><ele>563.0</ele><time>2026-03-29T07:48:03.777Z</time></trkpt><trkpt lat="42.8295033" lon="13.5651367"><ele>563.0</ele><time>2026-03-29T07:48:05.777Z</time></trkpt><trkpt lat="42.8294333" lon="13.5652333"><ele>563.0</ele><time>2026-03-29T07:48:07.777Z</time></trkpt><trkpt lat="42.8293717" lon="13.5652633"><ele>563.0</ele><time>2026-03-29T07:48:08.777Z</time></trkpt><trkpt lat="42.8292933" lon="13.56537"><ele>563.0</ele><time>2026-03-29T07:48:10.777Z</time></trkpt><trkpt lat="42.8291967" lon="13.565465"><ele>565.6</ele><time>2026-03-29T07:48:12.777Z</time></trkpt><trkpt lat="42.8291267" lon="13.5655083"><ele>568.1999999999999</ele><time>2026-03-29T07:48:13.777Z</time></trkpt><trkpt lat="42.8290617" lon="13.5655483"><ele>570.8</ele><time>2026-03-29T07:48:14.776Z</time></trkpt><trkpt lat="42.8289667" lon="13.5656117"><ele>573.4</ele><time>2026-03-29T07:48:16.777Z</time></trkpt><trkpt lat="42.8288783" lon="13.565685"><ele>576.0</ele><time>2026-03-29T07:48:18.777Z</time></trkpt><trkpt lat="42.82878" lon="13.5657567"><ele>576.0</ele><time>2026-03-29T07:48:20.777Z</time></trkpt><trkpt lat="42.8286733" lon="13.5658433"><ele>576.0</ele><time>2026-03-29T07:48:22.777Z</time></trkpt><trkpt lat="42.828625" lon="13.5659117"><ele>576.0</ele><time>2026-03-29T07:48:23.777Z</time></trkpt><trkpt lat="42.82858" lon="13.5660733"><ele>576.0</ele><time>2026-03-29T07:48:25.777Z</time></trkpt><trkpt lat="42.8285733" lon="13.5661633"><ele>576.0</ele><time>2026-03-29T07:48:26.777Z</time></trkpt><trkpt lat="42.8285683" lon="13.5662883"><ele>577.8571428571429</ele><time>2026-03-29T07:48:28.777Z</time></trkpt><trkpt lat="42.828465" lon="13.566365"><ele>579.7142857142858</ele><time>2026-03-29T07:48:30.777Z</time></trkpt><trkpt lat="42.8284" lon="13.5663817"><ele>581.5714285714286</ele><time>2026-03-29T07:48:31.777Z</time></trkpt><trkpt lat="42.828335" lon="13.5663867"><ele>583.4285714285714</ele><time>2026-03-29T07:48:32.777Z</time></trkpt><trkpt lat="42.82827" lon="13.5663883"><ele>585.2857142857142</ele><time>2026-03-29T07:48:33.777Z</time></trkpt><trkpt lat="42.8282067" lon="13.5663883"><ele>587.1428571428571</ele><time>2026-03-29T07:48:34.777Z</time></trkpt><trkpt lat="42.82814" lon="13.5663667"><ele>589.0</ele><time>2026-03-29T07:48:35.777Z</time></trkpt><trkpt lat="42.82802" lon="13.5663117"><ele>589.0</ele><time>2026-03-29T07:48:37.777Z</time></trkpt><trkpt lat="42.827965" lon="13.56626"><ele>589.0</ele><time>2026-03-29T07:48:38.777Z</time></trkpt><trkpt lat="42.827875" lon="13.5661867"><ele>589.0</ele><time>2026-03-29T07:48:40.777Z</time></trkpt><trkpt lat="42.82779" lon="13.56623"><ele>589.0</ele><time>2026-03-29T07:48:43.777Z</time></trkpt><trkpt lat="42.8277483" lon="13.5663333"><ele>589.0</ele><time>2026-03-29T07:48:46.777Z</time></trkpt><trkpt lat="42.827655" lon="13.5663783"><ele>589.0</ele><time>2026-03-29T07:48:49.777Z</time></trkpt><trkpt lat="42.827585" lon="13.56643"><ele>588.8</ele><time>2026-03-29T07:48:52.776Z</time></trkpt><trkpt lat="42.8275783" lon="13.5665367"><ele>588.5999999999999</ele><time>2026-03-29T07:48:54.777Z</time></trkpt><trkpt lat="42.827595" lon="13.5666817"><ele>588.4</ele><time>2026-03-29T07:48:56.777Z</time></trkpt><trkpt lat="42.8275933" lon="13.566835"><ele>588.1999999999999</ele><time>2026-03-29T07:48:58.776Z</time></trkpt><trkpt lat="42.8275117" lon="13.5669433"><ele>588.0</ele><time>2026-03-29T07:49:00.777Z</time></trkpt><trkpt lat="42.8274133" lon="13.5670483"><ele>591.4</ele><time>2026-03-29T07:49:02.777Z</time></trkpt><trkpt lat="42.8273683" lon="13.5671683"><ele>594.8</ele><time>2026-03-29T07:49:04.777Z</time></trkpt><trkpt lat="42.8274067" lon="13.56728"><ele>598.2</ele><time>2026-03-29T07:49:06.777Z</time></trkpt><trkpt lat="42.8274933" lon="13.5673233"><ele>601.6</ele><time>2026-03-29T07:49:08.777Z</time></trkpt><trkpt lat="42.8276217" lon="13.5673167"><ele>605.0</ele><time>2026-03-29T07:49:10.776Z</time></trkpt><trkpt lat="42.827695" lon="13.5672983"><ele>606.6666666666666</ele><time>2026-03-29T07:49:11.777Z</time></trkpt><trkpt lat="42.8277617" lon="13.56728"><ele>608.3333333333333</ele><time>2026-03-29T07:49:12.777Z</time></trkpt><trkpt lat="42.8278633" lon="13.56726"><ele>610.0</ele><time>2026-03-29T07:49:14.777Z</time></trkpt><trkpt lat="42.82793" lon="13.567235"><ele>611.6666666666666</ele><time>2026-03-29T07:49:16.777Z</time></trkpt><trkpt lat="42.82805" lon="13.5672033"><ele>613.3333333333334</ele><time>2026-03-29T07:49:18.777Z</time></trkpt><trkpt lat="42.8281167" lon="13.5671883"><ele>615.0</ele><time>2026-03-29T07:49:19.777Z</time></trkpt><trkpt lat="42.8281833" lon="13.5671917"><ele>615.0</ele><time>2026-03-29T07:49:20.777Z</time></trkpt><trkpt lat="42.8282567" lon="13.5672017"><ele>615.0</ele><time>2026-03-29T07:49:21.777Z</time></trkpt><trkpt lat="42.82834" lon="13.5672083"><ele>615.0</ele><time>2026-03-29T07:49:22.777Z</time></trkpt><trkpt lat="42.82841" lon="13.5672033"><ele>615.0</ele><time>2026-03-29T07:49:23.777Z</time></trkpt><trkpt lat="42.82849" lon="13.5672233"><ele>615.0</ele><time>2026-03-29T07:49:25.777Z</time></trkpt><trkpt lat="42.828475" lon="13.5673283"><ele>615.0</ele><time>2026-03-29T07:49:28.777Z</time></trkpt><trkpt lat="42.8284067" lon="13.5673883"><ele>615.0</ele><time>2026-03-29T07:49:30.777Z</time></trkpt><trkpt lat="42.8283133" lon="13.56746"><ele>615.0</ele><time>2026-03-29T07:49:32.777Z</time></trkpt><trkpt lat="42.8282033" lon="13.5675033"><ele>615.0</ele><time>2026-03-29T07:49:34.777Z</time></trkpt><trkpt lat="42.8280967" lon="13.56756"><ele>615.0</ele><time>2026-03-29T07:49:36.777Z</time></trkpt><trkpt lat="42.8280467" lon="13.5676133"><ele>615.0</ele><time>2026-03-29T07:49:37.776Z</time></trkpt><trkpt lat="42.8279983" lon="13.5676717"><ele>615.0</ele><time>2026-03-29T07:49:38.777Z</time></trkpt><trkpt lat="42.8279033" lon="13.5677633"><ele>615.0</ele><time>2026-03-29T07:49:40.777Z</time></trkpt><trkpt lat="42.8278517" lon="13.56783"><ele>615.0</ele><time>2026-03-29T07:49:42.777Z</time></trkpt><trkpt lat="42.8277533" lon="13.5678833"><ele>615.0</ele><time>2026-03-29T07:49:44.777Z</time></trkpt><trkpt lat="42.8276467" lon="13.5679467"><ele>615.0</ele><time>2026-03-29T07:49:46.777Z</time></trkpt><trkpt lat="42.8275417" lon="13.567965"><ele>618.2</ele><time>2026-03-29T07:49:48.777Z</time></trkpt><trkpt lat="42.82743" lon="13.5680083"><ele>621.4</ele><time>2026-03-29T07:49:50.777Z</time></trkpt><trkpt lat="42.82733" lon="13.5680833"><ele>624.6</ele><time>2026-03-29T07:49:52.777Z</time></trkpt><trkpt lat="42.8272333" lon="13.5681483"><ele>627.8</ele><time>2026-03-29T07:49:54.777Z</time></trkpt><trkpt lat="42.82713" lon="13.56819"><ele>631.0</ele><time>2026-03-29T07:49:56.777Z</time></trkpt><trkpt lat="42.8270233" lon="13.568285"><ele>631.0</ele><time>2026-03-29T07:49:58.777Z</time></trkpt><trkpt lat="42.8269617" lon="13.5683433"><ele>631.0</ele><time>2026-03-29T07:49:59.776Z</time></trkpt><trkpt lat="42.82691" lon="13.568395"><ele>631.0</ele><time>2026-03-29T07:50:00.777Z</time></trkpt><trkpt lat="42.8268433" lon="13.568495"><ele>631.0</ele><time>2026-03-29T07:50:02.777Z</time></trkpt><trkpt lat="42.8267617" lon="13.568565"><ele>631.0</ele><time>2026-03-29T07:50:04.777Z</time></trkpt><trkpt lat="42.8266517" lon="13.5685767"><ele>631.0</ele><time>2026-03-29T07:50:06.777Z</time></trkpt><trkpt lat="42.8265567" lon="13.5685567"><ele>629.8</ele><time>2026-03-29T07:50:08.777Z</time></trkpt><trkpt lat="42.8264917" lon="13.568495"><ele>628.6</ele><time>2026-03-29T07:50:10.777Z</time></trkpt><trkpt lat="42.82645" lon="13.56837"><ele>627.4</ele><time>2026-03-29T07:50:12.777Z</time></trkpt><trkpt lat="42.8264267" lon="13.5682367"><ele>626.2</ele><time>2026-03-29T07:50:14.777Z</time></trkpt><trkpt lat="42.8264217" lon="13.5681267"><ele>625.0</ele><time>2026-03-29T07:50:16.777Z</time></trkpt><trkpt lat="42.8264083" lon="13.5679717"><ele>623.6666666666667</ele><time>2026-03-29T07:50:18.777Z</time></trkpt><trkpt lat="42.8263767" lon="13.56782"><ele>622.3333333333334</ele><time>2026-03-29T07:50:20.776Z</time></trkpt><trkpt lat="42.8263433" lon="13.5677283"><ele>621.0</ele><time>2026-03-29T07:50:22.777Z</time></trkpt><trkpt lat="42.8263" lon="13.5676383"><ele>619.6666666666666</ele><time>2026-03-29T07:50:24.777Z</time></trkpt><trkpt lat="42.8262333" lon="13.56757"><ele>618.3333333333333</ele><time>2026-03-29T07:50:26.777Z</time></trkpt><trkpt lat="42.8261533" lon="13.5675217"><ele>617.0</ele><time>2026-03-29T07:50:28.777Z</time></trkpt><trkpt lat="42.8260733" lon="13.567515"><ele>620.5</ele><time>2026-03-29T07:50:30.776Z</time></trkpt><trkpt lat="42.8259767" lon="13.5675083"><ele>624.0</ele><time>2026-03-29T07:50:32.777Z</time></trkpt><trkpt lat="42.8258867" lon="13.5675217"><ele>627.5</ele><time>2026-03-29T07:50:34.776Z</time></trkpt><trkpt lat="42.8258217" lon="13.56743"><ele>631.0</ele><time>2026-03-29T07:50:36.776Z</time></trkpt><trkpt lat="42.8258117" lon="13.567305"><ele>634.5</ele><time>2026-03-29T07:50:38.777Z</time></trkpt><trkpt lat="42.8258333" lon="13.5672117"><ele>638.0</ele><time>2026-03-29T07:50:40.776Z</time></trkpt><trkpt lat="42.825895" lon="13.56717"><ele>638.0</ele><time>2026-03-29T07:50:42.777Z</time></trkpt><trkpt lat="42.825975" lon="13.5670767"><ele>638.0</ele><time>2026-03-29T07:50:44.777Z</time></trkpt><trkpt lat="42.82604" lon="13.5669883"><ele>638.0</ele><time>2026-03-29T07:50:46.777Z</time></trkpt><trkpt lat="42.8259983" lon="13.5668683"><ele>638.0</ele><time>2026-03-29T07:51:10.777Z</time></trkpt><trkpt lat="42.82595" lon="13.5668017"><ele>638.0</ele><time>2026-03-29T07:51:11.777Z</time></trkpt><trkpt lat="42.825885" lon="13.566745"><ele>638.0</ele><time>2026-03-29T07:51:12.777Z</time></trkpt><trkpt lat="42.82582" lon="13.566705"><ele>636.5</ele><time>2026-03-29T07:51:13.777Z</time></trkpt><trkpt lat="42.8257467" lon="13.5666733"><ele>635.0</ele><time>2026-03-29T07:51:14.777Z</time></trkpt><trkpt lat="42.8256767" lon="13.5666567"><ele>633.5</ele><time>2026-03-29T07:51:15.777Z</time></trkpt><trkpt lat="42.8255633" lon="13.5666567"><ele>632.0</ele><time>2026-03-29T07:51:17.777Z</time></trkpt><trkpt lat="42.8254617" lon="13.5667283"><ele>630.5</ele><time>2026-03-29T07:51:19.776Z</time></trkpt><trkpt lat="42.8254117" lon="13.5667917"><ele>629.0</ele><time>2026-03-29T07:51:20.777Z</time></trkpt><trkpt lat="42.8253567" lon="13.5668533"><ele>629.0</ele><time>2026-03-29T07:51:21.777Z</time></trkpt><trkpt lat="42.8253017" lon="13.5669217"><ele>629.0</ele><time>2026-03-29T07:51:22.777Z</time></trkpt><trkpt lat="42.825265" lon="13.5669967"><ele>629.0</ele><time>2026-03-29T07:51:23.777Z</time></trkpt><trkpt lat="42.8252333" lon="13.5670717"><ele>629.0</ele><time>2026-03-29T07:51:24.777Z</time></trkpt><trkpt lat="42.8252033" lon="13.5671667"><ele>629.0</ele><time>2026-03-29T07:51:25.777Z</time></trkpt><trkpt lat="42.8251683" lon="13.5672783"><ele>629.0</ele><time>2026-03-29T07:51:26.777Z</time></trkpt><trkpt lat="42.8251433" lon="13.56737"><ele>629.0</ele><time>2026-03-29T07:51:27.776Z</time></trkpt><trkpt lat="42.825095" lon="13.5674767"><ele>631.6666666666666</ele><time>2026-03-29T07:51:28.777Z</time></trkpt><trkpt lat="42.8250467" lon="13.5675817"><ele>634.3333333333333</ele><time>2026-03-29T07:51:29.777Z</time></trkpt><trkpt lat="42.8250033" lon="13.56767"><ele>637.0</ele><time>2026-03-29T07:51:30.777Z</time></trkpt><trkpt lat="42.824955" lon="13.567735"><ele>639.6666666666666</ele><time>2026-03-29T07:51:31.777Z</time></trkpt><trkpt lat="42.8248817" lon="13.5677967"><ele>642.3333333333334</ele><time>2026-03-29T07:51:33.777Z</time></trkpt><trkpt lat="42.8248183" lon="13.5678117"><ele>645.0</ele><time>2026-03-29T07:51:35.776Z</time></trkpt><trkpt lat="42.8247617" lon="13.5677683"><ele>645.0</ele><time>2026-03-29T07:51:37.777Z</time></trkpt><trkpt lat="42.82472" lon="13.56766"><ele>645.0</ele><time>2026-03-29T07:51:39.777Z</time></trkpt><trkpt lat="42.8246883" lon="13.5675617"><ele>645.0</ele><time>2026-03-29T07:51:41.777Z</time></trkpt><trkpt lat="42.8246267" lon="13.5674583"><ele>645.0</ele><time>2026-03-29T07:51:43.777Z</time></trkpt><trkpt lat="42.8245167" lon="13.5673767"><ele>645.0</ele><time>2026-03-29T07:51:45.777Z</time></trkpt><trkpt lat="42.8244133" lon="13.567375"><ele>646.1666666666666</ele><time>2026-03-29T07:51:47.777Z</time></trkpt><trkpt lat="42.8242967" lon="13.56744"><ele>647.3333333333334</ele><time>2026-03-29T07:51:49.777Z</time></trkpt><trkpt lat="42.8242567" lon="13.5675083"><ele>648.5</ele><time>2026-03-29T07:51:50.777Z</time></trkpt><trkpt lat="42.8241983" lon="13.5675633"><ele>649.6666666666667</ele><time>2026-03-29T07:51:51.777Z</time></trkpt><trkpt lat="42.8241417" lon="13.5676033"><ele>650.8333333333334</ele><time>2026-03-29T07:51:52.776Z</time></trkpt><trkpt lat="42.8240783" lon="13.5676133"><ele>652.0</ele><time>2026-03-29T07:51:53.777Z</time></trkpt><trkpt lat="42.82401" lon="13.5675817"><ele>652.0</ele><time>2026-03-29T07:51:54.776Z</time></trkpt><trkpt lat="42.8239367" lon="13.5675433"><ele>652.0</ele><time>2026-03-29T07:51:55.777Z</time></trkpt><trkpt lat="42.8238667" lon="13.5675217"><ele>652.0</ele><time>2026-03-29T07:51:56.777Z</time></trkpt><trkpt lat="42.8237433" lon="13.5675083"><ele>652.0</ele><time>2026-03-29T07:51:58.776Z</time></trkpt><trkpt lat="42.8236483" lon="13.5674467"><ele>652.0</ele><time>2026-03-29T07:52:00.777Z</time></trkpt><trkpt lat="42.8235883" lon="13.56739"><ele>652.0</ele><time>2026-03-29T07:52:01.777Z</time></trkpt><trkpt lat="42.82352" lon="13.5673217"><ele>652.0</ele><time>2026-03-29T07:52:02.777Z</time></trkpt><trkpt lat="42.823455" lon="13.567245"><ele>652.0</ele><time>2026-03-29T07:52:03.777Z</time></trkpt><trkpt lat="42.8234017" lon="13.5671867"><ele>652.0</ele><time>2026-03-29T07:52:04.777Z</time></trkpt><trkpt lat="42.8232983" lon="13.56716"><ele>652.0</ele><time>2026-03-29T07:52:06.777Z</time></trkpt><trkpt lat="42.8231967" lon="13.5672583"><ele>654.1666666666667</ele><time>2026-03-29T07:52:08.776Z</time></trkpt><trkpt lat="42.823155" lon="13.5673367"><ele>656.3333333333334</ele><time>2026-03-29T07:52:09.777Z</time></trkpt><trkpt lat="42.8231217" lon="13.5674117"><ele>658.5</ele><time>2026-03-29T07:52:10.777Z</time></trkpt><trkpt lat="42.8230833" lon="13.5675117"><ele>660.6666666666666</ele><time>2026-03-29T07:52:12.777Z</time></trkpt><trkpt lat="42.822985" lon="13.5674617"><ele>662.8333333333333</ele><time>2026-03-29T07:52:15.777Z</time></trkpt><trkpt lat="42.8228717" lon="13.567395"><ele>665.0</ele><time>2026-03-29T07:52:17.777Z</time></trkpt><trkpt lat="42.8228083" lon="13.5673633"><ele>665.0</ele><time>2026-03-29T07:52:18.777Z</time></trkpt><trkpt lat="42.8227167" lon="13.5672967"><ele>665.0</ele><time>2026-03-29T07:52:20.776Z</time></trkpt><trkpt lat="42.8226483" lon="13.5672217"><ele>665.0</ele><time>2026-03-29T07:52:22.777Z</time></trkpt><trkpt lat="42.8225767" lon="13.5671667"><ele>665.0</ele><time>2026-03-29T07:52:24.777Z</time></trkpt><trkpt lat="42.8224967" lon="13.5671233"><ele>665.0</ele><time>2026-03-29T07:52:26.777Z</time></trkpt><trkpt lat="42.8224083" lon="13.5671283"><ele>665.0</ele><time>2026-03-29T07:52:28.777Z</time></trkpt><trkpt lat="42.8223317" lon="13.5671617"><ele>668.6</ele><time>2026-03-29T07:52:31.776Z</time></trkpt><trkpt lat="42.8222717" lon="13.56722"><ele>672.2</ele><time>2026-03-29T07:52:33.777Z</time></trkpt><trkpt lat="42.822195" lon="13.5673533"><ele>675.8</ele><time>2026-03-29T07:52:35.777Z</time></trkpt><trkpt lat="42.8221467" lon="13.56748"><ele>679.4</ele><time>2026-03-29T07:52:37.777Z</time></trkpt><trkpt lat="42.822065" lon="13.5675767"><ele>683.0</ele><time>2026-03-29T07:52:39.776Z</time></trkpt><trkpt lat="42.8219617" lon="13.567655"><ele>683.0</ele><time>2026-03-29T07:52:41.777Z</time></trkpt><trkpt lat="42.8218733" lon="13.5677483"><ele>683.0</ele><time>2026-03-29T07:52:43.777Z</time></trkpt><trkpt lat="42.821835" lon="13.56787"><ele>683.0</ele><time>2026-03-29T07:52:45.777Z</time></trkpt><trkpt lat="42.82178" lon="13.567975"><ele>683.0</ele><time>2026-03-29T07:52:47.777Z</time></trkpt><trkpt lat="42.8217217" lon="13.56807"><ele>683.0</ele><time>2026-03-29T07:52:49.777Z</time></trkpt><trkpt lat="42.8216483" lon="13.568155"><ele>690.5999999999999</ele><time>2026-03-29T07:52:51.777Z</time></trkpt><trkpt lat="42.8215783" lon="13.5682533"><ele>698.1999999999999</ele><time>2026-03-29T07:52:53.777Z</time></trkpt><trkpt lat="42.8215417" lon="13.5683867"><ele>705.8</ele><time>2026-03-29T07:52:55.777Z</time></trkpt><trkpt lat="42.8215467" lon="13.568515"><ele>713.4</ele><time>2026-03-29T07:52:57.777Z</time></trkpt><trkpt lat="42.82146" lon="13.5685383"><ele>721.0</ele><time>2026-03-29T07:53:00.777Z</time></trkpt><trkpt lat="42.82137" lon="13.568465"><ele>721.0</ele><time>2026-03-29T07:53:02.777Z</time></trkpt><trkpt lat="42.821315" lon="13.568395"><ele>721.0</ele><time>2026-03-29T07:53:03.777Z</time></trkpt><trkpt lat="42.8212667" lon="13.56833"><ele>721.0</ele><time>2026-03-29T07:53:04.776Z</time></trkpt><trkpt lat="42.821155" lon="13.5682983"><ele>721.0</ele><time>2026-03-29T07:53:06.777Z</time></trkpt><trkpt lat="42.8210767" lon="13.5683267"><ele>721.0</ele><time>2026-03-29T07:53:07.777Z</time></trkpt><trkpt lat="42.8210083" lon="13.5683717"><ele>721.0</ele><time>2026-03-29T07:53:08.777Z</time></trkpt><trkpt lat="42.8209217" lon="13.568485"><ele>725.5999999999999</ele><time>2026-03-29T07:53:10.777Z</time></trkpt><trkpt lat="42.8208833" lon="13.5685567"><ele>730.2</ele><time>2026-03-29T07:53:11.777Z</time></trkpt><trkpt lat="42.8208567" lon="13.568705"><ele>734.8</ele><time>2026-03-29T07:53:13.777Z</time></trkpt><trkpt lat="42.8208283" lon="13.5688267"><ele>739.4000000000001</ele><time>2026-03-29T07:53:15.777Z</time></trkpt><trkpt lat="42.8207567" lon="13.5688567"><ele>744.0</ele><time>2026-03-29T07:53:18.777Z</time></trkpt><trkpt lat="42.8206417" lon="13.5688617"><ele>746.4000000000001</ele><time>2026-03-29T07:53:25.777Z</time></trkpt><trkpt lat="42.8205617" lon="13.56894"><ele>748.8</ele><time>2026-03-29T07:53:27.776Z</time></trkpt><trkpt lat="42.820495" lon="13.5690583"><ele>751.2</ele><time>2026-03-29T07:53:29.777Z</time></trkpt><trkpt lat="42.8204583" lon="13.5691817"><ele>753.5999999999999</ele><time>2026-03-29T07:53:31.777Z</time></trkpt><trkpt lat="42.8204383" lon="13.5692917"><ele>756.0</ele><time>2026-03-29T07:53:33.777Z</time></trkpt><trkpt lat="42.8204017" lon="13.5694183"><ele>756.0</ele><time>2026-03-29T07:53:35.777Z</time></trkpt><trkpt lat="42.8203133" lon="13.5694883"><ele>756.0</ele><time>2026-03-29T07:53:37.777Z</time></trkpt><trkpt lat="42.8202483" lon="13.56951"><ele>756.0</ele><time>2026-03-29T07:53:38.776Z</time></trkpt><trkpt lat="42.820135" lon="13.5695067"><ele>756.0</ele><time>2026-03-29T07:53:40.777Z</time></trkpt><trkpt lat="42.820025" lon="13.5695167"><ele>756.0</ele><time>2026-03-29T07:53:42.777Z</time></trkpt><trkpt lat="42.8199583" lon="13.56953"><ele>758.8</ele><time>2026-03-29T07:53:43.777Z</time></trkpt><trkpt lat="42.8198833" lon="13.5695283"><ele>761.5999999999999</ele><time>2026-03-29T07:53:44.777Z</time></trkpt><trkpt lat="42.8197567" lon="13.5695483"><ele>764.4</ele><time>2026-03-29T07:53:46.777Z</time></trkpt><trkpt lat="42.819665" lon="13.5696133"><ele>767.2</ele><time>2026-03-29T07:53:48.777Z</time></trkpt><trkpt lat="42.81957" lon="13.5695817"><ele>770.0</ele><time>2026-03-29T07:53:50.777Z</time></trkpt><trkpt lat="42.8195233" lon="13.56951"><ele>770.0000000000001</ele><time>2026-03-29T07:53:51.777Z</time></trkpt><trkpt lat="42.8194833" lon="13.5694317"><ele>770.0</ele><time>2026-03-29T07:53:52.777Z</time></trkpt><trkpt lat="42.819405" lon="13.5693367"><ele>770.0</ele><time>2026-03-29T07:53:54.776Z</time></trkpt><trkpt lat="42.8192867" lon="13.5693567"><ele>770.0</ele><time>2026-03-29T07:53:56.776Z</time></trkpt><trkpt lat="42.8192183" lon="13.5693883"><ele>770.0000000000001</ele><time>2026-03-29T07:53:57.777Z</time></trkpt><trkpt lat="42.81914" lon="13.5694133"><ele>770.0</ele><time>2026-03-29T07:53:58.777Z</time></trkpt><trkpt lat="42.8190667" lon="13.5694233"><ele>772.8</ele><time>2026-03-29T07:53:59.777Z</time></trkpt><trkpt lat="42.8189633" lon="13.5694933"><ele>775.6</ele><time>2026-03-29T07:54:01.777Z</time></trkpt><trkpt lat="42.818895" lon="13.56956"><ele>778.4000000000001</ele><time>2026-03-29T07:54:02.777Z</time></trkpt><trkpt lat="42.8188183" lon="13.5696233"><ele>781.2</ele><time>2026-03-29T07:54:03.777Z</time></trkpt><trkpt lat="42.8187317" lon="13.56967"><ele>784.0</ele><time>2026-03-29T07:54:04.777Z</time></trkpt><trkpt lat="42.8186483" lon="13.5697033"><ele>785.6666666666666</ele><time>2026-03-29T07:54:05.777Z</time></trkpt><trkpt lat="42.818565" lon="13.5697367"><ele>787.3333333333333</ele><time>2026-03-29T07:54:06.776Z</time></trkpt><trkpt lat="42.81849" lon="13.5697717"><ele>789.0</ele><time>2026-03-29T07:54:07.777Z</time></trkpt><trkpt lat="42.8184183" lon="13.56981"><ele>790.6666666666667</ele><time>2026-03-29T07:54:08.777Z</time></trkpt><trkpt lat="42.8183217" lon="13.56986"><ele>792.3333333333334</ele><time>2026-03-29T07:54:10.776Z</time></trkpt><trkpt lat="42.818345" lon="13.5699717"><ele>794.0</ele><time>2026-03-29T07:54:13.776Z</time></trkpt><trkpt lat="42.8184233" lon="13.5701"><ele>794.0</ele><time>2026-03-29T07:54:15.777Z</time></trkpt><trkpt lat="42.8184483" lon="13.5701833"><ele>794.0</ele><time>2026-03-29T07:54:16.777Z</time></trkpt><trkpt lat="42.8184883" lon="13.570325"><ele>794.0</ele><time>2026-03-29T07:54:18.777Z</time></trkpt><trkpt lat="42.8185467" lon="13.5704517"><ele>794.0</ele><time>2026-03-29T07:54:20.777Z</time></trkpt><trkpt lat="42.81864" lon="13.5705317"><ele>794.0</ele><time>2026-03-29T07:54:22.777Z</time></trkpt><trkpt lat="42.81876" lon="13.5706"><ele>797.2</ele><time>2026-03-29T07:54:24.776Z</time></trkpt><trkpt lat="42.8188633" lon="13.570665"><ele>800.4000000000001</ele><time>2026-03-29T07:54:26.777Z</time></trkpt><trkpt lat="42.8189433" lon="13.5707483"><ele>803.6</ele><time>2026-03-29T07:54:28.776Z</time></trkpt><trkpt lat="42.818985" lon="13.5708733"><ele>806.8</ele><time>2026-03-29T07:54:30.777Z</time></trkpt><trkpt lat="42.819" lon="13.5710233"><ele>810.0</ele><time>2026-03-29T07:54:32.777Z</time></trkpt><trkpt lat="42.8190083" lon="13.57111"><ele>812.4</ele><time>2026-03-29T07:54:33.776Z</time></trkpt><trkpt lat="42.8190317" lon="13.5712667"><ele>814.8</ele><time>2026-03-29T07:54:35.777Z</time></trkpt><trkpt lat="42.819055" lon="13.5714083"><ele>817.2</ele><time>2026-03-29T07:54:37.777Z</time></trkpt><trkpt lat="42.8190817" lon="13.5715417"><ele>819.6</ele><time>2026-03-29T07:54:39.776Z</time></trkpt><trkpt lat="42.8190983" lon="13.57163"><ele>822.0</ele><time>2026-03-29T07:54:41.777Z</time></trkpt><trkpt lat="42.819075" lon="13.5717167"><ele>822.0</ele><time>2026-03-29T07:54:43.777Z</time></trkpt><trkpt lat="42.819035" lon="13.5718067"><ele>822.0</ele><time>2026-03-29T07:54:45.777Z</time></trkpt><trkpt lat="42.8189917" lon="13.5718883"><ele>822.0</ele><time>2026-03-29T07:54:47.777Z</time></trkpt><trkpt lat="42.818935" lon="13.5719483"><ele>822.0</ele><time>2026-03-29T07:54:49.777Z</time></trkpt><trkpt lat="42.8189117" lon="13.5720917"><ele>822.0</ele><time>2026-03-29T07:54:55.777Z</time></trkpt><trkpt lat="42.8189617" lon="13.5722033"><ele>822.0</ele><time>2026-03-29T07:54:58.777Z</time></trkpt><trkpt lat="42.819005" lon="13.5722783"><ele>823.0</ele><time>2026-03-29T07:55:00.777Z</time></trkpt><trkpt lat="42.8190417" lon="13.5723583"><ele>824.0</ele><time>2026-03-29T07:55:03.777Z</time></trkpt><trkpt lat="42.819075" lon="13.5724383"><ele>825.0</ele><time>2026-03-29T07:55:05.777Z</time></trkpt><trkpt lat="42.8191267" lon="13.5724967"><ele>826.0</ele><time>2026-03-29T07:55:07.777Z</time></trkpt><trkpt lat="42.8191783" lon="13.57258"><ele>827.0</ele><time>2026-03-29T07:55:10.777Z</time></trkpt><trkpt lat="42.81921" lon="13.57266"><ele>828.0</ele><time>2026-03-29T07:55:12.777Z</time></trkpt><trkpt lat="42.8192233" lon="13.5727617"><ele>829.0</ele><time>2026-03-29T07:55:14.777Z</time></trkpt><trkpt lat="42.8192317" lon="13.57286"><ele>830.8333333333333</ele><time>2026-03-29T07:55:16.777Z</time></trkpt><trkpt lat="42.8192283" lon="13.572985"><ele>832.6666666666666</ele><time>2026-03-29T07:55:18.777Z</time></trkpt><trkpt lat="42.8192067" lon="13.57313"><ele>834.5</ele><time>2026-03-29T07:55:20.777Z</time></trkpt><trkpt lat="42.8191817" lon="13.5732167"><ele>836.3333333333333</ele><time>2026-03-29T07:55:22.777Z</time></trkpt><trkpt lat="42.8191017" lon="13.5732583"><ele>838.1666666666666</ele><time>2026-03-29T07:55:25.777Z</time></trkpt><trkpt lat="42.8190317" lon="13.5732183"><ele>840.0</ele><time>2026-03-29T07:55:27.777Z</time></trkpt><trkpt lat="42.8189467" lon="13.5731433"><ele>840.0</ele><time>2026-03-29T07:55:29.777Z</time></trkpt><trkpt lat="42.818875" lon="13.573045"><ele>840.0</ele><time>2026-03-29T07:55:31.777Z</time></trkpt><trkpt lat="42.8187933" lon="13.57299"><ele>840.0</ele><time>2026-03-29T07:55:33.777Z</time></trkpt><trkpt lat="42.8187167" lon="13.5729633"><ele>840.0</ele><time>2026-03-29T07:55:35.776Z</time></trkpt><trkpt lat="42.81864" lon="13.5729517"><ele>840.0</ele><time>2026-03-29T07:55:37.777Z</time></trkpt><trkpt lat="42.81857" lon="13.5729483"><ele>840.0</ele><time>2026-03-29T07:55:39.777Z</time></trkpt><trkpt lat="42.8184817" lon="13.57293"><ele>842.2</ele><time>2026-03-29T07:55:41.777Z</time></trkpt><trkpt lat="42.8183867" lon="13.57289"><ele>844.4</ele><time>2026-03-29T07:55:43.777Z</time></trkpt><trkpt lat="42.818295" lon="13.572875"><ele>846.5999999999999</ele><time>2026-03-29T07:55:45.777Z</time></trkpt><trkpt lat="42.8182083" lon="13.5728333"><ele>848.8</ele><time>2026-03-29T07:55:47.777Z</time></trkpt><trkpt lat="42.8181267" lon="13.57281"><ele>851.0</ele><time>2026-03-29T07:55:49.777Z</time></trkpt><trkpt lat="42.8180417" lon="13.572785"><ele>851.0</ele><time>2026-03-29T07:55:51.776Z</time></trkpt><trkpt lat="42.8179533" lon="13.5728017"><ele>851.0</ele><time>2026-03-29T07:55:53.777Z</time></trkpt><trkpt lat="42.817885" lon="13.5728917"><ele>851.0</ele><time>2026-03-29T07:55:55.777Z</time></trkpt><trkpt lat="42.8178067" lon="13.5729833"><ele>851.0</ele><time>2026-03-29T07:55:57.777Z</time></trkpt><trkpt lat="42.8177" lon="13.573005"><ele>851.0</ele><time>2026-03-29T07:55:59.777Z</time></trkpt><trkpt lat="42.8176183" lon="13.57301"><ele>855.3333333333334</ele><time>2026-03-29T07:56:01.777Z</time></trkpt><trkpt lat="42.8175467" lon="13.5730267"><ele>859.6666666666667</ele><time>2026-03-29T07:56:03.777Z</time></trkpt><trkpt lat="42.8174717" lon="13.5730367"><ele>864.0</ele><time>2026-03-29T07:56:05.777Z</time></trkpt><trkpt lat="42.8173983" lon="13.5730433"><ele>868.3333333333333</ele><time>2026-03-29T07:56:07.777Z</time></trkpt><trkpt lat="42.817295" lon="13.57305"><ele>872.6666666666666</ele><time>2026-03-29T07:56:14.777Z</time></trkpt><trkpt lat="42.8172233" lon="13.57305"><ele>877.0</ele><time>2026-03-29T07:56:17.777Z</time></trkpt><trkpt lat="42.8171467" lon="13.5730433"><ele>877.0</ele><time>2026-03-29T07:56:20.777Z</time></trkpt><trkpt lat="42.8170517" lon="13.5730017"><ele>877.0</ele><time>2026-03-29T07:56:23.777Z</time></trkpt><trkpt lat="42.8169833" lon="13.5729683"><ele>877.0</ele><time>2026-03-29T07:56:25.777Z</time></trkpt><trkpt lat="42.8169" lon="13.572955"><ele>877.0</ele><time>2026-03-29T07:56:27.777Z</time></trkpt><trkpt lat="42.8168083" lon="13.57296"><ele>877.0</ele><time>2026-03-29T07:56:29.777Z</time></trkpt><trkpt lat="42.8167067" lon="13.5729517"><ele>878.6666666666666</ele><time>2026-03-29T07:56:31.776Z</time></trkpt><trkpt lat="42.816615" lon="13.57297"><ele>880.3333333333333</ele><time>2026-03-29T07:56:33.776Z</time></trkpt><trkpt lat="42.81652" lon="13.573"><ele>882.0</ele><time>2026-03-29T07:56:35.777Z</time></trkpt><trkpt lat="42.8164283" lon="13.57302"><ele>883.6666666666667</ele><time>2026-03-29T07:56:37.777Z</time></trkpt><trkpt lat="42.8163467" lon="13.573065"><ele>885.3333333333334</ele><time>2026-03-29T07:56:39.777Z</time></trkpt><trkpt lat="42.8162867" lon="13.5730933"><ele>887.0</ele><time>2026-03-29T07:57:04.777Z</time></trkpt><trkpt lat="42.81621" lon="13.57313"><ele>887.0000000000001</ele><time>2026-03-29T07:57:07.777Z</time></trkpt><trkpt lat="42.8161317" lon="13.573135"><ele>887.0</ele><time>2026-03-29T07:57:20.776Z</time></trkpt><trkpt lat="42.81604" lon="13.5731933"><ele>887.0</ele><time>2026-03-29T07:57:23.777Z</time></trkpt><trkpt lat="42.8159567" lon="13.5732333"><ele>887.0</ele><time>2026-03-29T07:57:25.776Z</time></trkpt><trkpt lat="42.8158867" lon="13.573275"><ele>887.0000000000001</ele><time>2026-03-29T07:57:27.776Z</time></trkpt><trkpt lat="42.81582" lon="13.573325"><ele>887.0</ele><time>2026-03-29T07:57:29.777Z</time></trkpt><trkpt lat="42.8157467" lon="13.57335"><ele>887.6666666666667</ele><time>2026-03-29T07:57:31.777Z</time></trkpt><trkpt lat="42.8156867" lon="13.57341"><ele>888.3333333333334</ele><time>2026-03-29T07:57:33.777Z</time></trkpt><trkpt lat="42.8156483" lon="13.5734867"><ele>889.0</ele><time>2026-03-29T07:57:35.776Z</time></trkpt><trkpt lat="42.81553" lon="13.5735917"><ele>889.6666666666667</ele><time>2026-03-29T07:58:15.777Z</time></trkpt><trkpt lat="42.8155667" lon="13.5734767"><ele>890.3333333333334</ele><time>2026-03-29T08:02:51.776Z</time></trkpt><trkpt lat="42.8155067" lon="13.5734467"><ele>891.0</ele><time>2026-03-29T08:02:54.776Z</time></trkpt><trkpt lat="42.815435" lon="13.5733783"><ele>891.0</ele><time>2026-03-29T08:02:56.776Z</time></trkpt><trkpt lat="42.8153917" lon="13.5732967"><ele>891.0</ele><time>2026-03-29T08:02:58.775Z</time></trkpt><trkpt lat="42.8153333" lon="13.5732033"><ele>891.0</ele><time>2026-03-29T08:03:02.775Z</time></trkpt><trkpt lat="42.8152967" lon="13.573125"><ele>891.0</ele><time>2026-03-29T08:03:04.776Z</time></trkpt><trkpt lat="42.81525" lon="13.57304"><ele>891.0</ele><time>2026-03-29T08:03:07.776Z</time></trkpt><trkpt lat="42.8151817" lon="13.5729467"><ele>891.0</ele><time>2026-03-29T08:03:10.776Z</time></trkpt><trkpt lat="42.81514" lon="13.5728767"><ele>891.0</ele><time>2026-03-29T08:03:12.776Z</time></trkpt><trkpt lat="42.8151167" lon="13.572765"><ele>891.0</ele><time>2026-03-29T08:03:14.776Z</time></trkpt><trkpt lat="42.8151183" lon="13.5726517"><ele>891.0</ele><time>2026-03-29T08:03:16.776Z</time></trkpt><trkpt lat="42.8150917" lon="13.5725683"><ele>891.0</ele><time>2026-03-29T08:03:18.775Z</time></trkpt><trkpt lat="42.8150517" lon="13.57249"><ele>891.0</ele><time>2026-03-29T08:03:20.776Z</time></trkpt><trkpt lat="42.8150033" lon="13.5723933"><ele>891.0</ele><time>2026-03-29T08:03:23.776Z</time></trkpt><trkpt lat="42.8149617" lon="13.5723117"><ele>891.0</ele><time>2026-03-29T08:03:25.775Z</time></trkpt><trkpt lat="42.814915" lon="13.5721933"><ele>890.9999999999999</ele><time>2026-03-29T08:03:27.775Z</time></trkpt><trkpt lat="42.814865" lon="13.5720667"><ele>890.9999999999999</ele><time>2026-03-29T08:03:29.776Z</time></trkpt><trkpt lat="42.8148083" lon="13.57194"><ele>891.0</ele><time>2026-03-29T08:03:31.776Z</time></trkpt><trkpt lat="42.8147533" lon="13.57185"><ele>891.0</ele><time>2026-03-29T08:03:33.776Z</time></trkpt><trkpt lat="42.8147067" lon="13.5717883"><ele>889.3333333333334</ele><time>2026-03-29T08:03:35.776Z</time></trkpt><trkpt lat="42.8146267" lon="13.5717367"><ele>887.6666666666667</ele><time>2026-03-29T08:03:38.776Z</time></trkpt><trkpt lat="42.8145567" lon="13.57166"><ele>886.0</ele><time>2026-03-29T08:03:41.776Z</time></trkpt><trkpt lat="42.8145183" lon="13.5715683"><ele>884.3333333333334</ele><time>2026-03-29T08:03:44.776Z</time></trkpt><trkpt lat="42.81449" lon="13.5714733"><ele>882.6666666666667</ele><time>2026-03-29T08:03:46.775Z</time></trkpt><trkpt lat="42.8145217" lon="13.57158"><ele>881.0</ele><time>2026-03-29T08:03:54.776Z</time></trkpt><trkpt lat="42.8145633" lon="13.5716533"><ele>881.0000000000001</ele><time>2026-03-29T08:03:57.776Z</time></trkpt><trkpt lat="42.8146" lon="13.571755"><ele>881.0</ele><time>2026-03-29T08:04:02.776Z</time></trkpt><trkpt lat="42.8146117" lon="13.5718617"><ele>881.0</ele><time>2026-03-29T08:04:04.776Z</time></trkpt><trkpt lat="42.8146467" lon="13.571985"><ele>881.0</ele><time>2026-03-29T08:04:07.776Z</time></trkpt><trkpt lat="42.8146383" lon="13.5721083"><ele>881.0000000000001</ele><time>2026-03-29T08:04:10.776Z</time></trkpt><trkpt lat="42.8145817" lon="13.572195"><ele>881.0</ele><time>2026-03-29T08:04:12.776Z</time></trkpt><trkpt lat="42.8145183" lon="13.5722583"><ele>882.6666666666667</ele><time>2026-03-29T08:04:14.776Z</time></trkpt><trkpt lat="42.8144717" lon="13.57234"><ele>884.3333333333334</ele><time>2026-03-29T08:04:16.776Z</time></trkpt><trkpt lat="42.81444" lon="13.5724417"><ele>886.0</ele><time>2026-03-29T08:04:18.776Z</time></trkpt><trkpt lat="42.8143933" lon="13.5725367"><ele>887.6666666666667</ele><time>2026-03-29T08:04:20.776Z</time></trkpt><trkpt lat="42.8143433" lon="13.57261"><ele>889.3333333333334</ele><time>2026-03-29T08:04:22.776Z</time></trkpt><trkpt lat="42.8143233" lon="13.5727117"><ele>891.0</ele><time>2026-03-29T08:04:25.776Z</time></trkpt><trkpt lat="42.8143283" lon="13.572805"><ele>894.5</ele><time>2026-03-29T08:04:27.776Z</time></trkpt><trkpt lat="42.8143067" lon="13.5728867"><ele>898.0</ele><time>2026-03-29T08:04:29.776Z</time></trkpt><trkpt lat="42.81425" lon="13.572965"><ele>901.5</ele><time>2026-03-29T08:04:32.776Z</time></trkpt><trkpt lat="42.814185" lon="13.5729717"><ele>905.0</ele><time>2026-03-29T08:04:34.776Z</time></trkpt><trkpt lat="42.8140933" lon="13.57298"><ele>908.5</ele><time>2026-03-29T08:04:48.776Z</time></trkpt><trkpt lat="42.8140067" lon="13.5730067"><ele>912.0</ele><time>2026-03-29T08:04:51.776Z</time></trkpt><trkpt lat="42.81396" lon="13.5730767"><ele>912.0</ele><time>2026-03-29T08:04:53.776Z</time></trkpt><trkpt lat="42.81394" lon="13.573175"><ele>912.0</ele><time>2026-03-29T08:04:56.775Z</time></trkpt><trkpt lat="42.8139483" lon="13.57328"><ele>912.0</ele><time>2026-03-29T08:04:59.776Z</time></trkpt><trkpt lat="42.8139617" lon="13.573375"><ele>912.0</ele><time>2026-03-29T08:05:01.775Z</time></trkpt><trkpt lat="42.81396" lon="13.57348"><ele>912.0</ele><time>2026-03-29T08:05:03.776Z</time></trkpt><trkpt lat="42.813965" lon="13.5735933"><ele>912.0</ele><time>2026-03-29T08:05:06.776Z</time></trkpt><trkpt lat="42.8139967" lon="13.5737383"><ele>912.6666666666666</ele><time>2026-03-29T08:05:11.776Z</time></trkpt><trkpt lat="42.81401" lon="13.5738567"><ele>913.3333333333333</ele><time>2026-03-29T08:05:14.776Z</time></trkpt><trkpt lat="42.8140467" lon="13.5739483"><ele>914.0</ele><time>2026-03-29T08:05:16.776Z</time></trkpt><trkpt lat="42.8140717" lon="13.574065"><ele>914.6666666666666</ele><time>2026-03-29T08:05:18.776Z</time></trkpt><trkpt lat="42.8140883" lon="13.5741717"><ele>915.3333333333333</ele><time>2026-03-29T08:05:20.775Z</time></trkpt><trkpt lat="42.8141133" lon="13.5742783"><ele>916.0</ele><time>2026-03-29T08:05:22.775Z</time></trkpt><trkpt lat="42.8141267" lon="13.5744167"><ele>916.1999999999999</ele><time>2026-03-29T08:05:24.776Z</time></trkpt><trkpt lat="42.814145" lon="13.5745467"><ele>916.3999999999999</ele><time>2026-03-29T08:05:26.776Z</time></trkpt><trkpt lat="42.8141633" lon="13.5746683"><ele>916.6</ele><time>2026-03-29T08:05:28.776Z</time></trkpt><trkpt lat="42.8141583" lon="13.5747617"><ele>916.8</ele><time>2026-03-29T08:05:30.776Z</time></trkpt><trkpt lat="42.8140833" lon="13.5748783"><ele>917.0</ele><time>2026-03-29T08:05:33.776Z</time></trkpt><trkpt lat="42.8139883" lon="13.5750033"><ele>917.0000000000001</ele><time>2026-03-29T08:05:35.776Z</time></trkpt><trkpt lat="42.8139417" lon="13.5750683"><ele>917.0</ele><time>2026-03-29T08:05:36.775Z</time></trkpt><trkpt lat="42.8138983" lon="13.575135"><ele>917.0</ele><time>2026-03-29T08:05:37.776Z</time></trkpt><trkpt lat="42.8138233" lon="13.5752383"><ele>917.0</ele><time>2026-03-29T08:05:39.776Z</time></trkpt><trkpt lat="42.81377" lon="13.5752933"><ele>917.0000000000001</ele><time>2026-03-29T08:05:41.776Z</time></trkpt><trkpt lat="42.813705" lon="13.57532"><ele>917.0</ele><time>2026-03-29T08:05:43.776Z</time></trkpt><trkpt lat="42.81362" lon="13.5753117"><ele>917.0</ele><time>2026-03-29T08:05:45.776Z</time></trkpt><trkpt lat="42.8135233" lon="13.5752917"><ele>917.0</ele><time>2026-03-29T08:05:47.775Z</time></trkpt><trkpt lat="42.81341" lon="13.5752517"><ele>917.0</ele><time>2026-03-29T08:05:49.776Z</time></trkpt><trkpt lat="42.8133167" lon="13.57523"><ele>917.0</ele><time>2026-03-29T08:05:51.775Z</time></trkpt><trkpt lat="42.8132133" lon="13.57525"><ele>917.0</ele><time>2026-03-29T08:05:53.776Z</time></trkpt><trkpt lat="42.81313" lon="13.5752533"><ele>917.4000000000001</ele><time>2026-03-29T08:05:55.776Z</time></trkpt><trkpt lat="42.8130367" lon="13.5752217"><ele>917.8000000000001</ele><time>2026-03-29T08:05:57.776Z</time></trkpt><trkpt lat="42.8129517" lon="13.5751567"><ele>918.2</ele><time>2026-03-29T08:05:59.776Z</time></trkpt><trkpt lat="42.812885" lon="13.5750867"><ele>918.6</ele><time>2026-03-29T08:06:01.776Z</time></trkpt><trkpt lat="42.8128067" lon="13.5750267"><ele>919.0</ele><time>2026-03-29T08:06:03.776Z</time></trkpt><trkpt lat="42.8127183" lon="13.5749533"><ele>921.2</ele><time>2026-03-29T08:06:05.776Z</time></trkpt><trkpt lat="42.8126" lon="13.5748933"><ele>923.4000000000001</ele><time>2026-03-29T08:06:07.776Z</time></trkpt><trkpt lat="42.8125367" lon="13.5748717"><ele>925.6</ele><time>2026-03-29T08:06:08.776Z</time></trkpt><trkpt lat="42.81245" lon="13.5748"><ele>927.8</ele><time>2026-03-29T08:06:10.775Z</time></trkpt><trkpt lat="42.8123917" lon="13.5747067"><ele>930.0</ele><time>2026-03-29T08:06:12.776Z</time></trkpt><trkpt lat="42.8123533" lon="13.5746067"><ele>930.0</ele><time>2026-03-29T08:06:14.776Z</time></trkpt><trkpt lat="42.8122767" lon="13.574485"><ele>930.0</ele><time>2026-03-29T08:06:43.775Z</time></trkpt><trkpt lat="42.8122083" lon="13.5744417"><ele>930.0</ele><time>2026-03-29T08:06:46.775Z</time></trkpt><trkpt lat="42.8121417" lon="13.5744333"><ele>930.0</ele><time>2026-03-29T08:06:49.774Z</time></trkpt><trkpt lat="42.8119883" lon="13.57455"><ele>930.0</ele><time>2026-03-29T08:10:28.775Z</time></trkpt><trkpt lat="42.811915" lon="13.5746133"><ele>930.0</ele><time>2026-03-29T08:10:35.775Z</time></trkpt><trkpt lat="42.8118733" lon="13.574685"><ele>930.0</ele><time>2026-03-29T08:10:40.775Z</time></trkpt><trkpt lat="42.81179" lon="13.5747683"><ele>930.0</ele><time>2026-03-29T08:10:54.775Z</time></trkpt><trkpt lat="42.8117383" lon="13.5748267"><ele>930.0</ele><time>2026-03-29T08:10:56.774Z</time></trkpt><trkpt lat="42.8116733" lon="13.5749017"><ele>930.0</ele><time>2026-03-29T08:11:00.775Z</time></trkpt><trkpt lat="42.8116167" lon="13.5749633"><ele>930.0</ele><time>2026-03-29T08:11:03.775Z</time></trkpt><trkpt lat="42.8115567" lon="13.57501"><ele>932.8333333333334</ele><time>2026-03-29T08:11:06.775Z</time></trkpt><trkpt lat="42.8114967" lon="13.5750833"><ele>935.6666666666667</ele><time>2026-03-29T08:11:09.775Z</time></trkpt><trkpt lat="42.811445" lon="13.5751583"><ele>938.5</ele><time>2026-03-29T08:11:13.774Z</time></trkpt><trkpt lat="42.8113983" lon="13.5752183"><ele>941.3333333333334</ele><time>2026-03-29T08:11:16.775Z</time></trkpt><trkpt lat="42.8113583" lon="13.57531"><ele>944.1666666666667</ele><time>2026-03-29T08:11:19.774Z</time></trkpt><trkpt lat="42.811305" lon="13.5754917"><ele>947.0</ele><time>2026-03-29T08:12:12.774Z</time></trkpt><trkpt lat="42.8112417" lon="13.5755367"><ele>949.6</ele><time>2026-03-29T08:12:15.775Z</time></trkpt><trkpt lat="42.8111767" lon="13.5755933"><ele>952.2</ele><time>2026-03-29T08:12:18.775Z</time></trkpt><trkpt lat="42.8111" lon="13.57564"><ele>954.8</ele><time>2026-03-29T08:12:20.774Z</time></trkpt><trkpt lat="42.811025" lon="13.5756917"><ele>957.4</ele><time>2026-03-29T08:12:22.775Z</time></trkpt><trkpt lat="42.81094" lon="13.57577"><ele>960.0</ele><time>2026-03-29T08:12:24.775Z</time></trkpt><trkpt lat="42.8108533" lon="13.5758433"><ele>960.5</ele><time>2026-03-29T08:12:26.775Z</time></trkpt><trkpt lat="42.8107783" lon="13.57592"><ele>961.0</ele><time>2026-03-29T08:12:28.775Z</time></trkpt><trkpt lat="42.8107117" lon="13.5759867"><ele>961.5</ele><time>2026-03-29T08:12:30.774Z</time></trkpt><trkpt lat="42.8106617" lon="13.5760833"><ele>962.0</ele><time>2026-03-29T08:12:32.775Z</time></trkpt><trkpt lat="42.81061" lon="13.5761917"><ele>962.5</ele><time>2026-03-29T08:12:34.775Z</time></trkpt><trkpt lat="42.8105417" lon="13.57625"><ele>963.0</ele><time>2026-03-29T08:12:50.775Z</time></trkpt><trkpt lat="42.8104467" lon="13.576335"><ele>964.1666666666666</ele><time>2026-03-29T08:13:01.775Z</time></trkpt><trkpt lat="42.8103983" lon="13.5764033"><ele>965.3333333333333</ele><time>2026-03-29T08:13:06.775Z</time></trkpt><trkpt lat="42.8103433" lon="13.5764867"><ele>966.5</ele><time>2026-03-29T08:13:20.775Z</time></trkpt><trkpt lat="42.810285" lon="13.5765783"><ele>967.6666666666666</ele><time>2026-03-29T08:13:23.775Z</time></trkpt><trkpt lat="42.81035" lon="13.57674"><ele>968.8333333333333</ele><time>2026-03-29T08:17:03.774Z</time></trkpt><trkpt lat="42.810385" lon="13.5768117"><ele>970.0</ele><time>2026-03-29T08:17:06.774Z</time></trkpt><trkpt lat="42.8104267" lon="13.576905"><ele>969.9999999999999</ele><time>2026-03-29T08:17:12.774Z</time></trkpt><trkpt lat="42.8104783" lon="13.5769717"><ele>970.0</ele><time>2026-03-29T08:17:17.774Z</time></trkpt><trkpt lat="42.8104917" lon="13.57707"><ele>970.0</ele><time>2026-03-29T08:17:31.774Z</time></trkpt><trkpt lat="42.8104783" lon="13.5771867"><ele>970.0</ele><time>2026-03-29T08:23:17.774Z</time></trkpt><trkpt lat="42.8104067" lon="13.5772967"><ele>969.9999999999999</ele><time>2026-03-29T08:23:19.774Z</time></trkpt><trkpt lat="42.8103433" lon="13.5773833"><ele>970.0</ele><time>2026-03-29T08:23:20.774Z</time></trkpt><trkpt lat="42.8102583" lon="13.5774883"><ele>970.8</ele><time>2026-03-29T08:23:21.774Z</time></trkpt><trkpt lat="42.810165" lon="13.577595"><ele>971.6</ele><time>2026-03-29T08:23:22.773Z</time></trkpt><trkpt lat="42.81007" lon="13.5776633"><ele>972.4000000000001</ele><time>2026-03-29T08:23:23.773Z</time></trkpt><trkpt lat="42.809985" lon="13.5777017"><ele>973.2</ele><time>2026-03-29T08:23:24.774Z</time></trkpt><trkpt lat="42.8099217" lon="13.57773"><ele>974.0</ele><time>2026-03-29T08:23:25.774Z</time></trkpt><trkpt lat="42.80981" lon="13.5777733"><ele>974.0</ele><time>2026-03-29T08:23:27.774Z</time></trkpt><trkpt lat="42.809745" lon="13.5778333"><ele>974.0000000000001</ele><time>2026-03-29T08:23:29.774Z</time></trkpt><trkpt lat="42.8096567" lon="13.5778017"><ele>974.0000000000001</ele><time>2026-03-29T08:24:47.773Z</time></trkpt><trkpt lat="42.809535" lon="13.5778183"><ele>974.0</ele><time>2026-03-29T08:24:49.774Z</time></trkpt><trkpt lat="42.8094533" lon="13.57784"><ele>974.0</ele><time>2026-03-29T08:24:50.774Z</time></trkpt><trkpt lat="42.8093667" lon="13.577865"><ele>974.0000000000001</ele><time>2026-03-29T08:24:51.774Z</time></trkpt><trkpt lat="42.8092817" lon="13.5778883"><ele>974.0</ele><time>2026-03-29T08:24:52.774Z</time></trkpt><trkpt lat="42.8091967" lon="13.5779133"><ele>974.0</ele><time>2026-03-29T08:24:53.773Z</time></trkpt><trkpt lat="42.809115" lon="13.5779333"><ele>974.0</ele><time>2026-03-29T08:24:54.774Z</time></trkpt><trkpt lat="42.809035" lon="13.5779517"><ele>974.0000000000001</ele><time>2026-03-29T08:24:55.774Z</time></trkpt><trkpt lat="42.8089533" lon="13.5779717"><ele>974.0</ele><time>2026-03-29T08:24:56.774Z</time></trkpt><trkpt lat="42.8088767" lon="13.577995"><ele>974.0000000000001</ele><time>2026-03-29T08:24:57.774Z</time></trkpt><trkpt lat="42.8087983" lon="13.578025"><ele>974.0</ele><time>2026-03-29T08:24:58.774Z</time></trkpt><trkpt lat="42.80872" lon="13.5780417"><ele>974.0</ele><time>2026-03-29T08:24:59.774Z</time></trkpt><trkpt lat="42.8086367" lon="13.5780567"><ele>974.0</ele><time>2026-03-29T08:25:00.774Z</time></trkpt><trkpt lat="42.80855" lon="13.5780767"><ele>974.0000000000001</ele><time>2026-03-29T08:25:01.774Z</time></trkpt><trkpt lat="42.8084533" lon="13.5780883"><ele>974.0</ele><time>2026-03-29T08:25:02.774Z</time></trkpt><trkpt lat="42.80835" lon="13.5780783"><ele>975.6</ele><time>2026-03-29T08:25:03.774Z</time></trkpt><trkpt lat="42.808245" lon="13.5780517"><ele>977.2</ele><time>2026-03-29T08:25:04.773Z</time></trkpt><trkpt lat="42.8081383" lon="13.57801"><ele>978.8000000000001</ele><time>2026-03-29T08:25:05.773Z</time></trkpt><trkpt lat="42.808025" lon="13.5779667"><ele>980.4000000000001</ele><time>2026-03-29T08:25:06.774Z</time></trkpt><trkpt lat="42.80792" lon="13.5779433"><ele>982.0</ele><time>2026-03-29T08:25:07.774Z</time></trkpt><trkpt lat="42.8078133" lon="13.5779167"><ele>982.0</ele><time>2026-03-29T08:25:08.774Z</time></trkpt><trkpt lat="42.80771" lon="13.5778967"><ele>982.0</ele><time>2026-03-29T08:25:09.774Z</time></trkpt><trkpt lat="42.80761" lon="13.5778767"><ele>982.0</ele><time>2026-03-29T08:25:10.774Z</time></trkpt><trkpt lat="42.80751" lon="13.5778733"><ele>982.0</ele><time>2026-03-29T08:25:11.774Z</time></trkpt><trkpt lat="42.8074067" lon="13.5778867"><ele>982.0</ele><time>2026-03-29T08:25:12.774Z</time></trkpt><trkpt lat="42.807305" lon="13.57792"><ele>984.5</ele><time>2026-03-29T08:25:13.774Z</time></trkpt><trkpt lat="42.807205" lon="13.5779717"><ele>987.0</ele><time>2026-03-29T08:25:14.774Z</time></trkpt><trkpt lat="42.807105" lon="13.5780533"><ele>989.5</ele><time>2026-03-29T08:25:15.774Z</time></trkpt><trkpt lat="42.8070133" lon="13.5781417"><ele>992.0</ele><time>2026-03-29T08:25:16.773Z</time></trkpt><trkpt lat="42.806925" lon="13.5782417"><ele>992.0</ele><time>2026-03-29T08:25:17.774Z</time></trkpt><trkpt lat="42.8068383" lon="13.5783367"><ele>992.0</ele><time>2026-03-29T08:25:18.774Z</time></trkpt><trkpt lat="42.806755" lon="13.57844"><ele>992.0</ele><time>2026-03-29T08:25:19.774Z</time></trkpt><trkpt lat="42.80668" lon="13.57853"><ele>992.0</ele><time>2026-03-29T08:25:20.774Z</time></trkpt><trkpt lat="42.806605" lon="13.5786233"><ele>992.0</ele><time>2026-03-29T08:25:21.774Z</time></trkpt><trkpt lat="42.8065233" lon="13.5787133"><ele>994.0</ele><time>2026-03-29T08:25:22.774Z</time></trkpt><trkpt lat="42.8064417" lon="13.5788083"><ele>996.0</ele><time>2026-03-29T08:25:23.774Z</time></trkpt><trkpt lat="42.806355" lon="13.5789067"><ele>998.0</ele><time>2026-03-29T08:25:24.774Z</time></trkpt><trkpt lat="42.8062767" lon="13.579015"><ele>1000.0</ele><time>2026-03-29T08:25:25.774Z</time></trkpt><trkpt lat="42.8061967" lon="13.57912"><ele>1002.0</ele><time>2026-03-29T08:25:26.773Z</time></trkpt><trkpt lat="42.806105" lon="13.5792267"><ele>1002.0</ele><time>2026-03-29T08:25:27.774Z</time></trkpt><trkpt lat="42.8060133" lon="13.5793333"><ele>1002.0</ele><time>2026-03-29T08:25:28.774Z</time></trkpt><trkpt lat="42.8059283" lon="13.5794333"><ele>1002.0</ele><time>2026-03-29T08:25:29.774Z</time></trkpt><trkpt lat="42.8058533" lon="13.5795317"><ele>1002.0</ele><time>2026-03-29T08:25:30.774Z</time></trkpt><trkpt lat="42.8057917" lon="13.5796183"><ele>1002.0</ele><time>2026-03-29T08:25:31.774Z</time></trkpt><trkpt lat="42.805735" lon="13.5796817"><ele>1003.6666666666666</ele><time>2026-03-29T08:25:32.774Z</time></trkpt><trkpt lat="42.805675" lon="13.579715"><ele>1005.3333333333333</ele><time>2026-03-29T08:25:33.774Z</time></trkpt><trkpt lat="42.8055567" lon="13.5797183"><ele>1007.0</ele><time>2026-03-29T08:25:35.774Z</time></trkpt><trkpt lat="42.8054867" lon="13.5797067"><ele>1008.6666666666666</ele><time>2026-03-29T08:25:37.774Z</time></trkpt><trkpt lat="42.805475" lon="13.5796"><ele>1010.3333333333333</ele><time>2026-03-29T08:25:52.774Z</time></trkpt><trkpt lat="42.805475" lon="13.5794917"><ele>1012.0</ele><time>2026-03-29T08:25:53.774Z</time></trkpt><trkpt lat="42.8054967" lon="13.5793617"><ele>1013.25</ele><time>2026-03-29T08:25:54.774Z</time></trkpt><trkpt lat="42.805535" lon="13.5792217"><ele>1014.5</ele><time>2026-03-29T08:25:55.774Z</time></trkpt><trkpt lat="42.8055833" lon="13.5790833"><ele>1015.75</ele><time>2026-03-29T08:25:56.773Z</time></trkpt><trkpt lat="42.8056333" lon="13.57894"><ele>1017.0</ele><time>2026-03-29T08:25:57.774Z</time></trkpt><trkpt lat="42.80569" lon="13.5788017"><ele>1018.5</ele><time>2026-03-29T08:25:58.774Z</time></trkpt><trkpt lat="42.8057483" lon="13.5786667"><ele>1020.0</ele><time>2026-03-29T08:25:59.773Z</time></trkpt><trkpt lat="42.8058033" lon="13.5785217"><ele>1021.5</ele><time>2026-03-29T08:26:00.774Z</time></trkpt><trkpt lat="42.8058367" lon="13.578365"><ele>1023.0</ele><time>2026-03-29T08:26:01.773Z</time></trkpt><trkpt lat="42.80586" lon="13.5782283"><ele>1023.0</ele><time>2026-03-29T08:26:02.774Z</time></trkpt><trkpt lat="42.8058767" lon="13.5781083"><ele>1023.0</ele><time>2026-03-29T08:26:03.774Z</time></trkpt><trkpt lat="42.8058983" lon="13.5779783"><ele>1023.0</ele><time>2026-03-29T08:26:04.774Z</time></trkpt><trkpt lat="42.805915" lon="13.57785"><ele>1023.0</ele><time>2026-03-29T08:26:05.774Z</time></trkpt><trkpt lat="42.80593" lon="13.577725"><ele>1023.0</ele><time>2026-03-29T08:26:06.774Z</time></trkpt><trkpt lat="42.8059433" lon="13.5776"><ele>1022.8</ele><time>2026-03-29T08:26:07.774Z</time></trkpt><trkpt lat="42.805965" lon="13.5774833"><ele>1022.5999999999999</ele><time>2026-03-29T08:26:08.773Z</time></trkpt><trkpt lat="42.80598" lon="13.5773583"><ele>1022.4000000000001</ele><time>2026-03-29T08:26:09.774Z</time></trkpt><trkpt lat="42.805995" lon="13.5772333"><ele>1022.2</ele><time>2026-03-29T08:26:10.774Z</time></trkpt><trkpt lat="42.806005" lon="13.5771"><ele>1022.0</ele><time>2026-03-29T08:26:11.774Z</time></trkpt><trkpt lat="42.80602" lon="13.5769667"><ele>1022.0</ele><time>2026-03-29T08:26:12.774Z</time></trkpt><trkpt lat="42.8060367" lon="13.5768367"><ele>1022.0</ele><time>2026-03-29T08:26:13.774Z</time></trkpt><trkpt lat="42.806055" lon="13.5767083"><ele>1022.0</ele><time>2026-03-29T08:26:14.773Z</time></trkpt><trkpt lat="42.8060633" lon="13.576575"><ele>1022.0</ele><time>2026-03-29T08:26:15.774Z</time></trkpt><trkpt lat="42.8060733" lon="13.5764417"><ele>1022.0</ele><time>2026-03-29T08:26:16.774Z</time></trkpt><trkpt lat="42.806095" lon="13.5763033"><ele>1022.4000000000001</ele><time>2026-03-29T08:26:17.774Z</time></trkpt><trkpt lat="42.806115" lon="13.5761417"><ele>1022.8000000000001</ele><time>2026-03-29T08:26:18.774Z</time></trkpt><trkpt lat="42.8061167" lon="13.5759933"><ele>1023.2</ele><time>2026-03-29T08:26:19.774Z</time></trkpt><trkpt lat="42.8061183" lon="13.5758517"><ele>1023.6</ele><time>2026-03-29T08:26:20.773Z</time></trkpt><trkpt lat="42.8061133" lon="13.5757267"><ele>1024.0</ele><time>2026-03-29T08:26:21.773Z</time></trkpt><trkpt lat="42.8061017" lon="13.5756217"><ele>1023.9999999999999</ele><time>2026-03-29T08:26:22.773Z</time></trkpt><trkpt lat="42.8060933" lon="13.5755133"><ele>1024.0</ele><time>2026-03-29T08:26:23.773Z</time></trkpt><trkpt lat="42.8060767" lon="13.5753983"><ele>1024.0</ele><time>2026-03-29T08:26:24.773Z</time></trkpt><trkpt lat="42.8060617" lon="13.57528"><ele>1024.0</ele><time>2026-03-29T08:26:25.773Z</time></trkpt><trkpt lat="42.8060583" lon="13.5751683"><ele>1023.9999999999999</ele><time>2026-03-29T08:26:26.773Z</time></trkpt><trkpt lat="42.8060467" lon="13.57505"><ele>1024.0</ele><time>2026-03-29T08:26:27.772Z</time></trkpt><trkpt lat="42.80604" lon="13.574925"><ele>1025.0</ele><time>2026-03-29T08:26:28.773Z</time></trkpt><trkpt lat="42.80603" lon="13.5748167"><ele>1026.0</ele><time>2026-03-29T08:26:29.773Z</time></trkpt><trkpt lat="42.8060167" lon="13.5747017"><ele>1027.0</ele><time>2026-03-29T08:26:30.773Z</time></trkpt><trkpt lat="42.8060033" lon="13.574575"><ele>1028.0</ele><time>2026-03-29T08:26:31.773Z</time></trkpt><trkpt lat="42.8059967" lon="13.574455"><ele>1029.0</ele><time>2026-03-29T08:26:32.773Z</time></trkpt><trkpt lat="42.8059867" lon="13.5743317"><ele>1030.0</ele><time>2026-03-29T08:26:33.772Z</time></trkpt><trkpt lat="42.8059733" lon="13.57419"><ele>1035.0</ele><time>2026-03-29T08:26:34.773Z</time></trkpt><trkpt lat="42.8059567" lon="13.57405"><ele>1040.0</ele><time>2026-03-29T08:26:35.772Z</time></trkpt><trkpt lat="42.8059433" lon="13.57391"><ele>1045.0</ele><time>2026-03-29T08:26:36.773Z</time></trkpt><trkpt lat="42.8059267" lon="13.5737733"><ele>1050.0</ele><time>2026-03-29T08:26:37.773Z</time></trkpt><trkpt lat="42.8059" lon="13.5736417"><ele>1055.0</ele><time>2026-03-29T08:26:38.773Z</time></trkpt><trkpt lat="42.8058633" lon="13.57352"><ele>1055.8</ele><time>2026-03-29T08:26:39.773Z</time></trkpt><trkpt lat="42.805825" lon="13.5734"><ele>1056.6</ele><time>2026-03-29T08:26:40.773Z</time></trkpt><trkpt lat="42.80578" lon="13.573285"><ele>1057.4</ele><time>2026-03-29T08:26:41.773Z</time></trkpt><trkpt lat="42.8057367" lon="13.5731733"><ele>1058.2</ele><time>2026-03-29T08:26:42.773Z</time></trkpt><trkpt lat="42.8056983" lon="13.5730517"><ele>1059.0</ele><time>2026-03-29T08:26:43.772Z</time></trkpt><trkpt lat="42.8056617" lon="13.5729383"><ele>1059.8</ele><time>2026-03-29T08:26:44.772Z</time></trkpt><trkpt lat="42.8056167" lon="13.57283"><ele>1060.6000000000001</ele><time>2026-03-29T08:26:45.773Z</time></trkpt><trkpt lat="42.8055683" lon="13.5727217"><ele>1061.4</ele><time>2026-03-29T08:26:46.772Z</time></trkpt><trkpt lat="42.8055083" lon="13.5726217"><ele>1062.2</ele><time>2026-03-29T08:26:47.772Z</time></trkpt><trkpt lat="42.80544" lon="13.572525"><ele>1063.0</ele><time>2026-03-29T08:26:48.773Z</time></trkpt><trkpt lat="42.80537" lon="13.5724367"><ele>1063.0</ele><time>2026-03-29T08:26:49.772Z</time></trkpt><trkpt lat="42.8052867" lon="13.57236"><ele>1063.0</ele><time>2026-03-29T08:26:50.773Z</time></trkpt><trkpt lat="42.8052017" lon="13.572285"><ele>1063.0</ele><time>2026-03-29T08:26:51.773Z</time></trkpt><trkpt lat="42.8051183" lon="13.5722183"><ele>1063.0</ele><time>2026-03-29T08:26:52.773Z</time></trkpt><trkpt lat="42.8050333" lon="13.5721433"><ele>1063.0</ele><time>2026-03-29T08:26:53.773Z</time></trkpt><trkpt lat="42.8049467" lon="13.5720667"><ele>1063.8</ele><time>2026-03-29T08:26:54.773Z</time></trkpt><trkpt lat="42.8048583" lon="13.571995"><ele>1064.6</ele><time>2026-03-29T08:26:55.773Z</time></trkpt><trkpt lat="42.8047683" lon="13.5719267"><ele>1065.4</ele><time>2026-03-29T08:26:56.773Z</time></trkpt><trkpt lat="42.8046767" lon="13.571855"><ele>1066.2</ele><time>2026-03-29T08:26:57.773Z</time></trkpt><trkpt lat="42.80459" lon="13.571785"><ele>1067.0</ele><time>2026-03-29T08:26:58.773Z</time></trkpt><trkpt lat="42.804505" lon="13.5717117"><ele>1067.0</ele><time>2026-03-29T08:26:59.773Z</time></trkpt><trkpt lat="42.8044183" lon="13.5716383"><ele>1067.0</ele><time>2026-03-29T08:27:00.773Z</time></trkpt><trkpt lat="42.8043333" lon="13.5715733"><ele>1067.0</ele><time>2026-03-29T08:27:01.773Z</time></trkpt><trkpt lat="42.804255" lon="13.5715083"><ele>1067.0</ele><time>2026-03-29T08:27:02.773Z</time></trkpt><trkpt lat="42.8041767" lon="13.57144"><ele>1067.0</ele><time>2026-03-29T08:27:03.773Z</time></trkpt><trkpt lat="42.8040933" lon="13.5713767"><ele>1068.2</ele><time>2026-03-29T08:27:04.773Z</time></trkpt><trkpt lat="42.804015" lon="13.57132"><ele>1069.4</ele><time>2026-03-29T08:27:05.773Z</time></trkpt><trkpt lat="42.80394" lon="13.571255"><ele>1070.6</ele><time>2026-03-29T08:27:06.773Z</time></trkpt><trkpt lat="42.8038583" lon="13.5711867"><ele>1071.8</ele><time>2026-03-29T08:27:07.773Z</time></trkpt><trkpt lat="42.803775" lon="13.5711217"><ele>1073.0</ele><time>2026-03-29T08:27:08.773Z</time></trkpt><trkpt lat="42.8036917" lon="13.5710583"><ele>1073.2</ele><time>2026-03-29T08:27:09.773Z</time></trkpt><trkpt lat="42.8036083" lon="13.570995"><ele>1073.4</ele><time>2026-03-29T08:27:10.773Z</time></trkpt><trkpt lat="42.8035267" lon="13.570935"><ele>1073.6000000000001</ele><time>2026-03-29T08:27:11.773Z</time></trkpt><trkpt lat="42.8034467" lon="13.57087"><ele>1073.8</ele><time>2026-03-29T08:27:12.773Z</time></trkpt><trkpt lat="42.8033633" lon="13.57082"><ele>1074.0</ele><time>2026-03-29T08:27:13.773Z</time></trkpt><trkpt lat="42.803275" lon="13.570775"><ele>1075.0</ele><time>2026-03-29T08:27:14.773Z</time></trkpt><trkpt lat="42.80318" lon="13.570735"><ele>1076.0</ele><time>2026-03-29T08:27:15.773Z</time></trkpt><trkpt lat="42.8030867" lon="13.5707033"><ele>1077.0</ele><time>2026-03-29T08:27:16.773Z</time></trkpt><trkpt lat="42.8029867" lon="13.5706833"><ele>1078.0</ele><time>2026-03-29T08:27:17.773Z</time></trkpt><trkpt lat="42.8028917" lon="13.5706733"><ele>1079.0</ele><time>2026-03-29T08:27:18.773Z</time></trkpt><trkpt lat="42.8027933" lon="13.5706683"><ele>1079.0</ele><time>2026-03-29T08:27:19.773Z</time></trkpt><trkpt lat="42.8027" lon="13.5706567"><ele>1079.0</ele><time>2026-03-29T08:27:20.773Z</time></trkpt><trkpt lat="42.8026117" lon="13.5706433"><ele>1079.0</ele><time>2026-03-29T08:27:21.772Z</time></trkpt><trkpt lat="42.8025233" lon="13.5706283"><ele>1079.0</ele><time>2026-03-29T08:27:22.773Z</time></trkpt><trkpt lat="42.8024417" lon="13.57061"><ele>1079.0</ele><time>2026-03-29T08:27:23.773Z</time></trkpt><trkpt lat="42.8023617" lon="13.5706"><ele>1079.0</ele><time>2026-03-29T08:27:24.773Z</time></trkpt><trkpt lat="42.8022833" lon="13.57059"><ele>1080.6666666666667</ele><time>2026-03-29T08:27:25.773Z</time></trkpt><trkpt lat="42.8022083" lon="13.57058"><ele>1082.3333333333335</ele><time>2026-03-29T08:27:26.773Z</time></trkpt><trkpt lat="42.8021317" lon="13.5705683"><ele>1084.0</ele><time>2026-03-29T08:27:27.773Z</time></trkpt><trkpt lat="42.80205" lon="13.5705533"><ele>1085.6666666666667</ele><time>2026-03-29T08:27:28.773Z</time></trkpt><trkpt lat="42.801965" lon="13.57054"><ele>1087.3333333333333</ele><time>2026-03-29T08:27:29.772Z</time></trkpt><trkpt lat="42.80188" lon="13.57053"><ele>1089.0</ele><time>2026-03-29T08:27:30.773Z</time></trkpt><trkpt lat="42.8018" lon="13.570515"><ele>1090.0</ele><time>2026-03-29T08:27:31.773Z</time></trkpt><trkpt lat="42.8017233" lon="13.5705017"><ele>1091.0</ele><time>2026-03-29T08:27:32.772Z</time></trkpt><trkpt lat="42.8016367" lon="13.5704883"><ele>1092.0</ele><time>2026-03-29T08:27:33.773Z</time></trkpt><trkpt lat="42.8015483" lon="13.5704733"><ele>1093.0</ele><time>2026-03-29T08:27:34.773Z</time></trkpt><trkpt lat="42.8014617" lon="13.57046"><ele>1094.0</ele><time>2026-03-29T08:27:35.772Z</time></trkpt><trkpt lat="42.8013717" lon="13.5704483"><ele>1095.0</ele><time>2026-03-29T08:27:36.773Z</time></trkpt><trkpt lat="42.801285" lon="13.57044"><ele>1095.0</ele><time>2026-03-29T08:27:37.773Z</time></trkpt><trkpt lat="42.8012083" lon="13.57045"><ele>1095.0</ele><time>2026-03-29T08:27:38.772Z</time></trkpt><trkpt lat="42.8011433" lon="13.5704767"><ele>1095.0</ele><time>2026-03-29T08:27:39.773Z</time></trkpt><trkpt lat="42.8010467" lon="13.570565"><ele>1095.0</ele><time>2026-03-29T08:27:41.773Z</time></trkpt><trkpt lat="42.8009833" lon="13.5706717"><ele>1095.0</ele><time>2026-03-29T08:27:43.773Z</time></trkpt><trkpt lat="42.8009317" lon="13.57075"><ele>1095.0</ele><time>2026-03-29T08:27:45.773Z</time></trkpt><trkpt lat="42.80088" lon="13.5708217"><ele>1095.8333333333333</ele><time>2026-03-29T08:27:48.772Z</time></trkpt><trkpt lat="42.8008367" lon="13.570905"><ele>1096.6666666666667</ele><time>2026-03-29T08:27:52.773Z</time></trkpt><trkpt lat="42.8007883" lon="13.5709633"><ele>1097.5</ele><time>2026-03-29T08:27:56.773Z</time></trkpt><trkpt lat="42.8007083" lon="13.5710467"><ele>1098.3333333333335</ele><time>2026-03-29T08:27:59.773Z</time></trkpt><trkpt lat="42.8006533" lon="13.5711317"><ele>1099.1666666666667</ele><time>2026-03-29T08:28:01.773Z</time></trkpt><trkpt lat="42.80061" lon="13.571195"><ele>1100.0</ele><time>2026-03-29T08:28:03.772Z</time></trkpt><trkpt lat="42.8005583" lon="13.5712583"><ele>1100.2857142857142</ele><time>2026-03-29T08:28:05.773Z</time></trkpt><trkpt lat="42.8004867" lon="13.571345"><ele>1100.5714285714284</ele><time>2026-03-29T08:28:08.773Z</time></trkpt><trkpt lat="42.8004267" lon="13.5714017"><ele>1100.8571428571427</ele><time>2026-03-29T08:28:10.773Z</time></trkpt><trkpt lat="42.8003667" lon="13.5714433"><ele>1101.142857142857</ele><time>2026-03-29T08:28:13.773Z</time></trkpt><trkpt lat="42.8003083" lon="13.57149"><ele>1101.4285714285713</ele><time>2026-03-29T08:28:16.772Z</time></trkpt><trkpt lat="42.8002733" lon="13.5715633"><ele>1101.7142857142856</ele><time>2026-03-29T08:28:21.773Z</time></trkpt><trkpt lat="42.80034" lon="13.5715317"><ele>1102.0</ele><time>2026-03-29T08:28:24.773Z</time></trkpt><trkpt lat="42.8004083" lon="13.5714033"><ele>1101.9999999999998</ele><time>2026-03-29T08:28:44.772Z</time></trkpt><trkpt lat="42.8004683" lon="13.571365"><ele>1102.0</ele><time>2026-03-29T08:28:47.773Z</time></trkpt><trkpt lat="42.8005267" lon="13.57144"><ele>1102.0</ele><time>2026-03-29T08:28:50.772Z</time></trkpt><trkpt lat="42.800565" lon="13.5715267"><ele>1102.0</ele><time>2026-03-29T08:28:52.773Z</time></trkpt><trkpt lat="42.8005667" lon="13.5714367"><ele>1102.0</ele><time>2026-03-29T09:05:53.78Z</time></trkpt><trkpt lat="42.80053" lon="13.5713617"><ele>1101.9999999999998</ele><time>2026-03-29T09:06:07.779Z</time></trkpt><trkpt lat="42.8005683" lon="13.5712633"><ele>1102.0</ele><time>2026-03-29T09:06:15.78Z</time></trkpt><trkpt lat="42.8006167" lon="13.5712"><ele>1101.6666666666665</ele><time>2026-03-29T09:06:17.779Z</time></trkpt><trkpt lat="42.8006817" lon="13.571105"><ele>1101.3333333333333</ele><time>2026-03-29T09:06:20.78Z</time></trkpt><trkpt lat="42.8007567" lon="13.5710133"><ele>1101.0</ele><time>2026-03-29T09:06:22.779Z</time></trkpt><trkpt lat="42.8008" lon="13.570945"><ele>1100.6666666666667</ele><time>2026-03-29T09:06:23.78Z</time></trkpt><trkpt lat="42.8008583" lon="13.5708567"><ele>1100.3333333333335</ele><time>2026-03-29T09:06:24.78Z</time></trkpt><trkpt lat="42.8009183" lon="13.570765"><ele>1100.0</ele><time>2026-03-29T09:06:25.78Z</time></trkpt><trkpt lat="42.800985" lon="13.5706683"><ele>1099.1666666666667</ele><time>2026-03-29T09:06:26.779Z</time></trkpt><trkpt lat="42.8010583" lon="13.5705967"><ele>1098.3333333333335</ele><time>2026-03-29T09:06:27.78Z</time></trkpt><trkpt lat="42.80113" lon="13.5705383"><ele>1097.5</ele><time>2026-03-29T09:06:28.78Z</time></trkpt><trkpt lat="42.8011917" lon="13.5704933"><ele>1096.6666666666667</ele><time>2026-03-29T09:06:29.78Z</time></trkpt><trkpt lat="42.8012467" lon="13.5704483"><ele>1095.8333333333333</ele><time>2026-03-29T09:06:30.78Z</time></trkpt><trkpt lat="42.8012917" lon="13.57032"><ele>1095.0</ele><time>2026-03-29T09:06:32.78Z</time></trkpt><trkpt lat="42.80129" lon="13.57018"><ele>1094.3333333333333</ele><time>2026-03-29T09:06:34.78Z</time></trkpt><trkpt lat="42.8012983" lon="13.570085"><ele>1093.6666666666667</ele><time>2026-03-29T09:06:36.78Z</time></trkpt><trkpt lat="42.80134" lon="13.5700017"><ele>1093.0</ele><time>2026-03-29T09:06:47.78Z</time></trkpt><trkpt lat="42.8013783" lon="13.569925"><ele>1092.3333333333335</ele><time>2026-03-29T09:06:49.78Z</time></trkpt><trkpt lat="42.801435" lon="13.5698383"><ele>1091.6666666666667</ele><time>2026-03-29T09:06:51.78Z</time></trkpt><trkpt lat="42.801485" lon="13.5697567"><ele>1091.0</ele><time>2026-03-29T09:06:53.779Z</time></trkpt><trkpt lat="42.8015367" lon="13.5696683"><ele>1091.0</ele><time>2026-03-29T09:06:55.779Z</time></trkpt><trkpt lat="42.80159" lon="13.5695783"><ele>1091.0</ele><time>2026-03-29T09:06:57.78Z</time></trkpt><trkpt lat="42.8016633" lon="13.56945"><ele>1091.0</ele><time>2026-03-29T09:06:59.78Z</time></trkpt><trkpt lat="42.801735" lon="13.5693467"><ele>1091.0</ele><time>2026-03-29T09:07:01.78Z</time></trkpt><trkpt lat="42.8017833" lon="13.5692483"><ele>1091.0</ele><time>2026-03-29T09:07:03.78Z</time></trkpt><trkpt lat="42.8018217" lon="13.5691383"><ele>1088.5</ele><time>2026-03-29T09:07:05.78Z</time></trkpt><trkpt lat="42.80184" lon="13.569045"><ele>1086.0</ele><time>2026-03-29T09:07:07.78Z</time></trkpt><trkpt lat="42.8018567" lon="13.5689517"><ele>1083.5</ele><time>2026-03-29T09:07:09.78Z</time></trkpt><trkpt lat="42.8018717" lon="13.5688633"><ele>1081.0</ele><time>2026-03-29T09:07:36.78Z</time></trkpt><trkpt lat="42.8018667" lon="13.568735"><ele>1078.5</ele><time>2026-03-29T09:07:39.78Z</time></trkpt><trkpt lat="42.8018567" lon="13.5686133"><ele>1076.0</ele><time>2026-03-29T09:07:42.78Z</time></trkpt><trkpt lat="42.8018467" lon="13.5685167"><ele>1076.1666666666667</ele><time>2026-03-29T09:07:44.78Z</time></trkpt><trkpt lat="42.801855" lon="13.5684067"><ele>1076.3333333333335</ele><time>2026-03-29T09:07:46.78Z</time></trkpt><trkpt lat="42.8018433" lon="13.5682883"><ele>1076.5</ele><time>2026-03-29T09:07:48.78Z</time></trkpt><trkpt lat="42.8018233" lon="13.5681783"><ele>1076.6666666666667</ele><time>2026-03-29T09:07:50.78Z</time></trkpt><trkpt lat="42.8018133" lon="13.56809"><ele>1076.8333333333333</ele><time>2026-03-29T09:07:52.78Z</time></trkpt><trkpt lat="42.8017883" lon="13.5679733"><ele>1077.0</ele><time>2026-03-29T09:07:55.78Z</time></trkpt><trkpt lat="42.8017667" lon="13.5678717"><ele>1075.857142857143</ele><time>2026-03-29T09:07:59.78Z</time></trkpt><trkpt lat="42.8017567" lon="13.56778"><ele>1074.7142857142858</ele><time>2026-03-29T09:08:04.78Z</time></trkpt><trkpt lat="42.801745" lon="13.567685"><ele>1073.5714285714287</ele><time>2026-03-29T09:08:08.78Z</time></trkpt><trkpt lat="42.801725" lon="13.5675633"><ele>1072.4285714285716</ele><time>2026-03-29T09:08:11.779Z</time></trkpt><trkpt lat="42.8017083" lon="13.5674667"><ele>1071.2857142857144</ele><time>2026-03-29T09:08:13.78Z</time></trkpt><trkpt lat="42.8016917" lon="13.56737"><ele>1070.142857142857</ele><time>2026-03-29T09:08:15.779Z</time></trkpt><trkpt lat="42.8016633" lon="13.5672867"><ele>1069.0</ele><time>2026-03-29T09:08:17.78Z</time></trkpt><trkpt lat="42.80164" lon="13.567205"><ele>1069.0</ele><time>2026-03-29T09:08:20.78Z</time></trkpt><trkpt lat="42.8016167" lon="13.56712"><ele>1069.0</ele><time>2026-03-29T09:08:24.779Z</time></trkpt><trkpt lat="42.8015917" lon="13.56701"><ele>1069.0</ele><time>2026-03-29T09:08:37.779Z</time></trkpt><trkpt lat="42.8015783" lon="13.5669233"><ele>1069.0</ele><time>2026-03-29T09:08:39.78Z</time></trkpt><trkpt lat="42.801605" lon="13.5668267"><ele>1069.0</ele><time>2026-03-29T09:08:42.78Z</time></trkpt><trkpt lat="42.8016517" lon="13.5667667"><ele>1069.0</ele><time>2026-03-29T09:08:44.78Z</time></trkpt><trkpt lat="42.8017217" lon="13.5667017"><ele>1069.0</ele><time>2026-03-29T09:08:47.78Z</time></trkpt><trkpt lat="42.8017983" lon="13.5666483"><ele>1064.6666666666665</ele><time>2026-03-29T09:08:50.78Z</time></trkpt><trkpt lat="42.8018683" lon="13.5665717"><ele>1060.3333333333333</ele><time>2026-03-29T09:08:53.78Z</time></trkpt><trkpt lat="42.801905" lon="13.5665017"><ele>1056.0</ele><time>2026-03-29T09:08:55.78Z</time></trkpt><trkpt lat="42.8019417" lon="13.5664217"><ele>1051.6666666666667</ele><time>2026-03-29T09:08:57.78Z</time></trkpt><trkpt lat="42.8019533" lon="13.5663317"><ele>1047.3333333333335</ele><time>2026-03-29T09:09:00.78Z</time></trkpt><trkpt lat="42.8019283" lon="13.5662467"><ele>1043.0</ele><time>2026-03-29T09:09:31.78Z</time></trkpt><trkpt lat="42.80194" lon="13.566075"><ele>1044.75</ele><time>2026-03-29T09:09:33.78Z</time></trkpt><trkpt lat="42.8019217" lon="13.5659483"><ele>1046.5</ele><time>2026-03-29T09:09:34.78Z</time></trkpt><trkpt lat="42.8018867" lon="13.5657867"><ele>1048.25</ele><time>2026-03-29T09:09:35.78Z</time></trkpt><trkpt lat="42.8018467" lon="13.56561"><ele>1050.0</ele><time>2026-03-29T09:09:36.78Z</time></trkpt><trkpt lat="42.8018017" lon="13.5654383"><ele>1046.2</ele><time>2026-03-29T09:09:37.78Z</time></trkpt><trkpt lat="42.8017583" lon="13.56529"><ele>1042.4</ele><time>2026-03-29T09:09:38.78Z</time></trkpt><trkpt lat="42.8017133" lon="13.56516"><ele>1038.6</ele><time>2026-03-29T09:09:39.78Z</time></trkpt><trkpt lat="42.8016483" lon="13.5650567"><ele>1034.8</ele><time>2026-03-29T09:09:40.78Z</time></trkpt><trkpt lat="42.8015583" lon="13.564965"><ele>1031.0</ele><time>2026-03-29T09:09:41.78Z</time></trkpt><trkpt lat="42.80145" lon="13.564905"><ele>1031.0</ele><time>2026-03-29T09:09:42.78Z</time></trkpt><trkpt lat="42.8013183" lon="13.56485"><ele>1031.0</ele><time>2026-03-29T09:09:43.78Z</time></trkpt><trkpt lat="42.8011733" lon="13.5647883"><ele>1031.0</ele><time>2026-03-29T09:09:44.78Z</time></trkpt><trkpt lat="42.8010517" lon="13.5647317"><ele>1031.0</ele><time>2026-03-29T09:09:45.78Z</time></trkpt><trkpt lat="42.8009517" lon="13.564675"><ele>1030.5</ele><time>2026-03-29T09:09:46.78Z</time></trkpt><trkpt lat="42.800875" lon="13.5646083"><ele>1030.0</ele><time>2026-03-29T09:09:47.78Z</time></trkpt><trkpt lat="42.8008267" lon="13.5645317"><ele>1029.5</ele><time>2026-03-29T09:09:48.78Z</time></trkpt><trkpt lat="42.8008017" lon="13.5644417"><ele>1029.0</ele><time>2026-03-29T09:09:49.78Z</time></trkpt><trkpt lat="42.8008083" lon="13.5643283"><ele>1028.5</ele><time>2026-03-29T09:09:50.78Z</time></trkpt><trkpt lat="42.8008383" lon="13.5641833"><ele>1028.0</ele><time>2026-03-29T09:09:51.78Z</time></trkpt><trkpt lat="42.8008817" lon="13.564025"><ele>1028.0</ele><time>2026-03-29T09:09:52.78Z</time></trkpt><trkpt lat="42.8009133" lon="13.56388"><ele>1028.0</ele><time>2026-03-29T09:09:53.78Z</time></trkpt><trkpt lat="42.8009283" lon="13.5637383"><ele>1028.0</ele><time>2026-03-29T09:09:54.78Z</time></trkpt><trkpt lat="42.8009283" lon="13.5635933"><ele>1028.0</ele><time>2026-03-29T09:09:55.78Z</time></trkpt><trkpt lat="42.800905" lon="13.5634417"><ele>1028.0</ele><time>2026-03-29T09:09:56.78Z</time></trkpt><trkpt lat="42.8008633" lon="13.5632933"><ele>1026.2</ele><time>2026-03-29T09:09:57.78Z</time></trkpt><trkpt lat="42.8008117" lon="13.5631667"><ele>1024.4</ele><time>2026-03-29T09:09:58.78Z</time></trkpt><trkpt lat="42.8007533" lon="13.563045"><ele>1022.6000000000001</ele><time>2026-03-29T09:09:59.779Z</time></trkpt><trkpt lat="42.8006817" lon="13.5629333"><ele>1020.8000000000001</ele><time>2026-03-29T09:10:00.78Z</time></trkpt><trkpt lat="42.8006133" lon="13.56283"><ele>1019.0</ele><time>2026-03-29T09:10:01.779Z</time></trkpt><trkpt lat="42.8005267" lon="13.5627233"><ele>1017.5</ele><time>2026-03-29T09:10:02.78Z</time></trkpt><trkpt lat="42.8004317" lon="13.562615"><ele>1016.0</ele><time>2026-03-29T09:10:03.78Z</time></trkpt><trkpt lat="42.8003217" lon="13.562505"><ele>1014.5</ele><time>2026-03-29T09:10:04.78Z</time></trkpt><trkpt lat="42.8002017" lon="13.5623933"><ele>1013.0</ele><time>2026-03-29T09:10:05.78Z</time></trkpt><trkpt lat="42.8000817" lon="13.562275"><ele>1013.0</ele><time>2026-03-29T09:10:06.78Z</time></trkpt><trkpt lat="42.79997" lon="13.562155"><ele>1013.0</ele><time>2026-03-29T09:10:07.78Z</time></trkpt><trkpt lat="42.7998533" lon="13.5620333"><ele>1013.0</ele><time>2026-03-29T09:10:08.78Z</time></trkpt><trkpt lat="42.7997433" lon="13.5619317"><ele>1013.0</ele><time>2026-03-29T09:10:09.78Z</time></trkpt><trkpt lat="42.79965" lon="13.5618233"><ele>1012.8</ele><time>2026-03-29T09:10:10.779Z</time></trkpt><trkpt lat="42.7995733" lon="13.5617067"><ele>1012.5999999999999</ele><time>2026-03-29T09:10:11.78Z</time></trkpt><trkpt lat="42.799485" lon="13.5616"><ele>1012.4000000000001</ele><time>2026-03-29T09:10:12.779Z</time></trkpt><trkpt lat="42.79941" lon="13.5615067"><ele>1012.2</ele><time>2026-03-29T09:10:13.78Z</time></trkpt><trkpt lat="42.7993333" lon="13.56141"><ele>1012.0</ele><time>2026-03-29T09:10:14.78Z</time></trkpt><trkpt lat="42.7992433" lon="13.5613083"><ele>1012.0</ele><time>2026-03-29T09:10:15.78Z</time></trkpt><trkpt lat="42.799155" lon="13.561215"><ele>1012.0</ele><time>2026-03-29T09:10:16.78Z</time></trkpt><trkpt lat="42.799075" lon="13.561125"><ele>1012.0</ele><time>2026-03-29T09:10:17.78Z</time></trkpt><trkpt lat="42.7989917" lon="13.5610333"><ele>1012.0</ele><time>2026-03-29T09:10:18.78Z</time></trkpt><trkpt lat="42.798895" lon="13.5609517"><ele>1012.0</ele><time>2026-03-29T09:10:19.78Z</time></trkpt><trkpt lat="42.798805" lon="13.560885"><ele>1009.8</ele><time>2026-03-29T09:10:20.78Z</time></trkpt><trkpt lat="42.798715" lon="13.5608283"><ele>1007.6</ele><time>2026-03-29T09:10:21.78Z</time></trkpt><trkpt lat="42.79863" lon="13.5607767"><ele>1005.3999999999999</ele><time>2026-03-29T09:10:22.78Z</time></trkpt><trkpt lat="42.7985483" lon="13.5607283"><ele>1003.1999999999999</ele><time>2026-03-29T09:10:23.78Z</time></trkpt><trkpt lat="42.798475" lon="13.5606933"><ele>1001.0</ele><time>2026-03-29T09:10:24.78Z</time></trkpt><trkpt lat="42.7983817" lon="13.5606467"><ele>1001.0000000000001</ele><time>2026-03-29T09:10:26.78Z</time></trkpt><trkpt lat="42.7983183" lon="13.5606067"><ele>1001.0</ele><time>2026-03-29T09:10:29.779Z</time></trkpt><trkpt lat="42.7983333" lon="13.5605"><ele>1001.0</ele><time>2026-03-29T09:10:35.78Z</time></trkpt><trkpt lat="42.7984067" lon="13.5604667"><ele>1001.0</ele><time>2026-03-29T09:10:39.78Z</time></trkpt><trkpt lat="42.7984917" lon="13.5604967"><ele>1001.0000000000001</ele><time>2026-03-29T09:10:43.78Z</time></trkpt><trkpt lat="42.7985667" lon="13.5605267"><ele>1001.0</ele><time>2026-03-29T09:10:46.779Z</time></trkpt><trkpt lat="42.7986383" lon="13.5605583"><ele>999.0000000000001</ele><time>2026-03-29T09:10:49.779Z</time></trkpt><trkpt lat="42.79872" lon="13.5605733"><ele>997.0</ele><time>2026-03-29T09:10:52.78Z</time></trkpt><trkpt lat="42.7987983" lon="13.5605917"><ele>995.0</ele><time>2026-03-29T09:10:54.78Z</time></trkpt><trkpt lat="42.79887" lon="13.560625"><ele>993.0</ele><time>2026-03-29T09:10:56.78Z</time></trkpt><trkpt lat="42.79895" lon="13.5606717"><ele>991.0000000000001</ele><time>2026-03-29T09:10:59.78Z</time></trkpt><trkpt lat="42.7990333" lon="13.5607133"><ele>989.0</ele><time>2026-03-29T09:11:01.78Z</time></trkpt><trkpt lat="42.7991167" lon="13.5607583"><ele>989.0000000000001</ele><time>2026-03-29T09:11:03.779Z</time></trkpt><trkpt lat="42.79919" lon="13.5607983"><ele>989.0</ele><time>2026-03-29T09:11:05.78Z</time></trkpt><trkpt lat="42.79926" lon="13.56085"><ele>989.0</ele><time>2026-03-29T09:11:07.78Z</time></trkpt><trkpt lat="42.79933" lon="13.5608967"><ele>989.0</ele><time>2026-03-29T09:11:09.78Z</time></trkpt><trkpt lat="42.799415" lon="13.5609517"><ele>989.0000000000001</ele><time>2026-03-29T09:11:11.779Z</time></trkpt><trkpt lat="42.7995" lon="13.561025"><ele>989.0</ele><time>2026-03-29T09:11:13.78Z</time></trkpt><trkpt lat="42.799585" lon="13.56109"><ele>989.6666666666667</ele><time>2026-03-29T09:11:15.78Z</time></trkpt><trkpt lat="42.79967" lon="13.561155"><ele>990.3333333333334</ele><time>2026-03-29T09:11:17.779Z</time></trkpt><trkpt lat="42.7997633" lon="13.5612"><ele>991.0</ele><time>2026-03-29T09:11:19.78Z</time></trkpt><trkpt lat="42.7998367" lon="13.5612167"><ele>991.6666666666667</ele><time>2026-03-29T09:11:21.78Z</time></trkpt><trkpt lat="42.79991" lon="13.56118"><ele>992.3333333333334</ele><time>2026-03-29T09:11:24.78Z</time></trkpt><trkpt lat="42.799885" lon="13.5610817"><ele>993.0</ele><time>2026-03-29T09:11:27.78Z</time></trkpt><trkpt lat="42.7998367" lon="13.5609983"><ele>988.8333333333334</ele><time>2026-03-29T09:11:29.78Z</time></trkpt><trkpt lat="42.79976" lon="13.5609233"><ele>984.6666666666667</ele><time>2026-03-29T09:11:31.78Z</time></trkpt><trkpt lat="42.7996933" lon="13.5608667"><ele>980.5</ele><time>2026-03-29T09:11:33.78Z</time></trkpt><trkpt lat="42.79963" lon="13.5607917"><ele>976.3333333333334</ele><time>2026-03-29T09:11:35.779Z</time></trkpt><trkpt lat="42.7995633" lon="13.5607033"><ele>972.1666666666667</ele><time>2026-03-29T09:11:37.78Z</time></trkpt><trkpt lat="42.79949" lon="13.5606383"><ele>968.0</ele><time>2026-03-29T09:11:39.78Z</time></trkpt><trkpt lat="42.799435" lon="13.5605717"><ele>968.0000000000001</ele><time>2026-03-29T09:11:41.78Z</time></trkpt><trkpt lat="42.7993783" lon="13.560515"><ele>968.0</ele><time>2026-03-29T09:11:43.78Z</time></trkpt><trkpt lat="42.7993067" lon="13.5604567"><ele>968.0</ele><time>2026-03-29T09:11:45.779Z</time></trkpt><trkpt lat="42.7992267" lon="13.5603917"><ele>968.0</ele><time>2026-03-29T09:11:47.78Z</time></trkpt><trkpt lat="42.7991533" lon="13.5603217"><ele>968.0000000000001</ele><time>2026-03-29T09:11:49.78Z</time></trkpt><trkpt lat="42.799085" lon="13.5602633"><ele>968.0</ele><time>2026-03-29T09:11:51.78Z</time></trkpt><trkpt lat="42.7990133" lon="13.56019"><ele>967.0</ele><time>2026-03-29T09:11:53.78Z</time></trkpt><trkpt lat="42.7989667" lon="13.5601067"><ele>966.0</ele><time>2026-03-29T09:11:55.78Z</time></trkpt><trkpt lat="42.798995" lon="13.5600167"><ele>965.0</ele><time>2026-03-29T09:11:57.78Z</time></trkpt><trkpt lat="42.7990783" lon="13.5599817"><ele>964.0</ele><time>2026-03-29T09:11:59.78Z</time></trkpt><trkpt lat="42.7991633" lon="13.560035"><ele>963.0</ele><time>2026-03-29T09:12:01.78Z</time></trkpt><trkpt lat="42.7992683" lon="13.5601183"><ele>964.0</ele><time>2026-03-29T09:12:03.78Z</time></trkpt><trkpt lat="42.7993683" lon="13.5601467"><ele>965.0</ele><time>2026-03-29T09:12:05.78Z</time></trkpt><trkpt lat="42.799455" lon="13.5602067"><ele>966.0</ele><time>2026-03-29T09:12:07.78Z</time></trkpt><trkpt lat="42.7995383" lon="13.5602633"><ele>967.0</ele><time>2026-03-29T09:12:09.78Z</time></trkpt><trkpt lat="42.79962" lon="13.5603183"><ele>968.0</ele><time>2026-03-29T09:12:11.78Z</time></trkpt><trkpt lat="42.7996833" lon="13.5603683"><ele>968.0000000000001</ele><time>2026-03-29T09:12:13.78Z</time></trkpt><trkpt lat="42.79975" lon="13.5604"><ele>968.0</ele><time>2026-03-29T09:12:15.78Z</time></trkpt><trkpt lat="42.799805" lon="13.5604617"><ele>968.0</ele><time>2026-03-29T09:12:17.78Z</time></trkpt><trkpt lat="42.7998833" lon="13.5605133"><ele>968.0</ele><time>2026-03-29T09:12:19.78Z</time></trkpt><trkpt lat="42.7999633" lon="13.560555"><ele>968.0000000000001</ele><time>2026-03-29T09:12:21.78Z</time></trkpt><trkpt lat="42.8000333" lon="13.5605917"><ele>968.0</ele><time>2026-03-29T09:12:23.78Z</time></trkpt><trkpt lat="42.8000967" lon="13.56062"><ele>968.0000000000001</ele><time>2026-03-29T09:12:25.78Z</time></trkpt><trkpt lat="42.8001533" lon="13.560565"><ele>968.0</ele><time>2026-03-29T09:12:28.78Z</time></trkpt><trkpt lat="42.8001483" lon="13.56047"><ele>968.0</ele><time>2026-03-29T09:12:30.78Z</time></trkpt><trkpt lat="42.8001133" lon="13.560395"><ele>968.0</ele><time>2026-03-29T09:12:32.78Z</time></trkpt><trkpt lat="42.8000517" lon="13.5603317"><ele>968.0000000000001</ele><time>2026-03-29T09:12:34.78Z</time></trkpt><trkpt lat="42.7999767" lon="13.560255"><ele>968.0</ele><time>2026-03-29T09:12:36.78Z</time></trkpt><trkpt lat="42.7998967" lon="13.5601583"><ele>963.0</ele><time>2026-03-29T09:12:38.78Z</time></trkpt><trkpt lat="42.7998233" lon="13.5600783"><ele>958.0</ele><time>2026-03-29T09:12:40.779Z</time></trkpt><trkpt lat="42.799735" lon="13.5599817"><ele>953.0</ele><time>2026-03-29T09:12:42.78Z</time></trkpt><trkpt lat="42.7996567" lon="13.55991"><ele>948.0</ele><time>2026-03-29T09:12:44.78Z</time></trkpt><trkpt lat="42.79959" lon="13.5598467"><ele>943.0</ele><time>2026-03-29T09:12:46.78Z</time></trkpt><trkpt lat="42.799525" lon="13.55978"><ele>942.9999999999999</ele><time>2026-03-29T09:12:48.78Z</time></trkpt><trkpt lat="42.7994517" lon="13.5597167"><ele>943.0</ele><time>2026-03-29T09:12:50.78Z</time></trkpt><trkpt lat="42.7994033" lon="13.5596433"><ele>943.0</ele><time>2026-03-29T09:12:52.78Z</time></trkpt><trkpt lat="42.79934" lon="13.559555"><ele>943.0</ele><time>2026-03-29T09:12:55.78Z</time></trkpt><trkpt lat="42.7992867" lon="13.5594883"><ele>942.9999999999999</ele><time>2026-03-29T09:12:57.78Z</time></trkpt><trkpt lat="42.7992233" lon="13.5594333"><ele>943.0</ele><time>2026-03-29T09:12:59.78Z</time></trkpt><trkpt lat="42.799145" lon="13.5594033"><ele>942.2</ele><time>2026-03-29T09:13:01.78Z</time></trkpt><trkpt lat="42.7990517" lon="13.559355"><ele>941.4</ele><time>2026-03-29T09:13:03.78Z</time></trkpt><trkpt lat="42.798975" lon="13.5592667"><ele>940.6000000000001</ele><time>2026-03-29T09:13:05.78Z</time></trkpt><trkpt lat="42.7989467" lon="13.5591133"><ele>939.8000000000001</ele><time>2026-03-29T09:13:07.78Z</time></trkpt><trkpt lat="42.7989467" lon="13.5589833"><ele>939.0</ele><time>2026-03-29T09:13:09.78Z</time></trkpt><trkpt lat="42.798995" lon="13.558895"><ele>939.0</ele><time>2026-03-29T09:13:11.78Z</time></trkpt><trkpt lat="42.7990717" lon="13.558835"><ele>939.0000000000001</ele><time>2026-03-29T09:13:13.78Z</time></trkpt><trkpt lat="42.799155" lon="13.558775"><ele>939.0000000000001</ele><time>2026-03-29T09:13:15.78Z</time></trkpt><trkpt lat="42.799235" lon="13.5586983"><ele>939.0</ele><time>2026-03-29T09:13:17.78Z</time></trkpt><trkpt lat="42.7993267" lon="13.5585883"><ele>939.0</ele><time>2026-03-29T09:13:19.78Z</time></trkpt><trkpt lat="42.7993733" lon="13.55853"><ele>934.0</ele><time>2026-03-29T09:13:20.78Z</time></trkpt><trkpt lat="42.7994617" lon="13.5584117"><ele>929.0</ele><time>2026-03-29T09:13:22.78Z</time></trkpt><trkpt lat="42.799535" lon="13.558285"><ele>924.0</ele><time>2026-03-29T09:13:24.78Z</time></trkpt><trkpt lat="42.7995833" lon="13.558145"><ele>919.0</ele><time>2026-03-29T09:13:26.78Z</time></trkpt><trkpt lat="42.7995933" lon="13.5579783"><ele>919.8000000000001</ele><time>2026-03-29T09:13:28.78Z</time></trkpt><trkpt lat="42.7995933" lon="13.5578117"><ele>920.6000000000001</ele><time>2026-03-29T09:13:30.78Z</time></trkpt><trkpt lat="42.7995917" lon="13.5577183"><ele>921.4</ele><time>2026-03-29T09:13:31.78Z</time></trkpt><trkpt lat="42.7995883" lon="13.5575683"><ele>922.2</ele><time>2026-03-29T09:13:33.78Z</time></trkpt><trkpt lat="42.799585" lon="13.557455"><ele>923.0</ele><time>2026-03-29T09:13:36.78Z</time></trkpt><trkpt lat="42.7995617" lon="13.557365"><ele>923.0</ele><time>2026-03-29T09:13:39.779Z</time></trkpt><trkpt lat="42.79959" lon="13.5572367"><ele>923.0</ele><time>2026-03-29T09:19:38.779Z</time></trkpt><trkpt lat="42.7995617" lon="13.5570967"><ele>923.0</ele><time>2026-03-29T09:19:41.779Z</time></trkpt><trkpt lat="42.799525" lon="13.556965"><ele>923.0</ele><time>2026-03-29T09:19:43.779Z</time></trkpt><trkpt lat="42.799455" lon="13.55681"><ele>923.0</ele><time>2026-03-29T09:19:45.779Z</time></trkpt><trkpt lat="42.799405" lon="13.5567183"><ele>923.0</ele><time>2026-03-29T09:19:46.779Z</time></trkpt><trkpt lat="42.7993467" lon="13.5566183"><ele>923.0</ele><time>2026-03-29T09:19:47.779Z</time></trkpt><trkpt lat="42.7992817" lon="13.556525"><ele>923.0</ele><time>2026-03-29T09:19:48.779Z</time></trkpt><trkpt lat="42.7992117" lon="13.5564383"><ele>923.0</ele><time>2026-03-29T09:19:49.779Z</time></trkpt><trkpt lat="42.799135" lon="13.556355"><ele>923.0</ele><time>2026-03-29T09:19:50.778Z</time></trkpt><trkpt lat="42.7990517" lon="13.5562617"><ele>922.6666666666667</ele><time>2026-03-29T09:19:51.779Z</time></trkpt><trkpt lat="42.79898" lon="13.5561767"><ele>922.3333333333334</ele><time>2026-03-29T09:19:52.778Z</time></trkpt><trkpt lat="42.798915" lon="13.5560867"><ele>922.0</ele><time>2026-03-29T09:19:53.778Z</time></trkpt><trkpt lat="42.798865" lon="13.555985"><ele>921.6666666666667</ele><time>2026-03-29T09:19:54.779Z</time></trkpt><trkpt lat="42.7988317" lon="13.5558867"><ele>921.3333333333334</ele><time>2026-03-29T09:19:55.779Z</time></trkpt><trkpt lat="42.7988183" lon="13.5557733"><ele>921.0</ele><time>2026-03-29T09:19:56.779Z</time></trkpt><trkpt lat="42.7988333" lon="13.5556533"><ele>921.0</ele><time>2026-03-29T09:19:57.779Z</time></trkpt><trkpt lat="42.798885" lon="13.5555283"><ele>921.0</ele><time>2026-03-29T09:19:58.778Z</time></trkpt><trkpt lat="42.7989617" lon="13.5554067"><ele>921.0</ele><time>2026-03-29T09:19:59.779Z</time></trkpt><trkpt lat="42.799055" lon="13.55529"><ele>921.0</ele><time>2026-03-29T09:20:00.779Z</time></trkpt><trkpt lat="42.79916" lon="13.5551683"><ele>919.6666666666667</ele><time>2026-03-29T09:20:01.779Z</time></trkpt><trkpt lat="42.7992783" lon="13.55504"><ele>918.3333333333334</ele><time>2026-03-29T09:20:02.779Z</time></trkpt><trkpt lat="42.7994" lon="13.55491"><ele>917.0</ele><time>2026-03-29T09:20:03.779Z</time></trkpt><trkpt lat="42.7995233" lon="13.5547917"><ele>916.0</ele><time>2026-03-29T09:20:04.779Z</time></trkpt><trkpt lat="42.7996433" lon="13.5546817"><ele>915.0</ele><time>2026-03-29T09:20:05.778Z</time></trkpt><trkpt lat="42.7997633" lon="13.5545683"><ele>914.0</ele><time>2026-03-29T09:20:06.779Z</time></trkpt><trkpt lat="42.79989" lon="13.5544767"><ele>913.0</ele><time>2026-03-29T09:20:07.779Z</time></trkpt><trkpt lat="42.8000133" lon="13.5544083"><ele>913.0</ele><time>2026-03-29T09:20:08.779Z</time></trkpt><trkpt lat="42.8001333" lon="13.554335"><ele>913.0</ele><time>2026-03-29T09:20:09.779Z</time></trkpt><trkpt lat="42.8002383" lon="13.55426"><ele>913.0</ele><time>2026-03-29T09:20:10.779Z</time></trkpt><trkpt lat="42.8003333" lon="13.5541733"><ele>913.0</ele><time>2026-03-29T09:20:11.779Z</time></trkpt><trkpt lat="42.8004083" lon="13.5540733"><ele>909.6666666666666</ele><time>2026-03-29T09:20:12.779Z</time></trkpt><trkpt lat="42.8004633" lon="13.5539717"><ele>906.3333333333333</ele><time>2026-03-29T09:20:13.779Z</time></trkpt><trkpt lat="42.80049" lon="13.5538717"><ele>903.0</ele><time>2026-03-29T09:20:14.779Z</time></trkpt><trkpt lat="42.8004783" lon="13.5537783"><ele>899.6666666666667</ele><time>2026-03-29T09:20:15.779Z</time></trkpt><trkpt lat="42.8004433" lon="13.5536717"><ele>896.3333333333334</ele><time>2026-03-29T09:20:16.779Z</time></trkpt><trkpt lat="42.8003917" lon="13.5535433"><ele>893.0</ele><time>2026-03-29T09:20:17.779Z</time></trkpt><trkpt lat="42.8003233" lon="13.5534"><ele>893.0</ele><time>2026-03-29T09:20:18.779Z</time></trkpt><trkpt lat="42.8002483" lon="13.5532667"><ele>893.0</ele><time>2026-03-29T09:20:19.779Z</time></trkpt><trkpt lat="42.8001767" lon="13.553145"><ele>893.0</ele><time>2026-03-29T09:20:20.779Z</time></trkpt><trkpt lat="42.8000883" lon="13.5530417"><ele>893.0</ele><time>2026-03-29T09:20:21.779Z</time></trkpt><trkpt lat="42.7999867" lon="13.55295"><ele>895.75</ele><time>2026-03-29T09:20:22.779Z</time></trkpt><trkpt lat="42.7998833" lon="13.5528583"><ele>898.5</ele><time>2026-03-29T09:20:23.778Z</time></trkpt><trkpt lat="42.7997883" lon="13.5527617"><ele>901.25</ele><time>2026-03-29T09:20:24.779Z</time></trkpt><trkpt lat="42.7997167" lon="13.5526583"><ele>904.0</ele><time>2026-03-29T09:20:25.778Z</time></trkpt><trkpt lat="42.7996617" lon="13.55253"><ele>904.0</ele><time>2026-03-29T09:20:26.779Z</time></trkpt><trkpt lat="42.799625" lon="13.5523833"><ele>904.0</ele><time>2026-03-29T09:20:27.779Z</time></trkpt><trkpt lat="42.79962" lon="13.552215"><ele>904.0</ele><time>2026-03-29T09:20:28.778Z</time></trkpt><trkpt lat="42.7996417" lon="13.552045"><ele>904.0</ele><time>2026-03-29T09:20:29.779Z</time></trkpt><trkpt lat="42.7996733" lon="13.55189"><ele>902.25</ele><time>2026-03-29T09:20:30.779Z</time></trkpt><trkpt lat="42.7996933" lon="13.5517283"><ele>900.5</ele><time>2026-03-29T09:20:31.779Z</time></trkpt><trkpt lat="42.7996917" lon="13.5515633"><ele>898.75</ele><time>2026-03-29T09:20:32.779Z</time></trkpt><trkpt lat="42.7996717" lon="13.551385"><ele>897.0</ele><time>2026-03-29T09:20:33.779Z</time></trkpt><trkpt lat="42.79963" lon="13.5512083"><ele>896.2</ele><time>2026-03-29T09:20:34.779Z</time></trkpt><trkpt lat="42.7995867" lon="13.5510483"><ele>895.4000000000001</ele><time>2026-03-29T09:20:35.779Z</time></trkpt><trkpt lat="42.799545" lon="13.550905"><ele>894.5999999999999</ele><time>2026-03-29T09:20:36.779Z</time></trkpt><trkpt lat="42.7995033" lon="13.5507967"><ele>893.8</ele><time>2026-03-29T09:20:37.779Z</time></trkpt><trkpt lat="42.7994517" lon="13.5507133"><ele>893.0</ele><time>2026-03-29T09:20:38.779Z</time></trkpt><trkpt lat="42.7993833" lon="13.550645"><ele>894.8</ele><time>2026-03-29T09:20:39.779Z</time></trkpt><trkpt lat="42.7992967" lon="13.5505783"><ele>896.5999999999999</ele><time>2026-03-29T09:20:40.779Z</time></trkpt><trkpt lat="42.7991967" lon="13.5505183"><ele>898.4000000000001</ele><time>2026-03-29T09:20:41.779Z</time></trkpt><trkpt lat="42.7990917" lon="13.5504533"><ele>900.2</ele><time>2026-03-29T09:20:42.779Z</time></trkpt><trkpt lat="42.7989867" lon="13.5504167"><ele>902.0</ele><time>2026-03-29T09:20:43.778Z</time></trkpt><trkpt lat="42.7988983" lon="13.5503983"><ele>902.0</ele><time>2026-03-29T09:20:44.779Z</time></trkpt><trkpt lat="42.7988017" lon="13.5504167"><ele>902.0</ele><time>2026-03-29T09:20:45.779Z</time></trkpt><trkpt lat="42.79869" lon="13.5504783"><ele>902.0</ele><time>2026-03-29T09:20:46.778Z</time></trkpt><trkpt lat="42.79858" lon="13.55056"><ele>902.0</ele><time>2026-03-29T09:20:47.779Z</time></trkpt><trkpt lat="42.7984833" lon="13.550655"><ele>899.8</ele><time>2026-03-29T09:20:48.779Z</time></trkpt><trkpt lat="42.7984" lon="13.5507517"><ele>897.6</ele><time>2026-03-29T09:20:49.779Z</time></trkpt><trkpt lat="42.798325" lon="13.550835"><ele>895.3999999999999</ele><time>2026-03-29T09:20:50.779Z</time></trkpt><trkpt lat="42.7982567" lon="13.5509017"><ele>893.1999999999999</ele><time>2026-03-29T09:20:51.779Z</time></trkpt><trkpt lat="42.7981833" lon="13.550935"><ele>891.0</ele><time>2026-03-29T09:20:52.779Z</time></trkpt><trkpt lat="42.798095" lon="13.5509267"><ele>891.0</ele><time>2026-03-29T09:20:54.779Z</time></trkpt><trkpt lat="42.7980933" lon="13.5507983"><ele>890.9999999999999</ele><time>2026-03-29T09:20:56.779Z</time></trkpt><trkpt lat="42.7981283" lon="13.55068"><ele>890.9999999999999</ele><time>2026-03-29T09:20:57.779Z</time></trkpt><trkpt lat="42.798175" lon="13.5505467"><ele>891.0</ele><time>2026-03-29T09:20:58.779Z</time></trkpt><trkpt lat="42.7982333" lon="13.5504"><ele>891.0</ele><time>2026-03-29T09:20:59.779Z</time></trkpt><trkpt lat="42.7982817" lon="13.5502367"><ele>887.25</ele><time>2026-03-29T09:21:00.778Z</time></trkpt><trkpt lat="42.7983333" lon="13.5500717"><ele>883.5</ele><time>2026-03-29T09:21:01.778Z</time></trkpt><trkpt lat="42.7983833" lon="13.54991"><ele>879.75</ele><time>2026-03-29T09:21:02.779Z</time></trkpt><trkpt lat="42.7984317" lon="13.5497583"><ele>876.0</ele><time>2026-03-29T09:21:03.778Z</time></trkpt><trkpt lat="42.798475" lon="13.5496117"><ele>878.5</ele><time>2026-03-29T09:21:04.779Z</time></trkpt><trkpt lat="42.7985033" lon="13.54946"><ele>881.0</ele><time>2026-03-29T09:21:05.779Z</time></trkpt><trkpt lat="42.7985033" lon="13.5492983"><ele>883.5</ele><time>2026-03-29T09:21:06.779Z</time></trkpt><trkpt lat="42.7984817" lon="13.5491417"><ele>886.0</ele><time>2026-03-29T09:21:07.779Z</time></trkpt><trkpt lat="42.7984567" lon="13.549"><ele>882.5999999999999</ele><time>2026-03-29T09:21:08.779Z</time></trkpt><trkpt lat="42.7984467" lon="13.5488783"><ele>879.1999999999999</ele><time>2026-03-29T09:21:09.779Z</time></trkpt><trkpt lat="42.7984483" lon="13.54876"><ele>875.8000000000001</ele><time>2026-03-29T09:21:10.779Z</time></trkpt><trkpt lat="42.7984883" lon="13.5486567"><ele>872.4000000000001</ele><time>2026-03-29T09:21:11.779Z</time></trkpt><trkpt lat="42.7985517" lon="13.5485517"><ele>869.0</ele><time>2026-03-29T09:21:12.779Z</time></trkpt><trkpt lat="42.7986533" lon="13.5484717"><ele>869.0</ele><time>2026-03-29T09:21:13.779Z</time></trkpt><trkpt lat="42.79877" lon="13.5483917"><ele>869.0</ele><time>2026-03-29T09:21:14.779Z</time></trkpt><trkpt lat="42.798865" lon="13.5482883"><ele>869.0</ele><time>2026-03-29T09:21:15.779Z</time></trkpt><trkpt lat="42.7989167" lon="13.5481717"><ele>869.0</ele><time>2026-03-29T09:21:16.779Z</time></trkpt><trkpt lat="42.7989417" lon="13.5480267"><ele>869.0</ele><time>2026-03-29T09:21:17.779Z</time></trkpt><trkpt lat="42.7989717" lon="13.5479067"><ele>869.0000000000001</ele><time>2026-03-29T09:21:18.779Z</time></trkpt><trkpt lat="42.79902" lon="13.547785"><ele>869.0000000000001</ele><time>2026-03-29T09:21:19.779Z</time></trkpt><trkpt lat="42.7991" lon="13.547675"><ele>869.0</ele><time>2026-03-29T09:21:20.778Z</time></trkpt><trkpt lat="42.7991983" lon="13.5475483"><ele>869.0</ele><time>2026-03-29T09:21:21.779Z</time></trkpt><trkpt lat="42.7992967" lon="13.5473917"><ele>865.25</ele><time>2026-03-29T09:21:22.779Z</time></trkpt><trkpt lat="42.7993817" lon="13.5472333"><ele>861.5</ele><time>2026-03-29T09:21:23.779Z</time></trkpt><trkpt lat="42.7994683" lon="13.547085"><ele>857.75</ele><time>2026-03-29T09:21:24.779Z</time></trkpt><trkpt lat="42.7995467" lon="13.5469667"><ele>854.0</ele><time>2026-03-29T09:21:25.779Z</time></trkpt><trkpt lat="42.7996117" lon="13.546875"><ele>849.4000000000001</ele><time>2026-03-29T09:21:26.779Z</time></trkpt><trkpt lat="42.7996583" lon="13.5467883"><ele>844.8000000000001</ele><time>2026-03-29T09:21:27.779Z</time></trkpt><trkpt lat="42.79969" lon="13.5466467"><ele>840.2</ele><time>2026-03-29T09:21:29.778Z</time></trkpt><trkpt lat="42.7995917" lon="13.5465533"><ele>835.5999999999999</ele><time>2026-03-29T09:21:31.779Z</time></trkpt><trkpt lat="42.799525" lon="13.5465683"><ele>831.0</ele><time>2026-03-29T09:21:32.779Z</time></trkpt><trkpt lat="42.7994433" lon="13.5466067"><ele>831.0</ele><time>2026-03-29T09:21:33.779Z</time></trkpt><trkpt lat="42.7993483" lon="13.54667"><ele>831.0</ele><time>2026-03-29T09:21:34.779Z</time></trkpt><trkpt lat="42.79924" lon="13.5467617"><ele>831.0</ele><time>2026-03-29T09:21:35.779Z</time></trkpt><trkpt lat="42.7991217" lon="13.54687"><ele>831.0</ele><time>2026-03-29T09:21:36.778Z</time></trkpt><trkpt lat="42.799015" lon="13.5469867"><ele>834.25</ele><time>2026-03-29T09:21:37.779Z</time></trkpt><trkpt lat="42.798925" lon="13.5471"><ele>837.5</ele><time>2026-03-29T09:21:38.779Z</time></trkpt><trkpt lat="42.7988417" lon="13.547205"><ele>840.75</ele><time>2026-03-29T09:21:39.779Z</time></trkpt><trkpt lat="42.7987467" lon="13.5473017"><ele>844.0</ele><time>2026-03-29T09:21:40.779Z</time></trkpt><trkpt lat="42.79863" lon="13.54739"><ele>838.0</ele><time>2026-03-29T09:21:41.779Z</time></trkpt><trkpt lat="42.7984917" lon="13.54746"><ele>832.0</ele><time>2026-03-29T09:21:42.778Z</time></trkpt><trkpt lat="42.7983583" lon="13.5475117"><ele>826.0</ele><time>2026-03-29T09:21:43.779Z</time></trkpt><trkpt lat="42.7982383" lon="13.5475533"><ele>820.0</ele><time>2026-03-29T09:21:44.779Z</time></trkpt><trkpt lat="42.798125" lon="13.5476033"><ele>820.0</ele><time>2026-03-29T09:21:45.779Z</time></trkpt><trkpt lat="42.7980067" lon="13.5476833"><ele>820.0</ele><time>2026-03-29T09:21:46.779Z</time></trkpt><trkpt lat="42.7978883" lon="13.5477817"><ele>820.0</ele><time>2026-03-29T09:21:47.779Z</time></trkpt><trkpt lat="42.7977767" lon="13.547895"><ele>820.0</ele><time>2026-03-29T09:21:48.779Z</time></trkpt><trkpt lat="42.7976667" lon="13.5480033"><ele>817.75</ele><time>2026-03-29T09:21:49.779Z</time></trkpt><trkpt lat="42.7975617" lon="13.548105"><ele>815.5</ele><time>2026-03-29T09:21:50.779Z</time></trkpt><trkpt lat="42.7974567" lon="13.5482067"><ele>813.25</ele><time>2026-03-29T09:21:51.778Z</time></trkpt><trkpt lat="42.7973467" lon="13.5483167"><ele>811.0</ele><time>2026-03-29T09:21:52.778Z</time></trkpt><trkpt lat="42.79725" lon="13.548435"><ele>811.0</ele><time>2026-03-29T09:21:53.779Z</time></trkpt><trkpt lat="42.7971733" lon="13.5485533"><ele>811.0</ele><time>2026-03-29T09:21:54.779Z</time></trkpt><trkpt lat="42.7971167" lon="13.548685"><ele>811.0</ele><time>2026-03-29T09:21:55.779Z</time></trkpt><trkpt lat="42.7970683" lon="13.5488283"><ele>811.0</ele><time>2026-03-29T09:21:56.779Z</time></trkpt><trkpt lat="42.7970183" lon="13.548975"><ele>807.5</ele><time>2026-03-29T09:21:57.779Z</time></trkpt><trkpt lat="42.79696" lon="13.5491167"><ele>804.0</ele><time>2026-03-29T09:21:58.779Z</time></trkpt><trkpt lat="42.79689" lon="13.54925"><ele>800.5</ele><time>2026-03-29T09:21:59.779Z</time></trkpt><trkpt lat="42.796805" lon="13.5493617"><ele>797.0</ele><time>2026-03-29T09:22:00.779Z</time></trkpt><trkpt lat="42.7967217" lon="13.549445"><ele>797.0</ele><time>2026-03-29T09:22:01.779Z</time></trkpt><trkpt lat="42.796625" lon="13.5495133"><ele>797.0</ele><time>2026-03-29T09:22:02.779Z</time></trkpt><trkpt lat="42.7965283" lon="13.549575"><ele>797.0</ele><time>2026-03-29T09:22:03.779Z</time></trkpt><trkpt lat="42.7964233" lon="13.5496383"><ele>797.0</ele><time>2026-03-29T09:22:04.778Z</time></trkpt><trkpt lat="42.796325" lon="13.5496683"><ele>797.0</ele><time>2026-03-29T09:22:05.779Z</time></trkpt><trkpt lat="42.796235" lon="13.54969"><ele>797.0</ele><time>2026-03-29T09:22:06.779Z</time></trkpt><trkpt lat="42.79613" lon="13.549615"><ele>797.0</ele><time>2026-03-29T09:22:08.779Z</time></trkpt><trkpt lat="42.7961233" lon="13.549475"><ele>797.0</ele><time>2026-03-29T09:22:10.779Z</time></trkpt><trkpt lat="42.7961533" lon="13.5493917"><ele>797.0</ele><time>2026-03-29T09:22:11.779Z</time></trkpt><trkpt lat="42.796215" lon="13.5492883"><ele>797.0</ele><time>2026-03-29T09:22:12.778Z</time></trkpt><trkpt lat="42.7963183" lon="13.549155"><ele>797.0</ele><time>2026-03-29T09:22:13.779Z</time></trkpt><trkpt lat="42.7964083" lon="13.5490367"><ele>797.0</ele><time>2026-03-29T09:22:14.779Z</time></trkpt><trkpt lat="42.796475" lon="13.548925"><ele>797.0</ele><time>2026-03-29T09:22:15.779Z</time></trkpt><trkpt lat="42.79652" lon="13.548825"><ele>797.0</ele><time>2026-03-29T09:22:16.779Z</time></trkpt><trkpt lat="42.7965483" lon="13.548745"><ele>797.0</ele><time>2026-03-29T09:22:17.779Z</time></trkpt><trkpt lat="42.7965633" lon="13.5486067"><ele>797.0</ele><time>2026-03-29T09:22:19.779Z</time></trkpt><trkpt lat="42.7964933" lon="13.5486467"><ele>797.0</ele><time>2026-03-29T09:22:55.778Z</time></trkpt><trkpt lat="42.7964167" lon="13.548805"><ele>797.0</ele><time>2026-03-29T09:22:57.779Z</time></trkpt><trkpt lat="42.79636" lon="13.5489067"><ele>797.0</ele><time>2026-03-29T09:22:58.778Z</time></trkpt><trkpt lat="42.7962817" lon="13.549"><ele>797.0</ele><time>2026-03-29T09:22:59.779Z</time></trkpt><trkpt lat="42.7961933" lon="13.5490833"><ele>797.0</ele><time>2026-03-29T09:23:00.779Z</time></trkpt><trkpt lat="42.7960933" lon="13.54915"><ele>797.0</ele><time>2026-03-29T09:23:01.778Z</time></trkpt><trkpt lat="42.796005" lon="13.549205"><ele>797.0</ele><time>2026-03-29T09:23:02.779Z</time></trkpt><trkpt lat="42.79592" lon="13.5492833"><ele>797.0</ele><time>2026-03-29T09:23:03.779Z</time></trkpt><trkpt lat="42.795835" lon="13.5493733"><ele>797.0</ele><time>2026-03-29T09:23:04.779Z</time></trkpt><trkpt lat="42.79575" lon="13.5494633"><ele>798.0</ele><time>2026-03-29T09:23:05.779Z</time></trkpt><trkpt lat="42.795665" lon="13.54957"><ele>799.0</ele><time>2026-03-29T09:23:06.779Z</time></trkpt><trkpt lat="42.7955783" lon="13.5496733"><ele>800.0</ele><time>2026-03-29T09:23:07.779Z</time></trkpt><trkpt lat="42.795495" lon="13.5497967"><ele>801.0</ele><time>2026-03-29T09:23:08.779Z</time></trkpt><trkpt lat="42.79541" lon="13.5499"><ele>801.0</ele><time>2026-03-29T09:23:09.779Z</time></trkpt><trkpt lat="42.7953333" lon="13.55"><ele>801.0</ele><time>2026-03-29T09:23:10.779Z</time></trkpt><trkpt lat="42.7952483" lon="13.5501067"><ele>801.0</ele><time>2026-03-29T09:23:11.779Z</time></trkpt><trkpt lat="42.79517" lon="13.550205"><ele>801.0</ele><time>2026-03-29T09:23:12.779Z</time></trkpt><trkpt lat="42.7951" lon="13.550295"><ele>801.0</ele><time>2026-03-29T09:23:13.779Z</time></trkpt><trkpt lat="42.7950467" lon="13.5503817"><ele>797.4</ele><time>2026-03-29T09:23:14.779Z</time></trkpt><trkpt lat="42.795" lon="13.5504817"><ele>793.8</ele><time>2026-03-29T09:23:15.779Z</time></trkpt><trkpt lat="42.7949733" lon="13.5505967"><ele>790.1999999999999</ele><time>2026-03-29T09:23:16.779Z</time></trkpt><trkpt lat="42.794965" lon="13.5507317"><ele>786.5999999999999</ele><time>2026-03-29T09:23:17.779Z</time></trkpt><trkpt lat="42.7949683" lon="13.5508833"><ele>783.0</ele><time>2026-03-29T09:23:18.779Z</time></trkpt><trkpt lat="42.79496" lon="13.5510533"><ele>785.0</ele><time>2026-03-29T09:23:19.779Z</time></trkpt><trkpt lat="42.7949517" lon="13.55121"><ele>787.0</ele><time>2026-03-29T09:23:20.779Z</time></trkpt><trkpt lat="42.7949483" lon="13.5513533"><ele>789.0</ele><time>2026-03-29T09:23:21.779Z</time></trkpt><trkpt lat="42.79494" lon="13.5514833"><ele>791.0</ele><time>2026-03-29T09:23:22.779Z</time></trkpt><trkpt lat="42.794925" lon="13.551615"><ele>793.0</ele><time>2026-03-29T09:23:23.779Z</time></trkpt><trkpt lat="42.7949183" lon="13.5517467"><ele>792.9999999999999</ele><time>2026-03-29T09:23:24.779Z</time></trkpt><trkpt lat="42.7949083" lon="13.5518633"><ele>793.0</ele><time>2026-03-29T09:23:25.779Z</time></trkpt><trkpt lat="42.7949067" lon="13.551985"><ele>793.0</ele><time>2026-03-29T09:23:26.779Z</time></trkpt><trkpt lat="42.7949033" lon="13.5520917"><ele>793.0</ele><time>2026-03-29T09:23:27.779Z</time></trkpt><trkpt lat="42.7949083" lon="13.5521983"><ele>792.9999999999999</ele><time>2026-03-29T09:23:28.779Z</time></trkpt><trkpt lat="42.7949083" lon="13.552295"><ele>793.0</ele><time>2026-03-29T09:23:29.779Z</time></trkpt><trkpt lat="42.79489" lon="13.552405"><ele>793.6666666666666</ele><time>2026-03-29T09:23:30.779Z</time></trkpt><trkpt lat="42.7948583" lon="13.552525"><ele>794.3333333333333</ele><time>2026-03-29T09:23:31.779Z</time></trkpt><trkpt lat="42.7948217" lon="13.5526517"><ele>795.0</ele><time>2026-03-29T09:23:32.778Z</time></trkpt><trkpt lat="42.7947817" lon="13.5527567"><ele>795.6666666666667</ele><time>2026-03-29T09:23:33.778Z</time></trkpt><trkpt lat="42.7947433" lon="13.552855"><ele>796.3333333333334</ele><time>2026-03-29T09:23:34.779Z</time></trkpt><trkpt lat="42.7947" lon="13.5529217"><ele>797.0</ele><time>2026-03-29T09:23:35.779Z</time></trkpt><trkpt lat="42.794605" lon="13.5530317"><ele>797.1666666666667</ele><time>2026-03-29T09:23:37.779Z</time></trkpt><trkpt lat="42.7945333" lon="13.5530833"><ele>797.3333333333334</ele><time>2026-03-29T09:23:39.779Z</time></trkpt><trkpt lat="42.79451" lon="13.5531667"><ele>797.5</ele><time>2026-03-29T09:23:43.778Z</time></trkpt><trkpt lat="42.7945883" lon="13.5532317"><ele>797.6666666666667</ele><time>2026-03-29T09:23:45.779Z</time></trkpt><trkpt lat="42.7946533" lon="13.5533017"><ele>797.8333333333334</ele><time>2026-03-29T09:23:47.779Z</time></trkpt><trkpt lat="42.7947067" lon="13.55338"><ele>798.0</ele><time>2026-03-29T09:23:49.779Z</time></trkpt><trkpt lat="42.7947733" lon="13.5534533"><ele>798.0</ele><time>2026-03-29T09:23:52.779Z</time></trkpt><trkpt lat="42.7948067" lon="13.5535333"><ele>798.0</ele><time>2026-03-29T09:23:54.779Z</time></trkpt><trkpt lat="42.79484" lon="13.5536367"><ele>798.0</ele><time>2026-03-29T09:23:56.779Z</time></trkpt><trkpt lat="42.7948483" lon="13.5537417"><ele>798.0</ele><time>2026-03-29T09:23:58.779Z</time></trkpt><trkpt lat="42.7948317" lon="13.5538783"><ele>798.0</ele><time>2026-03-29T09:24:00.779Z</time></trkpt><trkpt lat="42.79481" lon="13.5540117"><ele>798.0</ele><time>2026-03-29T09:24:02.779Z</time></trkpt><trkpt lat="42.79484" lon="13.5541133"><ele>798.0</ele><time>2026-03-29T09:24:04.779Z</time></trkpt><trkpt lat="42.7949033" lon="13.554205"><ele>798.0</ele><time>2026-03-29T09:24:06.779Z</time></trkpt><trkpt lat="42.7949067" lon="13.55432"><ele>798.0</ele><time>2026-03-29T09:24:08.778Z</time></trkpt><trkpt lat="42.7948417" lon="13.5544333"><ele>798.0</ele><time>2026-03-29T09:24:10.779Z</time></trkpt><trkpt lat="42.7947467" lon="13.55449"><ele>798.0</ele><time>2026-03-29T09:24:12.779Z</time></trkpt><trkpt lat="42.7946567" lon="13.5544867"><ele>798.0</ele><time>2026-03-29T09:24:14.779Z</time></trkpt><trkpt lat="42.79458" lon="13.554515"><ele>798.0</ele><time>2026-03-29T09:24:16.779Z</time></trkpt><trkpt lat="42.7945083" lon="13.5545483"><ele>798.0</ele><time>2026-03-29T09:24:18.779Z</time></trkpt><trkpt lat="42.7944167" lon="13.55457"><ele>798.0</ele><time>2026-03-29T09:24:20.779Z</time></trkpt><trkpt lat="42.7943017" lon="13.5545933"><ele>798.0</ele><time>2026-03-29T09:24:22.779Z</time></trkpt><trkpt lat="42.79418" lon="13.5546"><ele>800.2</ele><time>2026-03-29T09:24:24.779Z</time></trkpt><trkpt lat="42.7940617" lon="13.5545817"><ele>802.4</ele><time>2026-03-29T09:24:26.779Z</time></trkpt><trkpt lat="42.793995" lon="13.55459"><ele>804.6</ele><time>2026-03-29T09:24:27.779Z</time></trkpt><trkpt lat="42.7938733" lon="13.5546183"><ele>806.8000000000001</ele><time>2026-03-29T09:24:29.778Z</time></trkpt><trkpt lat="42.7937517" lon="13.55462"><ele>809.0</ele><time>2026-03-29T09:24:31.779Z</time></trkpt><trkpt lat="42.79364" lon="13.5546133"><ele>809.0</ele><time>2026-03-29T09:24:33.779Z</time></trkpt><trkpt lat="42.7935433" lon="13.5546067"><ele>809.0</ele><time>2026-03-29T09:24:35.779Z</time></trkpt><trkpt lat="42.79345" lon="13.5546017"><ele>809.0</ele><time>2026-03-29T09:24:37.779Z</time></trkpt><trkpt lat="42.79335" lon="13.55459"><ele>809.0</ele><time>2026-03-29T09:24:39.779Z</time></trkpt><trkpt lat="42.79324" lon="13.5545967"><ele>809.0</ele><time>2026-03-29T09:24:41.778Z</time></trkpt><trkpt lat="42.7931083" lon="13.5545567"><ele>804.1666666666667</ele><time>2026-03-29T09:24:43.779Z</time></trkpt><trkpt lat="42.7930383" lon="13.5545233"><ele>799.3333333333334</ele><time>2026-03-29T09:24:44.779Z</time></trkpt><trkpt lat="42.79297" lon="13.5544933"><ele>794.5</ele><time>2026-03-29T09:24:45.779Z</time></trkpt><trkpt lat="42.7929067" lon="13.5544833"><ele>789.6666666666667</ele><time>2026-03-29T09:24:46.779Z</time></trkpt><trkpt lat="42.7927967" lon="13.5544617"><ele>784.8333333333334</ele><time>2026-03-29T09:24:48.778Z</time></trkpt><trkpt lat="42.792705" lon="13.55448"><ele>780.0</ele><time>2026-03-29T09:24:50.779Z</time></trkpt><trkpt lat="42.7926" lon="13.55457"><ele>780.0</ele><time>2026-03-29T09:24:52.779Z</time></trkpt><trkpt lat="42.79252" lon="13.5547083"><ele>780.0</ele><time>2026-03-29T09:24:54.779Z</time></trkpt><trkpt lat="42.7924833" lon="13.5547867"><ele>780.0</ele><time>2026-03-29T09:24:55.779Z</time></trkpt><trkpt lat="42.7924467" lon="13.5548617"><ele>780.0</ele><time>2026-03-29T09:24:56.779Z</time></trkpt><trkpt lat="42.79241" lon="13.5549367"><ele>780.0</ele><time>2026-03-29T09:24:57.778Z</time></trkpt><trkpt lat="42.7923717" lon="13.55501"><ele>780.0</ele><time>2026-03-29T09:24:58.779Z</time></trkpt><trkpt lat="42.7923267" lon="13.5550733"><ele>780.0</ele><time>2026-03-29T09:24:59.778Z</time></trkpt><trkpt lat="42.79228" lon="13.5551533"><ele>780.0</ele><time>2026-03-29T09:25:00.779Z</time></trkpt><trkpt lat="42.7922233" lon="13.55522"><ele>780.0</ele><time>2026-03-29T09:25:01.779Z</time></trkpt><trkpt lat="42.7921667" lon="13.55529"><ele>780.0</ele><time>2026-03-29T09:25:02.779Z</time></trkpt><trkpt lat="42.7921017" lon="13.5553467"><ele>780.0</ele><time>2026-03-29T09:25:03.779Z</time></trkpt><trkpt lat="42.7920333" lon="13.555395"><ele>780.0</ele><time>2026-03-29T09:25:04.779Z</time></trkpt><trkpt lat="42.7919617" lon="13.5554233"><ele>779.0</ele><time>2026-03-29T09:25:05.779Z</time></trkpt><trkpt lat="42.7918833" lon="13.555445"><ele>778.0</ele><time>2026-03-29T09:25:06.779Z</time></trkpt><trkpt lat="42.79181" lon="13.5554683"><ele>777.0</ele><time>2026-03-29T09:25:07.779Z</time></trkpt><trkpt lat="42.79174" lon="13.555495"><ele>776.0</ele><time>2026-03-29T09:25:08.779Z</time></trkpt><trkpt lat="42.79168" lon="13.5555483"><ele>775.0</ele><time>2026-03-29T09:25:09.779Z</time></trkpt><trkpt lat="42.791625" lon="13.5556117"><ele>774.0</ele><time>2026-03-29T09:25:10.779Z</time></trkpt><trkpt lat="42.7915683" lon="13.5556833"><ele>773.0</ele><time>2026-03-29T09:25:11.778Z</time></trkpt><trkpt lat="42.7915033" lon="13.5557367"><ele>773.0000000000001</ele><time>2026-03-29T09:25:12.779Z</time></trkpt><trkpt lat="42.7914317" lon="13.55578"><ele>773.0</ele><time>2026-03-29T09:25:13.778Z</time></trkpt><trkpt lat="42.791355" lon="13.55582"><ele>773.0</ele><time>2026-03-29T09:25:14.779Z</time></trkpt><trkpt lat="42.7912833" lon="13.5558533"><ele>773.0</ele><time>2026-03-29T09:25:15.778Z</time></trkpt><trkpt lat="42.7912183" lon="13.555885"><ele>773.0000000000001</ele><time>2026-03-29T09:25:16.779Z</time></trkpt><trkpt lat="42.7911217" lon="13.5559433"><ele>773.0</ele><time>2026-03-29T09:25:18.779Z</time></trkpt><trkpt lat="42.7910233" lon="13.5559367"><ele>771.6666666666667</ele><time>2026-03-29T09:25:20.779Z</time></trkpt><trkpt lat="42.7909417" lon="13.5558617"><ele>770.3333333333334</ele><time>2026-03-29T09:25:22.78Z</time></trkpt><trkpt lat="42.790875" lon="13.5557767"><ele>769.0</ele><time>2026-03-29T09:25:24.78Z</time></trkpt><trkpt lat="42.790785" lon="13.55571"><ele>767.6666666666667</ele><time>2026-03-29T09:25:26.78Z</time></trkpt><trkpt lat="42.7907017" lon="13.555665"><ele>766.3333333333334</ele><time>2026-03-29T09:25:28.78Z</time></trkpt><trkpt lat="42.7906483" lon="13.5556183"><ele>765.0</ele><time>2026-03-29T09:25:29.78Z</time></trkpt><trkpt lat="42.7905717" lon="13.5554883"><ele>761.8333333333334</ele><time>2026-03-29T09:25:31.78Z</time></trkpt><trkpt lat="42.7905183" lon="13.555365"><ele>758.6666666666666</ele><time>2026-03-29T09:25:33.78Z</time></trkpt><trkpt lat="42.7904367" lon="13.5552867"><ele>755.5</ele><time>2026-03-29T09:25:35.78Z</time></trkpt><trkpt lat="42.790365" lon="13.555265"><ele>752.3333333333333</ele><time>2026-03-29T09:25:36.78Z</time></trkpt><trkpt lat="42.7903" lon="13.5552417"><ele>749.1666666666666</ele><time>2026-03-29T09:25:37.78Z</time></trkpt><trkpt lat="42.790235" lon="13.55521"><ele>746.0</ele><time>2026-03-29T09:25:38.78Z</time></trkpt><trkpt lat="42.790175" lon="13.5551683"><ele>747.1999999999999</ele><time>2026-03-29T09:25:39.78Z</time></trkpt><trkpt lat="42.7900667" lon="13.5551033"><ele>748.4</ele><time>2026-03-29T09:25:41.78Z</time></trkpt><trkpt lat="42.7899767" lon="13.555115"><ele>749.6</ele><time>2026-03-29T09:25:43.779Z</time></trkpt><trkpt lat="42.7898883" lon="13.5551917"><ele>750.8</ele><time>2026-03-29T09:25:45.779Z</time></trkpt><trkpt lat="42.78981" lon="13.5552983"><ele>752.0</ele><time>2026-03-29T09:25:47.78Z</time></trkpt><trkpt lat="42.789735" lon="13.5553217"><ele>752.0</ele><time>2026-03-29T09:25:57.78Z</time></trkpt><trkpt lat="42.7896333" lon="13.5553017"><ele>752.0</ele><time>2026-03-29T09:26:44.78Z</time></trkpt><trkpt lat="42.789555" lon="13.55528"><ele>752.0</ele><time>2026-03-29T09:26:45.78Z</time></trkpt><trkpt lat="42.78947" lon="13.5552417"><ele>752.0</ele><time>2026-03-29T09:26:46.78Z</time></trkpt><trkpt lat="42.789365" lon="13.5552283"><ele>752.0</ele><time>2026-03-29T09:26:47.78Z</time></trkpt><trkpt lat="42.78925" lon="13.5552317"><ele>751.0</ele><time>2026-03-29T09:26:48.78Z</time></trkpt><trkpt lat="42.7891283" lon="13.55526"><ele>750.0</ele><time>2026-03-29T09:26:49.78Z</time></trkpt><trkpt lat="42.789005" lon="13.5553117"><ele>749.0</ele><time>2026-03-29T09:26:50.779Z</time></trkpt><trkpt lat="42.7888783" lon="13.555375"><ele>748.0</ele><time>2026-03-29T09:26:51.779Z</time></trkpt><trkpt lat="42.788745" lon="13.55544"><ele>753.75</ele><time>2026-03-29T09:26:52.779Z</time></trkpt><trkpt lat="42.788605" lon="13.55551"><ele>759.5</ele><time>2026-03-29T09:26:53.78Z</time></trkpt><trkpt lat="42.7884667" lon="13.5555833"><ele>765.25</ele><time>2026-03-29T09:26:54.779Z</time></trkpt><trkpt lat="42.788335" lon="13.55566"><ele>771.0</ele><time>2026-03-29T09:26:55.78Z</time></trkpt><trkpt lat="42.7882067" lon="13.5557617"><ele>771.0</ele><time>2026-03-29T09:26:56.78Z</time></trkpt><trkpt lat="42.78808" lon="13.5558633"><ele>771.0</ele><time>2026-03-29T09:26:57.78Z</time></trkpt><trkpt lat="42.7879683" lon="13.5559567"><ele>771.0</ele><time>2026-03-29T09:26:58.78Z</time></trkpt><trkpt lat="42.7878817" lon="13.55605"><ele>771.0</ele><time>2026-03-29T09:26:59.78Z</time></trkpt><trkpt lat="42.7878067" lon="13.5561717"><ele>771.25</ele><time>2026-03-29T09:27:00.779Z</time></trkpt><trkpt lat="42.7877517" lon="13.5563083"><ele>771.5</ele><time>2026-03-29T09:27:01.78Z</time></trkpt><trkpt lat="42.7877117" lon="13.5564483"><ele>771.75</ele><time>2026-03-29T09:27:02.779Z</time></trkpt><trkpt lat="42.7876633" lon="13.55659"><ele>772.0</ele><time>2026-03-29T09:27:03.78Z</time></trkpt><trkpt lat="42.7876133" lon="13.5567267"><ele>772.0</ele><time>2026-03-29T09:27:04.78Z</time></trkpt><trkpt lat="42.787555" lon="13.556865"><ele>772.0</ele><time>2026-03-29T09:27:05.78Z</time></trkpt><trkpt lat="42.7874917" lon="13.557005"><ele>772.0</ele><time>2026-03-29T09:27:06.78Z</time></trkpt><trkpt lat="42.7874333" lon="13.55715"><ele>772.0</ele><time>2026-03-29T09:27:07.78Z</time></trkpt><trkpt lat="42.78737" lon="13.5572983"><ele>776.25</ele><time>2026-03-29T09:27:08.779Z</time></trkpt><trkpt lat="42.787315" lon="13.5574567"><ele>780.5</ele><time>2026-03-29T09:27:09.78Z</time></trkpt><trkpt lat="42.7872567" lon="13.5576083"><ele>784.75</ele><time>2026-03-29T09:27:10.78Z</time></trkpt><trkpt lat="42.7871817" lon="13.5577533"><ele>789.0</ele><time>2026-03-29T09:27:11.78Z</time></trkpt><trkpt lat="42.78708" lon="13.5578767"><ele>789.25</ele><time>2026-03-29T09:27:12.779Z</time></trkpt><trkpt lat="42.786965" lon="13.557965"><ele>789.5</ele><time>2026-03-29T09:27:13.78Z</time></trkpt><trkpt lat="42.78684" lon="13.5580483"><ele>789.75</ele><time>2026-03-29T09:27:14.78Z</time></trkpt><trkpt lat="42.78673" lon="13.5581283"><ele>790.0</ele><time>2026-03-29T09:27:15.779Z</time></trkpt><trkpt lat="42.78665" lon="13.5582233"><ele>789.9999999999999</ele><time>2026-03-29T09:27:16.78Z</time></trkpt><trkpt lat="42.7865883" lon="13.5583333"><ele>790.0</ele><time>2026-03-29T09:27:17.78Z</time></trkpt><trkpt lat="42.7865417" lon="13.558445"><ele>790.0</ele><time>2026-03-29T09:27:18.78Z</time></trkpt><trkpt lat="42.7864917" lon="13.5585283"><ele>790.0</ele><time>2026-03-29T09:27:19.78Z</time></trkpt><trkpt lat="42.7864333" lon="13.5585833"><ele>789.9999999999999</ele><time>2026-03-29T09:27:20.78Z</time></trkpt><trkpt lat="42.7863467" lon="13.5586067"><ele>790.0</ele><time>2026-03-29T09:27:21.78Z</time></trkpt><trkpt lat="42.7862467" lon="13.55858"><ele>790.0</ele><time>2026-03-29T09:27:22.78Z</time></trkpt><trkpt lat="42.78615" lon="13.5585183"><ele>790.0</ele><time>2026-03-29T09:27:23.78Z</time></trkpt><trkpt lat="42.786045" lon="13.5584367"><ele>790.0</ele><time>2026-03-29T09:27:24.78Z</time></trkpt><trkpt lat="42.7859367" lon="13.558335"><ele>790.0</ele><time>2026-03-29T09:27:25.78Z</time></trkpt><trkpt lat="42.7858167" lon="13.5582217"><ele>792.75</ele><time>2026-03-29T09:27:26.779Z</time></trkpt><trkpt lat="42.7856917" lon="13.5581267"><ele>795.5</ele><time>2026-03-29T09:27:27.78Z</time></trkpt><trkpt lat="42.7855683" lon="13.558055"><ele>798.25</ele><time>2026-03-29T09:27:28.78Z</time></trkpt><trkpt lat="42.7854567" lon="13.5580117"><ele>801.0</ele><time>2026-03-29T09:27:29.78Z</time></trkpt><trkpt lat="42.7853467" lon="13.5579917"><ele>801.0</ele><time>2026-03-29T09:27:30.779Z</time></trkpt><trkpt lat="42.785235" lon="13.558015"><ele>801.0</ele><time>2026-03-29T09:27:31.779Z</time></trkpt><trkpt lat="42.7851167" lon="13.5580717"><ele>801.0</ele><time>2026-03-29T09:27:32.779Z</time></trkpt><trkpt lat="42.7850017" lon="13.55815"><ele>801.0</ele><time>2026-03-29T09:27:33.78Z</time></trkpt><trkpt lat="42.7848833" lon="13.5582467"><ele>801.0</ele><time>2026-03-29T09:27:34.78Z</time></trkpt><trkpt lat="42.78476" lon="13.5583533"><ele>801.0</ele><time>2026-03-29T09:27:35.78Z</time></trkpt><trkpt lat="42.78464" lon="13.5584567"><ele>801.0</ele><time>2026-03-29T09:27:36.779Z</time></trkpt><trkpt lat="42.784515" lon="13.55857"><ele>801.0</ele><time>2026-03-29T09:27:37.78Z</time></trkpt><trkpt lat="42.7843883" lon="13.5586817"><ele>804.6666666666667</ele><time>2026-03-29T09:27:38.78Z</time></trkpt><trkpt lat="42.7842683" lon="13.5588"><ele>808.3333333333334</ele><time>2026-03-29T09:27:39.78Z</time></trkpt><trkpt lat="42.78414" lon="13.558925"><ele>812.0</ele><time>2026-03-29T09:27:40.779Z</time></trkpt><trkpt lat="42.78401" lon="13.5590483"><ele>812.0</ele><time>2026-03-29T09:27:41.78Z</time></trkpt><trkpt lat="42.7838783" lon="13.5591733"><ele>812.0</ele><time>2026-03-29T09:27:42.78Z</time></trkpt><trkpt lat="42.7837467" lon="13.5592833"><ele>812.0</ele><time>2026-03-29T09:27:43.78Z</time></trkpt><trkpt lat="42.7836083" lon="13.55938"><ele>815.6666666666667</ele><time>2026-03-29T09:27:44.78Z</time></trkpt><trkpt lat="42.783465" lon="13.5594633"><ele>819.3333333333333</ele><time>2026-03-29T09:27:45.78Z</time></trkpt><trkpt lat="42.78332" lon="13.5595233"><ele>823.0</ele><time>2026-03-29T09:27:46.78Z</time></trkpt><trkpt lat="42.7831717" lon="13.55959"><ele>823.0</ele><time>2026-03-29T09:27:47.78Z</time></trkpt><trkpt lat="42.783025" lon="13.5596567"><ele>823.0</ele><time>2026-03-29T09:27:48.78Z</time></trkpt><trkpt lat="42.7828883" lon="13.5597483"><ele>823.0</ele><time>2026-03-29T09:27:49.78Z</time></trkpt><trkpt lat="42.7827633" lon="13.55987"><ele>825.25</ele><time>2026-03-29T09:27:50.779Z</time></trkpt><trkpt lat="42.7826567" lon="13.56002"><ele>827.5</ele><time>2026-03-29T09:27:51.78Z</time></trkpt><trkpt lat="42.7825583" lon="13.5601667"><ele>829.75</ele><time>2026-03-29T09:27:52.779Z</time></trkpt><trkpt lat="42.782455" lon="13.5602883"><ele>832.0</ele><time>2026-03-29T09:27:53.779Z</time></trkpt><trkpt lat="42.782335" lon="13.5603917"><ele>832.0</ele><time>2026-03-29T09:27:54.78Z</time></trkpt><trkpt lat="42.78221" lon="13.56047"><ele>832.0</ele><time>2026-03-29T09:27:55.78Z</time></trkpt><trkpt lat="42.7820867" lon="13.5605383"><ele>832.0</ele><time>2026-03-29T09:27:56.78Z</time></trkpt><trkpt lat="42.7819767" lon="13.5605967"><ele>832.0</ele><time>2026-03-29T09:27:57.78Z</time></trkpt><trkpt lat="42.7818767" lon="13.5606517"><ele>830.8</ele><time>2026-03-29T09:27:58.78Z</time></trkpt><trkpt lat="42.78179" lon="13.560715"><ele>829.6</ele><time>2026-03-29T09:27:59.78Z</time></trkpt><trkpt lat="42.781715" lon="13.5608067"><ele>828.4</ele><time>2026-03-29T09:28:00.78Z</time></trkpt><trkpt lat="42.781645" lon="13.5609283"><ele>827.1999999999999</ele><time>2026-03-29T09:28:01.78Z</time></trkpt><trkpt lat="42.7815767" lon="13.5610833"><ele>826.0</ele><time>2026-03-29T09:28:02.78Z</time></trkpt><trkpt lat="42.7815083" lon="13.5612633"><ele>826.0</ele><time>2026-03-29T09:28:03.779Z</time></trkpt><trkpt lat="42.7814433" lon="13.561445"><ele>826.0</ele><time>2026-03-29T09:28:04.78Z</time></trkpt><trkpt lat="42.7813783" lon="13.56162"><ele>826.0</ele><time>2026-03-29T09:28:05.78Z</time></trkpt><trkpt lat="42.7813267" lon="13.5617933"><ele>826.0</ele><time>2026-03-29T09:28:06.78Z</time></trkpt><trkpt lat="42.78129" lon="13.5619817"><ele>827.25</ele><time>2026-03-29T09:28:07.78Z</time></trkpt><trkpt lat="42.7812767" lon="13.5621767"><ele>828.5</ele><time>2026-03-29T09:28:08.78Z</time></trkpt><trkpt lat="42.7812667" lon="13.5623567"><ele>829.75</ele><time>2026-03-29T09:28:09.78Z</time></trkpt><trkpt lat="42.78124" lon="13.5625167"><ele>831.0</ele><time>2026-03-29T09:28:10.78Z</time></trkpt><trkpt lat="42.7811967" lon="13.5626383"><ele>831.0</ele><time>2026-03-29T09:28:11.779Z</time></trkpt><trkpt lat="42.7811217" lon="13.5627317"><ele>831.0</ele><time>2026-03-29T09:28:12.78Z</time></trkpt><trkpt lat="42.78103" lon="13.5628017"><ele>831.0</ele><time>2026-03-29T09:28:13.78Z</time></trkpt><trkpt lat="42.7809133" lon="13.5628533"><ele>831.0</ele><time>2026-03-29T09:28:14.78Z</time></trkpt><trkpt lat="42.7807817" lon="13.5628867"><ele>829.4</ele><time>2026-03-29T09:28:15.78Z</time></trkpt><trkpt lat="42.780655" lon="13.562895"><ele>827.8</ele><time>2026-03-29T09:28:16.78Z</time></trkpt><trkpt lat="42.780555" lon="13.5629217"><ele>826.1999999999999</ele><time>2026-03-29T09:28:17.78Z</time></trkpt><trkpt lat="42.7804683" lon="13.5629833"><ele>824.5999999999999</ele><time>2026-03-29T09:28:18.78Z</time></trkpt><trkpt lat="42.7803917" lon="13.56308"><ele>823.0</ele><time>2026-03-29T09:28:19.78Z</time></trkpt><trkpt lat="42.7803167" lon="13.5632033"><ele>823.0</ele><time>2026-03-29T09:28:20.78Z</time></trkpt><trkpt lat="42.7802517" lon="13.5633467"><ele>823.0</ele><time>2026-03-29T09:28:21.78Z</time></trkpt><trkpt lat="42.7801967" lon="13.5635033"><ele>823.0</ele><time>2026-03-29T09:28:22.78Z</time></trkpt><trkpt lat="42.780145" lon="13.5636633"><ele>823.0</ele><time>2026-03-29T09:28:23.78Z</time></trkpt><trkpt lat="42.7800767" lon="13.5638267"><ele>824.3333333333333</ele><time>2026-03-29T09:28:24.78Z</time></trkpt><trkpt lat="42.779985" lon="13.5639783"><ele>825.6666666666667</ele><time>2026-03-29T09:28:25.779Z</time></trkpt><trkpt lat="42.779875" lon="13.5641183"><ele>827.0</ele><time>2026-03-29T09:28:26.78Z</time></trkpt><trkpt lat="42.7797433" lon="13.56424"><ele>827.0</ele><time>2026-03-29T09:28:27.78Z</time></trkpt><trkpt lat="42.7795967" lon="13.5643433"><ele>827.0</ele><time>2026-03-29T09:28:28.78Z</time></trkpt><trkpt lat="42.7794383" lon="13.564445"><ele>827.0</ele><time>2026-03-29T09:28:29.779Z</time></trkpt><trkpt lat="42.7792817" lon="13.564535"><ele>828.5</ele><time>2026-03-29T09:28:30.78Z</time></trkpt><trkpt lat="42.7791467" lon="13.564625"><ele>830.0</ele><time>2026-03-29T09:28:31.78Z</time></trkpt><trkpt lat="42.77902" lon="13.5647233"><ele>831.5</ele><time>2026-03-29T09:28:32.78Z</time></trkpt><trkpt lat="42.7788983" lon="13.56484"><ele>833.0</ele><time>2026-03-29T09:28:33.78Z</time></trkpt><trkpt lat="42.7787783" lon="13.5649667"><ele>833.0</ele><time>2026-03-29T09:28:34.78Z</time></trkpt><trkpt lat="42.7786567" lon="13.5651083"><ele>833.0</ele><time>2026-03-29T09:28:35.779Z</time></trkpt><trkpt lat="42.7785283" lon="13.5652467"><ele>833.0</ele><time>2026-03-29T09:28:36.779Z</time></trkpt><trkpt lat="42.7784083" lon="13.5654"><ele>833.0</ele><time>2026-03-29T09:28:37.78Z</time></trkpt><trkpt lat="42.778295" lon="13.5655617"><ele>833.0</ele><time>2026-03-29T09:28:38.779Z</time></trkpt><trkpt lat="42.7781933" lon="13.565715"><ele>833.0</ele><time>2026-03-29T09:28:39.779Z</time></trkpt><trkpt lat="42.778095" lon="13.5658583"><ele>833.0</ele><time>2026-03-29T09:28:40.78Z</time></trkpt><trkpt lat="42.778" lon="13.5660067"><ele>833.0</ele><time>2026-03-29T09:28:41.78Z</time></trkpt><trkpt lat="42.7779167" lon="13.5661767"><ele>833.0</ele><time>2026-03-29T09:28:42.78Z</time></trkpt><trkpt lat="42.7778467" lon="13.566365"><ele>833.0</ele><time>2026-03-29T09:28:43.78Z</time></trkpt><trkpt lat="42.7777983" lon="13.56657"><ele>842.6666666666667</ele><time>2026-03-29T09:28:44.78Z</time></trkpt><trkpt lat="42.77776" lon="13.5667867"><ele>852.3333333333333</ele><time>2026-03-29T09:28:45.78Z</time></trkpt><trkpt lat="42.7777333" lon="13.5669983"><ele>862.0</ele><time>2026-03-29T09:28:46.78Z</time></trkpt><trkpt lat="42.7777117" lon="13.5671883"><ele>865.0</ele><time>2026-03-29T09:28:47.78Z</time></trkpt><trkpt lat="42.7776917" lon="13.5673717"><ele>868.0</ele><time>2026-03-29T09:28:48.78Z</time></trkpt><trkpt lat="42.7776917" lon="13.5675683"><ele>871.0</ele><time>2026-03-29T09:28:49.78Z</time></trkpt><trkpt lat="42.777705" lon="13.567765"><ele>874.0</ele><time>2026-03-29T09:28:50.78Z</time></trkpt><trkpt lat="42.7777317" lon="13.56797"><ele>874.0</ele><time>2026-03-29T09:28:51.78Z</time></trkpt><trkpt lat="42.7777617" lon="13.5681533"><ele>874.0</ele><time>2026-03-29T09:28:52.78Z</time></trkpt><trkpt lat="42.7777767" lon="13.568315"><ele>874.0</ele><time>2026-03-29T09:28:53.78Z</time></trkpt><trkpt lat="42.7777767" lon="13.568465"><ele>874.0</ele><time>2026-03-29T09:28:54.78Z</time></trkpt><trkpt lat="42.7777483" lon="13.568605"><ele>875.0</ele><time>2026-03-29T09:28:55.78Z</time></trkpt><trkpt lat="42.777695" lon="13.5687317"><ele>876.0000000000001</ele><time>2026-03-29T09:28:56.78Z</time></trkpt><trkpt lat="42.7776167" lon="13.56883"><ele>877.0000000000001</ele><time>2026-03-29T09:28:57.78Z</time></trkpt><trkpt lat="42.7775217" lon="13.568895"><ele>878.0</ele><time>2026-03-29T09:28:58.779Z</time></trkpt><trkpt lat="42.77741" lon="13.56893"><ele>879.0</ele><time>2026-03-29T09:28:59.78Z</time></trkpt><trkpt lat="42.77729" lon="13.5689167"><ele>871.5</ele><time>2026-03-29T09:29:00.78Z</time></trkpt><trkpt lat="42.77718" lon="13.5688767"><ele>864.0</ele><time>2026-03-29T09:29:01.78Z</time></trkpt><trkpt lat="42.7770767" lon="13.5687917"><ele>856.5</ele><time>2026-03-29T09:29:02.78Z</time></trkpt><trkpt lat="42.7769883" lon="13.56868"><ele>849.0</ele><time>2026-03-29T09:29:03.78Z</time></trkpt><trkpt lat="42.7769017" lon="13.5685467"><ele>848.4000000000001</ele><time>2026-03-29T09:29:04.78Z</time></trkpt><trkpt lat="42.776815" lon="13.5684133"><ele>847.8</ele><time>2026-03-29T09:29:05.78Z</time></trkpt><trkpt lat="42.7767367" lon="13.5683"><ele>847.2</ele><time>2026-03-29T09:29:06.78Z</time></trkpt><trkpt lat="42.7766567" lon="13.56822"><ele>846.5999999999999</ele><time>2026-03-29T09:29:07.78Z</time></trkpt><trkpt lat="42.7765617" lon="13.5681667"><ele>846.0</ele><time>2026-03-29T09:29:08.78Z</time></trkpt><trkpt lat="42.7764483" lon="13.5681317"><ele>846.0</ele><time>2026-03-29T09:29:09.78Z</time></trkpt><trkpt lat="42.7763183" lon="13.56811"><ele>846.0</ele><time>2026-03-29T09:29:10.78Z</time></trkpt><trkpt lat="42.7761867" lon="13.5680633"><ele>846.0</ele><time>2026-03-29T09:29:11.78Z</time></trkpt><trkpt lat="42.7760717" lon="13.5679683"><ele>846.0</ele><time>2026-03-29T09:29:12.78Z</time></trkpt><trkpt lat="42.7759733" lon="13.56784"><ele>848.8</ele><time>2026-03-29T09:29:13.78Z</time></trkpt><trkpt lat="42.7758883" lon="13.5677117"><ele>851.5999999999999</ele><time>2026-03-29T09:29:14.78Z</time></trkpt><trkpt lat="42.7758267" lon="13.5675767"><ele>854.4</ele><time>2026-03-29T09:29:15.78Z</time></trkpt><trkpt lat="42.7757917" lon="13.5674583"><ele>857.2</ele><time>2026-03-29T09:29:16.78Z</time></trkpt><trkpt lat="42.7757817" lon="13.5673483"><ele>860.0</ele><time>2026-03-29T09:29:17.78Z</time></trkpt><trkpt lat="42.7757983" lon="13.5672233"><ele>860.0</ele><time>2026-03-29T09:29:18.78Z</time></trkpt><trkpt lat="42.7758567" lon="13.5671017"><ele>860.0</ele><time>2026-03-29T09:29:19.779Z</time></trkpt><trkpt lat="42.7759217" lon="13.567"><ele>860.0</ele><time>2026-03-29T09:29:20.78Z</time></trkpt><trkpt lat="42.77596" lon="13.56689"><ele>860.0</ele><time>2026-03-29T09:29:21.78Z</time></trkpt><trkpt lat="42.7759767" lon="13.566775"><ele>860.0</ele><time>2026-03-29T09:29:22.78Z</time></trkpt><trkpt lat="42.7759517" lon="13.566655"><ele>859.5</ele><time>2026-03-29T09:29:23.78Z</time></trkpt><trkpt lat="42.7758933" lon="13.5665417"><ele>859.0</ele><time>2026-03-29T09:29:24.78Z</time></trkpt><trkpt lat="42.7758117" lon="13.56643"><ele>858.5</ele><time>2026-03-29T09:29:25.78Z</time></trkpt><trkpt lat="42.7757367" lon="13.5663083"><ele>858.0</ele><time>2026-03-29T09:29:26.78Z</time></trkpt><trkpt lat="42.77568" lon="13.56616"><ele>855.5</ele><time>2026-03-29T09:29:27.78Z</time></trkpt><trkpt lat="42.7756433" lon="13.566"><ele>853.0</ele><time>2026-03-29T09:29:28.78Z</time></trkpt><trkpt lat="42.7756067" lon="13.56583"><ele>850.5</ele><time>2026-03-29T09:29:29.78Z</time></trkpt><trkpt lat="42.7755533" lon="13.5656783"><ele>848.0</ele><time>2026-03-29T09:29:30.779Z</time></trkpt><trkpt lat="42.77547" lon="13.56555"><ele>848.0</ele><time>2026-03-29T09:29:31.78Z</time></trkpt><trkpt lat="42.7753617" lon="13.5654483"><ele>848.0</ele><time>2026-03-29T09:29:32.78Z</time></trkpt><trkpt lat="42.7752517" lon="13.56535"><ele>848.0</ele><time>2026-03-29T09:29:33.779Z</time></trkpt><trkpt lat="42.7751567" lon="13.5652317"><ele>848.0</ele><time>2026-03-29T09:29:34.78Z</time></trkpt><trkpt lat="42.7750817" lon="13.5651067"><ele>852.8</ele><time>2026-03-29T09:29:35.78Z</time></trkpt><trkpt lat="42.7750149" lon="13.5649771"><ele>857.5999999999999</ele><time>2026-03-29T09:29:36.78Z</time></trkpt><trkpt lat="42.7749728" lon="13.5648542"><ele>862.4000000000001</ele><time>2026-03-29T09:29:37.779Z</time></trkpt><trkpt lat="42.7749541" lon="13.5647311"><ele>867.2</ele><time>2026-03-29T09:29:38.78Z</time></trkpt><trkpt lat="42.7749686" lon="13.5646083"><ele>872.0</ele><time>2026-03-29T09:29:39.78Z</time></trkpt><trkpt lat="42.7750133" lon="13.5644617"><ele>872.0</ele><time>2026-03-29T09:29:40.78Z</time></trkpt><trkpt lat="42.7750417" lon="13.5643"><ele>872.0</ele><time>2026-03-29T09:29:41.78Z</time></trkpt><trkpt lat="42.775055" lon="13.56414"><ele>872.0</ele><time>2026-03-29T09:29:42.78Z</time></trkpt><trkpt lat="42.7750533" lon="13.5639967"><ele>872.0</ele><time>2026-03-29T09:29:43.78Z</time></trkpt><trkpt lat="42.7750467" lon="13.5638883"><ele>872.0</ele><time>2026-03-29T09:29:44.78Z</time></trkpt><trkpt lat="42.774975" lon="13.56375"><ele>872.0</ele><time>2026-03-29T09:29:46.779Z</time></trkpt><trkpt lat="42.774905" lon="13.563705"><ele>872.0</ele><time>2026-03-29T09:29:47.78Z</time></trkpt><trkpt lat="42.774805" lon="13.563665"><ele>872.0</ele><time>2026-03-29T09:29:48.78Z</time></trkpt><trkpt lat="42.7746717" lon="13.5636583"><ele>872.0</ele><time>2026-03-29T09:29:49.78Z</time></trkpt><trkpt lat="42.774525" lon="13.56365"><ele>870.0</ele><time>2026-03-29T09:29:50.78Z</time></trkpt><trkpt lat="42.7743717" lon="13.563635"><ele>868.0</ele><time>2026-03-29T09:29:51.78Z</time></trkpt><trkpt lat="42.7742183" lon="13.56361"><ele>866.0</ele><time>2026-03-29T09:29:52.78Z</time></trkpt><trkpt lat="42.7740667" lon="13.5635833"><ele>865.0</ele><time>2026-03-29T09:29:53.78Z</time></trkpt><trkpt lat="42.7739117" lon="13.5635917"><ele>864.0</ele><time>2026-03-29T09:29:54.78Z</time></trkpt><trkpt lat="42.7737533" lon="13.56361"><ele>863.0</ele><time>2026-03-29T09:29:55.78Z</time></trkpt><trkpt lat="42.7736117" lon="13.5635967"><ele>864.75</ele><time>2026-03-29T09:29:56.78Z</time></trkpt><trkpt lat="42.7734917" lon="13.5635683"><ele>866.5</ele><time>2026-03-29T09:29:57.78Z</time></trkpt><trkpt lat="42.77338" lon="13.5635867"><ele>868.25</ele><time>2026-03-29T09:29:58.78Z</time></trkpt><trkpt lat="42.77327" lon="13.5636567"><ele>870.0</ele><time>2026-03-29T09:29:59.78Z</time></trkpt><trkpt lat="42.77317" lon="13.56375"><ele>876.5</ele><time>2026-03-29T09:30:00.78Z</time></trkpt><trkpt lat="42.7730667" lon="13.563865"><ele>883.0</ele><time>2026-03-29T09:30:01.779Z</time></trkpt><trkpt lat="42.7729567" lon="13.5639883"><ele>889.5</ele><time>2026-03-29T09:30:02.78Z</time></trkpt><trkpt lat="42.772855" lon="13.5641217"><ele>896.0</ele><time>2026-03-29T09:30:03.78Z</time></trkpt><trkpt lat="42.7727567" lon="13.56425"><ele>896.25</ele><time>2026-03-29T09:30:04.78Z</time></trkpt><trkpt lat="42.77266" lon="13.5643417"><ele>896.5</ele><time>2026-03-29T09:30:05.78Z</time></trkpt><trkpt lat="42.77255" lon="13.5643983"><ele>896.75</ele><time>2026-03-29T09:30:06.78Z</time></trkpt><trkpt lat="42.7724283" lon="13.5644467"><ele>897.0</ele><time>2026-03-29T09:30:07.78Z</time></trkpt><trkpt lat="42.7722983" lon="13.56451"><ele>903.25</ele><time>2026-03-29T09:30:08.779Z</time></trkpt><trkpt lat="42.77217" lon="13.56459"><ele>909.5</ele><time>2026-03-29T09:30:09.78Z</time></trkpt><trkpt lat="42.77204" lon="13.5646633"><ele>915.75</ele><time>2026-03-29T09:30:10.78Z</time></trkpt><trkpt lat="42.7719033" lon="13.564735"><ele>922.0</ele><time>2026-03-29T09:30:11.779Z</time></trkpt><trkpt lat="42.7717633" lon="13.5648"><ele>922.0</ele><time>2026-03-29T09:30:12.78Z</time></trkpt><trkpt lat="42.7716167" lon="13.5648783"><ele>922.0</ele><time>2026-03-29T09:30:13.78Z</time></trkpt><trkpt lat="42.7714533" lon="13.5649617"><ele>922.0</ele><time>2026-03-29T09:30:14.779Z</time></trkpt><trkpt lat="42.7712883" lon="13.56503"><ele>922.0</ele><time>2026-03-29T09:30:15.78Z</time></trkpt><trkpt lat="42.7711417" lon="13.5650767"><ele>922.0</ele><time>2026-03-29T09:30:16.78Z</time></trkpt><trkpt lat="42.770995" lon="13.5651117"><ele>922.0</ele><time>2026-03-29T09:30:17.78Z</time></trkpt><trkpt lat="42.7708467" lon="13.5651333"><ele>922.0</ele><time>2026-03-29T09:30:18.78Z</time></trkpt><trkpt lat="42.7707117" lon="13.5651533"><ele>920.5</ele><time>2026-03-29T09:30:19.78Z</time></trkpt><trkpt lat="42.7705917" lon="13.5651667"><ele>919.0</ele><time>2026-03-29T09:30:20.779Z</time></trkpt><trkpt lat="42.7704767" lon="13.5651833"><ele>917.5</ele><time>2026-03-29T09:30:21.78Z</time></trkpt><trkpt lat="42.7703667" lon="13.565195"><ele>916.0</ele><time>2026-03-29T09:30:22.78Z</time></trkpt><trkpt lat="42.7702583" lon="13.5652183"><ele>915.5999999999999</ele><time>2026-03-29T09:30:23.78Z</time></trkpt><trkpt lat="42.77016" lon="13.5652567"><ele>915.1999999999999</ele><time>2026-03-29T09:30:24.78Z</time></trkpt><trkpt lat="42.7700783" lon="13.5653283"><ele>914.8000000000001</ele><time>2026-03-29T09:30:25.78Z</time></trkpt><trkpt lat="42.770015" lon="13.565455"><ele>914.4000000000001</ele><time>2026-03-29T09:30:26.78Z</time></trkpt><trkpt lat="42.7699583" lon="13.5656133"><ele>914.0</ele><time>2026-03-29T09:30:27.78Z</time></trkpt><trkpt lat="42.7698983" lon="13.5657933"><ele>916.6666666666667</ele><time>2026-03-29T09:30:28.78Z</time></trkpt><trkpt lat="42.76984" lon="13.565985"><ele>919.3333333333333</ele><time>2026-03-29T09:30:29.779Z</time></trkpt><trkpt lat="42.7697883" lon="13.5661983"><ele>922.0</ele><time>2026-03-29T09:30:30.78Z</time></trkpt><trkpt lat="42.76974" lon="13.5664267"><ele>923.6666666666666</ele><time>2026-03-29T09:30:31.78Z</time></trkpt><trkpt lat="42.7697067" lon="13.5666783"><ele>925.3333333333333</ele><time>2026-03-29T09:30:32.78Z</time></trkpt><trkpt lat="42.769675" lon="13.5669383"><ele>927.0</ele><time>2026-03-29T09:30:33.78Z</time></trkpt><trkpt lat="42.76964" lon="13.5672033"><ele>931.3333333333333</ele><time>2026-03-29T09:30:34.78Z</time></trkpt><trkpt lat="42.76961" lon="13.567445"><ele>935.6666666666666</ele><time>2026-03-29T09:30:35.78Z</time></trkpt><trkpt lat="42.7695783" lon="13.5676617"><ele>940.0</ele><time>2026-03-29T09:30:36.779Z</time></trkpt><trkpt lat="42.7695283" lon="13.567845"><ele>938.8</ele><time>2026-03-29T09:30:37.78Z</time></trkpt><trkpt lat="42.7694717" lon="13.5679983"><ele>937.6</ele><time>2026-03-29T09:30:38.78Z</time></trkpt><trkpt lat="42.7694117" lon="13.5681083"><ele>936.4000000000001</ele><time>2026-03-29T09:30:39.78Z</time></trkpt><trkpt lat="42.7693433" lon="13.5681933"><ele>935.2</ele><time>2026-03-29T09:30:40.78Z</time></trkpt><trkpt lat="42.769265" lon="13.5682367"><ele>934.0</ele><time>2026-03-29T09:30:41.779Z</time></trkpt><trkpt lat="42.769165" lon="13.5682383"><ele>934.0</ele><time>2026-03-29T09:30:42.78Z</time></trkpt><trkpt lat="42.7690533" lon="13.5682183"><ele>934.0</ele><time>2026-03-29T09:30:43.78Z</time></trkpt><trkpt lat="42.7689367" lon="13.5682067"><ele>934.0</ele><time>2026-03-29T09:30:44.779Z</time></trkpt><trkpt lat="42.7688133" lon="13.56822"><ele>934.0</ele><time>2026-03-29T09:30:45.78Z</time></trkpt><trkpt lat="42.7686817" lon="13.568245"><ele>934.0</ele><time>2026-03-29T09:30:46.78Z</time></trkpt><trkpt lat="42.7685533" lon="13.5682833"><ele>934.0</ele><time>2026-03-29T09:30:47.78Z</time></trkpt><trkpt lat="42.7684133" lon="13.5683267"><ele>934.0</ele><time>2026-03-29T09:30:48.78Z</time></trkpt><trkpt lat="42.7682733" lon="13.56838"><ele>934.0</ele><time>2026-03-29T09:30:49.78Z</time></trkpt><trkpt lat="42.7681483" lon="13.5684533"><ele>935.25</ele><time>2026-03-29T09:30:50.78Z</time></trkpt><trkpt lat="42.7680433" lon="13.56855"><ele>936.5</ele><time>2026-03-29T09:30:51.78Z</time></trkpt><trkpt lat="42.7679533" lon="13.568685"><ele>937.75</ele><time>2026-03-29T09:30:52.779Z</time></trkpt><trkpt lat="42.767875" lon="13.5688367"><ele>939.0</ele><time>2026-03-29T09:30:53.78Z</time></trkpt><trkpt lat="42.7677983" lon="13.5690033"><ele>941.25</ele><time>2026-03-29T09:30:54.78Z</time></trkpt><trkpt lat="42.767715" lon="13.569165"><ele>943.5</ele><time>2026-03-29T09:30:55.78Z</time></trkpt><trkpt lat="42.76761" lon="13.5693167"><ele>945.75</ele><time>2026-03-29T09:30:56.78Z</time></trkpt><trkpt lat="42.76751" lon="13.56946"><ele>948.0</ele><time>2026-03-29T09:30:57.78Z</time></trkpt><trkpt lat="42.7674167" lon="13.5695783"><ele>951.4</ele><time>2026-03-29T09:30:58.78Z</time></trkpt><trkpt lat="42.7673333" lon="13.5696817"><ele>954.8</ele><time>2026-03-29T09:30:59.78Z</time></trkpt><trkpt lat="42.7672517" lon="13.5697717"><ele>958.2</ele><time>2026-03-29T09:31:00.78Z</time></trkpt><trkpt lat="42.767185" lon="13.5698533"><ele>961.6</ele><time>2026-03-29T09:31:01.78Z</time></trkpt><trkpt lat="42.7671267" lon="13.5699267"><ele>965.0</ele><time>2026-03-29T09:31:02.78Z</time></trkpt><trkpt lat="42.7670767" lon="13.5700017"><ele>965.0000000000001</ele><time>2026-03-29T09:31:03.78Z</time></trkpt><trkpt lat="42.767025" lon="13.5700833"><ele>965.0</ele><time>2026-03-29T09:31:04.78Z</time></trkpt><trkpt lat="42.7669717" lon="13.5701567"><ele>965.0</ele><time>2026-03-29T09:31:05.779Z</time></trkpt><trkpt lat="42.766915" lon="13.5702217"><ele>965.0</ele><time>2026-03-29T09:31:06.78Z</time></trkpt><trkpt lat="42.7668317" lon="13.5703067"><ele>965.0000000000001</ele><time>2026-03-29T09:31:08.78Z</time></trkpt><trkpt lat="42.76677" lon="13.5703717"><ele>965.0</ele><time>2026-03-29T09:31:10.78Z</time></trkpt><trkpt lat="42.7667017" lon="13.570435"><ele>965.0000000000001</ele><time>2026-03-29T09:31:13.78Z</time></trkpt><trkpt lat="42.7667833" lon="13.5703817"><ele>965.0</ele><time>2026-03-29T09:34:15.779Z</time></trkpt><trkpt lat="42.7668467" lon="13.570315"><ele>965.0</ele><time>2026-03-29T09:34:18.78Z</time></trkpt><trkpt lat="42.7668967" lon="13.570255"><ele>965.0</ele><time>2026-03-29T09:34:40.78Z</time></trkpt><trkpt lat="42.7669633" lon="13.5701683"><ele>965.0000000000001</ele><time>2026-03-29T09:34:42.78Z</time></trkpt><trkpt lat="42.7670367" lon="13.570075"><ele>965.0</ele><time>2026-03-29T09:34:44.78Z</time></trkpt><trkpt lat="42.767095" lon="13.5699767"><ele>965.0</ele><time>2026-03-29T09:34:46.78Z</time></trkpt><trkpt lat="42.7671617" lon="13.5699033"><ele>965.0</ele><time>2026-03-29T09:34:48.78Z</time></trkpt><trkpt lat="42.7672483" lon="13.5698183"><ele>965.0</ele><time>2026-03-29T09:34:50.78Z</time></trkpt><trkpt lat="42.767335" lon="13.5697217"><ele>965.0</ele><time>2026-03-29T09:34:52.78Z</time></trkpt><trkpt lat="42.76741" lon="13.5696183"><ele>965.0</ele><time>2026-03-29T09:34:54.78Z</time></trkpt><trkpt lat="42.7675" lon="13.5695033"><ele>963.0</ele><time>2026-03-29T09:34:56.779Z</time></trkpt><trkpt lat="42.7675833" lon="13.5693867"><ele>961.0</ele><time>2026-03-29T09:34:58.78Z</time></trkpt><trkpt lat="42.7676583" lon="13.5692767"><ele>959.0</ele><time>2026-03-29T09:35:00.78Z</time></trkpt><trkpt lat="42.767725" lon="13.5691533"><ele>957.0</ele><time>2026-03-29T09:35:02.78Z</time></trkpt><trkpt lat="42.7677867" lon="13.5690183"><ele>957.0</ele><time>2026-03-29T09:35:04.78Z</time></trkpt><trkpt lat="42.767845" lon="13.5688717"><ele>957.0</ele><time>2026-03-29T09:35:06.78Z</time></trkpt><trkpt lat="42.7678817" lon="13.5687967"><ele>957.0</ele><time>2026-03-29T09:35:07.78Z</time></trkpt><trkpt lat="42.767925" lon="13.56872"><ele>957.0</ele><time>2026-03-29T09:35:08.78Z</time></trkpt><trkpt lat="42.7679683" lon="13.5686467"><ele>957.0</ele><time>2026-03-29T09:35:09.779Z</time></trkpt><trkpt lat="42.7680167" lon="13.5685717"><ele>957.0</ele><time>2026-03-29T09:35:10.78Z</time></trkpt><trkpt lat="42.768075" lon="13.5685067"><ele>954.0</ele><time>2026-03-29T09:35:11.78Z</time></trkpt><trkpt lat="42.7681367" lon="13.56846"><ele>951.0</ele><time>2026-03-29T09:35:12.78Z</time></trkpt><trkpt lat="42.7682083" lon="13.568425"><ele>948.0</ele><time>2026-03-29T09:35:13.78Z</time></trkpt><trkpt lat="42.7682883" lon="13.5683933"><ele>945.0</ele><time>2026-03-29T09:35:14.78Z</time></trkpt><trkpt lat="42.7683683" lon="13.5683617"><ele>942.0</ele><time>2026-03-29T09:35:15.78Z</time></trkpt><trkpt lat="42.7684483" lon="13.5683367"><ele>939.0</ele><time>2026-03-29T09:35:16.78Z</time></trkpt><trkpt lat="42.76853" lon="13.5683167"><ele>938.1666666666666</ele><time>2026-03-29T09:35:17.78Z</time></trkpt><trkpt lat="42.7686133" lon="13.56829"><ele>937.3333333333333</ele><time>2026-03-29T09:35:18.78Z</time></trkpt><trkpt lat="42.7686933" lon="13.56826"><ele>936.5</ele><time>2026-03-29T09:35:19.78Z</time></trkpt><trkpt lat="42.7687817" lon="13.568235"><ele>935.6666666666666</ele><time>2026-03-29T09:35:20.78Z</time></trkpt><trkpt lat="42.7688633" lon="13.56821"><ele>934.8333333333333</ele><time>2026-03-29T09:35:21.78Z</time></trkpt><trkpt lat="42.7689483" lon="13.5681817"><ele>934.0</ele><time>2026-03-29T09:35:22.78Z</time></trkpt><trkpt lat="42.7690333" lon="13.5681667"><ele>933.9999999999999</ele><time>2026-03-29T09:35:23.779Z</time></trkpt><trkpt lat="42.7691067" lon="13.5681717"><ele>934.0</ele><time>2026-03-29T09:35:24.779Z</time></trkpt><trkpt lat="42.76917" lon="13.56818"><ele>934.0</ele><time>2026-03-29T09:35:25.78Z</time></trkpt><trkpt lat="42.769275" lon="13.5681767"><ele>934.0</ele><time>2026-03-29T09:35:27.78Z</time></trkpt><trkpt lat="42.76937" lon="13.5681033"><ele>933.9999999999999</ele><time>2026-03-29T09:35:29.78Z</time></trkpt><trkpt lat="42.7694433" lon="13.5680417"><ele>934.0</ele><time>2026-03-29T09:35:31.779Z</time></trkpt><trkpt lat="42.76949" lon="13.5679033"><ele>934.9999999999999</ele><time>2026-03-29T09:35:33.78Z</time></trkpt><trkpt lat="42.76952" lon="13.5678167"><ele>936.0</ele><time>2026-03-29T09:35:34.78Z</time></trkpt><trkpt lat="42.7695483" lon="13.5677267"><ele>937.0</ele><time>2026-03-29T09:35:35.78Z</time></trkpt><trkpt lat="42.7695733" lon="13.5676317"><ele>938.0</ele><time>2026-03-29T09:35:36.78Z</time></trkpt><trkpt lat="42.7696017" lon="13.5675317"><ele>938.9999999999999</ele><time>2026-03-29T09:35:37.78Z</time></trkpt><trkpt lat="42.7696233" lon="13.56743"><ele>940.0</ele><time>2026-03-29T09:35:38.78Z</time></trkpt><trkpt lat="42.7696333" lon="13.56732"><ele>939.9999999999999</ele><time>2026-03-29T09:35:39.779Z</time></trkpt><trkpt lat="42.7696433" lon="13.567195"><ele>940.0</ele><time>2026-03-29T09:35:40.779Z</time></trkpt><trkpt lat="42.7696533" lon="13.56709"><ele>940.0</ele><time>2026-03-29T09:35:41.78Z</time></trkpt><trkpt lat="42.769685" lon="13.566995"><ele>940.0</ele><time>2026-03-29T09:35:42.78Z</time></trkpt><trkpt lat="42.769695" lon="13.566885"><ele>939.9999999999999</ele><time>2026-03-29T09:35:43.78Z</time></trkpt><trkpt lat="42.7697067" lon="13.5667683"><ele>940.0</ele><time>2026-03-29T09:35:44.78Z</time></trkpt><trkpt lat="42.769715" lon="13.5666367"><ele>937.4</ele><time>2026-03-29T09:35:45.78Z</time></trkpt><trkpt lat="42.7697317" lon="13.5665133"><ele>934.8</ele><time>2026-03-29T09:35:46.78Z</time></trkpt><trkpt lat="42.769755" lon="13.56639"><ele>932.2</ele><time>2026-03-29T09:35:47.78Z</time></trkpt><trkpt lat="42.7697783" lon="13.56627"><ele>929.6</ele><time>2026-03-29T09:35:48.78Z</time></trkpt><trkpt lat="42.7698017" lon="13.56614"><ele>927.0</ele><time>2026-03-29T09:35:49.78Z</time></trkpt><trkpt lat="42.7698333" lon="13.566015"><ele>926.0</ele><time>2026-03-29T09:35:50.78Z</time></trkpt><trkpt lat="42.7698617" lon="13.565885"><ele>925.0</ele><time>2026-03-29T09:35:51.78Z</time></trkpt><trkpt lat="42.7698983" lon="13.56577"><ele>924.0</ele><time>2026-03-29T09:35:52.78Z</time></trkpt><trkpt lat="42.7699417" lon="13.565645"><ele>923.0</ele><time>2026-03-29T09:35:53.78Z</time></trkpt><trkpt lat="42.7699933" lon="13.5655267"><ele>922.0</ele><time>2026-03-29T09:35:54.78Z</time></trkpt><trkpt lat="42.7700467" lon="13.5654133"><ele>920.8</ele><time>2026-03-29T09:35:55.779Z</time></trkpt><trkpt lat="42.7701067" lon="13.5653183"><ele>919.6</ele><time>2026-03-29T09:35:56.78Z</time></trkpt><trkpt lat="42.7701833" lon="13.5652467"><ele>918.3999999999999</ele><time>2026-03-29T09:35:57.78Z</time></trkpt><trkpt lat="42.770265" lon="13.56522"><ele>917.1999999999999</ele><time>2026-03-29T09:35:58.78Z</time></trkpt><trkpt lat="42.7703683" lon="13.5652217"><ele>916.0</ele><time>2026-03-29T09:35:59.78Z</time></trkpt><trkpt lat="42.7704683" lon="13.565215"><ele>916.0</ele><time>2026-03-29T09:36:00.78Z</time></trkpt><trkpt lat="42.7705767" lon="13.5651983"><ele>915.9999999999999</ele><time>2026-03-29T09:36:01.78Z</time></trkpt><trkpt lat="42.770685" lon="13.5651833"><ele>915.9999999999999</ele><time>2026-03-29T09:36:02.78Z</time></trkpt><trkpt lat="42.7708017" lon="13.565165"><ele>916.0</ele><time>2026-03-29T09:36:03.779Z</time></trkpt><trkpt lat="42.7709133" lon="13.565135"><ele>916.0</ele><time>2026-03-29T09:36:04.779Z</time></trkpt><trkpt lat="42.7710217" lon="13.56511"><ele>917.1999999999999</ele><time>2026-03-29T09:36:05.78Z</time></trkpt><trkpt lat="42.77113" lon="13.5650867"><ele>918.3999999999999</ele><time>2026-03-29T09:36:06.78Z</time></trkpt><trkpt lat="42.771235" lon="13.5650633"><ele>919.6</ele><time>2026-03-29T09:36:07.779Z</time></trkpt><trkpt lat="42.7713333" lon="13.565025"><ele>920.8</ele><time>2026-03-29T09:36:08.78Z</time></trkpt><trkpt lat="42.77143" lon="13.5649783"><ele>922.0</ele><time>2026-03-29T09:36:09.78Z</time></trkpt><trkpt lat="42.771525" lon="13.56493"><ele>922.0</ele><time>2026-03-29T09:36:10.78Z</time></trkpt><trkpt lat="42.771615" lon="13.5648867"><ele>922.0</ele><time>2026-03-29T09:36:11.78Z</time></trkpt><trkpt lat="42.7717117" lon="13.5648433"><ele>922.0</ele><time>2026-03-29T09:36:12.78Z</time></trkpt><trkpt lat="42.7718067" lon="13.5647983"><ele>922.0</ele><time>2026-03-29T09:36:13.78Z</time></trkpt><trkpt lat="42.7719033" lon="13.564755"><ele>922.0</ele><time>2026-03-29T09:36:14.78Z</time></trkpt><trkpt lat="42.7720033" lon="13.5647033"><ele>922.6</ele><time>2026-03-29T09:36:15.78Z</time></trkpt><trkpt lat="42.7721017" lon="13.5646483"><ele>923.2</ele><time>2026-03-29T09:36:16.78Z</time></trkpt><trkpt lat="42.7722017" lon="13.5645983"><ele>923.8</ele><time>2026-03-29T09:36:17.779Z</time></trkpt><trkpt lat="42.772295" lon="13.5645333"><ele>924.4</ele><time>2026-03-29T09:36:18.779Z</time></trkpt><trkpt lat="42.7723967" lon="13.56448"><ele>925.0</ele><time>2026-03-29T09:36:19.78Z</time></trkpt><trkpt lat="42.7725067" lon="13.5644417"><ele>918.0</ele><time>2026-03-29T09:36:20.78Z</time></trkpt><trkpt lat="42.7726167" lon="13.564395"><ele>911.0</ele><time>2026-03-29T09:36:21.779Z</time></trkpt><trkpt lat="42.772715" lon="13.56433"><ele>904.0</ele><time>2026-03-29T09:36:22.779Z</time></trkpt><trkpt lat="42.7728017" lon="13.5642267"><ele>897.0</ele><time>2026-03-29T09:36:23.779Z</time></trkpt><trkpt lat="42.77287" lon="13.5641017"><ele>896.8</ele><time>2026-03-29T09:36:24.779Z</time></trkpt><trkpt lat="42.7729467" lon="13.56399"><ele>896.6</ele><time>2026-03-29T09:36:25.78Z</time></trkpt><trkpt lat="42.773035" lon="13.5638967"><ele>896.3999999999999</ele><time>2026-03-29T09:36:26.78Z</time></trkpt><trkpt lat="42.773115" lon="13.563805"><ele>896.1999999999999</ele><time>2026-03-29T09:36:27.78Z</time></trkpt><trkpt lat="42.7732083" lon="13.5637167"><ele>896.0</ele><time>2026-03-29T09:36:28.779Z</time></trkpt><trkpt lat="42.7733117" lon="13.56365"><ele>890.8</ele><time>2026-03-29T09:36:29.779Z</time></trkpt><trkpt lat="42.77341" lon="13.5636017"><ele>885.5999999999999</ele><time>2026-03-29T09:36:30.78Z</time></trkpt><trkpt lat="42.773515" lon="13.5635817"><ele>880.4</ele><time>2026-03-29T09:36:31.78Z</time></trkpt><trkpt lat="42.7736217" lon="13.563595"><ele>875.2</ele><time>2026-03-29T09:36:32.779Z</time></trkpt><trkpt lat="42.7737317" lon="13.5636167"><ele>870.0</ele><time>2026-03-29T09:36:33.78Z</time></trkpt><trkpt lat="42.7738467" lon="13.5636017"><ele>868.25</ele><time>2026-03-29T09:36:34.78Z</time></trkpt><trkpt lat="42.773965" lon="13.56358"><ele>866.5</ele><time>2026-03-29T09:36:35.78Z</time></trkpt><trkpt lat="42.7740867" lon="13.56358"><ele>864.75</ele><time>2026-03-29T09:36:36.78Z</time></trkpt><trkpt lat="42.7742133" lon="13.5636117"><ele>863.0</ele><time>2026-03-29T09:36:37.78Z</time></trkpt><trkpt lat="42.77433" lon="13.5636483"><ele>863.75</ele><time>2026-03-29T09:36:38.78Z</time></trkpt><trkpt lat="42.77445" lon="13.5636817"><ele>864.5</ele><time>2026-03-29T09:36:39.78Z</time></trkpt><trkpt lat="42.77457" lon="13.5637067"><ele>865.25</ele><time>2026-03-29T09:36:40.78Z</time></trkpt><trkpt lat="42.7746917" lon="13.5637233"><ele>866.0</ele><time>2026-03-29T09:36:41.78Z</time></trkpt><trkpt lat="42.7748083" lon="13.5637383"><ele>867.0000000000001</ele><time>2026-03-29T09:36:42.779Z</time></trkpt><trkpt lat="42.7749133" lon="13.5637467"><ele>868.0</ele><time>2026-03-29T09:36:43.78Z</time></trkpt><trkpt lat="42.774995" lon="13.5637783"><ele>869.0</ele><time>2026-03-29T09:36:44.78Z</time></trkpt><trkpt lat="42.7750583" lon="13.5638317"><ele>870.0</ele><time>2026-03-29T09:36:45.78Z</time></trkpt><trkpt lat="42.7750883" lon="13.5639133"><ele>871.0000000000001</ele><time>2026-03-29T09:36:46.78Z</time></trkpt><trkpt lat="42.7751033" lon="13.5640083"><ele>872.0</ele><time>2026-03-29T09:36:47.78Z</time></trkpt><trkpt lat="42.775095" lon="13.564135"><ele>872.0</ele><time>2026-03-29T09:36:48.78Z</time></trkpt><trkpt lat="42.7750667" lon="13.5642817"><ele>872.0</ele><time>2026-03-29T09:36:49.78Z</time></trkpt><trkpt lat="42.77503" lon="13.56443"><ele>872.0</ele><time>2026-03-29T09:36:50.78Z</time></trkpt><trkpt lat="42.7750017" lon="13.564565"><ele>872.0</ele><time>2026-03-29T09:36:51.78Z</time></trkpt><trkpt lat="42.77498" lon="13.5646883"><ele>872.0</ele><time>2026-03-29T09:36:52.78Z</time></trkpt><trkpt lat="42.774975" lon="13.5648117"><ele>873.5</ele><time>2026-03-29T09:36:53.78Z</time></trkpt><trkpt lat="42.7749917" lon="13.56495"><ele>875.0</ele><time>2026-03-29T09:36:54.779Z</time></trkpt><trkpt lat="42.7750433" lon="13.5650867"><ele>876.5</ele><time>2026-03-29T09:36:55.779Z</time></trkpt><trkpt lat="42.7751183" lon="13.5652267"><ele>878.0</ele><time>2026-03-29T09:36:56.779Z</time></trkpt><trkpt lat="42.7752067" lon="13.5653367"><ele>872.0</ele><time>2026-03-29T09:36:57.779Z</time></trkpt><trkpt lat="42.7752967" lon="13.5654283"><ele>866.0</ele><time>2026-03-29T09:36:58.78Z</time></trkpt><trkpt lat="42.7753883" lon="13.5655017"><ele>860.0</ele><time>2026-03-29T09:36:59.78Z</time></trkpt><trkpt lat="42.7754733" lon="13.5655767"><ele>854.0</ele><time>2026-03-29T09:37:00.78Z</time></trkpt><trkpt lat="42.775545" lon="13.5656633"><ele>848.0</ele><time>2026-03-29T09:37:01.78Z</time></trkpt><trkpt lat="42.775605" lon="13.5657733"><ele>848.0</ele><time>2026-03-29T09:37:02.78Z</time></trkpt><trkpt lat="42.7756517" lon="13.565905"><ele>848.0</ele><time>2026-03-29T09:37:03.78Z</time></trkpt><trkpt lat="42.7756717" lon="13.5660733"><ele>848.0</ele><time>2026-03-29T09:37:04.779Z</time></trkpt><trkpt lat="42.7757" lon="13.5662333"><ele>848.0</ele><time>2026-03-29T09:37:05.779Z</time></trkpt><trkpt lat="42.7757467" lon="13.5663633"><ele>850.0</ele><time>2026-03-29T09:37:06.78Z</time></trkpt><trkpt lat="42.7758133" lon="13.56648"><ele>852.0</ele><time>2026-03-29T09:37:07.78Z</time></trkpt><trkpt lat="42.7758833" lon="13.5665867"><ele>854.0</ele><time>2026-03-29T09:37:08.78Z</time></trkpt><trkpt lat="42.775945" lon="13.56669"><ele>856.0</ele><time>2026-03-29T09:37:09.779Z</time></trkpt><trkpt lat="42.77598" lon="13.566795"><ele>858.0</ele><time>2026-03-29T09:37:10.78Z</time></trkpt><trkpt lat="42.7759883" lon="13.566895"><ele>858.0</ele><time>2026-03-29T09:37:11.78Z</time></trkpt><trkpt lat="42.77596" lon="13.567005"><ele>858.0</ele><time>2026-03-29T09:37:12.78Z</time></trkpt><trkpt lat="42.7759" lon="13.5671017"><ele>858.0</ele><time>2026-03-29T09:37:13.779Z</time></trkpt><trkpt lat="42.7758283" lon="13.5672117"><ele>858.0</ele><time>2026-03-29T09:37:14.78Z</time></trkpt><trkpt lat="42.7757933" lon="13.5673467"><ele>858.0</ele><time>2026-03-29T09:37:15.78Z</time></trkpt><trkpt lat="42.7758" lon="13.5674967"><ele>858.5</ele><time>2026-03-29T09:37:16.779Z</time></trkpt><trkpt lat="42.77584" lon="13.56764"><ele>859.0</ele><time>2026-03-29T09:37:17.78Z</time></trkpt><trkpt lat="42.7759017" lon="13.5677683"><ele>859.5</ele><time>2026-03-29T09:37:18.78Z</time></trkpt><trkpt lat="42.7759817" lon="13.5678833"><ele>860.0</ele><time>2026-03-29T09:37:19.78Z</time></trkpt><trkpt lat="42.776075" lon="13.5679917"><ele>856.5</ele><time>2026-03-29T09:37:20.779Z</time></trkpt><trkpt lat="42.77618" lon="13.5680767"><ele>853.0</ele><time>2026-03-29T09:37:21.78Z</time></trkpt><trkpt lat="42.7762933" lon="13.5681367"><ele>849.5</ele><time>2026-03-29T09:37:22.78Z</time></trkpt><trkpt lat="42.7764067" lon="13.5681667"><ele>846.0</ele><time>2026-03-29T09:37:23.78Z</time></trkpt><trkpt lat="42.7765233" lon="13.5681883"><ele>846.0</ele><time>2026-03-29T09:37:24.78Z</time></trkpt><trkpt lat="42.77663" lon="13.5682183"><ele>846.0</ele><time>2026-03-29T09:37:25.779Z</time></trkpt><trkpt lat="42.776715" lon="13.5682833"><ele>846.0</ele><time>2026-03-29T09:37:26.78Z</time></trkpt><trkpt lat="42.7767983" lon="13.5683817"><ele>846.0</ele><time>2026-03-29T09:37:27.78Z</time></trkpt><trkpt lat="42.7768867" lon="13.5685"><ele>846.0</ele><time>2026-03-29T09:37:28.78Z</time></trkpt><trkpt lat="42.7769583" lon="13.5686317"><ele>846.75</ele><time>2026-03-29T09:37:29.78Z</time></trkpt><trkpt lat="42.7770383" lon="13.5687517"><ele>847.5</ele><time>2026-03-29T09:37:30.78Z</time></trkpt><trkpt lat="42.777125" lon="13.568855"><ele>848.25</ele><time>2026-03-29T09:37:31.78Z</time></trkpt><trkpt lat="42.7772267" lon="13.568925"><ele>849.0</ele><time>2026-03-29T09:37:32.78Z</time></trkpt><trkpt lat="42.7773283" lon="13.568955"><ele>849.0</ele><time>2026-03-29T09:37:33.78Z</time></trkpt><trkpt lat="42.7774367" lon="13.56895"><ele>849.0</ele><time>2026-03-29T09:37:34.78Z</time></trkpt><trkpt lat="42.7775417" lon="13.5689133"><ele>849.0</ele><time>2026-03-29T09:37:35.78Z</time></trkpt><trkpt lat="42.7776283" lon="13.568845"><ele>849.0</ele><time>2026-03-29T09:37:36.78Z</time></trkpt><trkpt lat="42.7777083" lon="13.5687417"><ele>849.0</ele><time>2026-03-29T09:37:37.78Z</time></trkpt><trkpt lat="42.7777683" lon="13.5686"><ele>855.25</ele><time>2026-03-29T09:37:38.78Z</time></trkpt><trkpt lat="42.7777983" lon="13.5684483"><ele>861.5</ele><time>2026-03-29T09:37:39.78Z</time></trkpt><trkpt lat="42.7777883" lon="13.5682817"><ele>867.75</ele><time>2026-03-29T09:37:40.779Z</time></trkpt><trkpt lat="42.7777617" lon="13.5681167"><ele>874.0</ele><time>2026-03-29T09:37:41.78Z</time></trkpt><trkpt lat="42.7777267" lon="13.5679583"><ele>874.5</ele><time>2026-03-29T09:37:42.78Z</time></trkpt><trkpt lat="42.777695" lon="13.5677983"><ele>875.0</ele><time>2026-03-29T09:37:43.78Z</time></trkpt><trkpt lat="42.7776783" lon="13.5676383"><ele>875.5</ele><time>2026-03-29T09:37:44.78Z</time></trkpt><trkpt lat="42.77768" lon="13.5674883"><ele>876.0</ele><time>2026-03-29T09:37:45.78Z</time></trkpt><trkpt lat="42.7776933" lon="13.5673317"><ele>876.0</ele><time>2026-03-29T09:37:46.779Z</time></trkpt><trkpt lat="42.7777217" lon="13.5671767"><ele>876.0</ele><time>2026-03-29T09:37:47.78Z</time></trkpt><trkpt lat="42.7777433" lon="13.5670183"><ele>876.0</ele><time>2026-03-29T09:37:48.78Z</time></trkpt><trkpt lat="42.7777633" lon="13.56685"><ele>876.0</ele><time>2026-03-29T09:37:49.78Z</time></trkpt><trkpt lat="42.7777833" lon="13.5666767"><ele>872.5</ele><time>2026-03-29T09:37:50.78Z</time></trkpt><trkpt lat="42.777815" lon="13.5665067"><ele>869.0</ele><time>2026-03-29T09:37:51.78Z</time></trkpt><trkpt lat="42.777865" lon="13.5663483"><ele>865.5</ele><time>2026-03-29T09:37:52.78Z</time></trkpt><trkpt lat="42.777925" lon="13.5661983"><ele>862.0</ele><time>2026-03-29T09:37:53.78Z</time></trkpt><trkpt lat="42.7779933" lon="13.566045"><ele>854.75</ele><time>2026-03-29T09:37:54.78Z</time></trkpt><trkpt lat="42.77808" lon="13.5659017"><ele>847.5</ele><time>2026-03-29T09:37:55.78Z</time></trkpt><trkpt lat="42.7781667" lon="13.5657667"><ele>840.25</ele><time>2026-03-29T09:37:56.78Z</time></trkpt><trkpt lat="42.7782567" lon="13.5656367"><ele>833.0</ele><time>2026-03-29T09:37:57.78Z</time></trkpt><trkpt lat="42.7783483" lon="13.5655067"><ele>833.0</ele><time>2026-03-29T09:37:58.78Z</time></trkpt><trkpt lat="42.7784417" lon="13.5653833"><ele>833.0</ele><time>2026-03-29T09:37:59.78Z</time></trkpt><trkpt lat="42.778535" lon="13.56527"><ele>833.0</ele><time>2026-03-29T09:38:00.779Z</time></trkpt><trkpt lat="42.7786233" lon="13.5651583"><ele>833.0</ele><time>2026-03-29T09:38:01.779Z</time></trkpt><trkpt lat="42.778715" lon="13.5650567"><ele>833.0</ele><time>2026-03-29T09:38:02.78Z</time></trkpt><trkpt lat="42.7788017" lon="13.5649617"><ele>833.0</ele><time>2026-03-29T09:38:03.78Z</time></trkpt><trkpt lat="42.7788867" lon="13.5648683"><ele>833.0</ele><time>2026-03-29T09:38:04.78Z</time></trkpt><trkpt lat="42.77898" lon="13.5647783"><ele>833.0</ele><time>2026-03-29T09:38:05.78Z</time></trkpt><trkpt lat="42.779075" lon="13.5646967"><ele>833.0</ele><time>2026-03-29T09:38:06.779Z</time></trkpt><trkpt lat="42.7791883" lon="13.5646267"><ele>833.0</ele><time>2026-03-29T09:38:07.78Z</time></trkpt><trkpt lat="42.7793167" lon="13.5645633"><ele>833.0</ele><time>2026-03-29T09:38:08.779Z</time></trkpt><trkpt lat="42.7794433" lon="13.5644917"><ele>833.0</ele><time>2026-03-29T09:38:09.78Z</time></trkpt><trkpt lat="42.7795583" lon="13.5644233"><ele>833.0</ele><time>2026-03-29T09:38:10.78Z</time></trkpt><trkpt lat="42.7796667" lon="13.5643483"><ele>831.5</ele><time>2026-03-29T09:38:11.78Z</time></trkpt><trkpt lat="42.7797783" lon="13.5642517"><ele>830.0</ele><time>2026-03-29T09:38:12.78Z</time></trkpt><trkpt lat="42.77989" lon="13.56414"><ele>828.5</ele><time>2026-03-29T09:38:13.78Z</time></trkpt><trkpt lat="42.7799817" lon="13.5640267"><ele>827.0</ele><time>2026-03-29T09:38:14.78Z</time></trkpt><trkpt lat="42.7800617" lon="13.563915"><ele>827.0</ele><time>2026-03-29T09:38:15.78Z</time></trkpt><trkpt lat="42.7801167" lon="13.5637883"><ele>827.0</ele><time>2026-03-29T09:38:16.78Z</time></trkpt><trkpt lat="42.78016" lon="13.5636567"><ele>827.0</ele><time>2026-03-29T09:38:17.78Z</time></trkpt><trkpt lat="42.780195" lon="13.56352"><ele>827.0</ele><time>2026-03-29T09:38:18.779Z</time></trkpt><trkpt lat="42.7802317" lon="13.5633833"><ele>827.0</ele><time>2026-03-29T09:38:19.78Z</time></trkpt><trkpt lat="42.7802833" lon="13.56327"><ele>826.2</ele><time>2026-03-29T09:38:20.78Z</time></trkpt><trkpt lat="42.78034" lon="13.5631617"><ele>825.4000000000001</ele><time>2026-03-29T09:38:21.78Z</time></trkpt><trkpt lat="42.78041" lon="13.5630683"><ele>824.5999999999999</ele><time>2026-03-29T09:38:22.78Z</time></trkpt><trkpt lat="42.7804917" lon="13.5629883"><ele>823.8</ele><time>2026-03-29T09:38:23.78Z</time></trkpt><trkpt lat="42.7805783" lon="13.5629417"><ele>823.0</ele><time>2026-03-29T09:38:24.78Z</time></trkpt><trkpt lat="42.780675" lon="13.5629267"><ele>823.0</ele><time>2026-03-29T09:38:25.78Z</time></trkpt><trkpt lat="42.78079" lon="13.56292"><ele>823.0</ele><time>2026-03-29T09:38:26.78Z</time></trkpt><trkpt lat="42.7809117" lon="13.5628967"><ele>823.0</ele><time>2026-03-29T09:38:27.779Z</time></trkpt><trkpt lat="42.781025" lon="13.56285"><ele>823.0</ele><time>2026-03-29T09:38:28.78Z</time></trkpt><trkpt lat="42.7811183" lon="13.56278"><ele>824.5999999999999</ele><time>2026-03-29T09:38:29.78Z</time></trkpt><trkpt lat="42.7811917" lon="13.5626833"><ele>826.1999999999999</ele><time>2026-03-29T09:38:30.78Z</time></trkpt><trkpt lat="42.7812367" lon="13.5625517"><ele>827.8</ele><time>2026-03-29T09:38:31.78Z</time></trkpt><trkpt lat="42.7812617" lon="13.562405"><ele>829.4</ele><time>2026-03-29T09:38:32.779Z</time></trkpt><trkpt lat="42.7812683" lon="13.5622433"><ele>831.0</ele><time>2026-03-29T09:38:33.779Z</time></trkpt><trkpt lat="42.7812817" lon="13.5620833"><ele>830.0</ele><time>2026-03-29T09:38:34.779Z</time></trkpt><trkpt lat="42.7813083" lon="13.5619283"><ele>829.0</ele><time>2026-03-29T09:38:35.779Z</time></trkpt><trkpt lat="42.7813467" lon="13.5617993"><ele>828.0</ele><time>2026-03-29T09:38:36.779Z</time></trkpt><trkpt lat="42.7813869" lon="13.5616798"><ele>827.0</ele><time>2026-03-29T09:38:37.779Z</time></trkpt><trkpt lat="42.781425" lon="13.5615561"><ele>826.0</ele><time>2026-03-29T09:38:38.779Z</time></trkpt><trkpt lat="42.7814653" lon="13.5614329"><ele>826.0</ele><time>2026-03-29T09:38:39.778Z</time></trkpt><trkpt lat="42.7815075" lon="13.5613116"><ele>826.0</ele><time>2026-03-29T09:38:40.779Z</time></trkpt><trkpt lat="42.7815518" lon="13.5611902"><ele>826.0</ele><time>2026-03-29T09:38:41.779Z</time></trkpt><trkpt lat="42.7816022" lon="13.561069"><ele>826.0</ele><time>2026-03-29T09:38:42.779Z</time></trkpt><trkpt lat="42.7816599" lon="13.5609452"><ele>826.0</ele><time>2026-03-29T09:38:43.779Z</time></trkpt><trkpt lat="42.7817287" lon="13.5608271"><ele>827.5</ele><time>2026-03-29T09:38:44.779Z</time></trkpt><trkpt lat="42.7818144" lon="13.56073"><ele>829.0</ele><time>2026-03-29T09:38:45.779Z</time></trkpt><trkpt lat="42.7819138" lon="13.5606506"><ele>830.5</ele><time>2026-03-29T09:38:46.779Z</time></trkpt><trkpt lat="42.7820305" lon="13.5605927"><ele>832.0</ele><time>2026-03-29T09:38:47.779Z</time></trkpt><trkpt lat="42.78215" lon="13.5605369"><ele>832.0</ele><time>2026-03-29T09:38:48.779Z</time></trkpt><trkpt lat="42.7822727" lon="13.5604737"><ele>832.0</ele><time>2026-03-29T09:38:49.779Z</time></trkpt><trkpt lat="42.7823886" lon="13.5603972"><ele>832.0</ele><time>2026-03-29T09:38:50.779Z</time></trkpt><trkpt lat="42.7824894" lon="13.5602889"><ele>832.0</ele><time>2026-03-29T09:38:51.778Z</time></trkpt><trkpt lat="42.782579" lon="13.5601557"><ele>829.75</ele><time>2026-03-29T09:38:52.779Z</time></trkpt><trkpt lat="42.7826583" lon="13.5600308"><ele>827.5</ele><time>2026-03-29T09:38:53.779Z</time></trkpt><trkpt lat="42.7827418" lon="13.5599132"><ele>825.25</ele><time>2026-03-29T09:38:54.779Z</time></trkpt><trkpt lat="42.782839" lon="13.5598091"><ele>823.0</ele><time>2026-03-29T09:38:55.779Z</time></trkpt><trkpt lat="42.7829454" lon="13.5597256"><ele>823.0</ele><time>2026-03-29T09:38:56.779Z</time></trkpt><trkpt lat="42.7830576" lon="13.5596561"><ele>823.0</ele><time>2026-03-29T09:38:57.779Z</time></trkpt><trkpt lat="42.7831771" lon="13.5596013"><ele>823.0</ele><time>2026-03-29T09:38:58.779Z</time></trkpt><trkpt lat="42.7832906" lon="13.5595594"><ele>823.0</ele><time>2026-03-29T09:38:59.778Z</time></trkpt><trkpt lat="42.7834013" lon="13.5595247"><ele>820.25</ele><time>2026-03-29T09:39:00.778Z</time></trkpt><trkpt lat="42.7835221" lon="13.5594805"><ele>817.5</ele><time>2026-03-29T09:39:01.779Z</time></trkpt><trkpt lat="42.7836423" lon="13.5594112"><ele>814.75</ele><time>2026-03-29T09:39:02.778Z</time></trkpt><trkpt lat="42.7837505" lon="13.5593169"><ele>812.0</ele><time>2026-03-29T09:39:03.778Z</time></trkpt><trkpt lat="42.7838543" lon="13.5592108"><ele>812.0</ele><time>2026-03-29T09:39:04.779Z</time></trkpt><trkpt lat="42.783969" lon="13.5591029"><ele>812.0</ele><time>2026-03-29T09:39:05.779Z</time></trkpt><trkpt lat="42.7840811" lon="13.559"><ele>812.0</ele><time>2026-03-29T09:39:06.779Z</time></trkpt><trkpt lat="42.7841871" lon="13.5589018"><ele>812.0</ele><time>2026-03-29T09:39:07.779Z</time></trkpt><trkpt lat="42.7842917" lon="13.5588099"><ele>809.25</ele><time>2026-03-29T09:39:08.779Z</time></trkpt><trkpt lat="42.784395" lon="13.5587133"><ele>806.5</ele><time>2026-03-29T09:39:09.779Z</time></trkpt><trkpt lat="42.7844983" lon="13.5586283"><ele>803.75</ele><time>2026-03-29T09:39:10.779Z</time></trkpt><trkpt lat="42.78459" lon="13.5585483"><ele>801.0</ele><time>2026-03-29T09:39:11.779Z</time></trkpt><trkpt lat="42.7846767" lon="13.5584617"><ele>801.0</ele><time>2026-03-29T09:39:12.779Z</time></trkpt><trkpt lat="42.78477" lon="13.5583733"><ele>801.0</ele><time>2026-03-29T09:39:13.779Z</time></trkpt><trkpt lat="42.7848633" lon="13.5582967"><ele>801.0</ele><time>2026-03-29T09:39:14.779Z</time></trkpt><trkpt lat="42.78495" lon="13.5582267"><ele>801.0</ele><time>2026-03-29T09:39:15.779Z</time></trkpt><trkpt lat="42.7850333" lon="13.5581633"><ele>801.0</ele><time>2026-03-29T09:39:16.779Z</time></trkpt><trkpt lat="42.7851233" lon="13.5581083"><ele>801.0</ele><time>2026-03-29T09:39:17.779Z</time></trkpt><trkpt lat="42.7852233" lon="13.55806"><ele>801.0</ele><time>2026-03-29T09:39:18.779Z</time></trkpt><trkpt lat="42.7853283" lon="13.5580383"><ele>801.0</ele><time>2026-03-29T09:39:19.779Z</time></trkpt><trkpt lat="42.7854367" lon="13.558045"><ele>801.0</ele><time>2026-03-29T09:39:20.779Z</time></trkpt><trkpt lat="42.78555" lon="13.5580833"><ele>801.0</ele><time>2026-03-29T09:39:21.779Z</time></trkpt><trkpt lat="42.7856517" lon="13.55814"><ele>801.0</ele><time>2026-03-29T09:39:22.778Z</time></trkpt><trkpt lat="42.7857583" lon="13.5582167"><ele>801.0</ele><time>2026-03-29T09:39:23.779Z</time></trkpt><trkpt lat="42.785865" lon="13.5582983"><ele>801.0</ele><time>2026-03-29T09:39:24.779Z</time></trkpt><trkpt lat="42.7859667" lon="13.558385"><ele>801.0</ele><time>2026-03-29T09:39:25.778Z</time></trkpt><trkpt lat="42.78606" lon="13.558465"><ele>799.1666666666666</ele><time>2026-03-29T09:39:26.778Z</time></trkpt><trkpt lat="42.786145" lon="13.5585433"><ele>797.3333333333333</ele><time>2026-03-29T09:39:27.779Z</time></trkpt><trkpt lat="42.7862217" lon="13.55861"><ele>795.5</ele><time>2026-03-29T09:39:28.779Z</time></trkpt><trkpt lat="42.7863117" lon="13.5586283"><ele>793.6666666666666</ele><time>2026-03-29T09:39:29.779Z</time></trkpt><trkpt lat="42.7864" lon="13.558625"><ele>791.8333333333333</ele><time>2026-03-29T09:39:30.779Z</time></trkpt><trkpt lat="42.7864683" lon="13.5585967"><ele>790.0</ele><time>2026-03-29T09:39:31.778Z</time></trkpt><trkpt lat="42.78651" lon="13.55853"><ele>789.9999999999999</ele><time>2026-03-29T09:39:32.779Z</time></trkpt><trkpt lat="42.78653" lon="13.5584317"><ele>790.0</ele><time>2026-03-29T09:39:33.779Z</time></trkpt><trkpt lat="42.786575" lon="13.5583383"><ele>790.0</ele><time>2026-03-29T09:39:34.778Z</time></trkpt><trkpt lat="42.786625" lon="13.55825"><ele>790.0</ele><time>2026-03-29T09:39:35.779Z</time></trkpt><trkpt lat="42.7866883" lon="13.5581717"><ele>789.9999999999999</ele><time>2026-03-29T09:39:36.779Z</time></trkpt><trkpt lat="42.7867633" lon="13.5581117"><ele>790.0</ele><time>2026-03-29T09:39:37.779Z</time></trkpt><trkpt lat="42.7868567" lon="13.55805"><ele>789.8</ele><time>2026-03-29T09:39:38.779Z</time></trkpt><trkpt lat="42.7869617" lon="13.5579917"><ele>789.6</ele><time>2026-03-29T09:39:39.779Z</time></trkpt><trkpt lat="42.7870617" lon="13.5579167"><ele>789.4000000000001</ele><time>2026-03-29T09:39:40.779Z</time></trkpt><trkpt lat="42.787155" lon="13.5578283"><ele>789.2</ele><time>2026-03-29T09:39:41.779Z</time></trkpt><trkpt lat="42.7872233" lon="13.5577167"><ele>789.0</ele><time>2026-03-29T09:39:42.779Z</time></trkpt><trkpt lat="42.787265" lon="13.5575867"><ele>789.0</ele><time>2026-03-29T09:39:43.779Z</time></trkpt><trkpt lat="42.7873067" lon="13.557465"><ele>789.0</ele><time>2026-03-29T09:39:44.779Z</time></trkpt><trkpt lat="42.7873483" lon="13.5573417"><ele>789.0</ele><time>2026-03-29T09:39:45.778Z</time></trkpt><trkpt lat="42.7873967" lon="13.5572233"><ele>789.0</ele><time>2026-03-29T09:39:46.779Z</time></trkpt><trkpt lat="42.78744" lon="13.557115"><ele>789.0</ele><time>2026-03-29T09:39:47.779Z</time></trkpt><trkpt lat="42.787485" lon="13.557"><ele>790.0</ele><time>2026-03-29T09:39:48.778Z</time></trkpt><trkpt lat="42.7875417" lon="13.5568867"><ele>791.0</ele><time>2026-03-29T09:39:49.779Z</time></trkpt><trkpt lat="42.787595" lon="13.556765"><ele>792.0</ele><time>2026-03-29T09:39:50.779Z</time></trkpt><trkpt lat="42.78765" lon="13.5566417"><ele>793.0</ele><time>2026-03-29T09:39:51.779Z</time></trkpt><trkpt lat="42.7877" lon="13.5565183"><ele>794.0</ele><time>2026-03-29T09:39:52.779Z</time></trkpt><trkpt lat="42.7877367" lon="13.5563867"><ele>794.0</ele><time>2026-03-29T09:39:53.779Z</time></trkpt><trkpt lat="42.7877817" lon="13.5562667"><ele>794.0</ele><time>2026-03-29T09:39:54.779Z</time></trkpt><trkpt lat="42.7878367" lon="13.5561433"><ele>794.0</ele><time>2026-03-29T09:39:55.779Z</time></trkpt><trkpt lat="42.7879083" lon="13.5560333"><ele>794.0</ele><time>2026-03-29T09:39:56.778Z</time></trkpt><trkpt lat="42.7879983" lon="13.5559483"><ele>794.0</ele><time>2026-03-29T09:39:57.779Z</time></trkpt><trkpt lat="42.7881" lon="13.5558717"><ele>790.0</ele><time>2026-03-29T09:39:58.779Z</time></trkpt><trkpt lat="42.7882" lon="13.5558067"><ele>786.0</ele><time>2026-03-29T09:39:59.779Z</time></trkpt><trkpt lat="42.7883017" lon="13.55574"><ele>782.0</ele><time>2026-03-29T09:40:00.779Z</time></trkpt><trkpt lat="42.78839" lon="13.5556733"><ele>778.0</ele><time>2026-03-29T09:40:01.779Z</time></trkpt><trkpt lat="42.78848" lon="13.5556183"><ele>774.0</ele><time>2026-03-29T09:40:02.778Z</time></trkpt><trkpt lat="42.78857" lon="13.5555733"><ele>774.0</ele><time>2026-03-29T09:40:03.779Z</time></trkpt><trkpt lat="42.7886717" lon="13.5555283"><ele>774.0</ele><time>2026-03-29T09:40:04.778Z</time></trkpt><trkpt lat="42.7887683" lon="13.555485"><ele>774.0</ele><time>2026-03-29T09:40:05.779Z</time></trkpt><trkpt lat="42.7888567" lon="13.55544"><ele>774.0</ele><time>2026-03-29T09:40:06.779Z</time></trkpt><trkpt lat="42.788945" lon="13.5553933"><ele>774.0</ele><time>2026-03-29T09:40:07.779Z</time></trkpt><trkpt lat="42.7890267" lon="13.55534"><ele>770.3333333333334</ele><time>2026-03-29T09:40:08.778Z</time></trkpt><trkpt lat="42.7891117" lon="13.555305"><ele>766.6666666666666</ele><time>2026-03-29T09:40:09.779Z</time></trkpt><trkpt lat="42.7892" lon="13.555285"><ele>763.0</ele><time>2026-03-29T09:40:10.779Z</time></trkpt><trkpt lat="42.78929" lon="13.555275"><ele>759.3333333333333</ele><time>2026-03-29T09:40:11.779Z</time></trkpt><trkpt lat="42.7893817" lon="13.5552733"><ele>755.6666666666666</ele><time>2026-03-29T09:40:12.779Z</time></trkpt><trkpt lat="42.789465" lon="13.5552867"><ele>752.0</ele><time>2026-03-29T09:40:13.779Z</time></trkpt><trkpt lat="42.7895383" lon="13.555305"><ele>752.0</ele><time>2026-03-29T09:40:14.779Z</time></trkpt><trkpt lat="42.7896117" lon="13.5553233"><ele>752.0</ele><time>2026-03-29T09:40:15.779Z</time></trkpt><trkpt lat="42.789685" lon="13.55533"><ele>752.0</ele><time>2026-03-29T09:40:16.779Z</time></trkpt><trkpt lat="42.7897517" lon="13.555325"><ele>752.0</ele><time>2026-03-29T09:40:17.779Z</time></trkpt><trkpt lat="42.7898417" lon="13.555275"><ele>752.0</ele><time>2026-03-29T09:40:19.778Z</time></trkpt><trkpt lat="42.789895" lon="13.55514"><ele>752.0</ele><time>2026-03-29T09:41:41.779Z</time></trkpt><trkpt lat="42.7898717" lon="13.555035"><ele>752.0</ele><time>2026-03-29T09:41:43.778Z</time></trkpt><trkpt lat="42.789785" lon="13.5549567"><ele>752.0</ele><time>2026-03-29T09:41:45.779Z</time></trkpt><trkpt lat="42.7896933" lon="13.55495"><ele>752.0</ele><time>2026-03-29T09:41:47.778Z</time></trkpt><trkpt lat="42.78963" lon="13.5549567"><ele>752.0</ele><time>2026-03-29T09:41:49.779Z</time></trkpt><trkpt lat="42.7895267" lon="13.5549617"><ele>752.0</ele><time>2026-03-29T09:43:55.777Z</time></trkpt><trkpt lat="42.7894483" lon="13.5549467"><ele>752.0</ele><time>2026-03-29T09:43:58.778Z</time></trkpt><trkpt lat="42.7893317" lon="13.554945"><ele>751.3333333333333</ele><time>2026-03-29T09:44:00.778Z</time></trkpt><trkpt lat="42.7892633" lon="13.55494"><ele>750.6666666666666</ele><time>2026-03-29T09:44:01.778Z</time></trkpt><trkpt lat="42.7891967" lon="13.554935"><ele>750.0</ele><time>2026-03-29T09:44:02.777Z</time></trkpt><trkpt lat="42.7891217" lon="13.5549317"><ele>749.3333333333334</ele><time>2026-03-29T09:44:03.778Z</time></trkpt><trkpt lat="42.78904" lon="13.5549467"><ele>748.6666666666667</ele><time>2026-03-29T09:44:04.778Z</time></trkpt><trkpt lat="42.7889667" lon="13.554965"><ele>748.0</ele><time>2026-03-29T09:44:05.778Z</time></trkpt><trkpt lat="42.7888833" lon="13.554995"><ele>748.0</ele><time>2026-03-29T09:44:06.778Z</time></trkpt><trkpt lat="42.7887983" lon="13.5550117"><ele>748.0</ele><time>2026-03-29T09:44:07.778Z</time></trkpt><trkpt lat="42.7887133" lon="13.55502"><ele>748.0</ele><time>2026-03-29T09:44:08.778Z</time></trkpt><trkpt lat="42.7886267" lon="13.5550167"><ele>748.0</ele><time>2026-03-29T09:44:09.778Z</time></trkpt><trkpt lat="42.7885417" lon="13.555"><ele>748.0</ele><time>2026-03-29T09:44:10.778Z</time></trkpt><trkpt lat="42.7884517" lon="13.5549783"><ele>748.0</ele><time>2026-03-29T09:44:11.778Z</time></trkpt><trkpt lat="42.7883583" lon="13.554945"><ele>747.5</ele><time>2026-03-29T09:44:12.777Z</time></trkpt><trkpt lat="42.7882667" lon="13.55491"><ele>747.0</ele><time>2026-03-29T09:44:13.778Z</time></trkpt><trkpt lat="42.7881867" lon="13.5548817"><ele>746.5</ele><time>2026-03-29T09:44:14.778Z</time></trkpt><trkpt lat="42.78811" lon="13.55485"><ele>746.0</ele><time>2026-03-29T09:44:15.777Z</time></trkpt><trkpt lat="42.7880417" lon="13.5548133"><ele>745.5</ele><time>2026-03-29T09:44:16.778Z</time></trkpt><trkpt lat="42.7879683" lon="13.5547817"><ele>745.0</ele><time>2026-03-29T09:44:17.778Z</time></trkpt><trkpt lat="42.7878967" lon="13.55476"><ele>745.0</ele><time>2026-03-29T09:44:18.778Z</time></trkpt><trkpt lat="42.7878283" lon="13.5547333"><ele>745.0</ele><time>2026-03-29T09:44:19.778Z</time></trkpt><trkpt lat="42.7877667" lon="13.55471"><ele>745.0</ele><time>2026-03-29T09:44:20.778Z</time></trkpt><trkpt lat="42.7877033" lon="13.554605"><ele>745.0</ele><time>2026-03-29T09:44:22.778Z</time></trkpt><trkpt lat="42.7877433" lon="13.5544717"><ele>745.0</ele><time>2026-03-29T09:44:24.778Z</time></trkpt><trkpt lat="42.7878083" lon="13.554415"><ele>745.0</ele><time>2026-03-29T09:44:25.778Z</time></trkpt><trkpt lat="42.7878917" lon="13.5543617"><ele>741.3333333333334</ele><time>2026-03-29T09:44:26.778Z</time></trkpt><trkpt lat="42.78798" lon="13.5543117"><ele>737.6666666666667</ele><time>2026-03-29T09:44:27.777Z</time></trkpt><trkpt lat="42.7880583" lon="13.5542683"><ele>734.0</ele><time>2026-03-29T09:44:28.778Z</time></trkpt><trkpt lat="42.788135" lon="13.5542317"><ele>730.3333333333334</ele><time>2026-03-29T09:44:29.778Z</time></trkpt><trkpt lat="42.7882133" lon="13.5542"><ele>726.6666666666666</ele><time>2026-03-29T09:44:30.778Z</time></trkpt><trkpt lat="42.7883017" lon="13.55418"><ele>723.0</ele><time>2026-03-29T09:44:31.778Z</time></trkpt><trkpt lat="42.7883917" lon="13.55415"><ele>723.0</ele><time>2026-03-29T09:44:32.778Z</time></trkpt><trkpt lat="42.7884917" lon="13.5541167"><ele>723.0</ele><time>2026-03-29T09:44:33.778Z</time></trkpt><trkpt lat="42.788595" lon="13.5540817"><ele>723.0</ele><time>2026-03-29T09:44:34.778Z</time></trkpt><trkpt lat="42.7887033" lon="13.5540417"><ele>723.0</ele><time>2026-03-29T09:44:35.777Z</time></trkpt><trkpt lat="42.7888167" lon="13.5540033"><ele>723.0</ele><time>2026-03-29T09:44:36.778Z</time></trkpt><trkpt lat="42.7889267" lon="13.5539617"><ele>723.0</ele><time>2026-03-29T09:44:37.777Z</time></trkpt><trkpt lat="42.789025" lon="13.55393"><ele>723.0</ele><time>2026-03-29T09:44:38.778Z</time></trkpt><trkpt lat="42.78912" lon="13.5539033"><ele>723.0</ele><time>2026-03-29T09:44:39.778Z</time></trkpt><trkpt lat="42.7892233" lon="13.5538567"><ele>723.0</ele><time>2026-03-29T09:44:40.778Z</time></trkpt><trkpt lat="42.7893133" lon="13.5538067"><ele>723.0</ele><time>2026-03-29T09:44:41.777Z</time></trkpt><trkpt lat="42.7893967" lon="13.5537633"><ele>723.5999999999999</ele><time>2026-03-29T09:44:42.778Z</time></trkpt><trkpt lat="42.7894767" lon="13.5537367"><ele>724.1999999999999</ele><time>2026-03-29T09:44:43.778Z</time></trkpt><trkpt lat="42.7895683" lon="13.55372"><ele>724.8</ele><time>2026-03-29T09:44:44.778Z</time></trkpt><trkpt lat="42.7896617" lon="13.5537067"><ele>725.4</ele><time>2026-03-29T09:44:45.778Z</time></trkpt><trkpt lat="42.789765" lon="13.5536883"><ele>726.0</ele><time>2026-03-29T09:44:46.778Z</time></trkpt><trkpt lat="42.7898683" lon="13.5536617"><ele>721.0</ele><time>2026-03-29T09:44:47.778Z</time></trkpt><trkpt lat="42.7899733" lon="13.5536283"><ele>716.0</ele><time>2026-03-29T09:44:48.778Z</time></trkpt><trkpt lat="42.7900733" lon="13.5535983"><ele>711.0</ele><time>2026-03-29T09:44:49.778Z</time></trkpt><trkpt lat="42.7901833" lon="13.5535733"><ele>706.0</ele><time>2026-03-29T09:44:50.778Z</time></trkpt><trkpt lat="42.7902867" lon="13.5535533"><ele>701.0</ele><time>2026-03-29T09:44:51.778Z</time></trkpt><trkpt lat="42.7904017" lon="13.553545"><ele>700.5999999999999</ele><time>2026-03-29T09:44:52.778Z</time></trkpt><trkpt lat="42.7905183" lon="13.55356"><ele>700.2</ele><time>2026-03-29T09:44:53.777Z</time></trkpt><trkpt lat="42.7906317" lon="13.5535967"><ele>699.8</ele><time>2026-03-29T09:44:54.778Z</time></trkpt><trkpt lat="42.7907333" lon="13.5536533"><ele>699.4000000000001</ele><time>2026-03-29T09:44:55.778Z</time></trkpt><trkpt lat="42.790825" lon="13.5537017"><ele>699.0</ele><time>2026-03-29T09:44:56.778Z</time></trkpt><trkpt lat="42.7909067" lon="13.5537167"><ele>699.0</ele><time>2026-03-29T09:44:57.778Z</time></trkpt><trkpt lat="42.790985" lon="13.5536933"><ele>699.0</ele><time>2026-03-29T09:44:58.778Z</time></trkpt><trkpt lat="42.7910583" lon="13.553625"><ele>699.0</ele><time>2026-03-29T09:44:59.778Z</time></trkpt><trkpt lat="42.7911233" lon="13.55352"><ele>699.0</ele><time>2026-03-29T09:45:00.778Z</time></trkpt><trkpt lat="42.7911717" lon="13.5533817"><ele>699.0</ele><time>2026-03-29T09:45:01.778Z</time></trkpt><trkpt lat="42.791195" lon="13.5532383"><ele>699.4000000000001</ele><time>2026-03-29T09:45:02.778Z</time></trkpt><trkpt lat="42.791195" lon="13.5530917"><ele>699.8</ele><time>2026-03-29T09:45:03.778Z</time></trkpt><trkpt lat="42.7911933" lon="13.5529633"><ele>700.2</ele><time>2026-03-29T09:45:04.778Z</time></trkpt><trkpt lat="42.7911933" lon="13.5528417"><ele>700.5999999999999</ele><time>2026-03-29T09:45:05.778Z</time></trkpt><trkpt lat="42.7911967" lon="13.5527217"><ele>701.0</ele><time>2026-03-29T09:45:06.778Z</time></trkpt><trkpt lat="42.7911933" lon="13.5526"><ele>701.0</ele><time>2026-03-29T09:45:07.778Z</time></trkpt><trkpt lat="42.7912" lon="13.5524617"><ele>701.0</ele><time>2026-03-29T09:45:08.777Z</time></trkpt><trkpt lat="42.791215" lon="13.5523067"><ele>701.0</ele><time>2026-03-29T09:45:09.778Z</time></trkpt><trkpt lat="42.7912383" lon="13.5521517"><ele>701.0</ele><time>2026-03-29T09:45:10.777Z</time></trkpt><trkpt lat="42.7912717" lon="13.5520133"><ele>701.0</ele><time>2026-03-29T09:45:11.777Z</time></trkpt><trkpt lat="42.7913183" lon="13.5518833"><ele>698.75</ele><time>2026-03-29T09:45:12.778Z</time></trkpt><trkpt lat="42.7913933" lon="13.551765"><ele>696.5</ele><time>2026-03-29T09:45:13.778Z</time></trkpt><trkpt lat="42.791485" lon="13.551675"><ele>694.25</ele><time>2026-03-29T09:45:14.778Z</time></trkpt><trkpt lat="42.791585" lon="13.5515967"><ele>692.0</ele><time>2026-03-29T09:45:15.778Z</time></trkpt><trkpt lat="42.7916783" lon="13.551515"><ele>692.0</ele><time>2026-03-29T09:45:16.777Z</time></trkpt><trkpt lat="42.7917617" lon="13.55141"><ele>692.0</ele><time>2026-03-29T09:45:17.778Z</time></trkpt><trkpt lat="42.79183" lon="13.5512883"><ele>692.0</ele><time>2026-03-29T09:45:18.777Z</time></trkpt><trkpt lat="42.7918767" lon="13.5511467"><ele>692.0</ele><time>2026-03-29T09:45:19.778Z</time></trkpt><trkpt lat="42.7919083" lon="13.550995"><ele>692.2</ele><time>2026-03-29T09:45:20.778Z</time></trkpt><trkpt lat="42.791925" lon="13.550855"><ele>692.4000000000001</ele><time>2026-03-29T09:45:21.778Z</time></trkpt><trkpt lat="42.79196" lon="13.5507367"><ele>692.5999999999999</ele><time>2026-03-29T09:45:22.778Z</time></trkpt><trkpt lat="42.7920067" lon="13.55062"><ele>692.8</ele><time>2026-03-29T09:45:23.778Z</time></trkpt><trkpt lat="42.7920683" lon="13.5505233"><ele>693.0</ele><time>2026-03-29T09:45:24.778Z</time></trkpt><trkpt lat="42.7921383" lon="13.5504183"><ele>691.0</ele><time>2026-03-29T09:45:25.777Z</time></trkpt><trkpt lat="42.7922083" lon="13.5503067"><ele>689.0</ele><time>2026-03-29T09:45:26.778Z</time></trkpt><trkpt lat="42.79228" lon="13.5502"><ele>687.0</ele><time>2026-03-29T09:45:27.778Z</time></trkpt><trkpt lat="42.7923417" lon="13.5500983"><ele>685.0</ele><time>2026-03-29T09:45:28.778Z</time></trkpt><trkpt lat="42.792395" lon="13.5500083"><ele>683.0</ele><time>2026-03-29T09:45:29.778Z</time></trkpt><trkpt lat="42.792445" lon="13.5499233"><ele>683.0</ele><time>2026-03-29T09:45:30.778Z</time></trkpt><trkpt lat="42.7924983" lon="13.549845"><ele>683.0</ele><time>2026-03-29T09:45:31.778Z</time></trkpt><trkpt lat="42.7925467" lon="13.5497583"><ele>683.0</ele><time>2026-03-29T09:45:32.778Z</time></trkpt><trkpt lat="42.7926017" lon="13.54967"><ele>683.0</ele><time>2026-03-29T09:45:33.777Z</time></trkpt><trkpt lat="42.7926583" lon="13.549575"><ele>683.0</ele><time>2026-03-29T09:45:34.778Z</time></trkpt><trkpt lat="42.7927133" lon="13.54947"><ele>683.0</ele><time>2026-03-29T09:45:35.778Z</time></trkpt><trkpt lat="42.7927533" lon="13.549345"><ele>686.2</ele><time>2026-03-29T09:45:36.778Z</time></trkpt><trkpt lat="42.7927517" lon="13.5492067"><ele>689.4</ele><time>2026-03-29T09:45:37.778Z</time></trkpt><trkpt lat="42.7927483" lon="13.54908"><ele>692.6</ele><time>2026-03-29T09:45:38.777Z</time></trkpt><trkpt lat="42.7927383" lon="13.548965"><ele>695.8000000000001</ele><time>2026-03-29T09:45:39.778Z</time></trkpt><trkpt lat="42.7927267" lon="13.54884"><ele>699.0</ele><time>2026-03-29T09:45:40.778Z</time></trkpt><trkpt lat="42.7927083" lon="13.54872"><ele>697.1666666666666</ele><time>2026-03-29T09:45:41.777Z</time></trkpt><trkpt lat="42.7927033" lon="13.5486033"><ele>695.3333333333334</ele><time>2026-03-29T09:45:42.778Z</time></trkpt><trkpt lat="42.7927033" lon="13.5484767"><ele>693.5</ele><time>2026-03-29T09:45:43.778Z</time></trkpt><trkpt lat="42.7927217" lon="13.5483617"><ele>691.6666666666667</ele><time>2026-03-29T09:45:44.778Z</time></trkpt><trkpt lat="42.7927617" lon="13.5482583"><ele>689.8333333333334</ele><time>2026-03-29T09:45:45.778Z</time></trkpt><trkpt lat="42.7928233" lon="13.548175"><ele>688.0</ele><time>2026-03-29T09:45:46.778Z</time></trkpt><trkpt lat="42.79291" lon="13.54811"><ele>688.0</ele><time>2026-03-29T09:45:47.777Z</time></trkpt><trkpt lat="42.7930367" lon="13.54805"><ele>688.0</ele><time>2026-03-29T09:45:48.778Z</time></trkpt><trkpt lat="42.7931717" lon="13.5479833"><ele>688.0</ele><time>2026-03-29T09:45:49.778Z</time></trkpt><trkpt lat="42.7933083" lon="13.5478983"><ele>688.0</ele><time>2026-03-29T09:45:50.777Z</time></trkpt><trkpt lat="42.79343" lon="13.5478267"><ele>691.0</ele><time>2026-03-29T09:45:51.778Z</time></trkpt><trkpt lat="42.7935433" lon="13.5477617"><ele>694.0</ele><time>2026-03-29T09:45:52.778Z</time></trkpt><trkpt lat="42.7936533" lon="13.5476833"><ele>697.0</ele><time>2026-03-29T09:45:53.777Z</time></trkpt><trkpt lat="42.7937583" lon="13.5475883"><ele>700.0</ele><time>2026-03-29T09:45:54.778Z</time></trkpt><trkpt lat="42.7938533" lon="13.5474733"><ele>700.0</ele><time>2026-03-29T09:45:55.778Z</time></trkpt><trkpt lat="42.7939233" lon="13.5473383"><ele>700.0</ele><time>2026-03-29T09:45:56.778Z</time></trkpt><trkpt lat="42.79398" lon="13.5471933"><ele>700.0</ele><time>2026-03-29T09:45:57.778Z</time></trkpt><trkpt lat="42.7940183" lon="13.5470367"><ele>700.0</ele><time>2026-03-29T09:45:58.778Z</time></trkpt><trkpt lat="42.7940483" lon="13.546885"><ele>697.4</ele><time>2026-03-29T09:45:59.777Z</time></trkpt><trkpt lat="42.79409" lon="13.5467517"><ele>694.8</ele><time>2026-03-29T09:46:00.778Z</time></trkpt><trkpt lat="42.7941283" lon="13.546615"><ele>692.2</ele><time>2026-03-29T09:46:01.778Z</time></trkpt><trkpt lat="42.794175" lon="13.5464783"><ele>689.6</ele><time>2026-03-29T09:46:02.778Z</time></trkpt><trkpt lat="42.794215" lon="13.5463467"><ele>687.0</ele><time>2026-03-29T09:46:03.777Z</time></trkpt><trkpt lat="42.794265" lon="13.5462267"><ele>689.0</ele><time>2026-03-29T09:46:04.778Z</time></trkpt><trkpt lat="42.7943267" lon="13.5461083"><ele>691.0</ele><time>2026-03-29T09:46:05.778Z</time></trkpt><trkpt lat="42.794405" lon="13.5460017"><ele>693.0</ele><time>2026-03-29T09:46:06.778Z</time></trkpt><trkpt lat="42.7944817" lon="13.5459067"><ele>695.0</ele><time>2026-03-29T09:46:07.778Z</time></trkpt><trkpt lat="42.794565" lon="13.5458217"><ele>697.0</ele><time>2026-03-29T09:46:08.777Z</time></trkpt><trkpt lat="42.7946533" lon="13.54573"><ele>697.0</ele><time>2026-03-29T09:46:09.778Z</time></trkpt><trkpt lat="42.7947533" lon="13.54565"><ele>697.0</ele><time>2026-03-29T09:46:10.778Z</time></trkpt><trkpt lat="42.7948467" lon="13.5455817"><ele>697.0</ele><time>2026-03-29T09:46:11.778Z</time></trkpt><trkpt lat="42.7949583" lon="13.545545"><ele>697.0</ele><time>2026-03-29T09:46:12.778Z</time></trkpt><trkpt lat="42.7950667" lon="13.5455417"><ele>697.0</ele><time>2026-03-29T09:46:13.778Z</time></trkpt><trkpt lat="42.79517" lon="13.5455017"><ele>695.5</ele><time>2026-03-29T09:46:14.778Z</time></trkpt><trkpt lat="42.79528" lon="13.54544"><ele>694.0</ele><time>2026-03-29T09:46:15.777Z</time></trkpt><trkpt lat="42.7953783" lon="13.5453483"><ele>692.5</ele><time>2026-03-29T09:46:16.778Z</time></trkpt><trkpt lat="42.795475" lon="13.5452433"><ele>691.0</ele><time>2026-03-29T09:46:17.777Z</time></trkpt><trkpt lat="42.79558" lon="13.54514"><ele>691.0</ele><time>2026-03-29T09:46:18.778Z</time></trkpt><trkpt lat="42.7956917" lon="13.5450333"><ele>691.0</ele><time>2026-03-29T09:46:19.777Z</time></trkpt><trkpt lat="42.7958" lon="13.5449183"><ele>691.0</ele><time>2026-03-29T09:46:20.777Z</time></trkpt><trkpt lat="42.7959" lon="13.5448117"><ele>691.0</ele><time>2026-03-29T09:46:21.777Z</time></trkpt><trkpt lat="42.7959933" lon="13.544705"><ele>692.25</ele><time>2026-03-29T09:46:22.777Z</time></trkpt><trkpt lat="42.7960967" lon="13.5446067"><ele>693.5</ele><time>2026-03-29T09:46:23.777Z</time></trkpt><trkpt lat="42.7962083" lon="13.5445283"><ele>694.75</ele><time>2026-03-29T09:46:24.777Z</time></trkpt><trkpt lat="42.7963217" lon="13.544445"><ele>696.0</ele><time>2026-03-29T09:46:25.777Z</time></trkpt><trkpt lat="42.796415" lon="13.5443467"><ele>696.0</ele><time>2026-03-29T09:46:26.777Z</time></trkpt><trkpt lat="42.7964983" lon="13.5442217"><ele>696.0</ele><time>2026-03-29T09:46:27.776Z</time></trkpt><trkpt lat="42.7965683" lon="13.5440817"><ele>696.0</ele><time>2026-03-29T09:46:28.777Z</time></trkpt><trkpt lat="42.7966317" lon="13.543925"><ele>696.0</ele><time>2026-03-29T09:46:29.777Z</time></trkpt><trkpt lat="42.7967067" lon="13.543765"><ele>692.25</ele><time>2026-03-29T09:46:30.776Z</time></trkpt><trkpt lat="42.7967733" lon="13.5436"><ele>688.5</ele><time>2026-03-29T09:46:31.777Z</time></trkpt><trkpt lat="42.7968267" lon="13.5434233"><ele>684.75</ele><time>2026-03-29T09:46:32.777Z</time></trkpt><trkpt lat="42.7968633" lon="13.5432533"><ele>681.0</ele><time>2026-03-29T09:46:33.777Z</time></trkpt><trkpt lat="42.7968883" lon="13.543085"><ele>685.8</ele><time>2026-03-29T09:46:34.777Z</time></trkpt><trkpt lat="42.79691" lon="13.54292"><ele>690.5999999999999</ele><time>2026-03-29T09:46:35.777Z</time></trkpt><trkpt lat="42.796935" lon="13.54277"><ele>695.4</ele><time>2026-03-29T09:46:36.777Z</time></trkpt><trkpt lat="42.7969583" lon="13.5426283"><ele>700.2</ele><time>2026-03-29T09:46:37.777Z</time></trkpt><trkpt lat="42.79698" lon="13.5424883"><ele>705.0</ele><time>2026-03-29T09:46:38.777Z</time></trkpt><trkpt lat="42.7970067" lon="13.5423433"><ele>705.0</ele><time>2026-03-29T09:46:39.777Z</time></trkpt><trkpt lat="42.797025" lon="13.5421967"><ele>705.0</ele><time>2026-03-29T09:46:40.777Z</time></trkpt><trkpt lat="42.79706" lon="13.542045"><ele>705.0</ele><time>2026-03-29T09:46:41.777Z</time></trkpt><trkpt lat="42.7970933" lon="13.541905"><ele>705.0</ele><time>2026-03-29T09:46:42.777Z</time></trkpt><trkpt lat="42.7971283" lon="13.541765"><ele>705.0</ele><time>2026-03-29T09:46:43.777Z</time></trkpt><trkpt lat="42.7971667" lon="13.541615"><ele>701.75</ele><time>2026-03-29T09:46:44.777Z</time></trkpt><trkpt lat="42.797225" lon="13.5414767"><ele>698.5</ele><time>2026-03-29T09:46:45.777Z</time></trkpt><trkpt lat="42.7973" lon="13.5413433"><ele>695.25</ele><time>2026-03-29T09:46:46.777Z</time></trkpt><trkpt lat="42.797385" lon="13.541215"><ele>692.0</ele><time>2026-03-29T09:46:47.777Z</time></trkpt><trkpt lat="42.7974817" lon="13.5411117"><ele>689.5</ele><time>2026-03-29T09:46:48.777Z</time></trkpt><trkpt lat="42.7975817" lon="13.54102"><ele>687.0</ele><time>2026-03-29T09:46:49.776Z</time></trkpt><trkpt lat="42.7976817" lon="13.5409317"><ele>684.5</ele><time>2026-03-29T09:46:50.777Z</time></trkpt><trkpt lat="42.7977833" lon="13.5408433"><ele>682.0</ele><time>2026-03-29T09:46:51.777Z</time></trkpt><trkpt lat="42.7978933" lon="13.5407433"><ele>682.0</ele><time>2026-03-29T09:46:52.777Z</time></trkpt><trkpt lat="42.79802" lon="13.5406333"><ele>682.0</ele><time>2026-03-29T09:46:53.777Z</time></trkpt><trkpt lat="42.7981383" lon="13.5405233"><ele>682.0</ele><time>2026-03-29T09:46:54.777Z</time></trkpt><trkpt lat="42.7982517" lon="13.5404217"><ele>682.0</ele><time>2026-03-29T09:46:55.777Z</time></trkpt><trkpt lat="42.7983617" lon="13.540315"><ele>680.75</ele><time>2026-03-29T09:46:56.776Z</time></trkpt><trkpt lat="42.7984667" lon="13.5401883"><ele>679.5</ele><time>2026-03-29T09:46:57.777Z</time></trkpt><trkpt lat="42.79857" lon="13.5400517"><ele>678.25</ele><time>2026-03-29T09:46:58.776Z</time></trkpt><trkpt lat="42.7986633" lon="13.5399"><ele>677.0</ele><time>2026-03-29T09:46:59.777Z</time></trkpt><trkpt lat="42.7987433" lon="13.5397467"><ele>677.0</ele><time>2026-03-29T09:47:00.776Z</time></trkpt><trkpt lat="42.7988217" lon="13.539575"><ele>677.0</ele><time>2026-03-29T09:47:01.777Z</time></trkpt><trkpt lat="42.7989" lon="13.539405"><ele>677.0</ele><time>2026-03-29T09:47:02.777Z</time></trkpt><trkpt lat="42.7989683" lon="13.539235"><ele>677.0</ele><time>2026-03-29T09:47:03.777Z</time></trkpt><trkpt lat="42.7990467" lon="13.53908"><ele>672.75</ele><time>2026-03-29T09:47:04.777Z</time></trkpt><trkpt lat="42.7991233" lon="13.5389367"><ele>668.5</ele><time>2026-03-29T09:47:05.777Z</time></trkpt><trkpt lat="42.7992067" lon="13.5388"><ele>664.25</ele><time>2026-03-29T09:47:06.777Z</time></trkpt><trkpt lat="42.7993033" lon="13.5386967"><ele>660.0</ele><time>2026-03-29T09:47:07.777Z</time></trkpt><trkpt lat="42.7994033" lon="13.5386317"><ele>658.8</ele><time>2026-03-29T09:47:08.777Z</time></trkpt><trkpt lat="42.7995017" lon="13.5386133"><ele>657.6</ele><time>2026-03-29T09:47:09.776Z</time></trkpt><trkpt lat="42.7995967" lon="13.5386233"><ele>656.4000000000001</ele><time>2026-03-29T09:47:10.776Z</time></trkpt><trkpt lat="42.7997033" lon="13.5386667"><ele>655.2</ele><time>2026-03-29T09:47:11.777Z</time></trkpt><trkpt lat="42.79982" lon="13.538715"><ele>654.0</ele><time>2026-03-29T09:47:12.777Z</time></trkpt><trkpt lat="42.7999233" lon="13.538785"><ele>654.0</ele><time>2026-03-29T09:47:13.777Z</time></trkpt><trkpt lat="42.8000133" lon="13.538875"><ele>654.0</ele><time>2026-03-29T09:47:14.777Z</time></trkpt><trkpt lat="42.8000883" lon="13.5389767"><ele>654.0</ele><time>2026-03-29T09:47:15.777Z</time></trkpt><trkpt lat="42.80014" lon="13.5390933"><ele>654.0</ele><time>2026-03-29T09:47:16.777Z</time></trkpt><trkpt lat="42.8001833" lon="13.539235"><ele>654.0</ele><time>2026-03-29T09:47:17.777Z</time></trkpt><trkpt lat="42.8002117" lon="13.539385"><ele>650.25</ele><time>2026-03-29T09:47:18.777Z</time></trkpt><trkpt lat="42.800265" lon="13.5395367"><ele>646.5</ele><time>2026-03-29T09:47:19.777Z</time></trkpt><trkpt lat="42.800335" lon="13.5396917"><ele>642.75</ele><time>2026-03-29T09:47:20.776Z</time></trkpt><trkpt lat="42.8004333" lon="13.5398233"><ele>639.0</ele><time>2026-03-29T09:47:21.777Z</time></trkpt><trkpt lat="42.8005317" lon="13.5399433"><ele>639.0</ele><time>2026-03-29T09:47:22.777Z</time></trkpt><trkpt lat="42.8006283" lon="13.5400633"><ele>639.0</ele><time>2026-03-29T09:47:23.776Z</time></trkpt><trkpt lat="42.80072" lon="13.5401983"><ele>639.0</ele><time>2026-03-29T09:47:24.777Z</time></trkpt><trkpt lat="42.8008217" lon="13.54033"><ele>639.0</ele><time>2026-03-29T09:47:25.777Z</time></trkpt><trkpt lat="42.800935" lon="13.5404417"><ele>635.75</ele><time>2026-03-29T09:47:26.776Z</time></trkpt><trkpt lat="42.8010483" lon="13.5405167"><ele>632.5</ele><time>2026-03-29T09:47:27.776Z</time></trkpt><trkpt lat="42.80116" lon="13.5405833"><ele>629.25</ele><time>2026-03-29T09:47:28.777Z</time></trkpt><trkpt lat="42.80124" lon="13.5406817"><ele>626.0</ele><time>2026-03-29T09:47:29.777Z</time></trkpt><trkpt lat="42.8012983" lon="13.5408067"><ele>626.0</ele><time>2026-03-29T09:47:30.777Z</time></trkpt><trkpt lat="42.8013617" lon="13.54095"><ele>626.0</ele><time>2026-03-29T09:47:31.777Z</time></trkpt><trkpt lat="42.8014383" lon="13.5410883"><ele>626.0</ele><time>2026-03-29T09:47:32.776Z</time></trkpt><trkpt lat="42.8015083" lon="13.5412283"><ele>626.0</ele><time>2026-03-29T09:47:33.777Z</time></trkpt><trkpt lat="42.80157" lon="13.541355"><ele>629.8</ele><time>2026-03-29T09:47:34.776Z</time></trkpt><trkpt lat="42.8016433" lon="13.5414667"><ele>633.6</ele><time>2026-03-29T09:47:35.777Z</time></trkpt><trkpt lat="42.8017233" lon="13.54154"><ele>637.4</ele><time>2026-03-29T09:47:36.777Z</time></trkpt><trkpt lat="42.801815" lon="13.5415783"><ele>641.2</ele><time>2026-03-29T09:47:37.777Z</time></trkpt><trkpt lat="42.801905" lon="13.5416017"><ele>645.0</ele><time>2026-03-29T09:47:38.777Z</time></trkpt><trkpt lat="42.8019983" lon="13.5416133"><ele>645.0</ele><time>2026-03-29T09:47:39.777Z</time></trkpt><trkpt lat="42.8020833" lon="13.5416167"><ele>645.0</ele><time>2026-03-29T09:47:40.777Z</time></trkpt><trkpt lat="42.80217" lon="13.54159"><ele>645.0</ele><time>2026-03-29T09:47:41.777Z</time></trkpt><trkpt lat="42.8022417" lon="13.5415267"><ele>645.0</ele><time>2026-03-29T09:47:42.777Z</time></trkpt><trkpt lat="42.8022933" lon="13.5414433"><ele>645.0</ele><time>2026-03-29T09:47:43.777Z</time></trkpt><trkpt lat="42.8023317" lon="13.541335"><ele>645.0</ele><time>2026-03-29T09:47:44.777Z</time></trkpt><trkpt lat="42.802365" lon="13.5412317"><ele>641.0</ele><time>2026-03-29T09:47:45.776Z</time></trkpt><trkpt lat="42.80241" lon="13.541145"><ele>637.0</ele><time>2026-03-29T09:47:46.777Z</time></trkpt><trkpt lat="42.802455" lon="13.5410683"><ele>633.0</ele><time>2026-03-29T09:47:47.777Z</time></trkpt><trkpt lat="42.8025017" lon="13.541"><ele>629.0</ele><time>2026-03-29T09:47:48.777Z</time></trkpt><trkpt lat="42.8025517" lon="13.5409383"><ele>625.0</ele><time>2026-03-29T09:47:49.777Z</time></trkpt><trkpt lat="42.80268" lon="13.5408667"><ele>621.0</ele><time>2026-03-29T09:47:51.777Z</time></trkpt><trkpt lat="42.8027733" lon="13.5408783"><ele>618.5</ele><time>2026-03-29T09:47:52.777Z</time></trkpt><trkpt lat="42.802885" lon="13.5409167"><ele>616.0</ele><time>2026-03-29T09:47:53.777Z</time></trkpt><trkpt lat="42.8030017" lon="13.5409917"><ele>613.5</ele><time>2026-03-29T09:47:54.777Z</time></trkpt><trkpt lat="42.8031117" lon="13.54109"><ele>611.0</ele><time>2026-03-29T09:47:55.777Z</time></trkpt><trkpt lat="42.8032433" lon="13.5411733"><ele>610.0</ele><time>2026-03-29T09:47:56.777Z</time></trkpt><trkpt lat="42.8033683" lon="13.5412633"><ele>609.0</ele><time>2026-03-29T09:47:57.777Z</time></trkpt><trkpt lat="42.8034717" lon="13.541365"><ele>608.0</ele><time>2026-03-29T09:47:58.777Z</time></trkpt><trkpt lat="42.8035467" lon="13.5415133"><ele>607.0</ele><time>2026-03-29T09:47:59.776Z</time></trkpt><trkpt lat="42.8036167" lon="13.5416567"><ele>607.0</ele><time>2026-03-29T09:48:00.777Z</time></trkpt><trkpt lat="42.8037033" lon="13.54181"><ele>607.0</ele><time>2026-03-29T09:48:01.777Z</time></trkpt><trkpt lat="42.8038017" lon="13.5419467"><ele>607.0</ele><time>2026-03-29T09:48:02.777Z</time></trkpt><trkpt lat="42.8039117" lon="13.5420567"><ele>607.0</ele><time>2026-03-29T09:48:03.777Z</time></trkpt><trkpt lat="42.8040333" lon="13.542155"><ele>609.75</ele><time>2026-03-29T09:48:04.777Z</time></trkpt><trkpt lat="42.804155" lon="13.54223"><ele>612.5</ele><time>2026-03-29T09:48:05.777Z</time></trkpt><trkpt lat="42.8042917" lon="13.5422717"><ele>615.25</ele><time>2026-03-29T09:48:06.777Z</time></trkpt><trkpt lat="42.8044183" lon="13.542275"><ele>618.0</ele><time>2026-03-29T09:48:07.777Z</time></trkpt><trkpt lat="42.80455" lon="13.5422733"><ele>618.0</ele><time>2026-03-29T09:48:08.777Z</time></trkpt><trkpt lat="42.8046733" lon="13.5422817"><ele>618.0</ele><time>2026-03-29T09:48:09.777Z</time></trkpt><trkpt lat="42.80479" lon="13.5423083"><ele>618.0</ele><time>2026-03-29T09:48:10.777Z</time></trkpt><trkpt lat="42.80491" lon="13.5423633"><ele>618.0</ele><time>2026-03-29T09:48:11.776Z</time></trkpt><trkpt lat="42.80502" lon="13.5424583"><ele>618.0</ele><time>2026-03-29T09:48:12.777Z</time></trkpt><trkpt lat="42.8051267" lon="13.5425583"><ele>618.0</ele><time>2026-03-29T09:48:13.777Z</time></trkpt><trkpt lat="42.8052383" lon="13.542645"><ele>618.0</ele><time>2026-03-29T09:48:14.777Z</time></trkpt><trkpt lat="42.8053583" lon="13.5427167"><ele>618.0</ele><time>2026-03-29T09:48:15.777Z</time></trkpt><trkpt lat="42.80548" lon="13.542765"><ele>615.0</ele><time>2026-03-29T09:48:16.776Z</time></trkpt><trkpt lat="42.80561" lon="13.5427967"><ele>612.0</ele><time>2026-03-29T09:48:17.777Z</time></trkpt><trkpt lat="42.80574" lon="13.5428083"><ele>609.0</ele><time>2026-03-29T09:48:18.776Z</time></trkpt><trkpt lat="42.8058617" lon="13.5428233"><ele>606.0</ele><time>2026-03-29T09:48:19.776Z</time></trkpt><trkpt lat="42.8059767" lon="13.5428583"><ele>603.0</ele><time>2026-03-29T09:48:20.777Z</time></trkpt><trkpt lat="42.8060817" lon="13.5429283"><ele>600.0</ele><time>2026-03-29T09:48:21.777Z</time></trkpt><trkpt lat="42.8061917" lon="13.5430233"><ele>597.0</ele><time>2026-03-29T09:48:22.777Z</time></trkpt><trkpt lat="42.8062917" lon="13.54316"><ele>594.0</ele><time>2026-03-29T09:48:23.777Z</time></trkpt><trkpt lat="42.8063833" lon="13.5433017"><ele>594.0</ele><time>2026-03-29T09:48:24.777Z</time></trkpt><trkpt lat="42.8064583" lon="13.5434467"><ele>594.0</ele><time>2026-03-29T09:48:25.777Z</time></trkpt><trkpt lat="42.8065167" lon="13.5435967"><ele>594.0</ele><time>2026-03-29T09:48:26.777Z</time></trkpt><trkpt lat="42.8065583" lon="13.5437483"><ele>594.0</ele><time>2026-03-29T09:48:27.776Z</time></trkpt><trkpt lat="42.8065783" lon="13.5439067"><ele>596.0</ele><time>2026-03-29T09:48:28.777Z</time></trkpt><trkpt lat="42.806595" lon="13.544065"><ele>598.0</ele><time>2026-03-29T09:48:29.777Z</time></trkpt><trkpt lat="42.8066167" lon="13.5442217"><ele>600.0</ele><time>2026-03-29T09:48:30.777Z</time></trkpt><trkpt lat="42.806665" lon="13.5443567"><ele>602.0</ele><time>2026-03-29T09:48:31.777Z</time></trkpt><trkpt lat="42.80674" lon="13.544475"><ele>601.25</ele><time>2026-03-29T09:48:32.777Z</time></trkpt><trkpt lat="42.806835" lon="13.5445767"><ele>600.5</ele><time>2026-03-29T09:48:33.777Z</time></trkpt><trkpt lat="42.8069467" lon="13.5446333"><ele>599.75</ele><time>2026-03-29T09:48:34.777Z</time></trkpt><trkpt lat="42.8070817" lon="13.544645"><ele>599.0</ele><time>2026-03-29T09:48:35.776Z</time></trkpt><trkpt lat="42.8072017" lon="13.5446317"><ele>599.0</ele><time>2026-03-29T09:48:36.776Z</time></trkpt><trkpt lat="42.807325" lon="13.5446133"><ele>599.0</ele><time>2026-03-29T09:48:37.776Z</time></trkpt><trkpt lat="42.8074433" lon="13.5446267"><ele>599.0</ele><time>2026-03-29T09:48:38.777Z</time></trkpt><trkpt lat="42.80754" lon="13.5446783"><ele>599.0</ele><time>2026-03-29T09:48:39.777Z</time></trkpt><trkpt lat="42.8076317" lon="13.5447583"><ele>598.0</ele><time>2026-03-29T09:48:40.776Z</time></trkpt><trkpt lat="42.8077167" lon="13.5448517"><ele>597.0</ele><time>2026-03-29T09:48:41.777Z</time></trkpt><trkpt lat="42.8078067" lon="13.5449333"><ele>596.0</ele><time>2026-03-29T09:48:42.777Z</time></trkpt><trkpt lat="42.807905" lon="13.5449667"><ele>595.0</ele><time>2026-03-29T09:48:43.777Z</time></trkpt><trkpt lat="42.8080133" lon="13.5449567"><ele>594.0</ele><time>2026-03-29T09:48:44.777Z</time></trkpt><trkpt lat="42.8081183" lon="13.5449"><ele>594.0</ele><time>2026-03-29T09:48:45.777Z</time></trkpt><trkpt lat="42.8082067" lon="13.54481"><ele>594.0</ele><time>2026-03-29T09:48:46.777Z</time></trkpt><trkpt lat="42.808295" lon="13.5447067"><ele>594.0</ele><time>2026-03-29T09:48:47.777Z</time></trkpt><trkpt lat="42.8083817" lon="13.544585"><ele>594.0</ele><time>2026-03-29T09:48:48.777Z</time></trkpt><trkpt lat="42.8084633" lon="13.544455"><ele>589.6</ele><time>2026-03-29T09:48:49.776Z</time></trkpt><trkpt lat="42.80853" lon="13.5443433"><ele>585.2</ele><time>2026-03-29T09:48:50.777Z</time></trkpt><trkpt lat="42.8085983" lon="13.5442383"><ele>580.8000000000001</ele><time>2026-03-29T09:48:51.777Z</time></trkpt><trkpt lat="42.8086817" lon="13.54412"><ele>576.4</ele><time>2026-03-29T09:48:52.777Z</time></trkpt><trkpt lat="42.8087617" lon="13.544035"><ele>572.0</ele><time>2026-03-29T09:48:53.777Z</time></trkpt><trkpt lat="42.8088383" lon="13.54398"><ele>572.0</ele><time>2026-03-29T09:48:54.776Z</time></trkpt><trkpt lat="42.8089" lon="13.543955"><ele>572.0</ele><time>2026-03-29T09:48:55.777Z</time></trkpt><trkpt lat="42.8090083" lon="13.5440267"><ele>572.0</ele><time>2026-03-29T09:48:57.777Z</time></trkpt><trkpt lat="42.8090317" lon="13.5441483"><ele>572.0</ele><time>2026-03-29T09:48:58.777Z</time></trkpt><trkpt lat="42.8090633" lon="13.5442883"><ele>572.0</ele><time>2026-03-29T09:48:59.777Z</time></trkpt><trkpt lat="42.8091" lon="13.5444333"><ele>571.25</ele><time>2026-03-29T09:49:00.777Z</time></trkpt><trkpt lat="42.809155" lon="13.544555"><ele>570.5</ele><time>2026-03-29T09:49:01.776Z</time></trkpt><trkpt lat="42.809245" lon="13.5446517"><ele>569.75</ele><time>2026-03-29T09:49:02.776Z</time></trkpt><trkpt lat="42.8093567" lon="13.5447183"><ele>569.0</ele><time>2026-03-29T09:49:03.776Z</time></trkpt><trkpt lat="42.8094783" lon="13.5447567"><ele>569.0</ele><time>2026-03-29T09:49:04.777Z</time></trkpt><trkpt lat="42.8096117" lon="13.5448067"><ele>569.0</ele><time>2026-03-29T09:49:05.777Z</time></trkpt><trkpt lat="42.809745" lon="13.5448517"><ele>569.0</ele><time>2026-03-29T09:49:06.777Z</time></trkpt><trkpt lat="42.80986" lon="13.544895"><ele>569.0</ele><time>2026-03-29T09:49:07.777Z</time></trkpt><trkpt lat="42.8099733" lon="13.5449383"><ele>569.0</ele><time>2026-03-29T09:49:08.776Z</time></trkpt><trkpt lat="42.8100717" lon="13.544985"><ele>569.0</ele><time>2026-03-29T09:49:09.777Z</time></trkpt><trkpt lat="42.8101617" lon="13.5450367"><ele>569.0</ele><time>2026-03-29T09:49:10.776Z</time></trkpt><trkpt lat="42.8102467" lon="13.545075"><ele>569.0</ele><time>2026-03-29T09:49:11.777Z</time></trkpt><trkpt lat="42.8103283" lon="13.545095"><ele>569.0</ele><time>2026-03-29T09:49:12.776Z</time></trkpt><trkpt lat="42.8103967" lon="13.54508"><ele>569.0</ele><time>2026-03-29T09:49:13.777Z</time></trkpt><trkpt lat="42.8104467" lon="13.545025"><ele>566.0</ele><time>2026-03-29T09:49:14.777Z</time></trkpt><trkpt lat="42.8104717" lon="13.54493"><ele>563.0</ele><time>2026-03-29T09:49:15.777Z</time></trkpt><trkpt lat="42.8104467" lon="13.544835"><ele>560.0</ele><time>2026-03-29T09:49:16.777Z</time></trkpt><trkpt lat="42.81039" lon="13.5447567"><ele>557.0</ele><time>2026-03-29T09:49:17.777Z</time></trkpt><trkpt lat="42.8103117" lon="13.5446883"><ele>554.0</ele><time>2026-03-29T09:49:18.777Z</time></trkpt><trkpt lat="42.810215" lon="13.5446133"><ele>551.0</ele><time>2026-03-29T09:49:19.777Z</time></trkpt><trkpt lat="42.8101183" lon="13.5445333"><ele>551.0</ele><time>2026-03-29T09:49:20.777Z</time></trkpt><trkpt lat="42.8100183" lon="13.54445"><ele>551.0</ele><time>2026-03-29T09:49:21.777Z</time></trkpt><trkpt lat="42.809925" lon="13.5443667"><ele>551.0</ele><time>2026-03-29T09:49:22.777Z</time></trkpt><trkpt lat="42.8098333" lon="13.5442633"><ele>551.0</ele><time>2026-03-29T09:49:23.777Z</time></trkpt><trkpt lat="42.809745" lon="13.54416"><ele>551.0</ele><time>2026-03-29T09:49:24.777Z</time></trkpt><trkpt lat="42.8096517" lon="13.54404"><ele>551.0</ele><time>2026-03-29T09:49:25.776Z</time></trkpt><trkpt lat="42.8095517" lon="13.5439233"><ele>551.0</ele><time>2026-03-29T09:49:26.777Z</time></trkpt><trkpt lat="42.8094683" lon="13.5438017"><ele>551.0</ele><time>2026-03-29T09:49:27.777Z</time></trkpt><trkpt lat="42.8094167" lon="13.5436633"><ele>547.75</ele><time>2026-03-29T09:49:28.777Z</time></trkpt><trkpt lat="42.809405" lon="13.5435017"><ele>544.5</ele><time>2026-03-29T09:49:29.776Z</time></trkpt><trkpt lat="42.8094117" lon="13.5433317"><ele>541.25</ele><time>2026-03-29T09:49:30.777Z</time></trkpt><trkpt lat="42.809395" lon="13.5431683"><ele>538.0</ele><time>2026-03-29T09:49:31.777Z</time></trkpt><trkpt lat="42.8093433" lon="13.543005"><ele>537.75</ele><time>2026-03-29T09:49:32.777Z</time></trkpt><trkpt lat="42.80928" lon="13.5428433"><ele>537.5</ele><time>2026-03-29T09:49:33.777Z</time></trkpt><trkpt lat="42.8092167" lon="13.54269"><ele>537.25</ele><time>2026-03-29T09:49:34.777Z</time></trkpt><trkpt lat="42.80914" lon="13.542555"><ele>537.0</ele><time>2026-03-29T09:49:35.777Z</time></trkpt><trkpt lat="42.809055" lon="13.5424417"><ele>537.0</ele><time>2026-03-29T09:49:36.777Z</time></trkpt><trkpt lat="42.808975" lon="13.54232"><ele>537.0</ele><time>2026-03-29T09:49:37.777Z</time></trkpt><trkpt lat="42.8089233" lon="13.5421783"><ele>537.0</ele><time>2026-03-29T09:49:38.777Z</time></trkpt><trkpt lat="42.80889" lon="13.5420267"><ele>537.0</ele><time>2026-03-29T09:49:39.777Z</time></trkpt><trkpt lat="42.808875" lon="13.54187"><ele>534.25</ele><time>2026-03-29T09:49:40.776Z</time></trkpt><trkpt lat="42.8088833" lon="13.541725"><ele>531.5</ele><time>2026-03-29T09:49:41.777Z</time></trkpt><trkpt lat="42.8089017" lon="13.5415783"><ele>528.75</ele><time>2026-03-29T09:49:42.776Z</time></trkpt><trkpt lat="42.8089283" lon="13.54142"><ele>526.0</ele><time>2026-03-29T09:49:43.776Z</time></trkpt><trkpt lat="42.808985" lon="13.5412517"><ele>525.75</ele><time>2026-03-29T09:49:44.777Z</time></trkpt><trkpt lat="42.8090333" lon="13.5410683"><ele>525.5</ele><time>2026-03-29T09:49:45.777Z</time></trkpt><trkpt lat="42.8090483" lon="13.5408917"><ele>525.25</ele><time>2026-03-29T09:49:46.776Z</time></trkpt><trkpt lat="42.8090417" lon="13.540725"><ele>525.0</ele><time>2026-03-29T09:49:47.777Z</time></trkpt><trkpt lat="42.8090417" lon="13.5405717"><ele>525.0</ele><time>2026-03-29T09:49:48.776Z</time></trkpt><trkpt lat="42.8090567" lon="13.540445"><ele>525.0</ele><time>2026-03-29T09:49:49.777Z</time></trkpt><trkpt lat="42.8091017" lon="13.5403617"><ele>525.0</ele><time>2026-03-29T09:49:50.776Z</time></trkpt><trkpt lat="42.80916" lon="13.540325"><ele>525.0</ele><time>2026-03-29T09:49:51.777Z</time></trkpt><trkpt lat="42.809235" lon="13.5403417"><ele>525.0</ele><time>2026-03-29T09:49:52.777Z</time></trkpt><trkpt lat="42.8092983" lon="13.5404083"><ele>525.0</ele><time>2026-03-29T09:49:53.777Z</time></trkpt><trkpt lat="42.8093417" lon="13.540505"><ele>525.0</ele><time>2026-03-29T09:49:54.777Z</time></trkpt><trkpt lat="42.809355" lon="13.5406183"><ele>525.0</ele><time>2026-03-29T09:49:55.777Z</time></trkpt><trkpt lat="42.8093017" lon="13.5407983"><ele>525.0</ele><time>2026-03-29T09:49:56.777Z</time></trkpt><trkpt lat="42.8092433" lon="13.5409967"><ele>525.0</ele><time>2026-03-29T09:49:57.777Z</time></trkpt><trkpt lat="42.8091967" lon="13.5411817"><ele>525.2</ele><time>2026-03-29T09:49:58.777Z</time></trkpt><trkpt lat="42.8091583" lon="13.5413383"><ele>525.4</ele><time>2026-03-29T09:49:59.777Z</time></trkpt><trkpt lat="42.809135" lon="13.54149"><ele>525.6</ele><time>2026-03-29T09:50:00.777Z</time></trkpt><trkpt lat="42.809145" lon="13.5416267"><ele>525.8</ele><time>2026-03-29T09:50:01.777Z</time></trkpt><trkpt lat="42.809185" lon="13.5417617"><ele>526.0</ele><time>2026-03-29T09:50:02.776Z</time></trkpt><trkpt lat="42.809265" lon="13.5418767"><ele>524.5</ele><time>2026-03-29T09:50:03.776Z</time></trkpt><trkpt lat="42.8093683" lon="13.5419833"><ele>523.0</ele><time>2026-03-29T09:50:04.777Z</time></trkpt><trkpt lat="42.8094817" lon="13.5420817"><ele>521.5</ele><time>2026-03-29T09:50:05.776Z</time></trkpt><trkpt lat="42.8095867" lon="13.5421667"><ele>520.0</ele><time>2026-03-29T09:50:06.776Z</time></trkpt><trkpt lat="42.809695" lon="13.5422617"><ele>520.0</ele><time>2026-03-29T09:50:07.777Z</time></trkpt><trkpt lat="42.8098017" lon="13.5423467"><ele>520.0</ele><time>2026-03-29T09:50:08.777Z</time></trkpt><trkpt lat="42.80991" lon="13.5424267"><ele>520.0</ele><time>2026-03-29T09:50:09.777Z</time></trkpt><trkpt lat="42.8100267" lon="13.5424833"><ele>520.0</ele><time>2026-03-29T09:50:10.776Z</time></trkpt><trkpt lat="42.8101517" lon="13.54252"><ele>519.5</ele><time>2026-03-29T09:50:11.777Z</time></trkpt><trkpt lat="42.8102717" lon="13.5425333"><ele>519.0</ele><time>2026-03-29T09:50:12.777Z</time></trkpt><trkpt lat="42.8103883" lon="13.5425283"><ele>518.5</ele><time>2026-03-29T09:50:13.777Z</time></trkpt><trkpt lat="42.810505" lon="13.5424983"><ele>518.0</ele><time>2026-03-29T09:50:14.777Z</time></trkpt><trkpt lat="42.810605" lon="13.5424517"><ele>518.0</ele><time>2026-03-29T09:50:15.777Z</time></trkpt><trkpt lat="42.8107" lon="13.5423917"><ele>518.0</ele><time>2026-03-29T09:50:16.776Z</time></trkpt><trkpt lat="42.8107933" lon="13.5423167"><ele>518.0</ele><time>2026-03-29T09:50:17.776Z</time></trkpt><trkpt lat="42.8108833" lon="13.542245"><ele>518.0</ele><time>2026-03-29T09:50:18.776Z</time></trkpt><trkpt lat="42.810965" lon="13.5421767"><ele>518.0</ele><time>2026-03-29T09:50:19.776Z</time></trkpt><trkpt lat="42.8110467" lon="13.5421233"><ele>518.0</ele><time>2026-03-29T09:50:20.776Z</time></trkpt><trkpt lat="42.8111167" lon="13.5420817"><ele>518.0</ele><time>2026-03-29T09:50:21.776Z</time></trkpt><trkpt lat="42.8111833" lon="13.54204"><ele>518.0</ele><time>2026-03-29T09:50:22.776Z</time></trkpt><trkpt lat="42.811245" lon="13.54201"><ele>518.0</ele><time>2026-03-29T09:50:23.776Z</time></trkpt><trkpt lat="42.8113567" lon="13.5419633"><ele>518.0</ele><time>2026-03-29T09:50:25.776Z</time></trkpt><trkpt lat="42.81147" lon="13.5419683"><ele>518.0</ele><time>2026-03-29T09:50:27.776Z</time></trkpt><trkpt lat="42.811535" lon="13.5419817"><ele>515.3333333333333</ele><time>2026-03-29T09:50:28.776Z</time></trkpt><trkpt lat="42.8116033" lon="13.541995"><ele>512.6666666666666</ele><time>2026-03-29T09:50:29.776Z</time></trkpt><trkpt lat="42.8116817" lon="13.5420017"><ele>510.0</ele><time>2026-03-29T09:50:30.776Z</time></trkpt><trkpt lat="42.8117667" lon="13.5420033"><ele>507.33333333333337</ele><time>2026-03-29T09:50:31.775Z</time></trkpt><trkpt lat="42.811855" lon="13.542005"><ele>504.6666666666667</ele><time>2026-03-29T09:50:32.776Z</time></trkpt><trkpt lat="42.8119383" lon="13.5420167"><ele>502.0</ele><time>2026-03-29T09:50:33.775Z</time></trkpt><trkpt lat="42.81202" lon="13.542045"><ele>503.6</ele><time>2026-03-29T09:50:34.776Z</time></trkpt><trkpt lat="42.8120983" lon="13.5420933"><ele>505.20000000000005</ele><time>2026-03-29T09:50:35.776Z</time></trkpt><trkpt lat="42.8121917" lon="13.5421417"><ele>506.8</ele><time>2026-03-29T09:50:36.776Z</time></trkpt><trkpt lat="42.812295" lon="13.5422033"><ele>508.4</ele><time>2026-03-29T09:50:37.776Z</time></trkpt><trkpt lat="42.8124017" lon="13.54228"><ele>510.0</ele><time>2026-03-29T09:50:38.776Z</time></trkpt><trkpt lat="42.8124883" lon="13.5423517"><ele>510.0</ele><time>2026-03-29T09:50:39.775Z</time></trkpt><trkpt lat="42.81256" lon="13.5424117"><ele>510.0</ele><time>2026-03-29T09:50:40.776Z</time></trkpt><trkpt lat="42.8126183" lon="13.5424817"><ele>510.0</ele><time>2026-03-29T09:50:41.776Z</time></trkpt><trkpt lat="42.8126567" lon="13.5425533"><ele>510.0</ele><time>2026-03-29T09:50:42.776Z</time></trkpt><trkpt lat="42.8126733" lon="13.5426567"><ele>510.0</ele><time>2026-03-29T09:50:44.776Z</time></trkpt><trkpt lat="42.8126533" lon="13.54277"><ele>510.0</ele><time>2026-03-29T09:50:46.776Z</time></trkpt><trkpt lat="42.8126283" lon="13.5429133"><ele>510.0</ele><time>2026-03-29T09:50:48.775Z</time></trkpt><trkpt lat="42.8125883" lon="13.5430517"><ele>510.0</ele><time>2026-03-29T09:50:50.775Z</time></trkpt><trkpt lat="42.8125483" lon="13.5431733"><ele>510.0</ele><time>2026-03-29T09:50:52.776Z</time></trkpt><trkpt lat="42.8125233" lon="13.543295"><ele>510.0</ele><time>2026-03-29T09:50:54.776Z</time></trkpt><trkpt lat="42.8124983" lon="13.5434317"><ele>510.0</ele><time>2026-03-29T09:50:56.776Z</time></trkpt><trkpt lat="42.8124567" lon="13.5435583"><ele>510.0</ele><time>2026-03-29T09:50:58.776Z</time></trkpt><trkpt lat="42.8123933" lon="13.5436867"><ele>510.0</ele><time>2026-03-29T09:51:00.776Z</time></trkpt><trkpt lat="42.812345" lon="13.543795"><ele>510.0</ele><time>2026-03-29T09:51:02.776Z</time></trkpt><trkpt lat="42.8122583" lon="13.5439233"><ele>510.0</ele><time>2026-03-29T09:51:04.776Z</time></trkpt><trkpt lat="42.8122133" lon="13.543995"><ele>510.0</ele><time>2026-03-29T09:51:05.776Z</time></trkpt><trkpt lat="42.8121483" lon="13.5441017"><ele>505.4</ele><time>2026-03-29T09:51:07.776Z</time></trkpt><trkpt lat="42.81211" lon="13.5442317"><ele>500.8</ele><time>2026-03-29T09:51:09.776Z</time></trkpt><trkpt lat="42.8120817" lon="13.5443683"><ele>496.20000000000005</ele><time>2026-03-29T09:51:11.776Z</time></trkpt><trkpt lat="42.812035" lon="13.5445183"><ele>491.6</ele><time>2026-03-29T09:51:13.776Z</time></trkpt><trkpt lat="42.8119983" lon="13.54459"><ele>487.0</ele><time>2026-03-29T09:51:14.776Z</time></trkpt><trkpt lat="42.8119533" lon="13.5446517"><ele>491.20000000000005</ele><time>2026-03-29T09:51:15.776Z</time></trkpt><trkpt lat="42.8119133" lon="13.54472"><ele>495.40000000000003</ele><time>2026-03-29T09:51:16.776Z</time></trkpt><trkpt lat="42.811865" lon="13.5448383"><ele>499.59999999999997</ele><time>2026-03-29T09:51:18.776Z</time></trkpt><trkpt lat="42.811835" lon="13.5449533"><ele>503.79999999999995</ele><time>2026-03-29T09:51:20.775Z</time></trkpt><trkpt lat="42.811785" lon="13.545085"><ele>508.0</ele><time>2026-03-29T09:51:22.775Z</time></trkpt><trkpt lat="42.8117417" lon="13.5452283"><ele>508.00000000000006</ele><time>2026-03-29T09:51:24.776Z</time></trkpt><trkpt lat="42.8116917" lon="13.54535"><ele>508.0</ele><time>2026-03-29T09:51:26.776Z</time></trkpt><trkpt lat="42.8116333" lon="13.5454583"><ele>508.0</ele><time>2026-03-29T09:51:28.776Z</time></trkpt><trkpt lat="42.8116" lon="13.5455417"><ele>508.0</ele><time>2026-03-29T09:51:29.776Z</time></trkpt><trkpt lat="42.8115733" lon="13.5456417"><ele>508.00000000000006</ele><time>2026-03-29T09:51:30.776Z</time></trkpt><trkpt lat="42.8115467" lon="13.545745"><ele>508.0</ele><time>2026-03-29T09:51:31.776Z</time></trkpt><trkpt lat="42.81152" lon="13.5458333"><ele>504.33333333333337</ele><time>2026-03-29T09:51:32.775Z</time></trkpt><trkpt lat="42.8114817" lon="13.5459217"><ele>500.6666666666667</ele><time>2026-03-29T09:51:33.776Z</time></trkpt><trkpt lat="42.8114583" lon="13.5460217"><ele>497.0</ele><time>2026-03-29T09:51:34.775Z</time></trkpt><trkpt lat="42.8114367" lon="13.546125"><ele>493.33333333333337</ele><time>2026-03-29T09:51:35.776Z</time></trkpt><trkpt lat="42.811415" lon="13.5462217"><ele>489.6666666666667</ele><time>2026-03-29T09:51:36.776Z</time></trkpt><trkpt lat="42.8113933" lon="13.5463167"><ele>486.0</ele><time>2026-03-29T09:51:37.776Z</time></trkpt><trkpt lat="42.8113483" lon="13.5464583"><ele>481.6</ele><time>2026-03-29T09:51:39.776Z</time></trkpt><trkpt lat="42.8112867" lon="13.5465667"><ele>477.20000000000005</ele><time>2026-03-29T09:51:41.776Z</time></trkpt><trkpt lat="42.81126" lon="13.5466933"><ele>472.79999999999995</ele><time>2026-03-29T09:51:43.776Z</time></trkpt><trkpt lat="42.8112667" lon="13.5468533"><ele>468.4</ele><time>2026-03-29T09:51:45.776Z</time></trkpt><trkpt lat="42.811255" lon="13.5469933"><ele>464.0</ele><time>2026-03-29T09:51:47.775Z</time></trkpt><trkpt lat="42.8112367" lon="13.5470783"><ele>462.1428571428572</ele><time>2026-03-29T09:51:48.776Z</time></trkpt><trkpt lat="42.8112067" lon="13.5471667"><ele>460.28571428571433</ele><time>2026-03-29T09:51:49.776Z</time></trkpt><trkpt lat="42.8111833" lon="13.5472517"><ele>458.42857142857144</ele><time>2026-03-29T09:51:50.776Z</time></trkpt><trkpt lat="42.8111583" lon="13.547335"><ele>456.5714285714286</ele><time>2026-03-29T09:51:51.776Z</time></trkpt><trkpt lat="42.8111283" lon="13.5474233"><ele>454.7142857142858</ele><time>2026-03-29T09:51:53.776Z</time></trkpt><trkpt lat="42.8111" lon="13.5475217"><ele>452.85714285714283</ele><time>2026-03-29T09:51:56.775Z</time></trkpt><trkpt lat="42.8110617" lon="13.5476033"><ele>451.0</ele><time>2026-03-29T09:52:00.776Z</time></trkpt><trkpt lat="42.81102" lon="13.54768"><ele>452.00000000000006</ele><time>2026-03-29T09:52:02.776Z</time></trkpt><trkpt lat="42.810985" lon="13.5477783"><ele>453.0</ele><time>2026-03-29T09:52:04.776Z</time></trkpt><trkpt lat="42.8109783" lon="13.54789"><ele>454.0</ele><time>2026-03-29T09:52:07.776Z</time></trkpt><trkpt lat="42.8110233" lon="13.5479867"><ele>455.0</ele><time>2026-03-29T09:52:10.775Z</time></trkpt><trkpt lat="42.8110933" lon="13.54799"><ele>456.00000000000006</ele><time>2026-03-29T09:52:13.776Z</time></trkpt><trkpt lat="42.8111683" lon="13.5479883"><ele>457.0</ele><time>2026-03-29T09:52:16.776Z</time></trkpt><trkpt lat="42.8111967" lon="13.548075"><ele>457.00000000000006</ele><time>2026-03-29T09:52:19.776Z</time></trkpt><trkpt lat="42.81123" lon="13.54819"><ele>457.0</ele><time>2026-03-29T09:52:21.775Z</time></trkpt><trkpt lat="42.8112483" lon="13.548305"><ele>457.0</ele><time>2026-03-29T09:52:23.776Z</time></trkpt><trkpt lat="42.81126" lon="13.54839"><ele>457.0</ele><time>2026-03-29T09:52:25.776Z</time></trkpt><trkpt lat="42.8113" lon="13.548485"><ele>457.00000000000006</ele><time>2026-03-29T09:52:27.775Z</time></trkpt><trkpt lat="42.8113" lon="13.5485783"><ele>457.0</ele><time>2026-03-29T09:52:30.776Z</time></trkpt><trkpt lat="42.81131" lon="13.5486767"><ele>459.6666666666667</ele><time>2026-03-29T09:52:33.775Z</time></trkpt><trkpt lat="42.8112667" lon="13.548775"><ele>462.33333333333337</ele><time>2026-03-29T09:52:36.776Z</time></trkpt><trkpt lat="42.8112467" lon="13.548875"><ele>465.0</ele><time>2026-03-29T09:52:41.776Z</time></trkpt><trkpt lat="42.8113033" lon="13.5489417"><ele>467.66666666666663</ele><time>2026-03-29T09:52:43.775Z</time></trkpt><trkpt lat="42.8113367" lon="13.5490233"><ele>470.3333333333333</ele><time>2026-03-29T09:52:45.776Z</time></trkpt><trkpt lat="42.8113883" lon="13.5491067"><ele>473.0</ele><time>2026-03-29T09:52:48.775Z</time></trkpt><trkpt lat="42.8115683" lon="13.5491433"><ele>472.99999999999994</ele><time>2026-03-29T09:52:59.776Z</time></trkpt><trkpt lat="42.81161" lon="13.5490683"><ele>473.0</ele><time>2026-03-29T09:53:01.776Z</time></trkpt><trkpt lat="42.811615" lon="13.548975"><ele>473.0</ele><time>2026-03-29T09:53:03.776Z</time></trkpt><trkpt lat="42.8116483" lon="13.5488783"><ele>473.0</ele><time>2026-03-29T09:53:05.776Z</time></trkpt><trkpt lat="42.811715" lon="13.5488167"><ele>472.99999999999994</ele><time>2026-03-29T09:53:07.776Z</time></trkpt><trkpt lat="42.811815" lon="13.5488117"><ele>473.0</ele><time>2026-03-29T09:53:09.775Z</time></trkpt><trkpt lat="42.8118817" lon="13.5488283"><ele>475.3333333333333</ele><time>2026-03-29T09:53:10.776Z</time></trkpt><trkpt lat="42.8119583" lon="13.5488433"><ele>477.66666666666663</ele><time>2026-03-29T09:53:11.776Z</time></trkpt><trkpt lat="42.81203" lon="13.5488567"><ele>480.0</ele><time>2026-03-29T09:53:12.775Z</time></trkpt><trkpt lat="42.81212" lon="13.5487933"><ele>482.33333333333337</ele><time>2026-03-29T09:53:14.776Z</time></trkpt><trkpt lat="42.8121783" lon="13.5487317"><ele>484.6666666666667</ele><time>2026-03-29T09:53:16.776Z</time></trkpt><trkpt lat="42.8122467" lon="13.5487767"><ele>487.0</ele><time>2026-03-29T09:53:18.775Z</time></trkpt><trkpt lat="42.8123233" lon="13.5487333"><ele>487.00000000000006</ele><time>2026-03-29T09:53:21.776Z</time></trkpt><trkpt lat="42.8123733" lon="13.548655"><ele>487.0</ele><time>2026-03-29T09:53:23.776Z</time></trkpt><trkpt lat="42.8124667" lon="13.5486833"><ele>487.0</ele><time>2026-03-29T09:53:25.775Z</time></trkpt><trkpt lat="42.8125383" lon="13.5487267"><ele>487.0</ele><time>2026-03-29T09:53:26.776Z</time></trkpt><trkpt lat="42.812635" lon="13.548765"><ele>487.00000000000006</ele><time>2026-03-29T09:53:27.775Z</time></trkpt><trkpt lat="42.8127167" lon="13.5487933"><ele>487.0</ele><time>2026-03-29T09:53:28.776Z</time></trkpt><trkpt lat="42.81278" lon="13.5488117"><ele>487.83333333333337</ele><time>2026-03-29T09:53:29.776Z</time></trkpt><trkpt lat="42.81287" lon="13.54882"><ele>488.6666666666667</ele><time>2026-03-29T09:53:31.775Z</time></trkpt><trkpt lat="42.8129483" lon="13.5488217"><ele>489.5</ele><time>2026-03-29T09:53:33.775Z</time></trkpt><trkpt lat="42.8130317" lon="13.548795"><ele>490.33333333333337</ele><time>2026-03-29T09:53:35.776Z</time></trkpt><trkpt lat="42.8131417" lon="13.5487517"><ele>491.1666666666667</ele><time>2026-03-29T09:53:37.776Z</time></trkpt><trkpt lat="42.8132017" lon="13.5487233"><ele>492.0</ele><time>2026-03-29T09:53:38.776Z</time></trkpt><trkpt lat="42.8133183" lon="13.5486583"><ele>486.8</ele><time>2026-03-29T09:53:40.776Z</time></trkpt><trkpt lat="42.8133783" lon="13.5486317"><ele>481.6</ele><time>2026-03-29T09:53:41.776Z</time></trkpt><trkpt lat="42.8134917" lon="13.54857"><ele>476.40000000000003</ele><time>2026-03-29T09:53:43.775Z</time></trkpt><trkpt lat="42.81359" lon="13.5485283"><ele>471.20000000000005</ele><time>2026-03-29T09:53:45.776Z</time></trkpt><trkpt lat="42.8136983" lon="13.548575"><ele>466.0</ele><time>2026-03-29T09:53:47.775Z</time></trkpt><trkpt lat="42.8137967" lon="13.5486333"><ele>470.6</ele><time>2026-03-29T09:53:49.776Z</time></trkpt><trkpt lat="42.8138417" lon="13.5487483"><ele>475.20000000000005</ele><time>2026-03-29T09:53:51.775Z</time></trkpt><trkpt lat="42.813865" lon="13.5489133"><ele>479.79999999999995</ele><time>2026-03-29T09:53:53.776Z</time></trkpt><trkpt lat="42.8138817" lon="13.5490033"><ele>484.4</ele><time>2026-03-29T09:53:54.776Z</time></trkpt><trkpt lat="42.81391" lon="13.5490883"><ele>489.0</ele><time>2026-03-29T09:53:55.775Z</time></trkpt><trkpt lat="42.81395" lon="13.549235"><ele>489.0</ele><time>2026-03-29T09:53:57.776Z</time></trkpt><trkpt lat="42.813985" lon="13.549375"><ele>489.0</ele><time>2026-03-29T09:53:59.776Z</time></trkpt><trkpt lat="42.8140317" lon="13.549485"><ele>489.0</ele><time>2026-03-29T09:54:01.776Z</time></trkpt><trkpt lat="42.8141267" lon="13.54943"><ele>489.0</ele><time>2026-03-29T09:54:04.776Z</time></trkpt><trkpt lat="42.8142267" lon="13.54935"><ele>489.0</ele><time>2026-03-29T09:54:06.776Z</time></trkpt><trkpt lat="42.8143567" lon="13.5493183"><ele>489.6</ele><time>2026-03-29T09:54:08.776Z</time></trkpt><trkpt lat="42.8144333" lon="13.5493167"><ele>490.2</ele><time>2026-03-29T09:54:09.776Z</time></trkpt><trkpt lat="42.814515" lon="13.5493483"><ele>490.80000000000007</ele><time>2026-03-29T09:54:10.776Z</time></trkpt><trkpt lat="42.8145667" lon="13.5493983"><ele>491.40000000000003</ele><time>2026-03-29T09:54:11.776Z</time></trkpt><trkpt lat="42.8146783" lon="13.5495033"><ele>492.0</ele><time>2026-03-29T09:54:13.776Z</time></trkpt><trkpt lat="42.8147783" lon="13.5495433"><ele>492.0</ele><time>2026-03-29T09:54:14.776Z</time></trkpt><trkpt lat="42.8148833" lon="13.5495533"><ele>492.00000000000006</ele><time>2026-03-29T09:54:15.776Z</time></trkpt><trkpt lat="42.814985" lon="13.5495483"><ele>492.00000000000006</ele><time>2026-03-29T09:54:16.775Z</time></trkpt><trkpt lat="42.815075" lon="13.5495167"><ele>492.0</ele><time>2026-03-29T09:54:17.775Z</time></trkpt><trkpt lat="42.8151583" lon="13.54946"><ele>492.0</ele><time>2026-03-29T09:54:18.774Z</time></trkpt><trkpt lat="42.8152367" lon="13.5493817"><ele>493.1666666666667</ele><time>2026-03-29T09:54:19.775Z</time></trkpt><trkpt lat="42.8152783" lon="13.5492867"><ele>494.33333333333337</ele><time>2026-03-29T09:54:20.774Z</time></trkpt><trkpt lat="42.8153083" lon="13.5491833"><ele>495.5</ele><time>2026-03-29T09:54:21.775Z</time></trkpt><trkpt lat="42.815335" lon="13.54908"><ele>496.6666666666667</ele><time>2026-03-29T09:54:22.775Z</time></trkpt><trkpt lat="42.815365" lon="13.54899"><ele>497.83333333333337</ele><time>2026-03-29T09:54:23.775Z</time></trkpt><trkpt lat="42.8154033" lon="13.548915"><ele>499.0</ele><time>2026-03-29T09:54:24.775Z</time></trkpt><trkpt lat="42.8155117" lon="13.5488267"><ele>499.0</ele><time>2026-03-29T09:54:26.775Z</time></trkpt><trkpt lat="42.81564" lon="13.548795"><ele>499.0</ele><time>2026-03-29T09:54:28.775Z</time></trkpt><trkpt lat="42.8157167" lon="13.5487867"><ele>499.0</ele><time>2026-03-29T09:54:29.775Z</time></trkpt><trkpt lat="42.815805" lon="13.548775"><ele>499.0</ele><time>2026-03-29T09:54:30.774Z</time></trkpt><trkpt lat="42.8158967" lon="13.5487533"><ele>499.0</ele><time>2026-03-29T09:54:31.774Z</time></trkpt><trkpt lat="42.81598" lon="13.5487383"><ele>494.2</ele><time>2026-03-29T09:54:32.775Z</time></trkpt><trkpt lat="42.8160683" lon="13.5487417"><ele>489.4</ele><time>2026-03-29T09:54:33.775Z</time></trkpt><trkpt lat="42.816145" lon="13.548765"><ele>484.6</ele><time>2026-03-29T09:54:34.774Z</time></trkpt><trkpt lat="42.8162283" lon="13.5488083"><ele>479.8</ele><time>2026-03-29T09:54:35.775Z</time></trkpt><trkpt lat="42.8163183" lon="13.548905"><ele>475.0</ele><time>2026-03-29T09:54:36.775Z</time></trkpt><trkpt lat="42.81641" lon="13.5490283"><ele>475.0</ele><time>2026-03-29T09:54:37.775Z</time></trkpt><trkpt lat="42.8165183" lon="13.5491383"><ele>475.0</ele><time>2026-03-29T09:54:38.774Z</time></trkpt><trkpt lat="42.816635" lon="13.549235"><ele>475.0</ele><time>2026-03-29T09:54:39.775Z</time></trkpt><trkpt lat="42.8167267" lon="13.5493217"><ele>475.0</ele><time>2026-03-29T09:54:40.775Z</time></trkpt><trkpt lat="42.8167967" lon="13.5494017"><ele>471.28571428571433</ele><time>2026-03-29T09:54:41.774Z</time></trkpt><trkpt lat="42.816845" lon="13.549475"><ele>467.5714285714286</ele><time>2026-03-29T09:54:42.775Z</time></trkpt><trkpt lat="42.8168833" lon="13.5495683"><ele>463.8571428571429</ele><time>2026-03-29T09:54:43.775Z</time></trkpt><trkpt lat="42.8169167" lon="13.5496583"><ele>460.1428571428571</ele><time>2026-03-29T09:54:44.775Z</time></trkpt><trkpt lat="42.81696" lon="13.5497383"><ele>456.4285714285714</ele><time>2026-03-29T09:54:45.775Z</time></trkpt><trkpt lat="42.8170083" lon="13.5498133"><ele>452.71428571428567</ele><time>2026-03-29T09:54:46.774Z</time></trkpt><trkpt lat="42.817045" lon="13.5498917"><ele>449.0</ele><time>2026-03-29T09:54:47.775Z</time></trkpt><trkpt lat="42.8170817" lon="13.5499933"><ele>448.99999999999994</ele><time>2026-03-29T09:54:48.775Z</time></trkpt><trkpt lat="42.8171083" lon="13.5501067"><ele>449.0</ele><time>2026-03-29T09:54:49.775Z</time></trkpt><trkpt lat="42.8171083" lon="13.5502233"><ele>449.0</ele><time>2026-03-29T09:54:50.775Z</time></trkpt><trkpt lat="42.8170867" lon="13.55034"><ele>449.0</ele><time>2026-03-29T09:54:51.775Z</time></trkpt><trkpt lat="42.8170683" lon="13.55046"><ele>448.99999999999994</ele><time>2026-03-29T09:54:52.775Z</time></trkpt><trkpt lat="42.8170783" lon="13.5505767"><ele>449.0</ele><time>2026-03-29T09:54:53.774Z</time></trkpt><trkpt lat="42.8171067" lon="13.5506667"><ele>453.4</ele><time>2026-03-29T09:54:54.774Z</time></trkpt><trkpt lat="42.8172133" lon="13.5507233"><ele>457.79999999999995</ele><time>2026-03-29T09:54:56.774Z</time></trkpt><trkpt lat="42.8172917" lon="13.5507033"><ele>462.20000000000005</ele><time>2026-03-29T09:54:57.775Z</time></trkpt><trkpt lat="42.8174" lon="13.5506717"><ele>466.6</ele><time>2026-03-29T09:54:58.775Z</time></trkpt><trkpt lat="42.8175183" lon="13.5506667"><ele>471.0</ele><time>2026-03-29T09:54:59.775Z</time></trkpt><trkpt lat="42.8176417" lon="13.55067"><ele>464.75</ele><time>2026-03-29T09:55:00.775Z</time></trkpt><trkpt lat="42.8177683" lon="13.5507083"><ele>458.5</ele><time>2026-03-29T09:55:01.775Z</time></trkpt><trkpt lat="42.817875" lon="13.5507667"><ele>452.25</ele><time>2026-03-29T09:55:02.775Z</time></trkpt><trkpt lat="42.817975" lon="13.55082"><ele>446.0</ele><time>2026-03-29T09:55:03.775Z</time></trkpt><trkpt lat="42.8180633" lon="13.5508817"><ele>446.0</ele><time>2026-03-29T09:55:04.774Z</time></trkpt><trkpt lat="42.8181467" lon="13.550945"><ele>446.0</ele><time>2026-03-29T09:55:05.774Z</time></trkpt><trkpt lat="42.8182267" lon="13.5510017"><ele>446.0</ele><time>2026-03-29T09:55:06.775Z</time></trkpt><trkpt lat="42.8183133" lon="13.5510367"><ele>446.0</ele><time>2026-03-29T09:55:07.774Z</time></trkpt><trkpt lat="42.8184033" lon="13.5510617"><ele>446.0</ele><time>2026-03-29T09:55:08.774Z</time></trkpt><trkpt lat="42.818505" lon="13.551085"><ele>444.0</ele><time>2026-03-29T09:55:09.775Z</time></trkpt><trkpt lat="42.8186183" lon="13.5510983"><ele>442.0</ele><time>2026-03-29T09:55:10.775Z</time></trkpt><trkpt lat="42.8187333" lon="13.5511183"><ele>440.0</ele><time>2026-03-29T09:55:11.775Z</time></trkpt><trkpt lat="42.8188367" lon="13.5511383"><ele>438.0</ele><time>2026-03-29T09:55:12.774Z</time></trkpt><trkpt lat="42.81892" lon="13.551165"><ele>436.0</ele><time>2026-03-29T09:55:13.775Z</time></trkpt><trkpt lat="42.819005" lon="13.55118"><ele>436.0</ele><time>2026-03-29T09:55:14.775Z</time></trkpt><trkpt lat="42.81909" lon="13.5511933"><ele>436.0</ele><time>2026-03-29T09:55:15.775Z</time></trkpt><trkpt lat="42.8191783" lon="13.55119"><ele>436.0</ele><time>2026-03-29T09:55:16.775Z</time></trkpt><trkpt lat="42.8192667" lon="13.5511783"><ele>436.0</ele><time>2026-03-29T09:55:17.775Z</time></trkpt><trkpt lat="42.819365" lon="13.5511767"><ele>436.0</ele><time>2026-03-29T09:55:18.775Z</time></trkpt><trkpt lat="42.8194617" lon="13.551185"><ele>439.0</ele><time>2026-03-29T09:55:19.775Z</time></trkpt><trkpt lat="42.8195767" lon="13.5512167"><ele>442.0</ele><time>2026-03-29T09:55:20.775Z</time></trkpt><trkpt lat="42.8196967" lon="13.5512517"><ele>445.0</ele><time>2026-03-29T09:55:21.775Z</time></trkpt><trkpt lat="42.819805" lon="13.5512617"><ele>448.0</ele><time>2026-03-29T09:55:22.775Z</time></trkpt><trkpt lat="42.8198933" lon="13.5512717"><ele>451.0</ele><time>2026-03-29T09:55:23.775Z</time></trkpt><trkpt lat="42.8199783" lon="13.5512933"><ele>451.00000000000006</ele><time>2026-03-29T09:55:24.775Z</time></trkpt><trkpt lat="42.82006" lon="13.5513383"><ele>451.0</ele><time>2026-03-29T09:55:25.775Z</time></trkpt><trkpt lat="42.82013" lon="13.5514"><ele>451.0</ele><time>2026-03-29T09:55:26.775Z</time></trkpt><trkpt lat="42.8201967" lon="13.5514633"><ele>451.0</ele><time>2026-03-29T09:55:27.774Z</time></trkpt><trkpt lat="42.8202583" lon="13.5515283"><ele>451.00000000000006</ele><time>2026-03-29T09:55:28.775Z</time></trkpt><trkpt lat="42.820325" lon="13.55159"><ele>451.0</ele><time>2026-03-29T09:55:29.775Z</time></trkpt><trkpt lat="42.8204067" lon="13.5516367"><ele>447.33333333333337</ele><time>2026-03-29T09:55:30.775Z</time></trkpt><trkpt lat="42.8204817" lon="13.5516667"><ele>443.6666666666667</ele><time>2026-03-29T09:55:31.775Z</time></trkpt><trkpt lat="42.8205417" lon="13.5517017"><ele>440.0</ele><time>2026-03-29T09:55:32.775Z</time></trkpt><trkpt lat="42.820605" lon="13.5517633"><ele>436.33333333333337</ele><time>2026-03-29T09:55:34.775Z</time></trkpt><trkpt lat="42.8206333" lon="13.5518817"><ele>432.6666666666667</ele><time>2026-03-29T09:55:37.775Z</time></trkpt><trkpt lat="42.8206017" lon="13.55198"><ele>429.0</ele><time>2026-03-29T09:55:40.775Z</time></trkpt><trkpt lat="42.8205183" lon="13.552025"><ele>428.2</ele><time>2026-03-29T09:56:35.775Z</time></trkpt><trkpt lat="42.820435" lon="13.552055"><ele>427.4</ele><time>2026-03-29T09:56:37.775Z</time></trkpt><trkpt lat="42.8203667" lon="13.5521083"><ele>426.6</ele><time>2026-03-29T09:56:42.775Z</time></trkpt><trkpt lat="42.8203033" lon="13.55214"><ele>425.8</ele><time>2026-03-29T09:56:44.775Z</time></trkpt><trkpt lat="42.82016" lon="13.552215"><ele>425.0</ele><time>2026-03-29T09:57:20.775Z</time></trkpt><trkpt lat="42.8200833" lon="13.55224"><ele>429.99999999999994</ele><time>2026-03-29T09:57:23.774Z</time></trkpt><trkpt lat="42.8200233" lon="13.5522783"><ele>435.0</ele><time>2026-03-29T09:57:25.775Z</time></trkpt><trkpt lat="42.819975" lon="13.5523367"><ele>440.0</ele><time>2026-03-29T09:57:27.775Z</time></trkpt><trkpt lat="42.8198983" lon="13.5523917"><ele>445.0</ele><time>2026-03-29T09:57:29.775Z</time></trkpt><trkpt lat="42.819835" lon="13.55245"><ele>449.99999999999994</ele><time>2026-03-29T09:57:31.775Z</time></trkpt><trkpt lat="42.819755" lon="13.5525133"><ele>455.0</ele><time>2026-03-29T09:57:33.775Z</time></trkpt><trkpt lat="42.8196667" lon="13.5525983"><ele>455.0</ele><time>2026-03-29T09:57:35.774Z</time></trkpt><trkpt lat="42.8195767" lon="13.5526483"><ele>455.0</ele><time>2026-03-29T09:57:37.775Z</time></trkpt><trkpt lat="42.8194783" lon="13.5527067"><ele>455.0</ele><time>2026-03-29T09:57:39.774Z</time></trkpt><trkpt lat="42.8194417" lon="13.5528067"><ele>455.0</ele><time>2026-03-29T09:57:41.775Z</time></trkpt><trkpt lat="42.819415" lon="13.5529383"><ele>455.0</ele><time>2026-03-29T09:57:43.775Z</time></trkpt><trkpt lat="42.8193883" lon="13.5530567"><ele>454.8333333333333</ele><time>2026-03-29T09:57:45.775Z</time></trkpt><trkpt lat="42.8193633" lon="13.5531683"><ele>454.66666666666663</ele><time>2026-03-29T09:57:47.775Z</time></trkpt><trkpt lat="42.81933" lon="13.5532983"><ele>454.5</ele><time>2026-03-29T09:57:49.775Z</time></trkpt><trkpt lat="42.8192983" lon="13.553375"><ele>454.33333333333337</ele><time>2026-03-29T09:57:51.775Z</time></trkpt><trkpt lat="42.819245" lon="13.553455"><ele>454.1666666666667</ele><time>2026-03-29T09:57:54.774Z</time></trkpt><trkpt lat="42.819185" lon="13.5535333"><ele>454.0</ele><time>2026-03-29T09:57:56.774Z</time></trkpt><trkpt lat="42.8191333" lon="13.5536167"><ele>459.4</ele><time>2026-03-29T09:57:58.774Z</time></trkpt><trkpt lat="42.8190867" lon="13.5537217"><ele>464.79999999999995</ele><time>2026-03-29T09:58:00.774Z</time></trkpt><trkpt lat="42.8190333" lon="13.5538167"><ele>470.20000000000005</ele><time>2026-03-29T09:58:02.773Z</time></trkpt><trkpt lat="42.8189567" lon="13.5538967"><ele>475.6</ele><time>2026-03-29T09:58:04.774Z</time></trkpt><trkpt lat="42.8188733" lon="13.5539517"><ele>481.0</ele><time>2026-03-29T09:58:06.774Z</time></trkpt><trkpt lat="42.8187883" lon="13.55402"><ele>481.0</ele><time>2026-03-29T09:58:08.774Z</time></trkpt><trkpt lat="42.8187083" lon="13.554105"><ele>481.0</ele><time>2026-03-29T09:58:10.774Z</time></trkpt><trkpt lat="42.81863" lon="13.554175"><ele>481.0</ele><time>2026-03-29T09:58:12.774Z</time></trkpt><trkpt lat="42.8185383" lon="13.5542183"><ele>481.0</ele><time>2026-03-29T09:58:14.774Z</time></trkpt><trkpt lat="42.8184467" lon="13.5542533"><ele>481.0</ele><time>2026-03-29T09:58:16.774Z</time></trkpt><trkpt lat="42.818355" lon="13.554295"><ele>486.83333333333337</ele><time>2026-03-29T09:58:18.774Z</time></trkpt><trkpt lat="42.8182617" lon="13.5543417"><ele>492.6666666666667</ele><time>2026-03-29T09:58:20.773Z</time></trkpt><trkpt lat="42.8181967" lon="13.5543783"><ele>498.5</ele><time>2026-03-29T09:58:22.774Z</time></trkpt><trkpt lat="42.8181183" lon="13.5544183"><ele>504.33333333333337</ele><time>2026-03-29T09:58:25.774Z</time></trkpt><trkpt lat="42.8180466" lon="13.5544201"><ele>510.1666666666667</ele><time>2026-03-29T09:58:28.774Z</time></trkpt><trkpt lat="42.8179708" lon="13.554448"><ele>516.0</ele><time>2026-03-29T09:58:31.774Z</time></trkpt><trkpt lat="42.8179119" lon="13.5544848"><ele>516.0</ele><time>2026-03-29T09:58:33.774Z</time></trkpt><trkpt lat="42.8178495" lon="13.5545006"><ele>516.0</ele><time>2026-03-29T09:58:36.774Z</time></trkpt><trkpt lat="42.8178863" lon="13.5545998"><ele>516.0</ele><time>2026-03-29T09:58:39.773Z</time></trkpt><trkpt lat="42.8179" lon="13.5547067"><ele>516.0</ele><time>2026-03-29T09:58:42.774Z</time></trkpt><trkpt lat="42.8178483" lon="13.55482"><ele>516.0</ele><time>2026-03-29T09:58:45.774Z</time></trkpt><trkpt lat="42.8178" lon="13.554905"><ele>516.0</ele><time>2026-03-29T09:58:47.774Z</time></trkpt><trkpt lat="42.817755" lon="13.554995"><ele>515.2</ele><time>2026-03-29T09:58:49.774Z</time></trkpt><trkpt lat="42.81768" lon="13.5550767"><ele>514.4000000000001</ele><time>2026-03-29T09:58:51.774Z</time></trkpt><trkpt lat="42.817595" lon="13.5551033"><ele>513.6</ele><time>2026-03-29T09:58:53.774Z</time></trkpt><trkpt lat="42.8175217" lon="13.5551167"><ele>512.8000000000001</ele><time>2026-03-29T09:58:55.774Z</time></trkpt><trkpt lat="42.8174467" lon="13.5551183"><ele>512.0</ele><time>2026-03-29T09:58:58.774Z</time></trkpt><trkpt lat="42.81733" lon="13.5551367"><ele>517.6666666666666</ele><time>2026-03-29T10:01:04.774Z</time></trkpt><trkpt lat="42.8172783" lon="13.5550817"><ele>523.3333333333333</ele><time>2026-03-29T10:07:36.771Z</time></trkpt><trkpt lat="42.8172083" lon="13.5551067"><ele>529.0</ele><time>2026-03-29T10:07:46.771Z</time></trkpt><trkpt lat="42.8171017" lon="13.5551183"><ele>534.6666666666666</ele><time>2026-03-29T10:08:21.771Z</time></trkpt><trkpt lat="42.8170083" lon="13.5551517"><ele>540.3333333333334</ele><time>2026-03-29T10:08:24.771Z</time></trkpt><trkpt lat="42.8169183" lon="13.555215"><ele>546.0</ele><time>2026-03-29T10:08:26.771Z</time></trkpt><trkpt lat="42.8168233" lon="13.5552617"><ele>552.25</ele><time>2026-03-29T10:08:28.771Z</time></trkpt><trkpt lat="42.8167283" lon="13.5553467"><ele>558.5</ele><time>2026-03-29T10:08:30.771Z</time></trkpt><trkpt lat="42.816645" lon="13.5554667"><ele>564.75</ele><time>2026-03-29T10:08:32.771Z</time></trkpt><trkpt lat="42.816575" lon="13.5555867"><ele>571.0</ele><time>2026-03-29T10:08:34.771Z</time></trkpt><trkpt lat="42.8165133" lon="13.5557017"><ele>571.0</ele><time>2026-03-29T10:08:36.771Z</time></trkpt><trkpt lat="42.8164567" lon="13.55582"><ele>571.0</ele><time>2026-03-29T10:08:38.77Z</time></trkpt><trkpt lat="42.8164383" lon="13.555935"><ele>571.0</ele><time>2026-03-29T10:08:40.77Z</time></trkpt><trkpt lat="42.81644" lon="13.5560333"><ele>571.0</ele><time>2026-03-29T10:08:42.771Z</time></trkpt><trkpt lat="42.81638" lon="13.556105"><ele>571.0</ele><time>2026-03-29T10:08:45.771Z</time></trkpt><trkpt lat="42.816315" lon="13.5561217"><ele>571.0</ele><time>2026-03-29T10:08:47.771Z</time></trkpt><trkpt lat="42.8163517" lon="13.5562317"><ele>571.0</ele><time>2026-03-29T10:08:51.771Z</time></trkpt><trkpt lat="42.8163133" lon="13.5563367"><ele>571.0</ele><time>2026-03-29T10:08:55.771Z</time></trkpt><trkpt lat="42.816245" lon="13.5563933"><ele>571.0</ele><time>2026-03-29T10:08:57.771Z</time></trkpt><trkpt lat="42.8161817" lon="13.5564367"><ele>571.0</ele><time>2026-03-29T10:08:59.771Z</time></trkpt><trkpt lat="42.81611" lon="13.55642"><ele>571.0</ele><time>2026-03-29T10:09:01.77Z</time></trkpt><trkpt lat="42.8160433" lon="13.5563683"><ele>571.0</ele><time>2026-03-29T10:09:05.771Z</time></trkpt><trkpt lat="42.8159983" lon="13.55645"><ele>575.5</ele><time>2026-03-29T10:09:08.771Z</time></trkpt><trkpt lat="42.8159267" lon="13.5565417"><ele>580.0</ele><time>2026-03-29T10:09:11.771Z</time></trkpt><trkpt lat="42.8158867" lon="13.5566567"><ele>584.5</ele><time>2026-03-29T10:09:13.771Z</time></trkpt><trkpt lat="42.8158233" lon="13.5566617"><ele>589.0</ele><time>2026-03-29T10:09:16.771Z</time></trkpt><trkpt lat="42.8157617" lon="13.5565817"><ele>593.5</ele><time>2026-03-29T10:09:18.771Z</time></trkpt><trkpt lat="42.8157233" lon="13.55651"><ele>598.0</ele><time>2026-03-29T10:09:21.77Z</time></trkpt><trkpt lat="42.8157367" lon="13.5564033"><ele>598.0</ele><time>2026-03-29T10:09:25.771Z</time></trkpt><trkpt lat="42.815675" lon="13.5562817"><ele>598.0</ele><time>2026-03-29T10:14:59.769Z</time></trkpt><trkpt lat="42.8156133" lon="13.5562233"><ele>598.0</ele><time>2026-03-29T10:15:01.768Z</time></trkpt><trkpt lat="42.8154933" lon="13.5561633"><ele>598.0</ele><time>2026-03-29T10:15:03.769Z</time></trkpt><trkpt lat="42.81541" lon="13.5560967"><ele>598.0</ele><time>2026-03-29T10:15:05.769Z</time></trkpt><trkpt lat="42.81543" lon="13.556"><ele>599.8</ele><time>2026-03-29T10:15:08.769Z</time></trkpt><trkpt lat="42.8155083" lon="13.555925"><ele>601.5999999999999</ele><time>2026-03-29T10:15:10.768Z</time></trkpt><trkpt lat="42.8156183" lon="13.5558533"><ele>603.4000000000001</ele><time>2026-03-29T10:15:12.769Z</time></trkpt><trkpt lat="42.8156867" lon="13.555785"><ele>605.2</ele><time>2026-03-29T10:15:13.768Z</time></trkpt><trkpt lat="42.81575" lon="13.5556933"><ele>607.0</ele><time>2026-03-29T10:15:14.769Z</time></trkpt><trkpt lat="42.8158033" lon="13.5556083"><ele>607.0</ele><time>2026-03-29T10:15:15.769Z</time></trkpt><trkpt lat="42.8158517" lon="13.555525"><ele>607.0</ele><time>2026-03-29T10:15:16.769Z</time></trkpt><trkpt lat="42.8159133" lon="13.5554533"><ele>607.0</ele><time>2026-03-29T10:15:17.769Z</time></trkpt><trkpt lat="42.8159733" lon="13.5554017"><ele>607.0</ele><time>2026-03-29T10:15:18.769Z</time></trkpt><trkpt lat="42.81604" lon="13.5553667"><ele>607.0</ele><time>2026-03-29T10:15:19.769Z</time></trkpt><trkpt lat="42.8161117" lon="13.5553217"><ele>607.0</ele><time>2026-03-29T10:15:20.769Z</time></trkpt><trkpt lat="42.8161833" lon="13.5552617"><ele>603.3333333333334</ele><time>2026-03-29T10:15:21.769Z</time></trkpt><trkpt lat="42.81625" lon="13.5551917"><ele>599.6666666666667</ele><time>2026-03-29T10:15:22.769Z</time></trkpt><trkpt lat="42.8163083" lon="13.5551083"><ele>596.0</ele><time>2026-03-29T10:15:23.769Z</time></trkpt><trkpt lat="42.8163667" lon="13.5550117"><ele>592.3333333333334</ele><time>2026-03-29T10:15:24.769Z</time></trkpt><trkpt lat="42.816415" lon="13.5549133"><ele>588.6666666666666</ele><time>2026-03-29T10:15:25.769Z</time></trkpt><trkpt lat="42.81646" lon="13.5548017"><ele>585.0</ele><time>2026-03-29T10:15:26.769Z</time></trkpt><trkpt lat="42.8165083" lon="13.554695"><ele>585.0</ele><time>2026-03-29T10:15:27.769Z</time></trkpt><trkpt lat="42.816545" lon="13.5545867"><ele>585.0</ele><time>2026-03-29T10:15:28.769Z</time></trkpt><trkpt lat="42.816585" lon="13.5544917"><ele>585.0</ele><time>2026-03-29T10:15:29.769Z</time></trkpt><trkpt lat="42.8166033" lon="13.5544033"><ele>585.0</ele><time>2026-03-29T10:15:30.769Z</time></trkpt><trkpt lat="42.8166317" lon="13.55431"><ele>585.0</ele><time>2026-03-29T10:15:31.768Z</time></trkpt><trkpt lat="42.8166683" lon="13.5541433"><ele>585.0</ele><time>2026-03-29T10:15:33.769Z</time></trkpt><trkpt lat="42.81667" lon="13.5540517"><ele>585.5</ele><time>2026-03-29T10:15:34.769Z</time></trkpt><trkpt lat="42.8166567" lon="13.553955"><ele>586.0</ele><time>2026-03-29T10:15:35.769Z</time></trkpt><trkpt lat="42.8166367" lon="13.5538717"><ele>586.5</ele><time>2026-03-29T10:15:36.769Z</time></trkpt><trkpt lat="42.81661" lon="13.5537767"><ele>587.0</ele><time>2026-03-29T10:15:37.768Z</time></trkpt><trkpt lat="42.8165783" lon="13.55367"><ele>587.5</ele><time>2026-03-29T10:15:38.769Z</time></trkpt><trkpt lat="42.8165367" lon="13.5535967"><ele>588.0</ele><time>2026-03-29T10:15:39.769Z</time></trkpt><trkpt lat="42.8164833" lon="13.5535033"><ele>584.6666666666666</ele><time>2026-03-29T10:15:40.768Z</time></trkpt><trkpt lat="42.8164333" lon="13.5534033"><ele>581.3333333333334</ele><time>2026-03-29T10:15:41.769Z</time></trkpt><trkpt lat="42.816385" lon="13.5533083"><ele>578.0</ele><time>2026-03-29T10:15:42.769Z</time></trkpt><trkpt lat="42.816335" lon="13.55322"><ele>574.6666666666667</ele><time>2026-03-29T10:15:43.769Z</time></trkpt><trkpt lat="42.816285" lon="13.5531517"><ele>571.3333333333334</ele><time>2026-03-29T10:15:44.769Z</time></trkpt><trkpt lat="42.8162" lon="13.5530583"><ele>568.0</ele><time>2026-03-29T10:15:46.768Z</time></trkpt><trkpt lat="42.8161117" lon="13.5529667"><ele>569.6666666666667</ele><time>2026-03-29T10:15:48.769Z</time></trkpt><trkpt lat="42.816055" lon="13.5528283"><ele>571.3333333333334</ele><time>2026-03-29T10:15:50.768Z</time></trkpt><trkpt lat="42.8160167" lon="13.5527433"><ele>573.0</ele><time>2026-03-29T10:15:51.769Z</time></trkpt><trkpt lat="42.81597" lon="13.55265"><ele>574.6666666666666</ele><time>2026-03-29T10:15:52.768Z</time></trkpt><trkpt lat="42.8159183" lon="13.5525633"><ele>576.3333333333333</ele><time>2026-03-29T10:15:53.769Z</time></trkpt><trkpt lat="42.8158583" lon="13.552475"><ele>578.0</ele><time>2026-03-29T10:15:54.768Z</time></trkpt><trkpt lat="42.8158017" lon="13.5523983"><ele>578.0</ele><time>2026-03-29T10:15:55.769Z</time></trkpt><trkpt lat="42.8157633" lon="13.5523167"><ele>578.0</ele><time>2026-03-29T10:15:56.769Z</time></trkpt><trkpt lat="42.81574" lon="13.5522283"><ele>578.0</ele><time>2026-03-29T10:15:57.769Z</time></trkpt><trkpt lat="42.8157283" lon="13.5521367"><ele>578.0</ele><time>2026-03-29T10:15:58.769Z</time></trkpt><trkpt lat="42.8157417" lon="13.5520367"><ele>578.0</ele><time>2026-03-29T10:15:59.769Z</time></trkpt><trkpt lat="42.8157583" lon="13.551935"><ele>578.0</ele><time>2026-03-29T10:16:00.769Z</time></trkpt><trkpt lat="42.8157867" lon="13.5518333"><ele>578.0</ele><time>2026-03-29T10:16:01.769Z</time></trkpt><trkpt lat="42.815815" lon="13.55172"><ele>575.0</ele><time>2026-03-29T10:16:02.769Z</time></trkpt><trkpt lat="42.8158417" lon="13.5516117"><ele>572.0</ele><time>2026-03-29T10:16:03.769Z</time></trkpt><trkpt lat="42.8158817" lon="13.5515233"><ele>569.0</ele><time>2026-03-29T10:16:04.769Z</time></trkpt><trkpt lat="42.8159167" lon="13.5514283"><ele>566.0</ele><time>2026-03-29T10:16:05.769Z</time></trkpt><trkpt lat="42.8159517" lon="13.5513267"><ele>563.0</ele><time>2026-03-29T10:16:06.769Z</time></trkpt><trkpt lat="42.81599" lon="13.55123"><ele>560.0</ele><time>2026-03-29T10:16:07.769Z</time></trkpt><trkpt lat="42.816025" lon="13.5511383"><ele>551.5</ele><time>2026-03-29T10:16:08.769Z</time></trkpt><trkpt lat="42.816055" lon="13.5510583"><ele>543.0</ele><time>2026-03-29T10:16:09.769Z</time></trkpt><trkpt lat="42.8160783" lon="13.5509767"><ele>534.5</ele><time>2026-03-29T10:16:10.769Z</time></trkpt><trkpt lat="42.8160883" lon="13.550885"><ele>526.0</ele><time>2026-03-29T10:16:11.769Z</time></trkpt><trkpt lat="42.8160883" lon="13.5507867"><ele>517.5</ele><time>2026-03-29T10:16:12.769Z</time></trkpt><trkpt lat="42.8160867" lon="13.5506417"><ele>509.0</ele><time>2026-03-29T10:16:14.768Z</time></trkpt><trkpt lat="42.816015" lon="13.5505167"><ele>511.99999999999994</ele><time>2026-03-29T10:16:16.769Z</time></trkpt><trkpt lat="42.8159683" lon="13.55045"><ele>515.0</ele><time>2026-03-29T10:16:17.769Z</time></trkpt><trkpt lat="42.8159217" lon="13.550385"><ele>518.0</ele><time>2026-03-29T10:16:18.769Z</time></trkpt><trkpt lat="42.8158683" lon="13.5503217"><ele>521.0</ele><time>2026-03-29T10:16:19.769Z</time></trkpt><trkpt lat="42.81581" lon="13.55027"><ele>524.0</ele><time>2026-03-29T10:16:20.769Z</time></trkpt><trkpt lat="42.815755" lon="13.5502233"><ele>527.0</ele><time>2026-03-29T10:16:21.769Z</time></trkpt><trkpt lat="42.8156367" lon="13.5501767"><ele>527.0</ele><time>2026-03-29T10:16:23.769Z</time></trkpt><trkpt lat="42.8155517" lon="13.550185"><ele>527.0</ele><time>2026-03-29T10:16:24.768Z</time></trkpt><trkpt lat="42.8154717" lon="13.5502267"><ele>527.0</ele><time>2026-03-29T10:16:25.768Z</time></trkpt><trkpt lat="42.8153917" lon="13.5502783"><ele>527.0</ele><time>2026-03-29T10:16:26.767Z</time></trkpt><trkpt lat="42.815335" lon="13.5503367"><ele>527.0</ele><time>2026-03-29T10:16:27.768Z</time></trkpt><trkpt lat="42.8152917" lon="13.5504267"><ele>527.0</ele><time>2026-03-29T10:16:28.768Z</time></trkpt><trkpt lat="42.81526" lon="13.55052"><ele>529.6666666666666</ele><time>2026-03-29T10:16:29.768Z</time></trkpt><trkpt lat="42.815215" lon="13.5506033"><ele>532.3333333333333</ele><time>2026-03-29T10:16:30.768Z</time></trkpt><trkpt lat="42.8151583" lon="13.5506717"><ele>535.0</ele><time>2026-03-29T10:16:31.768Z</time></trkpt><trkpt lat="42.8150833" lon="13.5507033"><ele>537.6666666666666</ele><time>2026-03-29T10:16:32.768Z</time></trkpt><trkpt lat="42.8149967" lon="13.5507067"><ele>540.3333333333334</ele><time>2026-03-29T10:16:33.768Z</time></trkpt><trkpt lat="42.8149067" lon="13.5506783"><ele>543.0</ele><time>2026-03-29T10:16:34.767Z</time></trkpt><trkpt lat="42.814815" lon="13.55065"><ele>543.0</ele><time>2026-03-29T10:16:35.768Z</time></trkpt><trkpt lat="42.81472" lon="13.550605"><ele>543.0</ele><time>2026-03-29T10:16:36.768Z</time></trkpt><trkpt lat="42.814635" lon="13.55053"><ele>543.0</ele><time>2026-03-29T10:16:37.768Z</time></trkpt><trkpt lat="42.81457" lon="13.5504417"><ele>543.0</ele><time>2026-03-29T10:16:38.768Z</time></trkpt><trkpt lat="42.814505" lon="13.5503583"><ele>543.0</ele><time>2026-03-29T10:16:39.768Z</time></trkpt><trkpt lat="42.8144417" lon="13.5503067"><ele>538.6666666666666</ele><time>2026-03-29T10:16:40.767Z</time></trkpt><trkpt lat="42.8143783" lon="13.550275"><ele>534.3333333333334</ele><time>2026-03-29T10:16:41.768Z</time></trkpt><trkpt lat="42.8143033" lon="13.5502467"><ele>530.0</ele><time>2026-03-29T10:16:42.768Z</time></trkpt><trkpt lat="42.8142233" lon="13.5502483"><ele>525.6666666666667</ele><time>2026-03-29T10:16:43.768Z</time></trkpt><trkpt lat="42.8141583" lon="13.5502633"><ele>521.3333333333334</ele><time>2026-03-29T10:16:44.768Z</time></trkpt><trkpt lat="42.8140683" lon="13.5502383"><ele>517.0</ele><time>2026-03-29T10:16:46.768Z</time></trkpt><trkpt lat="42.81405" lon="13.550135"><ele>517.0</ele><time>2026-03-29T10:16:48.768Z</time></trkpt><trkpt lat="42.814075" lon="13.5500267"><ele>517.0</ele><time>2026-03-29T10:16:49.767Z</time></trkpt><trkpt lat="42.814125" lon="13.5499"><ele>517.0</ele><time>2026-03-29T10:16:50.768Z</time></trkpt><trkpt lat="42.8141867" lon="13.5497867"><ele>517.0</ele><time>2026-03-29T10:16:51.768Z</time></trkpt><trkpt lat="42.8142533" lon="13.5497033"><ele>517.0</ele><time>2026-03-29T10:16:52.768Z</time></trkpt><trkpt lat="42.8143283" lon="13.5496333"><ele>517.0</ele><time>2026-03-29T10:16:53.768Z</time></trkpt><trkpt lat="42.8144083" lon="13.5495883"><ele>517.0</ele><time>2026-03-29T10:16:54.767Z</time></trkpt><trkpt lat="42.8144833" lon="13.5495533"><ele>517.0</ele><time>2026-03-29T10:16:55.768Z</time></trkpt><trkpt lat="42.8145667" lon="13.54954"><ele>517.0</ele><time>2026-03-29T10:16:56.768Z</time></trkpt><trkpt lat="42.8146667" lon="13.5495383"><ele>517.0</ele><time>2026-03-29T10:16:57.768Z</time></trkpt><trkpt lat="42.8148" lon="13.5495333"><ele>512.5</ele><time>2026-03-29T10:16:58.768Z</time></trkpt><trkpt lat="42.8149317" lon="13.549525"><ele>508.0</ele><time>2026-03-29T10:16:59.768Z</time></trkpt><trkpt lat="42.815035" lon="13.5494917"><ele>503.5</ele><time>2026-03-29T10:17:00.768Z</time></trkpt><trkpt lat="42.8151617" lon="13.549425"><ele>499.0</ele><time>2026-03-29T10:17:01.768Z</time></trkpt><trkpt lat="42.81525" lon="13.54933"><ele>499.0</ele><time>2026-03-29T10:17:02.768Z</time></trkpt><trkpt lat="42.8153133" lon="13.54923"><ele>499.0</ele><time>2026-03-29T10:17:03.768Z</time></trkpt><trkpt lat="42.8153633" lon="13.5491083"><ele>499.0</ele><time>2026-03-29T10:17:04.768Z</time></trkpt><trkpt lat="42.8154117" lon="13.5490067"><ele>499.0</ele><time>2026-03-29T10:17:05.768Z</time></trkpt><trkpt lat="42.8154633" lon="13.5489267"><ele>499.0</ele><time>2026-03-29T10:17:06.767Z</time></trkpt><trkpt lat="42.8155333" lon="13.548835"><ele>499.0</ele><time>2026-03-29T10:17:07.768Z</time></trkpt><trkpt lat="42.8156083" lon="13.5487467"><ele>499.0</ele><time>2026-03-29T10:17:08.768Z</time></trkpt><trkpt lat="42.8157117" lon="13.5487067"><ele>499.0</ele><time>2026-03-29T10:17:09.768Z</time></trkpt><trkpt lat="42.8158383" lon="13.54869"><ele>499.0</ele><time>2026-03-29T10:17:10.768Z</time></trkpt><trkpt lat="42.8159533" lon="13.5487083"><ele>493.0</ele><time>2026-03-29T10:17:11.767Z</time></trkpt><trkpt lat="42.8160533" lon="13.5487233"><ele>487.0</ele><time>2026-03-29T10:17:12.767Z</time></trkpt><trkpt lat="42.8161517" lon="13.5487767"><ele>481.0</ele><time>2026-03-29T10:17:13.768Z</time></trkpt><trkpt lat="42.81625" lon="13.548865"><ele>475.0</ele><time>2026-03-29T10:17:14.768Z</time></trkpt><trkpt lat="42.8163583" lon="13.5489833"><ele>475.0</ele><time>2026-03-29T10:17:15.768Z</time></trkpt><trkpt lat="42.81648" lon="13.5491083"><ele>475.0</ele><time>2026-03-29T10:17:16.768Z</time></trkpt><trkpt lat="42.8166" lon="13.54921"><ele>475.0</ele><time>2026-03-29T10:17:17.768Z</time></trkpt><trkpt lat="42.816695" lon="13.5493117"><ele>475.0</ele><time>2026-03-29T10:17:18.768Z</time></trkpt><trkpt lat="42.8167733" lon="13.5494167"><ele>469.8</ele><time>2026-03-29T10:17:19.768Z</time></trkpt><trkpt lat="42.8168267" lon="13.54953"><ele>464.6</ele><time>2026-03-29T10:17:20.768Z</time></trkpt><trkpt lat="42.8168917" lon="13.5496617"><ele>459.4</ele><time>2026-03-29T10:17:21.768Z</time></trkpt><trkpt lat="42.8169617" lon="13.54978"><ele>454.2</ele><time>2026-03-29T10:17:22.768Z</time></trkpt><trkpt lat="42.8170033" lon="13.549895"><ele>449.0</ele><time>2026-03-29T10:17:23.768Z</time></trkpt><trkpt lat="42.8170383" lon="13.55002"><ele>448.99999999999994</ele><time>2026-03-29T10:17:24.768Z</time></trkpt><trkpt lat="42.8170583" lon="13.5501483"><ele>449.0</ele><time>2026-03-29T10:17:25.768Z</time></trkpt><trkpt lat="42.8170617" lon="13.5502567"><ele>449.0</ele><time>2026-03-29T10:17:26.768Z</time></trkpt><trkpt lat="42.817045" lon="13.5503633"><ele>449.0</ele><time>2026-03-29T10:17:27.767Z</time></trkpt><trkpt lat="42.8170383" lon="13.5504683"><ele>448.99999999999994</ele><time>2026-03-29T10:17:28.768Z</time></trkpt><trkpt lat="42.81706" lon="13.5505783"><ele>449.0</ele><time>2026-03-29T10:17:29.768Z</time></trkpt><trkpt lat="42.8170933" lon="13.5506683"><ele>454.5</ele><time>2026-03-29T10:17:30.768Z</time></trkpt><trkpt lat="42.817205" lon="13.5507317"><ele>460.0</ele><time>2026-03-29T10:17:32.768Z</time></trkpt><trkpt lat="42.8172883" lon="13.550705"><ele>465.5</ele><time>2026-03-29T10:17:33.768Z</time></trkpt><trkpt lat="42.8174333" lon="13.5506683"><ele>471.0</ele><time>2026-03-29T10:17:34.768Z</time></trkpt><trkpt lat="42.8175883" lon="13.55066"><ele>464.75</ele><time>2026-03-29T10:17:35.768Z</time></trkpt><trkpt lat="42.817725" lon="13.5506967"><ele>458.5</ele><time>2026-03-29T10:17:36.768Z</time></trkpt><trkpt lat="42.8178583" lon="13.5507583"><ele>452.25</ele><time>2026-03-29T10:17:37.768Z</time></trkpt><trkpt lat="42.8180083" lon="13.5508317"><ele>446.0</ele><time>2026-03-29T10:17:38.768Z</time></trkpt><trkpt lat="42.8181333" lon="13.5509167"><ele>446.0</ele><time>2026-03-29T10:17:39.767Z</time></trkpt><trkpt lat="42.818265" lon="13.551"><ele>446.0</ele><time>2026-03-29T10:17:40.768Z</time></trkpt><trkpt lat="42.8184183" lon="13.551065"><ele>446.0</ele><time>2026-03-29T10:17:41.767Z</time></trkpt><trkpt lat="42.8185717" lon="13.5511017"><ele>443.5</ele><time>2026-03-29T10:17:42.768Z</time></trkpt><trkpt lat="42.818715" lon="13.55111"><ele>441.0</ele><time>2026-03-29T10:17:43.768Z</time></trkpt><trkpt lat="42.8188433" lon="13.5511217"><ele>438.5</ele><time>2026-03-29T10:17:44.768Z</time></trkpt><trkpt lat="42.818945" lon="13.551145"><ele>436.0</ele><time>2026-03-29T10:17:45.768Z</time></trkpt><trkpt lat="42.8190367" lon="13.5511583"><ele>436.00000000000006</ele><time>2026-03-29T10:17:46.768Z</time></trkpt><trkpt lat="42.8191267" lon="13.551165"><ele>436.0</ele><time>2026-03-29T10:17:47.768Z</time></trkpt><trkpt lat="42.81921" lon="13.5511683"><ele>436.0</ele><time>2026-03-29T10:17:48.768Z</time></trkpt><trkpt lat="42.8193017" lon="13.551165"><ele>436.0</ele><time>2026-03-29T10:17:49.768Z</time></trkpt><trkpt lat="42.8193967" lon="13.5511617"><ele>436.00000000000006</ele><time>2026-03-29T10:17:50.768Z</time></trkpt><trkpt lat="42.8194833" lon="13.551165"><ele>436.0</ele><time>2026-03-29T10:17:51.768Z</time></trkpt><trkpt lat="42.8195817" lon="13.5512017"><ele>439.0</ele><time>2026-03-29T10:17:52.768Z</time></trkpt><trkpt lat="42.8196933" lon="13.5512317"><ele>442.0</ele><time>2026-03-29T10:17:53.768Z</time></trkpt><trkpt lat="42.8197917" lon="13.5512467"><ele>445.0</ele><time>2026-03-29T10:17:54.768Z</time></trkpt><trkpt lat="42.8199033" lon="13.5512633"><ele>448.0</ele><time>2026-03-29T10:17:55.768Z</time></trkpt><trkpt lat="42.8200117" lon="13.55129"><ele>451.0</ele><time>2026-03-29T10:17:56.767Z</time></trkpt><trkpt lat="42.8201017" lon="13.55135"><ele>447.33333333333337</ele><time>2026-03-29T10:17:57.768Z</time></trkpt><trkpt lat="42.820185" lon="13.55142"><ele>443.6666666666667</ele><time>2026-03-29T10:17:58.767Z</time></trkpt><trkpt lat="42.8202633" lon="13.55149"><ele>440.0</ele><time>2026-03-29T10:17:59.768Z</time></trkpt><trkpt lat="42.8203383" lon="13.55156"><ele>436.33333333333337</ele><time>2026-03-29T10:18:00.768Z</time></trkpt><trkpt lat="42.8204083" lon="13.5516283"><ele>432.6666666666667</ele><time>2026-03-29T10:18:01.768Z</time></trkpt><trkpt lat="42.820475" lon="13.5516667"><ele>429.0</ele><time>2026-03-29T10:18:02.768Z</time></trkpt><trkpt lat="42.8205733" lon="13.551715"><ele>429.0</ele><time>2026-03-29T10:18:04.768Z</time></trkpt><trkpt lat="42.8206217" lon="13.5518233"><ele>429.0</ele><time>2026-03-29T10:18:07.768Z</time></trkpt><trkpt lat="42.8206133" lon="13.551965"><ele>429.0</ele><time>2026-03-29T10:18:10.767Z</time></trkpt><trkpt lat="42.820605" lon="13.55208"><ele>429.0</ele><time>2026-03-29T10:18:12.768Z</time></trkpt><trkpt lat="42.8206617" lon="13.5521633"><ele>429.0</ele><time>2026-03-29T10:18:14.768Z</time></trkpt><trkpt lat="42.8207683" lon="13.552135"><ele>429.0</ele><time>2026-03-29T10:18:16.768Z</time></trkpt><trkpt lat="42.820825" lon="13.55209"><ele>429.0</ele><time>2026-03-29T10:18:17.768Z</time></trkpt><trkpt lat="42.8208867" lon="13.552025"><ele>429.0</ele><time>2026-03-29T10:18:18.768Z</time></trkpt><trkpt lat="42.8209567" lon="13.5519633"><ele>429.0</ele><time>2026-03-29T10:18:19.768Z</time></trkpt><trkpt lat="42.8210383" lon="13.5519217"><ele>429.0</ele><time>2026-03-29T10:18:20.768Z</time></trkpt><trkpt lat="42.8211433" lon="13.551905"><ele>429.0</ele><time>2026-03-29T10:18:21.768Z</time></trkpt><trkpt lat="42.8212617" lon="13.5519067"><ele>426.4</ele><time>2026-03-29T10:18:22.767Z</time></trkpt><trkpt lat="42.8213767" lon="13.5519133"><ele>423.79999999999995</ele><time>2026-03-29T10:18:23.768Z</time></trkpt><trkpt lat="42.82147" lon="13.55191"><ele>421.20000000000005</ele><time>2026-03-29T10:18:24.768Z</time></trkpt><trkpt lat="42.821565" lon="13.5519"><ele>418.6</ele><time>2026-03-29T10:18:25.768Z</time></trkpt><trkpt lat="42.82166" lon="13.5518867"><ele>416.0</ele><time>2026-03-29T10:18:26.768Z</time></trkpt><trkpt lat="42.8217433" lon="13.5518567"><ele>415.99999999999994</ele><time>2026-03-29T10:18:27.768Z</time></trkpt><trkpt lat="42.821825" lon="13.5518167"><ele>416.0</ele><time>2026-03-29T10:18:28.768Z</time></trkpt><trkpt lat="42.8219167" lon="13.5517967"><ele>416.0</ele><time>2026-03-29T10:18:30.768Z</time></trkpt><trkpt lat="42.82186" lon="13.551905"><ele>416.0</ele><time>2026-03-29T10:18:33.768Z</time></trkpt><trkpt lat="42.8218083" lon="13.5519717"><ele>415.99999999999994</ele><time>2026-03-29T10:18:34.768Z</time></trkpt><trkpt lat="42.8217617" lon="13.55206"><ele>416.0</ele><time>2026-03-29T10:18:35.767Z</time></trkpt><trkpt lat="42.821705" lon="13.552175"><ele>414.49999999999994</ele><time>2026-03-29T10:18:36.768Z</time></trkpt><trkpt lat="42.82165" lon="13.5522917"><ele>413.0</ele><time>2026-03-29T10:18:37.768Z</time></trkpt><trkpt lat="42.82161" lon="13.5523983"><ele>411.5</ele><time>2026-03-29T10:18:38.768Z</time></trkpt><trkpt lat="42.821575" lon="13.5524967"><ele>410.0</ele><time>2026-03-29T10:18:39.768Z</time></trkpt><trkpt lat="42.8215367" lon="13.5525767"><ele>408.49999999999994</ele><time>2026-03-29T10:18:40.768Z</time></trkpt><trkpt lat="42.8214967" lon="13.55269"><ele>407.0</ele><time>2026-03-29T10:18:42.768Z</time></trkpt><trkpt lat="42.8214583" lon="13.55279"><ele>406.99999999999994</ele><time>2026-03-29T10:18:44.767Z</time></trkpt><trkpt lat="42.8215583" lon="13.5527133"><ele>407.0</ele><time>2026-03-29T10:18:49.768Z</time></trkpt><trkpt lat="42.8215933" lon="13.5526367"><ele>407.0</ele><time>2026-03-29T10:18:50.767Z</time></trkpt><trkpt lat="42.821675" lon="13.55256"><ele>407.0</ele><time>2026-03-29T10:18:52.767Z</time></trkpt><trkpt lat="42.8217217" lon="13.5526233"><ele>406.99999999999994</ele><time>2026-03-29T10:18:55.768Z</time></trkpt><trkpt lat="42.8216983" lon="13.5527583"><ele>407.0</ele><time>2026-03-29T10:18:57.768Z</time></trkpt><trkpt lat="42.8216733" lon="13.5528633"><ele>404.0</ele><time>2026-03-29T10:18:58.768Z</time></trkpt><trkpt lat="42.8216317" lon="13.5530033"><ele>401.0</ele><time>2026-03-29T10:18:59.767Z</time></trkpt><trkpt lat="42.821575" lon="13.5531567"><ele>398.0</ele><time>2026-03-29T10:19:00.768Z</time></trkpt><trkpt lat="42.82152" lon="13.55332"><ele>395.0</ele><time>2026-03-29T10:19:01.768Z</time></trkpt><trkpt lat="42.8214817" lon="13.55348"><ele>395.0</ele><time>2026-03-29T10:19:02.767Z</time></trkpt><trkpt lat="42.82147" lon="13.5536467"><ele>395.0</ele><time>2026-03-29T10:19:03.768Z</time></trkpt><trkpt lat="42.8215017" lon="13.5538183"><ele>395.0</ele><time>2026-03-29T10:19:04.768Z</time></trkpt><trkpt lat="42.8215517" lon="13.5539583"><ele>395.0</ele><time>2026-03-29T10:19:05.768Z</time></trkpt><trkpt lat="42.8216117" lon="13.554095"><ele>393.8</ele><time>2026-03-29T10:19:06.768Z</time></trkpt><trkpt lat="42.8216583" lon="13.5542383"><ele>392.6</ele><time>2026-03-29T10:19:07.768Z</time></trkpt><trkpt lat="42.8216867" lon="13.554385"><ele>391.4</ele><time>2026-03-29T10:19:08.768Z</time></trkpt><trkpt lat="42.8216917" lon="13.5545333"><ele>390.2</ele><time>2026-03-29T10:19:09.768Z</time></trkpt><trkpt lat="42.8216733" lon="13.5546633"><ele>389.0</ele><time>2026-03-29T10:19:10.768Z</time></trkpt><trkpt lat="42.82165" lon="13.5548033"><ele>389.0</ele><time>2026-03-29T10:19:11.768Z</time></trkpt><trkpt lat="42.8216383" lon="13.5549533"><ele>389.0</ele><time>2026-03-29T10:19:12.768Z</time></trkpt><trkpt lat="42.8216417" lon="13.555115"><ele>389.0</ele><time>2026-03-29T10:19:13.768Z</time></trkpt><trkpt lat="42.82168" lon="13.5552733"><ele>389.0</ele><time>2026-03-29T10:19:14.768Z</time></trkpt><trkpt lat="42.821735" lon="13.5554367"><ele>387.25</ele><time>2026-03-29T10:19:15.767Z</time></trkpt><trkpt lat="42.82182" lon="13.5555717"><ele>385.5</ele><time>2026-03-29T10:19:16.768Z</time></trkpt><trkpt lat="42.82191" lon="13.55569"><ele>383.75</ele><time>2026-03-29T10:19:17.768Z</time></trkpt><trkpt lat="42.822015" lon="13.5557617"><ele>382.0</ele><time>2026-03-29T10:19:18.768Z</time></trkpt><trkpt lat="42.8221283" lon="13.55581"><ele>382.0</ele><time>2026-03-29T10:19:19.768Z</time></trkpt><trkpt lat="42.8222333" lon="13.5558233"><ele>382.0</ele><time>2026-03-29T10:19:20.768Z</time></trkpt><trkpt lat="42.8223533" lon="13.55581"><ele>382.0</ele><time>2026-03-29T10:19:21.767Z</time></trkpt><trkpt lat="42.822465" lon="13.5557917"><ele>382.0</ele><time>2026-03-29T10:19:22.767Z</time></trkpt><trkpt lat="42.82259" lon="13.5557783"><ele>380.0</ele><time>2026-03-29T10:19:23.767Z</time></trkpt><trkpt lat="42.8227" lon="13.5557717"><ele>378.0</ele><time>2026-03-29T10:19:24.767Z</time></trkpt><trkpt lat="42.82282" lon="13.5557567"><ele>376.0</ele><time>2026-03-29T10:19:25.768Z</time></trkpt><trkpt lat="42.8229433" lon="13.5557467"><ele>374.0</ele><time>2026-03-29T10:19:26.768Z</time></trkpt><trkpt lat="42.8230783" lon="13.55574"><ele>374.0</ele><time>2026-03-29T10:19:27.768Z</time></trkpt><trkpt lat="42.8232117" lon="13.5557283"><ele>374.0</ele><time>2026-03-29T10:19:28.768Z</time></trkpt><trkpt lat="42.82334" lon="13.5557183"><ele>374.0</ele><time>2026-03-29T10:19:29.768Z</time></trkpt><trkpt lat="42.82347" lon="13.5557067"><ele>374.0</ele><time>2026-03-29T10:19:30.768Z</time></trkpt><trkpt lat="42.82359" lon="13.5556917"><ele>374.25</ele><time>2026-03-29T10:19:31.768Z</time></trkpt><trkpt lat="42.823715" lon="13.5556733"><ele>374.5</ele><time>2026-03-29T10:19:32.768Z</time></trkpt><trkpt lat="42.8238467" lon="13.5556417"><ele>374.75</ele><time>2026-03-29T10:19:33.768Z</time></trkpt><trkpt lat="42.8239767" lon="13.5556067"><ele>375.0</ele><time>2026-03-29T10:19:34.767Z</time></trkpt><trkpt lat="42.8240983" lon="13.55556"><ele>375.0</ele><time>2026-03-29T10:19:35.767Z</time></trkpt><trkpt lat="42.82421" lon="13.555515"><ele>375.0</ele><time>2026-03-29T10:19:36.768Z</time></trkpt><trkpt lat="42.8243167" lon="13.5554583"><ele>375.0</ele><time>2026-03-29T10:19:37.768Z</time></trkpt><trkpt lat="42.824415" lon="13.5554133"><ele>375.0</ele><time>2026-03-29T10:19:38.768Z</time></trkpt><trkpt lat="42.8245167" lon="13.5553667"><ele>375.0</ele><time>2026-03-29T10:19:39.768Z</time></trkpt><trkpt lat="42.8246167" lon="13.55532"><ele>371.25</ele><time>2026-03-29T10:19:40.768Z</time></trkpt><trkpt lat="42.82471" lon="13.5552783"><ele>367.5</ele><time>2026-03-29T10:19:41.768Z</time></trkpt><trkpt lat="42.8248133" lon="13.5552333"><ele>363.75</ele><time>2026-03-29T10:19:42.768Z</time></trkpt><trkpt lat="42.8249367" lon="13.5552183"><ele>360.0</ele><time>2026-03-29T10:19:43.768Z</time></trkpt><trkpt lat="42.8250667" lon="13.5552233"><ele>361.75</ele><time>2026-03-29T10:19:44.768Z</time></trkpt><trkpt lat="42.8251883" lon="13.5552467"><ele>363.5</ele><time>2026-03-29T10:19:45.768Z</time></trkpt><trkpt lat="42.8253" lon="13.5553"><ele>365.25</ele><time>2026-03-29T10:19:46.768Z</time></trkpt><trkpt lat="42.8254117" lon="13.5553633"><ele>367.0</ele><time>2026-03-29T10:19:47.768Z</time></trkpt><trkpt lat="42.8255167" lon="13.55544"><ele>367.0</ele><time>2026-03-29T10:19:48.768Z</time></trkpt><trkpt lat="42.82561" lon="13.55553"><ele>367.0</ele><time>2026-03-29T10:19:49.768Z</time></trkpt><trkpt lat="42.8256883" lon="13.55561"><ele>367.0</ele><time>2026-03-29T10:19:50.768Z</time></trkpt><trkpt lat="42.8257517" lon="13.5556867"><ele>367.0</ele><time>2026-03-29T10:19:51.768Z</time></trkpt><trkpt lat="42.82581" lon="13.55576"><ele>367.0</ele><time>2026-03-29T10:19:52.768Z</time></trkpt><trkpt lat="42.8258533" lon="13.555825"><ele>367.0</ele><time>2026-03-29T10:19:53.768Z</time></trkpt><trkpt lat="42.8258767" lon="13.5559333"><ele>367.0</ele><time>2026-03-29T10:19:55.768Z</time></trkpt><trkpt lat="42.8258367" lon="13.55608"><ele>367.0</ele><time>2026-03-29T10:19:57.767Z</time></trkpt><trkpt lat="42.8257917" lon="13.5561717"><ele>367.0</ele><time>2026-03-29T10:19:58.767Z</time></trkpt><trkpt lat="42.825745" lon="13.556275"><ele>367.0</ele><time>2026-03-29T10:19:59.766Z</time></trkpt><trkpt lat="42.8256967" lon="13.5563883"><ele>367.0</ele><time>2026-03-29T10:20:00.767Z</time></trkpt><trkpt lat="42.8256467" lon="13.5564967"><ele>371.0</ele><time>2026-03-29T10:20:01.767Z</time></trkpt><trkpt lat="42.82558" lon="13.556585"><ele>375.0</ele><time>2026-03-29T10:20:02.766Z</time></trkpt><trkpt lat="42.8255067" lon="13.55666"><ele>379.0</ele><time>2026-03-29T10:20:03.767Z</time></trkpt><trkpt lat="42.8254267" lon="13.5567217"><ele>383.0</ele><time>2026-03-29T10:20:04.767Z</time></trkpt><trkpt lat="42.8253583" lon="13.5567983"><ele>387.0</ele><time>2026-03-29T10:20:05.767Z</time></trkpt><trkpt lat="42.8252983" lon="13.55689"><ele>387.0</ele><time>2026-03-29T10:20:06.767Z</time></trkpt><trkpt lat="42.8252583" lon="13.5569717"><ele>387.0</ele><time>2026-03-29T10:20:07.767Z</time></trkpt><trkpt lat="42.82523" lon="13.55706"><ele>387.0</ele><time>2026-03-29T10:20:08.767Z</time></trkpt><trkpt lat="42.8252" lon="13.5571533"><ele>387.0</ele><time>2026-03-29T10:20:09.767Z</time></trkpt><trkpt lat="42.8251683" lon="13.5572483"><ele>387.0</ele><time>2026-03-29T10:20:10.767Z</time></trkpt><trkpt lat="42.8251183" lon="13.557325"><ele>387.0</ele><time>2026-03-29T10:20:11.767Z</time></trkpt><trkpt lat="42.825075" lon="13.5574133"><ele>387.0</ele><time>2026-03-29T10:20:12.767Z</time></trkpt><trkpt lat="42.8250433" lon="13.5575167"><ele>389.8</ele><time>2026-03-29T10:20:13.767Z</time></trkpt><trkpt lat="42.82504" lon="13.5576317"><ele>392.6</ele><time>2026-03-29T10:20:14.767Z</time></trkpt><trkpt lat="42.8250533" lon="13.557765"><ele>395.40000000000003</ele><time>2026-03-29T10:20:15.767Z</time></trkpt><trkpt lat="42.8250733" lon="13.5578967"><ele>398.20000000000005</ele><time>2026-03-29T10:20:16.767Z</time></trkpt><trkpt lat="42.8250833" lon="13.5580217"><ele>401.0</ele><time>2026-03-29T10:20:17.767Z</time></trkpt><trkpt lat="42.825075" lon="13.5581467"><ele>402.16666666666663</ele><time>2026-03-29T10:20:18.767Z</time></trkpt><trkpt lat="42.8250467" lon="13.5582517"><ele>403.3333333333333</ele><time>2026-03-29T10:20:19.767Z</time></trkpt><trkpt lat="42.8249983" lon="13.558325"><ele>404.5</ele><time>2026-03-29T10:20:20.767Z</time></trkpt><trkpt lat="42.824885" lon="13.558405"><ele>405.66666666666663</ele><time>2026-03-29T10:20:22.767Z</time></trkpt><trkpt lat="42.8248333" lon="13.5584617"><ele>406.8333333333333</ele><time>2026-03-29T10:20:23.767Z</time></trkpt><trkpt lat="42.8247983" lon="13.5585433"><ele>408.0</ele><time>2026-03-29T10:20:24.767Z</time></trkpt><trkpt lat="42.8247783" lon="13.5586433"><ele>410.1666666666667</ele><time>2026-03-29T10:20:25.767Z</time></trkpt><trkpt lat="42.82476" lon="13.5587467"><ele>412.33333333333337</ele><time>2026-03-29T10:20:26.767Z</time></trkpt><trkpt lat="42.8247483" lon="13.5588617"><ele>414.5</ele><time>2026-03-29T10:20:27.767Z</time></trkpt><trkpt lat="42.8247567" lon="13.558985"><ele>416.6666666666667</ele><time>2026-03-29T10:20:28.766Z</time></trkpt><trkpt lat="42.8247833" lon="13.55909"><ele>418.83333333333337</ele><time>2026-03-29T10:20:29.767Z</time></trkpt><trkpt lat="42.8248117" lon="13.5591817"><ele>421.0</ele><time>2026-03-29T10:20:30.766Z</time></trkpt><trkpt lat="42.82482" lon="13.5592733"><ele>421.0</ele><time>2026-03-29T10:20:31.767Z</time></trkpt><trkpt lat="42.824795" lon="13.5594167"><ele>421.0</ele><time>2026-03-29T10:20:33.766Z</time></trkpt><trkpt lat="42.8247367" lon="13.5595"><ele>421.0</ele><time>2026-03-29T10:20:35.767Z</time></trkpt><trkpt lat="42.8248367" lon="13.5595367"><ele>421.0</ele><time>2026-03-29T10:20:39.767Z</time></trkpt><trkpt lat="42.8248983" lon="13.5595"><ele>421.0</ele><time>2026-03-29T10:20:40.766Z</time></trkpt><trkpt lat="42.82499" lon="13.55946"><ele>421.00000000000006</ele><time>2026-03-29T10:20:42.766Z</time></trkpt><trkpt lat="42.8250483" lon="13.5594933"><ele>421.0</ele><time>2026-03-29T10:20:44.767Z</time></trkpt><trkpt lat="42.8251233" lon="13.5595517"><ele>421.0</ele><time>2026-03-29T10:20:46.767Z</time></trkpt><trkpt lat="42.8252133" lon="13.5596017"><ele>421.0</ele><time>2026-03-29T10:20:48.767Z</time></trkpt><trkpt lat="42.8252967" lon="13.5596233"><ele>421.00000000000006</ele><time>2026-03-29T10:20:50.766Z</time></trkpt><trkpt lat="42.825355" lon="13.5595867"><ele>421.0</ele><time>2026-03-29T10:20:52.767Z</time></trkpt><trkpt lat="42.825395" lon="13.5595"><ele>424.50000000000006</ele><time>2026-03-29T10:20:54.766Z</time></trkpt><trkpt lat="42.825435" lon="13.559415"><ele>428.0</ele><time>2026-03-29T10:20:56.767Z</time></trkpt><trkpt lat="42.8255017" lon="13.5593367"><ele>431.5</ele><time>2026-03-29T10:20:58.767Z</time></trkpt><trkpt lat="42.8255767" lon="13.55928"><ele>435.0</ele><time>2026-03-29T10:21:00.767Z</time></trkpt><trkpt lat="42.8256717" lon="13.559245"><ele>438.50000000000006</ele><time>2026-03-29T10:21:02.766Z</time></trkpt><trkpt lat="42.8257583" lon="13.5592183"><ele>442.0</ele><time>2026-03-29T10:21:04.767Z</time></trkpt><trkpt lat="42.8258233" lon="13.5592233"><ele>442.00000000000006</ele><time>2026-03-29T10:21:06.767Z</time></trkpt><trkpt lat="42.8259517" lon="13.5592167"><ele>442.0</ele><time>2026-03-29T10:21:32.767Z</time></trkpt><trkpt lat="42.8260083" lon="13.5591367"><ele>442.0</ele><time>2026-03-29T10:21:34.767Z</time></trkpt><trkpt lat="42.8260517" lon="13.5590567"><ele>442.0</ele><time>2026-03-29T10:21:36.767Z</time></trkpt><trkpt lat="42.826105" lon="13.5589933"><ele>442.00000000000006</ele><time>2026-03-29T10:21:38.767Z</time></trkpt><trkpt lat="42.82616" lon="13.5589067"><ele>442.0</ele><time>2026-03-29T10:21:41.767Z</time></trkpt><trkpt lat="42.82619" lon="13.5588233"><ele>441.33333333333337</ele><time>2026-03-29T10:21:43.767Z</time></trkpt><trkpt lat="42.8262233" lon="13.55873"><ele>440.6666666666667</ele><time>2026-03-29T10:21:45.767Z</time></trkpt><trkpt lat="42.8262733" lon="13.5586517"><ele>440.0</ele><time>2026-03-29T10:21:47.767Z</time></trkpt><trkpt lat="42.8263" lon="13.5587317"><ele>439.33333333333337</ele><time>2026-03-29T10:21:52.767Z</time></trkpt><trkpt lat="42.8263167" lon="13.5588533"><ele>438.6666666666667</ele><time>2026-03-29T10:21:54.767Z</time></trkpt><trkpt lat="42.8263467" lon="13.5589983"><ele>438.0</ele><time>2026-03-29T10:21:56.767Z</time></trkpt><trkpt lat="42.826375" lon="13.5591517"><ele>442.6666666666667</ele><time>2026-03-29T10:21:58.767Z</time></trkpt><trkpt lat="42.82643" lon="13.559235"><ele>447.33333333333337</ele><time>2026-03-29T10:22:01.767Z</time></trkpt><trkpt lat="42.8264817" lon="13.5591433"><ele>452.0</ele><time>2026-03-29T10:22:03.767Z</time></trkpt><trkpt lat="42.82652" lon="13.5590483"><ele>456.6666666666667</ele><time>2026-03-29T10:22:04.767Z</time></trkpt><trkpt lat="42.826555" lon="13.55897"><ele>461.33333333333337</ele><time>2026-03-29T10:22:05.767Z</time></trkpt><trkpt lat="42.8266167" lon="13.558935"><ele>466.0</ele><time>2026-03-29T10:22:07.767Z</time></trkpt><trkpt lat="42.826695" lon="13.5590117"><ele>466.0</ele><time>2026-03-29T10:22:09.767Z</time></trkpt><trkpt lat="42.826745" lon="13.55909"><ele>466.0</ele><time>2026-03-29T10:22:10.767Z</time></trkpt><trkpt lat="42.8267983" lon="13.55917"><ele>466.0</ele><time>2026-03-29T10:22:11.767Z</time></trkpt><trkpt lat="42.8268483" lon="13.5592367"><ele>466.0</ele><time>2026-03-29T10:22:12.767Z</time></trkpt><trkpt lat="42.8268883" lon="13.5593133"><ele>466.0</ele><time>2026-03-29T10:22:13.767Z</time></trkpt><trkpt lat="42.8269183" lon="13.559405"><ele>466.0</ele><time>2026-03-29T10:22:14.766Z</time></trkpt><trkpt lat="42.8269433" lon="13.5595017"><ele>466.0</ele><time>2026-03-29T10:22:15.767Z</time></trkpt><trkpt lat="42.826945" lon="13.5596"><ele>467.50000000000006</ele><time>2026-03-29T10:22:16.767Z</time></trkpt><trkpt lat="42.8269383" lon="13.5597067"><ele>469.0</ele><time>2026-03-29T10:22:17.767Z</time></trkpt><trkpt lat="42.826925" lon="13.5598183"><ele>470.5</ele><time>2026-03-29T10:22:18.766Z</time></trkpt><trkpt lat="42.826895" lon="13.5599433"><ele>472.0</ele><time>2026-03-29T10:22:19.767Z</time></trkpt><trkpt lat="42.826865" lon="13.56008"><ele>473.50000000000006</ele><time>2026-03-29T10:22:20.767Z</time></trkpt><trkpt lat="42.826855" lon="13.5601883"><ele>475.0</ele><time>2026-03-29T10:22:21.766Z</time></trkpt><trkpt lat="42.8268567" lon="13.5603317"><ele>477.4</ele><time>2026-03-29T10:22:23.767Z</time></trkpt><trkpt lat="42.8268917" lon="13.560485"><ele>479.8</ele><time>2026-03-29T10:22:25.767Z</time></trkpt><trkpt lat="42.8269267" lon="13.5606267"><ele>482.20000000000005</ele><time>2026-03-29T10:22:27.767Z</time></trkpt><trkpt lat="42.8270017" lon="13.5607283"><ele>484.6</ele><time>2026-03-29T10:22:29.767Z</time></trkpt><trkpt lat="42.827075" lon="13.5607983"><ele>487.0</ele><time>2026-03-29T10:22:31.767Z</time></trkpt><trkpt lat="42.827135" lon="13.5608417"><ele>487.00000000000006</ele><time>2026-03-29T10:22:32.767Z</time></trkpt><trkpt lat="42.827175" lon="13.560915"><ele>487.0</ele><time>2026-03-29T10:22:33.767Z</time></trkpt><trkpt lat="42.8272067" lon="13.5609933"><ele>487.0</ele><time>2026-03-29T10:22:34.767Z</time></trkpt><trkpt lat="42.8272967" lon="13.5610917"><ele>487.0</ele><time>2026-03-29T10:22:36.766Z</time></trkpt><trkpt lat="42.8273617" lon="13.5611133"><ele>487.00000000000006</ele><time>2026-03-29T10:22:37.767Z</time></trkpt><trkpt lat="42.827435" lon="13.5611283"><ele>487.0</ele><time>2026-03-29T10:22:38.767Z</time></trkpt><trkpt lat="42.8275083" lon="13.5611133"><ele>487.00000000000006</ele><time>2026-03-29T10:22:39.767Z</time></trkpt><trkpt lat="42.8275933" lon="13.56111"><ele>487.0</ele><time>2026-03-29T10:22:40.767Z</time></trkpt><trkpt lat="42.8277317" lon="13.56111"><ele>487.0</ele><time>2026-03-29T10:22:42.767Z</time></trkpt><trkpt lat="42.8278067" lon="13.5611167"><ele>487.0</ele><time>2026-03-29T10:22:43.767Z</time></trkpt><trkpt lat="42.8278883" lon="13.5611333"><ele>487.00000000000006</ele><time>2026-03-29T10:22:44.767Z</time></trkpt><trkpt lat="42.8279533" lon="13.561135"><ele>487.0</ele><time>2026-03-29T10:22:45.767Z</time></trkpt><trkpt lat="42.8280217" lon="13.561145"><ele>487.1666666666667</ele><time>2026-03-29T10:22:46.767Z</time></trkpt><trkpt lat="42.82809" lon="13.5611633"><ele>487.33333333333337</ele><time>2026-03-29T10:22:47.767Z</time></trkpt><trkpt lat="42.8281567" lon="13.5612033"><ele>487.5</ele><time>2026-03-29T10:22:48.767Z</time></trkpt><trkpt lat="42.8282183" lon="13.561265"><ele>487.66666666666663</ele><time>2026-03-29T10:22:49.767Z</time></trkpt><trkpt lat="42.8282867" lon="13.5613467"><ele>487.8333333333333</ele><time>2026-03-29T10:22:50.767Z</time></trkpt><trkpt lat="42.8283467" lon="13.5614783"><ele>488.0</ele><time>2026-03-29T10:22:51.767Z</time></trkpt><trkpt lat="42.828405" lon="13.5616133"><ele>487.99999999999994</ele><time>2026-03-29T10:22:52.767Z</time></trkpt><trkpt lat="42.828445" lon="13.5617333"><ele>488.0</ele><time>2026-03-29T10:22:53.767Z</time></trkpt><trkpt lat="42.8284817" lon="13.56184"><ele>488.0</ele><time>2026-03-29T10:22:54.767Z</time></trkpt><trkpt lat="42.8285117" lon="13.5619483"><ele>488.0</ele><time>2026-03-29T10:22:55.767Z</time></trkpt><trkpt lat="42.8285417" lon="13.5620583"><ele>487.99999999999994</ele><time>2026-03-29T10:22:56.767Z</time></trkpt><trkpt lat="42.82857" lon="13.5621667"><ele>488.0</ele><time>2026-03-29T10:22:57.767Z</time></trkpt><trkpt lat="42.8286" lon="13.5622617"><ele>487.2</ele><time>2026-03-29T10:22:58.766Z</time></trkpt><trkpt lat="42.8286617" lon="13.5623383"><ele>486.4</ele><time>2026-03-29T10:23:00.767Z</time></trkpt><trkpt lat="42.8287733" lon="13.56229"><ele>485.59999999999997</ele><time>2026-03-29T10:23:02.767Z</time></trkpt><trkpt lat="42.828875" lon="13.5621933"><ele>484.79999999999995</ele><time>2026-03-29T10:23:04.767Z</time></trkpt><trkpt lat="42.8289533" lon="13.5620767"><ele>484.0</ele><time>2026-03-29T10:23:06.767Z</time></trkpt><trkpt lat="42.82902" lon="13.5619767"><ele>484.0</ele><time>2026-03-29T10:23:08.767Z</time></trkpt><trkpt lat="42.829095" lon="13.5618817"><ele>484.0</ele><time>2026-03-29T10:23:10.767Z</time></trkpt><trkpt lat="42.8292083" lon="13.5618167"><ele>484.0</ele><time>2026-03-29T10:23:12.767Z</time></trkpt><trkpt lat="42.8293017" lon="13.5617183"><ele>484.0</ele><time>2026-03-29T10:23:14.767Z</time></trkpt><trkpt lat="42.8293717" lon="13.5616367"><ele>484.0</ele><time>2026-03-29T10:23:16.767Z</time></trkpt><trkpt lat="42.82943" lon="13.5615983"><ele>483.6666666666667</ele><time>2026-03-29T10:23:18.767Z</time></trkpt><trkpt lat="42.82949" lon="13.5616617"><ele>483.33333333333337</ele><time>2026-03-29T10:23:20.766Z</time></trkpt><trkpt lat="42.829595" lon="13.561765"><ele>483.0</ele><time>2026-03-29T10:23:22.767Z</time></trkpt><trkpt lat="42.829645" lon="13.5618383"><ele>482.66666666666663</ele><time>2026-03-29T10:23:23.767Z</time></trkpt><trkpt lat="42.829695" lon="13.56192"><ele>482.3333333333333</ele><time>2026-03-29T10:23:24.767Z</time></trkpt><trkpt lat="42.8297483" lon="13.562"><ele>482.0</ele><time>2026-03-29T10:23:25.767Z</time></trkpt><trkpt lat="42.8298083" lon="13.56208"><ele>483.66666666666663</ele><time>2026-03-29T10:23:26.766Z</time></trkpt><trkpt lat="42.8298683" lon="13.5621583"><ele>485.3333333333333</ele><time>2026-03-29T10:23:27.766Z</time></trkpt><trkpt lat="42.82994" lon="13.56224"><ele>487.0</ele><time>2026-03-29T10:23:28.767Z</time></trkpt><trkpt lat="42.8300033" lon="13.5623283"><ele>488.66666666666663</ele><time>2026-03-29T10:23:29.767Z</time></trkpt><trkpt lat="42.8300617" lon="13.5624183"><ele>490.3333333333333</ele><time>2026-03-29T10:23:30.767Z</time></trkpt><trkpt lat="42.83012" lon="13.5624867"><ele>492.0</ele><time>2026-03-29T10:23:31.767Z</time></trkpt><trkpt lat="42.83019" lon="13.5625283"><ele>492.0</ele><time>2026-03-29T10:23:32.766Z</time></trkpt><trkpt lat="42.8302683" lon="13.562565"><ele>492.0</ele><time>2026-03-29T10:23:33.767Z</time></trkpt><trkpt lat="42.8303417" lon="13.5625667"><ele>492.0</ele><time>2026-03-29T10:23:34.766Z</time></trkpt><trkpt lat="42.830405" lon="13.5625533"><ele>492.0</ele><time>2026-03-29T10:23:35.767Z</time></trkpt><trkpt lat="42.830475" lon="13.56254"><ele>492.0</ele><time>2026-03-29T10:23:36.767Z</time></trkpt><trkpt lat="42.83056" lon="13.5625383"><ele>492.0</ele><time>2026-03-29T10:23:37.767Z</time></trkpt><trkpt lat="42.8306517" lon="13.5625567"><ele>492.0</ele><time>2026-03-29T10:23:38.767Z</time></trkpt><trkpt lat="42.830745" lon="13.5625933"><ele>492.00000000000006</ele><time>2026-03-29T10:23:39.767Z</time></trkpt><trkpt lat="42.8308533" lon="13.5626483"><ele>492.00000000000006</ele><time>2026-03-29T10:23:40.767Z</time></trkpt><trkpt lat="42.8309567" lon="13.56269"><ele>492.0</ele><time>2026-03-29T10:23:41.767Z</time></trkpt><trkpt lat="42.831055" lon="13.56272"><ele>492.0</ele><time>2026-03-29T10:23:42.767Z</time></trkpt><trkpt lat="42.831145" lon="13.56274"><ele>492.3333333333333</ele><time>2026-03-29T10:23:43.767Z</time></trkpt><trkpt lat="42.8312317" lon="13.5627633"><ele>492.66666666666663</ele><time>2026-03-29T10:23:44.767Z</time></trkpt><trkpt lat="42.831315" lon="13.5627683"><ele>493.0</ele><time>2026-03-29T10:23:45.766Z</time></trkpt><trkpt lat="42.8313933" lon="13.5627583"><ele>493.3333333333333</ele><time>2026-03-29T10:23:46.765Z</time></trkpt><trkpt lat="42.83147" lon="13.5627633"><ele>493.66666666666663</ele><time>2026-03-29T10:23:47.766Z</time></trkpt><trkpt lat="42.8315333" lon="13.5627867"><ele>494.0</ele><time>2026-03-29T10:23:48.766Z</time></trkpt><trkpt lat="42.8316017" lon="13.562845"><ele>496.79999999999995</ele><time>2026-03-29T10:23:50.766Z</time></trkpt><trkpt lat="42.831675" lon="13.5629017"><ele>499.59999999999997</ele><time>2026-03-29T10:23:52.765Z</time></trkpt><trkpt lat="42.8317567" lon="13.562955"><ele>502.4</ele><time>2026-03-29T10:23:54.766Z</time></trkpt><trkpt lat="42.831845" lon="13.5629933"><ele>505.2</ele><time>2026-03-29T10:23:56.766Z</time></trkpt><trkpt lat="42.8319533" lon="13.5630133"><ele>508.0</ele><time>2026-03-29T10:23:58.766Z</time></trkpt><trkpt lat="42.8320383" lon="13.5630317"><ele>508.00000000000006</ele><time>2026-03-29T10:24:00.766Z</time></trkpt><trkpt lat="42.832125" lon="13.5630867"><ele>508.0</ele><time>2026-03-29T10:24:02.766Z</time></trkpt><trkpt lat="42.832215" lon="13.5631217"><ele>508.0</ele><time>2026-03-29T10:24:04.765Z</time></trkpt><trkpt lat="42.8322933" lon="13.5631667"><ele>508.0</ele><time>2026-03-29T10:24:06.766Z</time></trkpt><trkpt lat="42.8323667" lon="13.5631917"><ele>508.00000000000006</ele><time>2026-03-29T10:24:09.765Z</time></trkpt><trkpt lat="42.8324283" lon="13.5632433"><ele>508.0</ele><time>2026-03-29T10:24:11.766Z</time></trkpt><trkpt lat="42.832495" lon="13.56334"><ele>508.00000000000006</ele><time>2026-03-29T10:24:13.766Z</time></trkpt><trkpt lat="42.8325683" lon="13.5634067"><ele>508.0</ele><time>2026-03-29T10:24:15.766Z</time></trkpt><trkpt lat="42.8326617" lon="13.5634367"><ele>508.0</ele><time>2026-03-29T10:24:17.766Z</time></trkpt><trkpt lat="42.8327483" lon="13.5634683"><ele>508.0</ele><time>2026-03-29T10:24:19.766Z</time></trkpt><trkpt lat="42.8328017" lon="13.5635183"><ele>508.00000000000006</ele><time>2026-03-29T10:24:21.766Z</time></trkpt><trkpt lat="42.8328083" lon="13.5636467"><ele>508.0</ele><time>2026-03-29T10:24:24.766Z</time></trkpt><trkpt lat="42.832775" lon="13.5637267"><ele>506.1666666666667</ele><time>2026-03-29T10:24:26.766Z</time></trkpt><trkpt lat="42.8327167" lon="13.5638233"><ele>504.33333333333337</ele><time>2026-03-29T10:24:28.766Z</time></trkpt><trkpt lat="42.83269" lon="13.5639267"><ele>502.5</ele><time>2026-03-29T10:24:30.766Z</time></trkpt><trkpt lat="42.8327183" lon="13.5640183"><ele>500.66666666666663</ele><time>2026-03-29T10:24:32.766Z</time></trkpt><trkpt lat="42.8327367" lon="13.564135"><ele>498.8333333333333</ele><time>2026-03-29T10:24:34.766Z</time></trkpt><trkpt lat="42.8327833" lon="13.56426"><ele>497.0</ele><time>2026-03-29T10:24:36.766Z</time></trkpt><trkpt lat="42.83282" lon="13.5643317"><ele>496.99999999999994</ele><time>2026-03-29T10:24:37.766Z</time></trkpt><trkpt lat="42.8328567" lon="13.564405"><ele>497.0</ele><time>2026-03-29T10:24:38.766Z</time></trkpt><trkpt lat="42.8329183" lon="13.56453"><ele>497.0</ele><time>2026-03-29T10:24:40.765Z</time></trkpt><trkpt lat="42.8329983" lon="13.5646167"><ele>497.0</ele><time>2026-03-29T10:24:42.765Z</time></trkpt><trkpt lat="42.8330617" lon="13.5646417"><ele>496.99999999999994</ele><time>2026-03-29T10:24:43.766Z</time></trkpt><trkpt lat="42.8331417" lon="13.5646667"><ele>497.0</ele><time>2026-03-29T10:24:44.766Z</time></trkpt><trkpt lat="42.8332083" lon="13.5646833"><ele>500.6</ele><time>2026-03-29T10:24:45.765Z</time></trkpt><trkpt lat="42.833315" lon="13.5646833"><ele>504.20000000000005</ele><time>2026-03-29T10:24:47.766Z</time></trkpt><trkpt lat="42.833395" lon="13.56469"><ele>507.8</ele><time>2026-03-29T10:24:49.766Z</time></trkpt><trkpt lat="42.8335117" lon="13.56472"><ele>511.4</ele><time>2026-03-29T10:24:51.766Z</time></trkpt><trkpt lat="42.8335983" lon="13.5647417"><ele>515.0</ele><time>2026-03-29T10:24:52.766Z</time></trkpt><trkpt lat="42.8336917" lon="13.5647633"><ele>515.0</ele><time>2026-03-29T10:24:53.766Z</time></trkpt><trkpt lat="42.8337833" lon="13.5647667"><ele>515.0</ele><time>2026-03-29T10:24:54.765Z</time></trkpt><trkpt lat="42.8338617" lon="13.564795"><ele>515.0</ele><time>2026-03-29T10:24:55.766Z</time></trkpt><trkpt lat="42.8339233" lon="13.5648333"><ele>515.0</ele><time>2026-03-29T10:24:56.766Z</time></trkpt><trkpt lat="42.833995" lon="13.56487"><ele>515.0</ele><time>2026-03-29T10:24:57.766Z</time></trkpt><trkpt lat="42.8340617" lon="13.5649167"><ele>515.0</ele><time>2026-03-29T10:24:58.766Z</time></trkpt><trkpt lat="42.8341267" lon="13.5649483"><ele>515.0</ele><time>2026-03-29T10:24:59.766Z</time></trkpt><trkpt lat="42.8341933" lon="13.5649533"><ele>515.0</ele><time>2026-03-29T10:25:00.765Z</time></trkpt><trkpt lat="42.83426" lon="13.5649333"><ele>515.0</ele><time>2026-03-29T10:25:01.766Z</time></trkpt><trkpt lat="42.8343367" lon="13.5648867"><ele>515.0</ele><time>2026-03-29T10:25:02.766Z</time></trkpt><trkpt lat="42.8344267" lon="13.5648333"><ele>515.0</ele><time>2026-03-29T10:25:03.766Z</time></trkpt><trkpt lat="42.8345017" lon="13.5647833"><ele>515.0</ele><time>2026-03-29T10:25:04.766Z</time></trkpt><trkpt lat="42.8345683" lon="13.5647467"><ele>515.3333333333333</ele><time>2026-03-29T10:25:05.766Z</time></trkpt><trkpt lat="42.834635" lon="13.5647283"><ele>515.6666666666666</ele><time>2026-03-29T10:25:06.766Z</time></trkpt><trkpt lat="42.8346967" lon="13.56475"><ele>516.0</ele><time>2026-03-29T10:25:07.766Z</time></trkpt><trkpt lat="42.8347617" lon="13.5647917"><ele>516.3333333333334</ele><time>2026-03-29T10:25:08.766Z</time></trkpt><trkpt lat="42.8348417" lon="13.56485"><ele>516.6666666666667</ele><time>2026-03-29T10:25:09.766Z</time></trkpt><trkpt lat="42.8349167" lon="13.5649233"><ele>517.0</ele><time>2026-03-29T10:25:10.766Z</time></trkpt><trkpt lat="42.8349667" lon="13.5650033"><ele>517.0</ele><time>2026-03-29T10:25:11.766Z</time></trkpt><trkpt lat="42.8349983" lon="13.5651033"><ele>517.0</ele><time>2026-03-29T10:25:12.766Z</time></trkpt><trkpt lat="42.8350283" lon="13.56522"><ele>517.0</ele><time>2026-03-29T10:25:13.766Z</time></trkpt><trkpt lat="42.8350467" lon="13.5653183"><ele>517.0</ele><time>2026-03-29T10:25:14.765Z</time></trkpt><trkpt lat="42.8351267" lon="13.5654383"><ele>517.0</ele><time>2026-03-29T10:25:16.766Z</time></trkpt><trkpt lat="42.8351933" lon="13.5655"><ele>517.0</ele><time>2026-03-29T10:25:17.766Z</time></trkpt><trkpt lat="42.8352933" lon="13.5655683"><ele>517.6</ele><time>2026-03-29T10:25:18.766Z</time></trkpt><trkpt lat="42.8353967" lon="13.5656317"><ele>518.2</ele><time>2026-03-29T10:25:19.765Z</time></trkpt><trkpt lat="42.8354833" lon="13.5656933"><ele>518.8</ele><time>2026-03-29T10:25:20.766Z</time></trkpt><trkpt lat="42.8355317" lon="13.5657533"><ele>519.4</ele><time>2026-03-29T10:25:21.766Z</time></trkpt><trkpt lat="42.8355683" lon="13.565895"><ele>520.0</ele><time>2026-03-29T10:25:23.766Z</time></trkpt><trkpt lat="42.8355833" lon="13.5659917"><ele>520.0</ele><time>2026-03-29T10:25:25.766Z</time></trkpt><trkpt lat="42.8356783" lon="13.5661117"><ele>520.0</ele><time>2026-03-29T10:25:27.766Z</time></trkpt><trkpt lat="42.8357583" lon="13.5662033"><ele>520.0</ele><time>2026-03-29T10:25:28.766Z</time></trkpt><trkpt lat="42.8358383" lon="13.5663283"><ele>520.0</ele><time>2026-03-29T10:25:29.766Z</time></trkpt><trkpt lat="42.8358983" lon="13.5664533"><ele>520.8333333333334</ele><time>2026-03-29T10:25:30.766Z</time></trkpt><trkpt lat="42.8359417" lon="13.5665783"><ele>521.6666666666667</ele><time>2026-03-29T10:25:31.766Z</time></trkpt><trkpt lat="42.835955" lon="13.566665"><ele>522.5</ele><time>2026-03-29T10:25:32.766Z</time></trkpt><trkpt lat="42.83595" lon="13.5667933"><ele>523.3333333333334</ele><time>2026-03-29T10:25:33.766Z</time></trkpt><trkpt lat="42.835925" lon="13.5669233"><ele>524.1666666666666</ele><time>2026-03-29T10:25:34.766Z</time></trkpt><trkpt lat="42.8359067" lon="13.5670433"><ele>525.0</ele><time>2026-03-29T10:25:35.766Z</time></trkpt><trkpt lat="42.835905" lon="13.567155"><ele>526.0</ele><time>2026-03-29T10:25:36.766Z</time></trkpt><trkpt lat="42.835925" lon="13.5672783"><ele>527.0</ele><time>2026-03-29T10:25:37.766Z</time></trkpt><trkpt lat="42.83595" lon="13.5674167"><ele>528.0</ele><time>2026-03-29T10:25:38.766Z</time></trkpt><trkpt lat="42.8359767" lon="13.5675483"><ele>529.0</ele><time>2026-03-29T10:25:39.766Z</time></trkpt><trkpt lat="42.836005" lon="13.5676617"><ele>530.0</ele><time>2026-03-29T10:25:40.766Z</time></trkpt><trkpt lat="42.83602" lon="13.5677567"><ele>531.1666666666666</ele><time>2026-03-29T10:25:41.765Z</time></trkpt><trkpt lat="42.8360183" lon="13.5678517"><ele>532.3333333333333</ele><time>2026-03-29T10:25:42.766Z</time></trkpt><trkpt lat="42.8359783" lon="13.5680133"><ele>533.5</ele><time>2026-03-29T10:25:44.766Z</time></trkpt><trkpt lat="42.8359567" lon="13.5681183"><ele>534.6666666666666</ele><time>2026-03-29T10:25:45.766Z</time></trkpt><trkpt lat="42.8359417" lon="13.5682283"><ele>535.8333333333334</ele><time>2026-03-29T10:25:46.766Z</time></trkpt><trkpt lat="42.8359367" lon="13.5683317"><ele>537.0</ele><time>2026-03-29T10:25:47.766Z</time></trkpt><trkpt lat="42.8359417" lon="13.5684283"><ele>537.0</ele><time>2026-03-29T10:25:48.766Z</time></trkpt><trkpt lat="42.8359467" lon="13.5685433"><ele>537.0</ele><time>2026-03-29T10:25:49.766Z</time></trkpt><trkpt lat="42.83595" lon="13.5686817"><ele>537.0</ele><time>2026-03-29T10:25:50.766Z</time></trkpt><trkpt lat="42.8359433" lon="13.5688333"><ele>537.0</ele><time>2026-03-29T10:25:51.766Z</time></trkpt><trkpt lat="42.835925" lon="13.5689833"><ele>537.0</ele><time>2026-03-29T10:25:52.766Z</time></trkpt><trkpt lat="42.83591" lon="13.5691167"><ele>536.6666666666666</ele><time>2026-03-29T10:25:53.766Z</time></trkpt><trkpt lat="42.8359067" lon="13.569225"><ele>536.3333333333334</ele><time>2026-03-29T10:25:54.766Z</time></trkpt><trkpt lat="42.835895" lon="13.569325"><ele>536.0</ele><time>2026-03-29T10:25:55.766Z</time></trkpt><trkpt lat="42.8358733" lon="13.5694183"><ele>535.6666666666667</ele><time>2026-03-29T10:25:56.766Z</time></trkpt><trkpt lat="42.8358367" lon="13.5695133"><ele>535.3333333333334</ele><time>2026-03-29T10:25:57.766Z</time></trkpt><trkpt lat="42.8358" lon="13.5696217"><ele>535.0</ele><time>2026-03-29T10:25:58.765Z</time></trkpt><trkpt lat="42.83578" lon="13.5697483"><ele>534.0</ele><time>2026-03-29T10:25:59.766Z</time></trkpt><trkpt lat="42.8358017" lon="13.5699133"><ele>533.0</ele><time>2026-03-29T10:26:00.766Z</time></trkpt><trkpt lat="42.8358283" lon="13.5700633"><ele>532.0</ele><time>2026-03-29T10:26:01.765Z</time></trkpt><trkpt lat="42.83584" lon="13.5701883"><ele>531.0</ele><time>2026-03-29T10:26:02.766Z</time></trkpt><trkpt lat="42.8358467" lon="13.5703183"><ele>530.0</ele><time>2026-03-29T10:26:03.766Z</time></trkpt><trkpt lat="42.8358417" lon="13.5704817"><ele>529.6</ele><time>2026-03-29T10:26:04.766Z</time></trkpt><trkpt lat="42.8358383" lon="13.5706467"><ele>529.2</ele><time>2026-03-29T10:26:05.766Z</time></trkpt><trkpt lat="42.8358317" lon="13.5708017"><ele>528.8</ele><time>2026-03-29T10:26:06.766Z</time></trkpt><trkpt lat="42.83581" lon="13.5709283"><ele>528.4</ele><time>2026-03-29T10:26:07.766Z</time></trkpt><trkpt lat="42.8357717" lon="13.5710483"><ele>528.0</ele><time>2026-03-29T10:26:08.766Z</time></trkpt><trkpt lat="42.83573" lon="13.5711483"><ele>527.3333333333334</ele><time>2026-03-29T10:26:09.765Z</time></trkpt><trkpt lat="42.8356883" lon="13.5712383"><ele>526.6666666666666</ele><time>2026-03-29T10:26:10.766Z</time></trkpt><trkpt lat="42.8356767" lon="13.57137"><ele>526.0</ele><time>2026-03-29T10:26:12.766Z</time></trkpt><trkpt lat="42.8357233" lon="13.5714683"><ele>525.3333333333333</ele><time>2026-03-29T10:26:14.766Z</time></trkpt><trkpt lat="42.8357767" lon="13.5715517"><ele>524.6666666666666</ele><time>2026-03-29T10:26:16.766Z</time></trkpt><trkpt lat="42.8357933" lon="13.5716433"><ele>524.0</ele><time>2026-03-29T10:26:18.766Z</time></trkpt><trkpt lat="42.83583" lon="13.57174"><ele>524.0</ele><time>2026-03-29T10:26:20.765Z</time></trkpt><trkpt lat="42.8358933" lon="13.5718283"><ele>524.0</ele><time>2026-03-29T10:26:22.766Z</time></trkpt><trkpt lat="42.8359517" lon="13.5719117"><ele>524.0</ele><time>2026-03-29T10:26:24.766Z</time></trkpt><trkpt lat="42.8360167" lon="13.5719817"><ele>524.0</ele><time>2026-03-29T10:26:26.766Z</time></trkpt><trkpt lat="42.8360817" lon="13.57205"><ele>524.0</ele><time>2026-03-29T10:26:28.766Z</time></trkpt><trkpt lat="42.8361617" lon="13.572105"><ele>524.0</ele><time>2026-03-29T10:26:30.766Z</time></trkpt><trkpt lat="42.83625" lon="13.572135"><ele>520.0</ele><time>2026-03-29T10:26:32.766Z</time></trkpt><trkpt lat="42.8363417" lon="13.5721667"><ele>516.0</ele><time>2026-03-29T10:26:34.766Z</time></trkpt><trkpt lat="42.836425" lon="13.5722533"><ele>512.0</ele><time>2026-03-29T10:26:36.766Z</time></trkpt><trkpt lat="42.8365133" lon="13.5723833"><ele>508.0</ele><time>2026-03-29T10:26:38.765Z</time></trkpt><trkpt lat="42.8365533" lon="13.5724717"><ele>504.0</ele><time>2026-03-29T10:26:39.765Z</time></trkpt><trkpt lat="42.8365867" lon="13.5725783"><ele>504.0</ele><time>2026-03-29T10:26:40.766Z</time></trkpt><trkpt lat="42.8365983" lon="13.57269"><ele>504.0</ele><time>2026-03-29T10:26:41.765Z</time></trkpt><trkpt lat="42.836585" lon="13.5728167"><ele>504.0</ele><time>2026-03-29T10:26:42.766Z</time></trkpt><trkpt lat="42.8365617" lon="13.5729517"><ele>504.0</ele><time>2026-03-29T10:26:43.766Z</time></trkpt><trkpt lat="42.8365367" lon="13.5730833"><ele>504.0</ele><time>2026-03-29T10:26:44.766Z</time></trkpt><trkpt lat="42.836515" lon="13.5732233"><ele>504.0</ele><time>2026-03-29T10:26:45.766Z</time></trkpt><trkpt lat="42.836515" lon="13.573355"><ele>504.0</ele><time>2026-03-29T10:26:46.766Z</time></trkpt><trkpt lat="42.8365383" lon="13.5734767"><ele>504.0</ele><time>2026-03-29T10:26:47.765Z</time></trkpt><trkpt lat="42.8365767" lon="13.573585"><ele>504.0</ele><time>2026-03-29T10:26:48.766Z</time></trkpt><trkpt lat="42.83662" lon="13.57368"><ele>504.0</ele><time>2026-03-29T10:26:49.766Z</time></trkpt><trkpt lat="42.8366683" lon="13.5737617"><ele>504.0</ele><time>2026-03-29T10:26:50.766Z</time></trkpt><trkpt lat="42.83671" lon="13.5738367"><ele>504.0</ele><time>2026-03-29T10:26:51.766Z</time></trkpt><trkpt lat="42.8367483" lon="13.5739117"><ele>504.0</ele><time>2026-03-29T10:26:52.765Z</time></trkpt><trkpt lat="42.8367917" lon="13.5739867"><ele>504.0</ele><time>2026-03-29T10:26:53.765Z</time></trkpt><trkpt lat="42.83684" lon="13.5740483"><ele>504.0</ele><time>2026-03-29T10:26:54.766Z</time></trkpt><trkpt lat="42.8368867" lon="13.5741117"><ele>504.0</ele><time>2026-03-29T10:26:55.766Z</time></trkpt><trkpt lat="42.8369283" lon="13.5741917"><ele>504.0</ele><time>2026-03-29T10:26:56.766Z</time></trkpt><trkpt lat="42.8369967" lon="13.57432"><ele>501.0</ele><time>2026-03-29T10:26:58.766Z</time></trkpt><trkpt lat="42.8370467" lon="13.574375"><ele>498.0</ele><time>2026-03-29T10:27:01.766Z</time></trkpt><trkpt lat="42.8370817" lon="13.5744633"><ele>495.0</ele><time>2026-03-29T10:27:10.766Z</time></trkpt><trkpt lat="42.837035" lon="13.5746033"><ele>492.0</ele><time>2026-03-29T10:27:12.766Z</time></trkpt><trkpt lat="42.8370083" lon="13.574695"><ele>489.0</ele><time>2026-03-29T10:27:13.766Z</time></trkpt><trkpt lat="42.836985" lon="13.5747933"><ele>486.0</ele><time>2026-03-29T10:27:14.765Z</time></trkpt><trkpt lat="42.8369767" lon="13.5749233"><ele>486.0</ele><time>2026-03-29T10:27:16.766Z</time></trkpt><trkpt lat="42.8369933" lon="13.5750267"><ele>486.0</ele><time>2026-03-29T10:27:18.766Z</time></trkpt><trkpt lat="42.836985" lon="13.5751567"><ele>486.0</ele><time>2026-03-29T10:27:20.766Z</time></trkpt><trkpt lat="42.8369617" lon="13.5752967"><ele>486.0</ele><time>2026-03-29T10:27:22.765Z</time></trkpt><trkpt lat="42.8369483" lon="13.5754117"><ele>486.0</ele><time>2026-03-29T10:27:24.766Z</time></trkpt><trkpt lat="42.8369517" lon="13.5755217"><ele>486.0</ele><time>2026-03-29T10:27:26.766Z</time></trkpt><trkpt lat="42.836945" lon="13.57563"><ele>485.3333333333333</ele><time>2026-03-29T10:27:28.766Z</time></trkpt><trkpt lat="42.83692" lon="13.57577"><ele>484.66666666666663</ele><time>2026-03-29T10:27:30.766Z</time></trkpt><trkpt lat="42.8369267" lon="13.5758933"><ele>484.0</ele><time>2026-03-29T10:27:32.766Z</time></trkpt><trkpt lat="42.836965" lon="13.5759667"><ele>483.3333333333333</ele><time>2026-03-29T10:27:34.766Z</time></trkpt><trkpt lat="42.83699" lon="13.5760533"><ele>482.66666666666663</ele><time>2026-03-29T10:27:36.766Z</time></trkpt><trkpt lat="42.8370217" lon="13.57618"><ele>482.0</ele><time>2026-03-29T10:27:38.765Z</time></trkpt><trkpt lat="42.8370467" lon="13.5763267"><ele>480.8</ele><time>2026-03-29T10:27:40.766Z</time></trkpt><trkpt lat="42.8370467" lon="13.5764667"><ele>479.6</ele><time>2026-03-29T10:27:42.766Z</time></trkpt><trkpt lat="42.8370133" lon="13.5765917"><ele>478.40000000000003</ele><time>2026-03-29T10:27:44.764Z</time></trkpt><trkpt lat="42.8369933" lon="13.57673"><ele>477.20000000000005</ele><time>2026-03-29T10:27:46.765Z</time></trkpt><trkpt lat="42.8369933" lon="13.57685"><ele>476.0</ele><time>2026-03-29T10:27:48.764Z</time></trkpt><trkpt lat="42.8369733" lon="13.5769767"><ele>475.6</ele><time>2026-03-29T10:27:50.764Z</time></trkpt><trkpt lat="42.8369417" lon="13.5771283"><ele>475.20000000000005</ele><time>2026-03-29T10:27:52.765Z</time></trkpt><trkpt lat="42.8369217" lon="13.5772917"><ele>474.79999999999995</ele><time>2026-03-29T10:27:54.765Z</time></trkpt><trkpt lat="42.8369233" lon="13.5773933"><ele>474.4</ele><time>2026-03-29T10:27:55.765Z</time></trkpt><trkpt lat="42.8369367" lon="13.5774817"><ele>474.0</ele><time>2026-03-29T10:27:56.765Z</time></trkpt><trkpt lat="42.8369783" lon="13.5776167"><ele>474.0</ele><time>2026-03-29T10:27:58.765Z</time></trkpt><trkpt lat="42.8370117" lon="13.577745"><ele>474.0</ele><time>2026-03-29T10:28:00.764Z</time></trkpt><trkpt lat="42.8370733" lon="13.577895"><ele>474.0</ele><time>2026-03-29T10:28:02.765Z</time></trkpt><trkpt lat="42.8371083" lon="13.5779783"><ele>474.0</ele><time>2026-03-29T10:28:03.765Z</time></trkpt><trkpt lat="42.8371367" lon="13.5780583"><ele>474.0</ele><time>2026-03-29T10:28:04.765Z</time></trkpt><trkpt lat="42.8371667" lon="13.578215"><ele>473.79999999999995</ele><time>2026-03-29T10:28:06.765Z</time></trkpt><trkpt lat="42.83718" lon="13.57832"><ele>473.59999999999997</ele><time>2026-03-29T10:28:07.765Z</time></trkpt><trkpt lat="42.8372" lon="13.57845"><ele>473.4</ele><time>2026-03-29T10:28:08.765Z</time></trkpt><trkpt lat="42.837215" lon="13.57858"><ele>473.2</ele><time>2026-03-29T10:28:09.765Z</time></trkpt><trkpt lat="42.83722" lon="13.57871"><ele>473.0</ele><time>2026-03-29T10:28:10.765Z</time></trkpt><trkpt lat="42.83722" lon="13.578825"><ele>472.99999999999994</ele><time>2026-03-29T10:28:11.765Z</time></trkpt><trkpt lat="42.8372183" lon="13.57893"><ele>473.0</ele><time>2026-03-29T10:28:12.765Z</time></trkpt><trkpt lat="42.83721" lon="13.5790233"><ele>473.0</ele><time>2026-03-29T10:28:13.765Z</time></trkpt><trkpt lat="42.8371883" lon="13.5791233"><ele>473.0</ele><time>2026-03-29T10:28:14.765Z</time></trkpt><trkpt lat="42.83717" lon="13.57922"><ele>472.99999999999994</ele><time>2026-03-29T10:28:15.765Z</time></trkpt><trkpt lat="42.8371533" lon="13.579305"><ele>473.0</ele><time>2026-03-29T10:28:16.765Z</time></trkpt><trkpt lat="42.8371233" lon="13.579455"><ele>472.2</ele><time>2026-03-29T10:28:18.765Z</time></trkpt><trkpt lat="42.8370933" lon="13.5795633"><ele>471.4</ele><time>2026-03-29T10:28:20.764Z</time></trkpt><trkpt lat="42.83709" lon="13.57967"><ele>470.59999999999997</ele><time>2026-03-29T10:28:22.765Z</time></trkpt><trkpt lat="42.8370483" lon="13.579815"><ele>469.79999999999995</ele><time>2026-03-29T10:28:24.765Z</time></trkpt><trkpt lat="42.8370033" lon="13.5799167"><ele>469.0</ele><time>2026-03-29T10:28:25.765Z</time></trkpt><trkpt lat="42.8369533" lon="13.580025"><ele>469.0</ele><time>2026-03-29T10:28:26.765Z</time></trkpt><trkpt lat="42.836905" lon="13.58016"><ele>469.0</ele><time>2026-03-29T10:28:27.765Z</time></trkpt><trkpt lat="42.8368467" lon="13.5802983"><ele>469.0</ele><time>2026-03-29T10:28:28.765Z</time></trkpt><trkpt lat="42.8367867" lon="13.5804383"><ele>469.0</ele><time>2026-03-29T10:28:29.764Z</time></trkpt><trkpt lat="42.8367217" lon="13.5805817"><ele>473.25</ele><time>2026-03-29T10:28:30.765Z</time></trkpt><trkpt lat="42.836655" lon="13.580735"><ele>477.5</ele><time>2026-03-29T10:28:31.765Z</time></trkpt><trkpt lat="42.8366017" lon="13.580905"><ele>481.75</ele><time>2026-03-29T10:28:32.765Z</time></trkpt><trkpt lat="42.8365617" lon="13.5810933"><ele>486.0</ele><time>2026-03-29T10:28:33.765Z</time></trkpt><trkpt lat="42.8365383" lon="13.5812817"><ele>486.0</ele><time>2026-03-29T10:28:34.765Z</time></trkpt><trkpt lat="42.8365367" lon="13.5814633"><ele>486.0</ele><time>2026-03-29T10:28:35.764Z</time></trkpt><trkpt lat="42.8365417" lon="13.581645"><ele>486.0</ele><time>2026-03-29T10:28:36.764Z</time></trkpt><trkpt lat="42.8365417" lon="13.581825"><ele>486.0</ele><time>2026-03-29T10:28:37.765Z</time></trkpt><trkpt lat="42.8365417" lon="13.581995"><ele>487.0</ele><time>2026-03-29T10:28:38.765Z</time></trkpt><trkpt lat="42.836545" lon="13.5821583"><ele>488.0</ele><time>2026-03-29T10:28:39.765Z</time></trkpt><trkpt lat="42.8365467" lon="13.5823167"><ele>489.0</ele><time>2026-03-29T10:28:40.765Z</time></trkpt><trkpt lat="42.8365517" lon="13.5824867"><ele>490.0</ele><time>2026-03-29T10:28:41.765Z</time></trkpt><trkpt lat="42.8365517" lon="13.5826417"><ele>490.0</ele><time>2026-03-29T10:28:42.764Z</time></trkpt><trkpt lat="42.8365483" lon="13.5827983"><ele>490.0</ele><time>2026-03-29T10:28:43.765Z</time></trkpt><trkpt lat="42.8365433" lon="13.582955"><ele>490.0</ele><time>2026-03-29T10:28:44.765Z</time></trkpt><trkpt lat="42.8365367" lon="13.5831217"><ele>490.0</ele><time>2026-03-29T10:28:45.765Z</time></trkpt><trkpt lat="42.8365183" lon="13.5832883"><ele>489.5</ele><time>2026-03-29T10:28:46.765Z</time></trkpt><trkpt lat="42.8364817" lon="13.5834617"><ele>489.0</ele><time>2026-03-29T10:28:47.764Z</time></trkpt><trkpt lat="42.8364317" lon="13.5836267"><ele>488.5</ele><time>2026-03-29T10:28:48.765Z</time></trkpt><trkpt lat="42.8363733" lon="13.5837783"><ele>488.0</ele><time>2026-03-29T10:28:49.765Z</time></trkpt><trkpt lat="42.836295" lon="13.5839083"><ele>486.5</ele><time>2026-03-29T10:28:50.765Z</time></trkpt><trkpt lat="42.836195" lon="13.5840117"><ele>485.0</ele><time>2026-03-29T10:28:51.765Z</time></trkpt><trkpt lat="42.8360833" lon="13.5841017"><ele>483.5</ele><time>2026-03-29T10:28:52.765Z</time></trkpt><trkpt lat="42.8359683" lon="13.5841933"><ele>482.0</ele><time>2026-03-29T10:28:53.765Z</time></trkpt><trkpt lat="42.8358533" lon="13.584285"><ele>485.25</ele><time>2026-03-29T10:28:54.765Z</time></trkpt><trkpt lat="42.8357383" lon="13.58437"><ele>488.5</ele><time>2026-03-29T10:28:55.765Z</time></trkpt><trkpt lat="42.8356117" lon="13.584435"><ele>491.75</ele><time>2026-03-29T10:28:56.765Z</time></trkpt><trkpt lat="42.8354833" lon="13.584475"><ele>495.0</ele><time>2026-03-29T10:28:57.765Z</time></trkpt><trkpt lat="42.83535" lon="13.5844767"><ele>495.0</ele><time>2026-03-29T10:28:58.765Z</time></trkpt><trkpt lat="42.8352067" lon="13.5844833"><ele>495.0</ele><time>2026-03-29T10:28:59.765Z</time></trkpt><trkpt lat="42.835065" lon="13.5845233"><ele>495.0</ele><time>2026-03-29T10:29:00.765Z</time></trkpt><trkpt lat="42.8349317" lon="13.5845967"><ele>495.0</ele><time>2026-03-29T10:29:01.765Z</time></trkpt><trkpt lat="42.8348067" lon="13.58471"><ele>492.75</ele><time>2026-03-29T10:29:02.765Z</time></trkpt><trkpt lat="42.83469" lon="13.5848383"><ele>490.5</ele><time>2026-03-29T10:29:03.765Z</time></trkpt><trkpt lat="42.8345783" lon="13.58496"><ele>488.25</ele><time>2026-03-29T10:29:04.765Z</time></trkpt><trkpt lat="42.8344583" lon="13.585085"><ele>486.0</ele><time>2026-03-29T10:29:05.765Z</time></trkpt><trkpt lat="42.8343417" lon="13.5852117"><ele>488.0</ele><time>2026-03-29T10:29:06.764Z</time></trkpt><trkpt lat="42.8342217" lon="13.5853317"><ele>490.0</ele><time>2026-03-29T10:29:07.765Z</time></trkpt><trkpt lat="42.8341067" lon="13.58544"><ele>492.0</ele><time>2026-03-29T10:29:08.765Z</time></trkpt><trkpt lat="42.8339917" lon="13.5855633"><ele>494.0</ele><time>2026-03-29T10:29:09.765Z</time></trkpt><trkpt lat="42.8338783" lon="13.5856783"><ele>494.0</ele><time>2026-03-29T10:29:10.765Z</time></trkpt><trkpt lat="42.8337717" lon="13.5858017"><ele>494.0</ele><time>2026-03-29T10:29:11.765Z</time></trkpt><trkpt lat="42.833665" lon="13.5859183"><ele>494.0</ele><time>2026-03-29T10:29:12.765Z</time></trkpt><trkpt lat="42.833555" lon="13.5860233"><ele>494.0</ele><time>2026-03-29T10:29:13.765Z</time></trkpt><trkpt lat="42.8334533" lon="13.58613"><ele>496.75</ele><time>2026-03-29T10:29:14.765Z</time></trkpt><trkpt lat="42.8333433" lon="13.586235"><ele>499.5</ele><time>2026-03-29T10:29:15.765Z</time></trkpt><trkpt lat="42.8332333" lon="13.5863467"><ele>502.25</ele><time>2026-03-29T10:29:16.764Z</time></trkpt><trkpt lat="42.8331217" lon="13.5864517"><ele>505.0</ele><time>2026-03-29T10:29:17.765Z</time></trkpt><trkpt lat="42.833015" lon="13.5865633"><ele>505.0</ele><time>2026-03-29T10:29:18.765Z</time></trkpt><trkpt lat="42.8329433" lon="13.5866933"><ele>505.0</ele><time>2026-03-29T10:29:19.765Z</time></trkpt><trkpt lat="42.8329017" lon="13.586845"><ele>505.0</ele><time>2026-03-29T10:29:20.765Z</time></trkpt><trkpt lat="42.8329133" lon="13.5870067"><ele>505.0</ele><time>2026-03-29T10:29:21.765Z</time></trkpt><trkpt lat="42.832975" lon="13.5871667"><ele>506.25</ele><time>2026-03-29T10:29:22.765Z</time></trkpt><trkpt lat="42.833065" lon="13.58731"><ele>507.5</ele><time>2026-03-29T10:29:23.764Z</time></trkpt><trkpt lat="42.8331667" lon="13.5874433"><ele>508.75</ele><time>2026-03-29T10:29:24.765Z</time></trkpt><trkpt lat="42.8332683" lon="13.58756"><ele>510.0</ele><time>2026-03-29T10:29:25.765Z</time></trkpt><trkpt lat="42.8333833" lon="13.5876633"><ele>507.0</ele><time>2026-03-29T10:29:26.765Z</time></trkpt><trkpt lat="42.8335133" lon="13.587755"><ele>504.0</ele><time>2026-03-29T10:29:27.764Z</time></trkpt><trkpt lat="42.8336383" lon="13.5878267"><ele>501.0</ele><time>2026-03-29T10:29:28.765Z</time></trkpt><trkpt lat="42.8337683" lon="13.587895"><ele>498.0</ele><time>2026-03-29T10:29:29.765Z</time></trkpt><trkpt lat="42.833895" lon="13.5879633"><ele>499.5</ele><time>2026-03-29T10:29:30.765Z</time></trkpt><trkpt lat="42.8340183" lon="13.588035"><ele>501.0</ele><time>2026-03-29T10:29:31.765Z</time></trkpt><trkpt lat="42.8341367" lon="13.5881133"><ele>502.5</ele><time>2026-03-29T10:29:32.764Z</time></trkpt><trkpt lat="42.8342483" lon="13.588185"><ele>504.0</ele><time>2026-03-29T10:29:33.765Z</time></trkpt><trkpt lat="42.83436" lon="13.5882367"><ele>504.0</ele><time>2026-03-29T10:29:34.764Z</time></trkpt><trkpt lat="42.8344683" lon="13.588265"><ele>504.0</ele><time>2026-03-29T10:29:35.764Z</time></trkpt><trkpt lat="42.8345567" lon="13.5882783"><ele>504.0</ele><time>2026-03-29T10:29:36.765Z</time></trkpt><trkpt lat="42.8346467" lon="13.5882817"><ele>504.0</ele><time>2026-03-29T10:29:37.765Z</time></trkpt><trkpt lat="42.8347133" lon="13.5882867"><ele>504.0</ele><time>2026-03-29T10:29:38.764Z</time></trkpt><trkpt lat="42.834785" lon="13.5882867"><ele>504.0</ele><time>2026-03-29T10:29:39.764Z</time></trkpt><trkpt lat="42.8348467" lon="13.5883083"><ele>504.0</ele><time>2026-03-29T10:29:40.765Z</time></trkpt><trkpt lat="42.8349367" lon="13.5884033"><ele>504.0</ele><time>2026-03-29T10:29:42.765Z</time></trkpt><trkpt lat="42.8349783" lon="13.5884817"><ele>504.0</ele><time>2026-03-29T10:29:43.765Z</time></trkpt><trkpt lat="42.8350033" lon="13.5885767"><ele>504.0</ele><time>2026-03-29T10:29:44.765Z</time></trkpt><trkpt lat="42.8350083" lon="13.58867"><ele>504.0</ele><time>2026-03-29T10:29:45.765Z</time></trkpt><trkpt lat="42.8349867" lon="13.5887683"><ele>504.0</ele><time>2026-03-29T10:29:46.765Z</time></trkpt><trkpt lat="42.8349333" lon="13.5888617"><ele>503.0</ele><time>2026-03-29T10:29:47.765Z</time></trkpt><trkpt lat="42.8348417" lon="13.5889667"><ele>502.0</ele><time>2026-03-29T10:29:48.765Z</time></trkpt><trkpt lat="42.8347417" lon="13.5890933"><ele>501.0</ele><time>2026-03-29T10:29:49.765Z</time></trkpt><trkpt lat="42.8346283" lon="13.589225"><ele>500.0</ele><time>2026-03-29T10:29:50.764Z</time></trkpt><trkpt lat="42.8345317" lon="13.589345"><ele>500.0</ele><time>2026-03-29T10:29:51.765Z</time></trkpt><trkpt lat="42.83445" lon="13.5894517"><ele>500.0</ele><time>2026-03-29T10:29:52.764Z</time></trkpt><trkpt lat="42.8343667" lon="13.58954"><ele>500.0</ele><time>2026-03-29T10:29:53.765Z</time></trkpt><trkpt lat="42.834285" lon="13.5896433"><ele>500.0</ele><time>2026-03-29T10:29:54.765Z</time></trkpt><trkpt lat="42.834215" lon="13.58977"><ele>500.0</ele><time>2026-03-29T10:29:55.765Z</time></trkpt><trkpt lat="42.834155" lon="13.589905"><ele>500.66666666666663</ele><time>2026-03-29T10:29:56.765Z</time></trkpt><trkpt lat="42.834105" lon="13.590025"><ele>501.3333333333333</ele><time>2026-03-29T10:29:57.765Z</time></trkpt><trkpt lat="42.8340633" lon="13.5901283"><ele>502.0</ele><time>2026-03-29T10:29:58.764Z</time></trkpt><trkpt lat="42.8340283" lon="13.590225"><ele>502.66666666666663</ele><time>2026-03-29T10:29:59.764Z</time></trkpt><trkpt lat="42.8339983" lon="13.5903083"><ele>503.3333333333333</ele><time>2026-03-29T10:30:00.765Z</time></trkpt><trkpt lat="42.83397" lon="13.5904317"><ele>504.0</ele><time>2026-03-29T10:30:02.765Z</time></trkpt><trkpt lat="42.8340617" lon="13.590435"><ele>504.0</ele><time>2026-03-29T10:30:05.764Z</time></trkpt><trkpt lat="42.8341183" lon="13.590395"><ele>504.0</ele><time>2026-03-29T10:30:06.765Z</time></trkpt><trkpt lat="42.83419" lon="13.5903567"><ele>504.0</ele><time>2026-03-29T10:30:07.765Z</time></trkpt><trkpt lat="42.8342817" lon="13.5903217"><ele>504.0</ele><time>2026-03-29T10:30:08.764Z</time></trkpt><trkpt lat="42.8343817" lon="13.5902967"><ele>504.0</ele><time>2026-03-29T10:30:09.765Z</time></trkpt><trkpt lat="42.8344967" lon="13.59028"><ele>500.79999999999995</ele><time>2026-03-29T10:30:10.765Z</time></trkpt><trkpt lat="42.8346017" lon="13.590255"><ele>497.59999999999997</ele><time>2026-03-29T10:30:11.765Z</time></trkpt><trkpt lat="42.8346783" lon="13.5902417"><ele>494.4</ele><time>2026-03-29T10:30:12.765Z</time></trkpt><trkpt lat="42.8347783" lon="13.5902583"><ele>491.2</ele><time>2026-03-29T10:30:13.764Z</time></trkpt><trkpt lat="42.83487" lon="13.5903017"><ele>488.0</ele><time>2026-03-29T10:30:14.765Z</time></trkpt><trkpt lat="42.8349567" lon="13.5903433"><ele>486.0</ele><time>2026-03-29T10:30:15.765Z</time></trkpt><trkpt lat="42.83507" lon="13.5903817"><ele>483.99999999999994</ele><time>2026-03-29T10:30:16.765Z</time></trkpt><trkpt lat="42.8351733" lon="13.590415"><ele>481.99999999999994</ele><time>2026-03-29T10:30:17.765Z</time></trkpt><trkpt lat="42.8352717" lon="13.5904583"><ele>480.0</ele><time>2026-03-29T10:30:18.765Z</time></trkpt><trkpt lat="42.8353667" lon="13.590485"><ele>478.0</ele><time>2026-03-29T10:30:19.765Z</time></trkpt><trkpt lat="42.835455" lon="13.5904817"><ele>475.0</ele><time>2026-03-29T10:30:20.765Z</time></trkpt><trkpt lat="42.835555" lon="13.5904567"><ele>471.99999999999994</ele><time>2026-03-29T10:30:21.765Z</time></trkpt><trkpt lat="42.8356617" lon="13.5904467"><ele>468.99999999999994</ele><time>2026-03-29T10:30:22.765Z</time></trkpt><trkpt lat="42.835765" lon="13.5904717"><ele>466.0</ele><time>2026-03-29T10:30:23.765Z</time></trkpt><trkpt lat="42.83586" lon="13.5905283"><ele>463.0</ele><time>2026-03-29T10:30:24.765Z</time></trkpt><trkpt lat="42.8359417" lon="13.5905967"><ele>460.00000000000006</ele><time>2026-03-29T10:30:25.765Z</time></trkpt><trkpt lat="42.8360067" lon="13.5906533"><ele>457.0</ele><time>2026-03-29T10:30:26.765Z</time></trkpt><trkpt lat="42.8361233" lon="13.5906683"><ele>454.0</ele><time>2026-03-29T10:30:28.765Z</time></trkpt><trkpt lat="42.836185" lon="13.5906183"><ele>451.0</ele><time>2026-03-29T10:30:29.765Z</time></trkpt><trkpt lat="42.8362517" lon="13.59055"><ele>448.00000000000006</ele><time>2026-03-29T10:30:30.765Z</time></trkpt><trkpt lat="42.8363217" lon="13.5904717"><ele>445.0</ele><time>2026-03-29T10:30:31.765Z</time></trkpt><trkpt lat="42.836385" lon="13.5903733"><ele>445.33333333333337</ele><time>2026-03-29T10:30:32.765Z</time></trkpt><trkpt lat="42.836455" lon="13.5902867"><ele>445.6666666666667</ele><time>2026-03-29T10:30:33.765Z</time></trkpt><trkpt lat="42.8365267" lon="13.5902267"><ele>446.0</ele><time>2026-03-29T10:30:34.764Z</time></trkpt><trkpt lat="42.83659" lon="13.5901883"><ele>446.33333333333337</ele><time>2026-03-29T10:30:35.765Z</time></trkpt><trkpt lat="42.8366817" lon="13.5901767"><ele>446.6666666666667</ele><time>2026-03-29T10:30:36.764Z</time></trkpt><trkpt lat="42.836785" lon="13.5902067"><ele>447.0</ele><time>2026-03-29T10:30:37.765Z</time></trkpt><trkpt lat="42.8368817" lon="13.5902767"><ele>442.0</ele><time>2026-03-29T10:30:38.765Z</time></trkpt><trkpt lat="42.83696" lon="13.5903783"><ele>437.00000000000006</ele><time>2026-03-29T10:30:39.765Z</time></trkpt><trkpt lat="42.837015" lon="13.5905"><ele>432.0</ele><time>2026-03-29T10:30:40.765Z</time></trkpt><trkpt lat="42.8370583" lon="13.590615"><ele>427.0</ele><time>2026-03-29T10:30:41.765Z</time></trkpt><trkpt lat="42.8370933" lon="13.5907183"><ele>422.0</ele><time>2026-03-29T10:30:42.765Z</time></trkpt><trkpt lat="42.8371117" lon="13.590805"><ele>422.0</ele><time>2026-03-29T10:30:43.765Z</time></trkpt><trkpt lat="42.8371483" lon="13.5909117"><ele>422.0</ele><time>2026-03-29T10:30:45.765Z</time></trkpt><trkpt lat="42.83724" lon="13.5908117"><ele>422.0</ele><time>2026-03-29T10:30:48.765Z</time></trkpt><trkpt lat="42.8372667" lon="13.5907017"><ele>422.0</ele><time>2026-03-29T10:30:49.765Z</time></trkpt><trkpt lat="42.8372783" lon="13.5905733"><ele>422.0</ele><time>2026-03-29T10:30:50.765Z</time></trkpt><trkpt lat="42.8372983" lon="13.59047"><ele>421.99999999999994</ele><time>2026-03-29T10:30:51.765Z</time></trkpt><trkpt lat="42.8373683" lon="13.590425"><ele>422.0</ele><time>2026-03-29T10:30:53.765Z</time></trkpt><trkpt lat="42.8374317" lon="13.590475"><ele>422.0</ele><time>2026-03-29T10:30:54.765Z</time></trkpt><trkpt lat="42.8375117" lon="13.5905683"><ele>422.0</ele><time>2026-03-29T10:30:55.765Z</time></trkpt><trkpt lat="42.8375733" lon="13.590675"><ele>421.99999999999994</ele><time>2026-03-29T10:30:56.765Z</time></trkpt><trkpt lat="42.837625" lon="13.5907367"><ele>422.0</ele><time>2026-03-29T10:30:57.765Z</time></trkpt><trkpt lat="42.837715" lon="13.5907233"><ele>415.25</ele><time>2026-03-29T10:30:59.765Z</time></trkpt><trkpt lat="42.8377633" lon="13.5906333"><ele>408.5</ele><time>2026-03-29T10:31:00.765Z</time></trkpt><trkpt lat="42.8378067" lon="13.5904933"><ele>401.75</ele><time>2026-03-29T10:31:01.765Z</time></trkpt><trkpt lat="42.8378433" lon="13.5902983"><ele>395.0</ele><time>2026-03-29T10:31:02.765Z</time></trkpt><trkpt lat="42.8378733" lon="13.5900617"><ele>394.75</ele><time>2026-03-29T10:31:03.765Z</time></trkpt><trkpt lat="42.8379083" lon="13.5898633"><ele>394.5</ele><time>2026-03-29T10:31:04.765Z</time></trkpt><trkpt lat="42.8379417" lon="13.589725"><ele>394.25</ele><time>2026-03-29T10:31:05.765Z</time></trkpt><trkpt lat="42.8379733" lon="13.58963"><ele>394.0</ele><time>2026-03-29T10:31:06.765Z</time></trkpt><trkpt lat="42.8380817" lon="13.58956"><ele>394.0</ele><time>2026-03-29T10:31:08.765Z</time></trkpt><trkpt lat="42.838145" lon="13.5895833"><ele>394.0</ele><time>2026-03-29T10:31:09.765Z</time></trkpt><trkpt lat="42.8382183" lon="13.589645"><ele>394.0</ele><time>2026-03-29T10:31:10.765Z</time></trkpt><trkpt lat="42.838295" lon="13.589735"><ele>394.0</ele><time>2026-03-29T10:31:11.765Z</time></trkpt><trkpt lat="42.83837" lon="13.589865"><ele>394.0</ele><time>2026-03-29T10:31:12.765Z</time></trkpt><trkpt lat="42.8384317" lon="13.59004"><ele>385.6666666666667</ele><time>2026-03-29T10:31:13.765Z</time></trkpt><trkpt lat="42.83848" lon="13.59027"><ele>377.33333333333337</ele><time>2026-03-29T10:31:14.765Z</time></trkpt><trkpt lat="42.838535" lon="13.5904717"><ele>369.0</ele><time>2026-03-29T10:31:15.765Z</time></trkpt><trkpt lat="42.838595" lon="13.590665"><ele>369.0</ele><time>2026-03-29T10:31:16.765Z</time></trkpt><trkpt lat="42.8386583" lon="13.5908367"><ele>369.0</ele><time>2026-03-29T10:31:17.765Z</time></trkpt><trkpt lat="42.838725" lon="13.5909983"><ele>369.0</ele><time>2026-03-29T10:31:18.765Z</time></trkpt><trkpt lat="42.8387917" lon="13.5911583"><ele>369.0</ele><time>2026-03-29T10:31:19.765Z</time></trkpt><trkpt lat="42.83886" lon="13.5913017"><ele>368.0</ele><time>2026-03-29T10:31:20.764Z</time></trkpt><trkpt lat="42.838925" lon="13.591435"><ele>367.0</ele><time>2026-03-29T10:31:21.765Z</time></trkpt><trkpt lat="42.8389833" lon="13.5915433"><ele>366.0</ele><time>2026-03-29T10:31:22.765Z</time></trkpt><trkpt lat="42.8390267" lon="13.5916333"><ele>365.0</ele><time>2026-03-29T10:31:23.765Z</time></trkpt><trkpt lat="42.8390583" lon="13.5917117"><ele>364.0</ele><time>2026-03-29T10:31:24.765Z</time></trkpt><trkpt lat="42.839115" lon="13.5917633"><ele>363.0</ele><time>2026-03-29T10:31:26.764Z</time></trkpt><trkpt lat="42.8392117" lon="13.5916517"><ele>363.0</ele><time>2026-03-29T10:31:28.765Z</time></trkpt><trkpt lat="42.8392983" lon="13.5915383"><ele>363.0</ele><time>2026-03-29T10:31:29.765Z</time></trkpt><trkpt lat="42.8393983" lon="13.5914317"><ele>363.0</ele><time>2026-03-29T10:31:30.765Z</time></trkpt><trkpt lat="42.83951" lon="13.5913617"><ele>363.0</ele><time>2026-03-29T10:31:31.765Z</time></trkpt><trkpt lat="42.8396267" lon="13.5913517"><ele>359.0</ele><time>2026-03-29T10:31:32.765Z</time></trkpt><trkpt lat="42.83976" lon="13.5913717"><ele>355.0</ele><time>2026-03-29T10:31:33.765Z</time></trkpt><trkpt lat="42.8398983" lon="13.5914217"><ele>351.0</ele><time>2026-03-29T10:31:34.765Z</time></trkpt><trkpt lat="42.840015" lon="13.5914783"><ele>347.0</ele><time>2026-03-29T10:31:35.765Z</time></trkpt><trkpt lat="42.8401217" lon="13.5915133"><ele>344.6666666666667</ele><time>2026-03-29T10:31:36.765Z</time></trkpt><trkpt lat="42.840225" lon="13.591525"><ele>342.33333333333337</ele><time>2026-03-29T10:31:37.765Z</time></trkpt><trkpt lat="42.8403067" lon="13.5915183"><ele>340.0</ele><time>2026-03-29T10:31:38.765Z</time></trkpt><trkpt lat="42.8403883" lon="13.59151"><ele>337.6666666666667</ele><time>2026-03-29T10:31:39.765Z</time></trkpt><trkpt lat="42.8404567" lon="13.5915083"><ele>335.3333333333333</ele><time>2026-03-29T10:31:40.765Z</time></trkpt><trkpt lat="42.8405317" lon="13.59153"><ele>333.0</ele><time>2026-03-29T10:31:41.765Z</time></trkpt><trkpt lat="42.8406083" lon="13.5915917"><ele>333.0</ele><time>2026-03-29T10:31:42.764Z</time></trkpt><trkpt lat="42.8406683" lon="13.5917067"><ele>333.0</ele><time>2026-03-29T10:31:43.765Z</time></trkpt><trkpt lat="42.8407283" lon="13.591815"><ele>333.0</ele><time>2026-03-29T10:31:44.765Z</time></trkpt><trkpt lat="42.84079" lon="13.5919217"><ele>333.0</ele><time>2026-03-29T10:31:45.765Z</time></trkpt><trkpt lat="42.840855" lon="13.59202"><ele>333.0</ele><time>2026-03-29T10:31:46.765Z</time></trkpt><trkpt lat="42.8409183" lon="13.59212"><ele>328.1666666666667</ele><time>2026-03-29T10:31:47.765Z</time></trkpt><trkpt lat="42.8409767" lon="13.5922117"><ele>323.3333333333333</ele><time>2026-03-29T10:31:48.765Z</time></trkpt><trkpt lat="42.8410283" lon="13.5923"><ele>318.5</ele><time>2026-03-29T10:31:49.765Z</time></trkpt><trkpt lat="42.8410817" lon="13.592375"><ele>313.66666666666663</ele><time>2026-03-29T10:31:50.764Z</time></trkpt><trkpt lat="42.8411417" lon="13.592435"><ele>308.8333333333333</ele><time>2026-03-29T10:31:51.765Z</time></trkpt><trkpt lat="42.8412033" lon="13.59247"><ele>304.0</ele><time>2026-03-29T10:31:52.764Z</time></trkpt><trkpt lat="42.8412717" lon="13.5924833"><ele>304.0</ele><time>2026-03-29T10:31:53.765Z</time></trkpt><trkpt lat="42.8413467" lon="13.5924417"><ele>304.0</ele><time>2026-03-29T10:31:54.765Z</time></trkpt><trkpt lat="42.8414267" lon="13.5923783"><ele>304.0</ele><time>2026-03-29T10:31:55.765Z</time></trkpt><trkpt lat="42.8414983" lon="13.5922917"><ele>304.0</ele><time>2026-03-29T10:31:56.765Z</time></trkpt><trkpt lat="42.841565" lon="13.5922117"><ele>304.0</ele><time>2026-03-29T10:31:57.765Z</time></trkpt><trkpt lat="42.84162" lon="13.5921383"><ele>304.0</ele><time>2026-03-29T10:31:58.765Z</time></trkpt><trkpt lat="42.8416783" lon="13.5920517"><ele>304.8333333333333</ele><time>2026-03-29T10:31:59.765Z</time></trkpt><trkpt lat="42.841725" lon="13.591945"><ele>305.66666666666663</ele><time>2026-03-29T10:32:00.765Z</time></trkpt><trkpt lat="42.841765" lon="13.5918417"><ele>306.5</ele><time>2026-03-29T10:32:01.765Z</time></trkpt><trkpt lat="42.8417917" lon="13.5917417"><ele>307.3333333333333</ele><time>2026-03-29T10:32:02.764Z</time></trkpt><trkpt lat="42.8417783" lon="13.591655"><ele>308.1666666666667</ele><time>2026-03-29T10:32:03.764Z</time></trkpt><trkpt lat="42.8417333" lon="13.591505"><ele>309.0</ele><time>2026-03-29T10:32:05.764Z</time></trkpt><trkpt lat="42.8416333" lon="13.5914333"><ele>309.0</ele><time>2026-03-29T10:32:07.764Z</time></trkpt><trkpt lat="42.84152" lon="13.5913967"><ele>309.0</ele><time>2026-03-29T10:32:09.764Z</time></trkpt><trkpt lat="42.8414467" lon="13.5913067"><ele>309.0</ele><time>2026-03-29T10:32:11.764Z</time></trkpt><trkpt lat="42.8414517" lon="13.59117"><ele>309.0</ele><time>2026-03-29T10:32:13.764Z</time></trkpt><trkpt lat="42.8414867" lon="13.5910883"><ele>309.0</ele><time>2026-03-29T10:32:14.764Z</time></trkpt><trkpt lat="42.841585" lon="13.5909983"><ele>308.59999999999997</ele><time>2026-03-29T10:32:16.763Z</time></trkpt><trkpt lat="42.8416583" lon="13.5909833"><ele>308.2</ele><time>2026-03-29T10:32:17.764Z</time></trkpt><trkpt lat="42.84175" lon="13.5909783"><ele>307.79999999999995</ele><time>2026-03-29T10:32:18.764Z</time></trkpt><trkpt lat="42.84185" lon="13.590975"><ele>307.4</ele><time>2026-03-29T10:32:19.764Z</time></trkpt><trkpt lat="42.841955" lon="13.5909767"><ele>307.0</ele><time>2026-03-29T10:32:20.764Z</time></trkpt><trkpt lat="42.8420533" lon="13.590985"><ele>305.0</ele><time>2026-03-29T10:32:21.764Z</time></trkpt><trkpt lat="42.8421533" lon="13.5909917"><ele>303.0</ele><time>2026-03-29T10:32:22.764Z</time></trkpt><trkpt lat="42.842235" lon="13.5909883"><ele>301.0</ele><time>2026-03-29T10:32:23.764Z</time></trkpt><trkpt lat="42.8423217" lon="13.591"><ele>299.0</ele><time>2026-03-29T10:32:24.764Z</time></trkpt><trkpt lat="42.8424083" lon="13.59104"><ele>297.0</ele><time>2026-03-29T10:32:25.764Z</time></trkpt><trkpt lat="42.8424967" lon="13.5911117"><ele>294.6</ele><time>2026-03-29T10:32:26.764Z</time></trkpt><trkpt lat="42.8425883" lon="13.5912017"><ele>292.2</ele><time>2026-03-29T10:32:27.764Z</time></trkpt><trkpt lat="42.8426783" lon="13.5912733"><ele>289.8</ele><time>2026-03-29T10:32:28.764Z</time></trkpt><trkpt lat="42.8427733" lon="13.5913433"><ele>287.4</ele><time>2026-03-29T10:32:29.764Z</time></trkpt><trkpt lat="42.84287" lon="13.5914217"><ele>285.0</ele><time>2026-03-29T10:32:30.764Z</time></trkpt><trkpt lat="42.8429633" lon="13.5915067"><ele>284.3333333333333</ele><time>2026-03-29T10:32:31.764Z</time></trkpt><trkpt lat="42.8430417" lon="13.5915883"><ele>283.6666666666667</ele><time>2026-03-29T10:32:32.764Z</time></trkpt><trkpt lat="42.8431083" lon="13.591665"><ele>283.0</ele><time>2026-03-29T10:32:33.764Z</time></trkpt><trkpt lat="42.84316" lon="13.591745"><ele>282.33333333333337</ele><time>2026-03-29T10:32:34.764Z</time></trkpt><trkpt lat="42.8432067" lon="13.5918283"><ele>281.6666666666667</ele><time>2026-03-29T10:32:35.764Z</time></trkpt><trkpt lat="42.84325" lon="13.5919117"><ele>281.0</ele><time>2026-03-29T10:32:36.763Z</time></trkpt><trkpt lat="42.843295" lon="13.591985"><ele>279.0</ele><time>2026-03-29T10:32:37.764Z</time></trkpt><trkpt lat="42.8433433" lon="13.592045"><ele>277.0</ele><time>2026-03-29T10:32:38.764Z</time></trkpt><trkpt lat="42.843415" lon="13.5921683"><ele>275.0</ele><time>2026-03-29T10:32:40.764Z</time></trkpt><trkpt lat="42.8434433" lon="13.5922933"><ele>273.0</ele><time>2026-03-29T10:32:42.764Z</time></trkpt><trkpt lat="42.8434583" lon="13.5924317"><ele>271.0</ele><time>2026-03-29T10:32:44.764Z</time></trkpt><trkpt lat="42.8434867" lon="13.5925917"><ele>268.2</ele><time>2026-03-29T10:32:46.764Z</time></trkpt><trkpt lat="42.843515" lon="13.5927133"><ele>265.40000000000003</ele><time>2026-03-29T10:32:48.763Z</time></trkpt><trkpt lat="42.8436317" lon="13.5927683"><ele>262.6</ele><time>2026-03-29T10:32:51.764Z</time></trkpt><trkpt lat="42.843715" lon="13.5928167"><ele>259.8</ele><time>2026-03-29T10:32:53.764Z</time></trkpt><trkpt lat="42.8438117" lon="13.5928667"><ele>257.0</ele><time>2026-03-29T10:32:55.764Z</time></trkpt><trkpt lat="42.8439233" lon="13.5929467"><ele>255.39999999999998</ele><time>2026-03-29T10:32:57.763Z</time></trkpt><trkpt lat="42.8440267" lon="13.5930317"><ele>253.79999999999998</ele><time>2026-03-29T10:32:59.764Z</time></trkpt><trkpt lat="42.84413" lon="13.5930633"><ele>252.2</ele><time>2026-03-29T10:33:01.763Z</time></trkpt><trkpt lat="42.8442417" lon="13.593055"><ele>250.6</ele><time>2026-03-29T10:33:03.764Z</time></trkpt><trkpt lat="42.84434" lon="13.59304"><ele>249.0</ele><time>2026-03-29T10:33:05.764Z</time></trkpt><trkpt lat="42.8444217" lon="13.5930533"><ele>246.16666666666666</ele><time>2026-03-29T10:33:07.764Z</time></trkpt><trkpt lat="42.844495" lon="13.5930983"><ele>243.33333333333331</ele><time>2026-03-29T10:33:09.764Z</time></trkpt><trkpt lat="42.8445717" lon="13.593115"><ele>240.5</ele><time>2026-03-29T10:33:11.764Z</time></trkpt><trkpt lat="42.8446567" lon="13.593115"><ele>237.66666666666666</ele><time>2026-03-29T10:33:13.764Z</time></trkpt><trkpt lat="42.84474" lon="13.5930817"><ele>234.83333333333331</ele><time>2026-03-29T10:33:15.764Z</time></trkpt><trkpt lat="42.8448217" lon="13.5930883"><ele>232.0</ele><time>2026-03-29T10:33:17.764Z</time></trkpt><trkpt lat="42.8449033" lon="13.5930833"><ele>231.99999999999997</ele><time>2026-03-29T10:33:19.764Z</time></trkpt><trkpt lat="42.8449667" lon="13.5930533"><ele>232.0</ele><time>2026-03-29T10:33:21.764Z</time></trkpt><trkpt lat="42.8450517" lon="13.5930317"><ele>232.0</ele><time>2026-03-29T10:33:24.764Z</time></trkpt><trkpt lat="42.8451317" lon="13.5929933"><ele>232.0</ele><time>2026-03-29T10:33:27.764Z</time></trkpt><trkpt lat="42.8452133" lon="13.5930133"><ele>231.99999999999997</ele><time>2026-03-29T10:33:30.764Z</time></trkpt><trkpt lat="42.8453" lon="13.593095"><ele>232.0</ele><time>2026-03-29T10:33:32.763Z</time></trkpt><trkpt lat="42.845375" lon="13.5931417"><ele>228.99999999999997</ele><time>2026-03-29T10:33:34.764Z</time></trkpt><trkpt lat="42.8454517" lon="13.5930833"><ele>226.0</ele><time>2026-03-29T10:33:36.764Z</time></trkpt><trkpt lat="42.8455167" lon="13.59301"><ele>223.0</ele><time>2026-03-29T10:33:37.764Z</time></trkpt><trkpt lat="42.8455917" lon="13.592925"><ele>220.0</ele><time>2026-03-29T10:33:38.764Z</time></trkpt><trkpt lat="42.84566" lon="13.5928483"><ele>216.99999999999997</ele><time>2026-03-29T10:33:39.764Z</time></trkpt><trkpt lat="42.8457133" lon="13.59279"><ele>214.0</ele><time>2026-03-29T10:33:40.764Z</time></trkpt><trkpt lat="42.845795" lon="13.59272"><ele>213.99999999999997</ele><time>2026-03-29T10:33:42.764Z</time></trkpt><trkpt lat="42.8458717" lon="13.5927183"><ele>214.0</ele><time>2026-03-29T10:33:44.764Z</time></trkpt><trkpt lat="42.8459333" lon="13.5927567"><ele>214.0</ele><time>2026-03-29T10:33:45.763Z</time></trkpt><trkpt lat="42.84597" lon="13.5928383"><ele>214.0</ele><time>2026-03-29T10:33:46.764Z</time></trkpt><trkpt lat="42.84598" lon="13.5929367"><ele>213.99999999999997</ele><time>2026-03-29T10:33:47.764Z</time></trkpt><trkpt lat="42.84597" lon="13.5930533"><ele>214.0</ele><time>2026-03-29T10:33:48.764Z</time></trkpt><trkpt lat="42.8459467" lon="13.5931783"><ele>212.83333333333331</ele><time>2026-03-29T10:33:49.764Z</time></trkpt><trkpt lat="42.84592" lon="13.5933017"><ele>211.66666666666666</ele><time>2026-03-29T10:33:50.764Z</time></trkpt><trkpt lat="42.8458967" lon="13.5934267"><ele>210.5</ele><time>2026-03-29T10:33:51.764Z</time></trkpt><trkpt lat="42.8458767" lon="13.5935517"><ele>209.33333333333331</ele><time>2026-03-29T10:33:52.763Z</time></trkpt><trkpt lat="42.8458667" lon="13.5936683"><ele>208.16666666666666</ele><time>2026-03-29T10:33:53.764Z</time></trkpt><trkpt lat="42.8458783" lon="13.59376"><ele>207.0</ele><time>2026-03-29T10:33:54.763Z</time></trkpt><trkpt lat="42.845885" lon="13.5938533"><ele>205.83333333333334</ele><time>2026-03-29T10:33:55.764Z</time></trkpt><trkpt lat="42.8459033" lon="13.5939417"><ele>204.66666666666669</ele><time>2026-03-29T10:33:56.764Z</time></trkpt><trkpt lat="42.8459533" lon="13.5940067"><ele>203.5</ele><time>2026-03-29T10:33:57.764Z</time></trkpt><trkpt lat="42.84602" lon="13.5940417"><ele>202.33333333333334</ele><time>2026-03-29T10:33:58.764Z</time></trkpt><trkpt lat="42.8461033" lon="13.5940483"><ele>201.16666666666669</ele><time>2026-03-29T10:33:59.764Z</time></trkpt><trkpt lat="42.8461967" lon="13.5940317"><ele>200.0</ele><time>2026-03-29T10:34:00.764Z</time></trkpt><trkpt lat="42.8462883" lon="13.5939783"><ele>198.0</ele><time>2026-03-29T10:34:01.764Z</time></trkpt><trkpt lat="42.846375" lon="13.5938833"><ele>196.0</ele><time>2026-03-29T10:34:02.764Z</time></trkpt><trkpt lat="42.8464517" lon="13.593755"><ele>194.0</ele><time>2026-03-29T10:34:03.764Z</time></trkpt><trkpt lat="42.8465217" lon="13.5936217"><ele>192.0</ele><time>2026-03-29T10:34:04.763Z</time></trkpt><trkpt lat="42.8465783" lon="13.59351"><ele>192.0</ele><time>2026-03-29T10:34:05.764Z</time></trkpt><trkpt lat="42.8466217" lon="13.5934017"><ele>192.0</ele><time>2026-03-29T10:34:06.764Z</time></trkpt><trkpt lat="42.846655" lon="13.5932933"><ele>192.0</ele><time>2026-03-29T10:34:07.764Z</time></trkpt><trkpt lat="42.84669" lon="13.5931933"><ele>192.0</ele><time>2026-03-29T10:34:08.764Z</time></trkpt><trkpt lat="42.8467333" lon="13.59312"><ele>192.0</ele><time>2026-03-29T10:34:09.764Z</time></trkpt><trkpt lat="42.8468283" lon="13.5930233"><ele>192.0</ele><time>2026-03-29T10:34:11.763Z</time></trkpt><trkpt lat="42.84689" lon="13.593"><ele>190.28571428571428</ele><time>2026-03-29T10:34:12.764Z</time></trkpt><trkpt lat="42.84695" lon="13.59297"><ele>188.57142857142856</ele><time>2026-03-29T10:34:13.764Z</time></trkpt><trkpt lat="42.8470183" lon="13.5929367"><ele>186.85714285714283</ele><time>2026-03-29T10:34:14.764Z</time></trkpt><trkpt lat="42.8470883" lon="13.5928933"><ele>185.14285714285714</ele><time>2026-03-29T10:34:15.764Z</time></trkpt><trkpt lat="42.847145" lon="13.59284"><ele>183.42857142857144</ele><time>2026-03-29T10:34:16.764Z</time></trkpt><trkpt lat="42.847195" lon="13.592785"><ele>181.7142857142857</ele><time>2026-03-29T10:34:17.764Z</time></trkpt><trkpt lat="42.847245" lon="13.5927267"><ele>180.0</ele><time>2026-03-29T10:34:18.764Z</time></trkpt><trkpt lat="42.8473067" lon="13.5926733"><ele>180.0</ele><time>2026-03-29T10:34:19.764Z</time></trkpt><trkpt lat="42.8473617" lon="13.5926233"><ele>180.0</ele><time>2026-03-29T10:34:20.764Z</time></trkpt><trkpt lat="42.847455" lon="13.5925617"><ele>180.0</ele><time>2026-03-29T10:34:22.764Z</time></trkpt><trkpt lat="42.8475333" lon="13.59247"><ele>180.0</ele><time>2026-03-29T10:34:24.764Z</time></trkpt><trkpt lat="42.847575" lon="13.5923917"><ele>180.0</ele><time>2026-03-29T10:34:25.763Z</time></trkpt><trkpt lat="42.847625" lon="13.5923"><ele>180.0</ele><time>2026-03-29T10:34:26.764Z</time></trkpt><trkpt lat="42.84769" lon="13.592215"><ele>178.0</ele><time>2026-03-29T10:34:27.764Z</time></trkpt><trkpt lat="42.8477733" lon="13.59214"><ele>176.0</ele><time>2026-03-29T10:34:28.764Z</time></trkpt><trkpt lat="42.84787" lon="13.592065"><ele>174.0</ele><time>2026-03-29T10:34:29.764Z</time></trkpt><trkpt lat="42.8479867" lon="13.5919933"><ele>172.0</ele><time>2026-03-29T10:34:30.764Z</time></trkpt><trkpt lat="42.8481033" lon="13.5919167"><ele>170.75</ele><time>2026-03-29T10:34:31.764Z</time></trkpt><trkpt lat="42.8482067" lon="13.5918283"><ele>169.5</ele><time>2026-03-29T10:34:32.764Z</time></trkpt><trkpt lat="42.848315" lon="13.5917283"><ele>168.25</ele><time>2026-03-29T10:34:33.764Z</time></trkpt><trkpt lat="42.8484183" lon="13.5916233"><ele>167.0</ele><time>2026-03-29T10:34:34.764Z</time></trkpt><trkpt lat="42.8484967" lon="13.591515"><ele>166.0</ele><time>2026-03-29T10:34:35.764Z</time></trkpt><trkpt lat="42.848585" lon="13.591405"><ele>165.0</ele><time>2026-03-29T10:34:36.764Z</time></trkpt><trkpt lat="42.848675" lon="13.591295"><ele>164.0</ele><time>2026-03-29T10:34:37.764Z</time></trkpt><trkpt lat="42.8487617" lon="13.5911817"><ele>163.0</ele><time>2026-03-29T10:34:38.764Z</time></trkpt><trkpt lat="42.8488283" lon="13.5910617"><ele>162.75</ele><time>2026-03-29T10:34:39.764Z</time></trkpt><trkpt lat="42.8488917" lon="13.5909183"><ele>162.5</ele><time>2026-03-29T10:34:40.764Z</time></trkpt><trkpt lat="42.8489517" lon="13.59079"><ele>162.25</ele><time>2026-03-29T10:34:41.764Z</time></trkpt><trkpt lat="42.8490183" lon="13.5906733"><ele>162.0</ele><time>2026-03-29T10:34:42.764Z</time></trkpt><trkpt lat="42.8490917" lon="13.5905667"><ele>162.0</ele><time>2026-03-29T10:34:43.764Z</time></trkpt><trkpt lat="42.8491567" lon="13.59047"><ele>162.0</ele><time>2026-03-29T10:34:44.763Z</time></trkpt><trkpt lat="42.8492133" lon="13.5904067"><ele>162.0</ele><time>2026-03-29T10:34:45.764Z</time></trkpt><trkpt lat="42.84929" lon="13.5903583"><ele>162.0</ele><time>2026-03-29T10:34:47.764Z</time></trkpt><trkpt lat="42.84933" lon="13.5904617"><ele>162.0</ele><time>2026-03-29T10:34:49.764Z</time></trkpt><trkpt lat="42.849335" lon="13.590555"><ele>162.0</ele><time>2026-03-29T10:34:50.764Z</time></trkpt><trkpt lat="42.8493367" lon="13.5906617"><ele>160.6</ele><time>2026-03-29T10:34:51.764Z</time></trkpt><trkpt lat="42.84934" lon="13.5907533"><ele>159.2</ele><time>2026-03-29T10:34:52.764Z</time></trkpt><trkpt lat="42.8493317" lon="13.5908917"><ele>157.8</ele><time>2026-03-29T10:34:54.764Z</time></trkpt><trkpt lat="42.84932" lon="13.5909883"><ele>156.4</ele><time>2026-03-29T10:34:57.764Z</time></trkpt><trkpt lat="42.8493117" lon="13.5911167"><ele>155.0</ele><time>2026-03-29T10:36:09.763Z</time></trkpt><trkpt lat="42.849345" lon="13.5913117"><ele>155.0</ele><time>2026-03-29T10:36:11.763Z</time></trkpt><trkpt lat="42.8493617" lon="13.5914417"><ele>155.0</ele><time>2026-03-29T10:36:12.763Z</time></trkpt><trkpt lat="42.8493717" lon="13.5915933"><ele>155.0</ele><time>2026-03-29T10:36:13.763Z</time></trkpt><trkpt lat="42.849375" lon="13.591755"><ele>155.0</ele><time>2026-03-29T10:36:14.762Z</time></trkpt><trkpt lat="42.8493783" lon="13.5919083"><ele>155.0</ele><time>2026-03-29T10:36:15.763Z</time></trkpt><trkpt lat="42.8493783" lon="13.5920483"><ele>154.66666666666666</ele><time>2026-03-29T10:36:16.763Z</time></trkpt><trkpt lat="42.8493833" lon="13.5921817"><ele>154.33333333333331</ele><time>2026-03-29T10:36:17.762Z</time></trkpt><trkpt lat="42.84939" lon="13.5923083"><ele>154.0</ele><time>2026-03-29T10:36:18.763Z</time></trkpt><trkpt lat="42.8494" lon="13.5924267"><ele>153.66666666666666</ele><time>2026-03-29T10:36:19.763Z</time></trkpt><trkpt lat="42.8494267" lon="13.592545"><ele>153.33333333333334</ele><time>2026-03-29T10:36:20.763Z</time></trkpt><trkpt lat="42.8494533" lon="13.5926483"><ele>153.0</ele><time>2026-03-29T10:36:21.763Z</time></trkpt><trkpt lat="42.8494883" lon="13.5927733"><ele>153.4</ele><time>2026-03-29T10:36:23.763Z</time></trkpt><trkpt lat="42.84947" lon="13.59286"><ele>153.8</ele><time>2026-03-29T10:36:26.763Z</time></trkpt><trkpt lat="42.8493617" lon="13.592935"><ele>154.2</ele><time>2026-03-29T10:36:28.762Z</time></trkpt><trkpt lat="42.8492633" lon="13.5929833"><ele>154.6</ele><time>2026-03-29T10:36:29.763Z</time></trkpt><trkpt lat="42.8491733" lon="13.5930467"><ele>155.0</ele><time>2026-03-29T10:36:30.763Z</time></trkpt><trkpt lat="42.84909" lon="13.5931083"><ele>155.0</ele><time>2026-03-29T10:36:31.762Z</time></trkpt><trkpt lat="42.84901" lon="13.5931783"><ele>155.0</ele><time>2026-03-29T10:36:32.763Z</time></trkpt><trkpt lat="42.8489267" lon="13.5932483"><ele>155.0</ele><time>2026-03-29T10:36:33.763Z</time></trkpt><trkpt lat="42.84884" lon="13.5933267"><ele>155.0</ele><time>2026-03-29T10:36:34.763Z</time></trkpt><trkpt lat="42.8487533" lon="13.5934233"><ele>155.0</ele><time>2026-03-29T10:36:35.763Z</time></trkpt><trkpt lat="42.8486617" lon="13.5935167"><ele>155.0</ele><time>2026-03-29T10:36:36.763Z</time></trkpt><trkpt lat="42.8485633" lon="13.5936133"><ele>155.0</ele><time>2026-03-29T10:36:37.763Z</time></trkpt><trkpt lat="42.84846" lon="13.5937033"><ele>155.0</ele><time>2026-03-29T10:36:38.763Z</time></trkpt><trkpt lat="42.8483533" lon="13.5938033"><ele>155.0</ele><time>2026-03-29T10:36:39.762Z</time></trkpt><trkpt lat="42.8482467" lon="13.59391"><ele>155.5</ele><time>2026-03-29T10:36:40.763Z</time></trkpt><trkpt lat="42.8481367" lon="13.59402"><ele>156.0</ele><time>2026-03-29T10:36:41.763Z</time></trkpt><trkpt lat="42.8480183" lon="13.5941233"><ele>156.5</ele><time>2026-03-29T10:36:42.763Z</time></trkpt><trkpt lat="42.8478933" lon="13.5942267"><ele>157.0</ele><time>2026-03-29T10:36:43.763Z</time></trkpt><trkpt lat="42.84777" lon="13.5943417"><ele>157.0</ele><time>2026-03-29T10:36:44.763Z</time></trkpt><trkpt lat="42.8476467" lon="13.5944583"><ele>157.0</ele><time>2026-03-29T10:36:45.763Z</time></trkpt><trkpt lat="42.8475317" lon="13.594595"><ele>157.0</ele><time>2026-03-29T10:36:46.763Z</time></trkpt><trkpt lat="42.8474283" lon="13.5947367"><ele>157.0</ele><time>2026-03-29T10:36:47.763Z</time></trkpt><trkpt lat="42.8473383" lon="13.5948867"><ele>156.5</ele><time>2026-03-29T10:36:48.763Z</time></trkpt><trkpt lat="42.847265" lon="13.5950517"><ele>156.0</ele><time>2026-03-29T10:36:49.763Z</time></trkpt><trkpt lat="42.8472" lon="13.5952183"><ele>155.5</ele><time>2026-03-29T10:36:50.763Z</time></trkpt><trkpt lat="42.8471267" lon="13.5953717"><ele>155.0</ele><time>2026-03-29T10:36:51.763Z</time></trkpt><trkpt lat="42.847045" lon="13.5955183"><ele>155.0</ele><time>2026-03-29T10:36:52.763Z</time></trkpt><trkpt lat="42.84695" lon="13.5956467"><ele>155.0</ele><time>2026-03-29T10:36:53.763Z</time></trkpt><trkpt lat="42.8468367" lon="13.5957533"><ele>155.0</ele><time>2026-03-29T10:36:54.763Z</time></trkpt><trkpt lat="42.8467" lon="13.5958483"><ele>155.0</ele><time>2026-03-29T10:36:55.763Z</time></trkpt><trkpt lat="42.84657" lon="13.5959283"><ele>155.5</ele><time>2026-03-29T10:36:56.763Z</time></trkpt><trkpt lat="42.846445" lon="13.5960183"><ele>156.0</ele><time>2026-03-29T10:36:57.763Z</time></trkpt><trkpt lat="42.8463267" lon="13.5961317"><ele>156.5</ele><time>2026-03-29T10:36:58.763Z</time></trkpt><trkpt lat="42.846215" lon="13.5962617"><ele>157.0</ele><time>2026-03-29T10:36:59.763Z</time></trkpt><trkpt lat="42.8461" lon="13.5964033"><ele>157.0</ele><time>2026-03-29T10:37:00.763Z</time></trkpt><trkpt lat="42.8459817" lon="13.59654"><ele>157.0</ele><time>2026-03-29T10:37:01.762Z</time></trkpt><trkpt lat="42.84586" lon="13.5966717"><ele>157.0</ele><time>2026-03-29T10:37:02.763Z</time></trkpt><trkpt lat="42.8457333" lon="13.5967983"><ele>162.0</ele><time>2026-03-29T10:37:03.763Z</time></trkpt><trkpt lat="42.8456033" lon="13.5969217"><ele>167.0</ele><time>2026-03-29T10:37:04.763Z</time></trkpt><trkpt lat="42.8454767" lon="13.5970333"><ele>172.0</ele><time>2026-03-29T10:37:05.763Z</time></trkpt><trkpt lat="42.845345" lon="13.5971283"><ele>172.0</ele><time>2026-03-29T10:37:06.762Z</time></trkpt><trkpt lat="42.8452067" lon="13.59719"><ele>172.0</ele><time>2026-03-29T10:37:07.763Z</time></trkpt><trkpt lat="42.845055" lon="13.59723"><ele>172.0</ele><time>2026-03-29T10:37:08.763Z</time></trkpt><trkpt lat="42.8449017" lon="13.59727"><ele>174.75</ele><time>2026-03-29T10:37:09.762Z</time></trkpt><trkpt lat="42.8447567" lon="13.5973517"><ele>177.5</ele><time>2026-03-29T10:37:10.763Z</time></trkpt><trkpt lat="42.8446217" lon="13.5974567"><ele>180.25</ele><time>2026-03-29T10:37:11.763Z</time></trkpt><trkpt lat="42.8445033" lon="13.5975483"><ele>183.0</ele><time>2026-03-29T10:37:12.763Z</time></trkpt><trkpt lat="42.84437" lon="13.5976183"><ele>185.75</ele><time>2026-03-29T10:37:13.763Z</time></trkpt><trkpt lat="42.844225" lon="13.5976483"><ele>188.5</ele><time>2026-03-29T10:37:14.763Z</time></trkpt><trkpt lat="42.8440817" lon="13.5976683"><ele>191.25</ele><time>2026-03-29T10:37:15.763Z</time></trkpt><trkpt lat="42.8439633" lon="13.5976883"><ele>194.0</ele><time>2026-03-29T10:37:16.763Z</time></trkpt><trkpt lat="42.8438583" lon="13.59771"><ele>194.00000000000003</ele><time>2026-03-29T10:37:17.763Z</time></trkpt><trkpt lat="42.8437783" lon="13.5977583"><ele>194.0</ele><time>2026-03-29T10:37:18.763Z</time></trkpt><trkpt lat="42.8437217" lon="13.5978467"><ele>194.0</ele><time>2026-03-29T10:37:19.762Z</time></trkpt><trkpt lat="42.8436917" lon="13.5979633"><ele>194.0</ele><time>2026-03-29T10:37:20.762Z</time></trkpt><trkpt lat="42.8436933" lon="13.5980717"><ele>194.00000000000003</ele><time>2026-03-29T10:37:21.762Z</time></trkpt><trkpt lat="42.8437233" lon="13.598185"><ele>194.0</ele><time>2026-03-29T10:37:22.763Z</time></trkpt><trkpt lat="42.8437683" lon="13.59826"><ele>194.39999999999998</ele><time>2026-03-29T10:37:23.762Z</time></trkpt><trkpt lat="42.8438267" lon="13.598305"><ele>194.8</ele><time>2026-03-29T10:37:24.763Z</time></trkpt><trkpt lat="42.843925" lon="13.5983183"><ele>195.2</ele><time>2026-03-29T10:37:25.763Z</time></trkpt><trkpt lat="42.8440383" lon="13.5983417"><ele>195.60000000000002</ele><time>2026-03-29T10:37:26.763Z</time></trkpt><trkpt lat="42.84416" lon="13.5984033"><ele>196.0</ele><time>2026-03-29T10:37:27.763Z</time></trkpt><trkpt lat="42.8442617" lon="13.598495"><ele>196.25</ele><time>2026-03-29T10:37:28.762Z</time></trkpt><trkpt lat="42.8443667" lon="13.5986117"><ele>196.5</ele><time>2026-03-29T10:37:29.763Z</time></trkpt><trkpt lat="42.8444433" lon="13.59877"><ele>196.75</ele><time>2026-03-29T10:37:30.763Z</time></trkpt><trkpt lat="42.8444833" lon="13.5989467"><ele>197.0</ele><time>2026-03-29T10:37:31.763Z</time></trkpt><trkpt lat="42.8445" lon="13.599145"><ele>197.0</ele><time>2026-03-29T10:37:32.762Z</time></trkpt><trkpt lat="42.8444783" lon="13.5993467"><ele>197.0</ele><time>2026-03-29T10:37:33.763Z</time></trkpt><trkpt lat="42.84443" lon="13.5995217"><ele>197.0</ele><time>2026-03-29T10:37:34.763Z</time></trkpt><trkpt lat="42.844355" lon="13.59969"><ele>197.0</ele><time>2026-03-29T10:37:35.763Z</time></trkpt><trkpt lat="42.844285" lon="13.5998717"><ele>199.33333333333334</ele><time>2026-03-29T10:37:36.763Z</time></trkpt><trkpt lat="42.844225" lon="13.6000583"><ele>201.66666666666669</ele><time>2026-03-29T10:37:37.763Z</time></trkpt><trkpt lat="42.844165" lon="13.6002567"><ele>204.0</ele><time>2026-03-29T10:37:38.763Z</time></trkpt><trkpt lat="42.8441167" lon="13.600445"><ele>204.5</ele><time>2026-03-29T10:37:39.762Z</time></trkpt><trkpt lat="42.8440583" lon="13.6006117"><ele>205.0</ele><time>2026-03-29T10:37:40.763Z</time></trkpt><trkpt lat="42.8439767" lon="13.6007567"><ele>205.5</ele><time>2026-03-29T10:37:41.763Z</time></trkpt><trkpt lat="42.8438667" lon="13.6008717"><ele>206.0</ele><time>2026-03-29T10:37:42.763Z</time></trkpt><trkpt lat="42.8437267" lon="13.6009533"><ele>206.0</ele><time>2026-03-29T10:37:43.763Z</time></trkpt><trkpt lat="42.8435767" lon="13.6010117"><ele>206.0</ele><time>2026-03-29T10:37:44.763Z</time></trkpt><trkpt lat="42.8434217" lon="13.6010517"><ele>206.0</ele><time>2026-03-29T10:37:45.763Z</time></trkpt><trkpt lat="42.8432617" lon="13.6011017"><ele>205.0</ele><time>2026-03-29T10:37:46.763Z</time></trkpt><trkpt lat="42.8431133" lon="13.6011567"><ele>204.0</ele><time>2026-03-29T10:37:47.763Z</time></trkpt><trkpt lat="42.8429633" lon="13.6012117"><ele>203.0</ele><time>2026-03-29T10:37:48.763Z</time></trkpt><trkpt lat="42.842815" lon="13.6012617"><ele>203.0</ele><time>2026-03-29T10:37:49.763Z</time></trkpt><trkpt lat="42.8426733" lon="13.60131"><ele>203.0</ele><time>2026-03-29T10:37:50.763Z</time></trkpt><trkpt lat="42.8425383" lon="13.6013517"><ele>203.0</ele><time>2026-03-29T10:37:51.763Z</time></trkpt><trkpt lat="42.8424133" lon="13.601395"><ele>203.0</ele><time>2026-03-29T10:37:52.763Z</time></trkpt><trkpt lat="42.8423017" lon="13.60144"><ele>202.60000000000002</ele><time>2026-03-29T10:37:53.762Z</time></trkpt><trkpt lat="42.8422" lon="13.6014833"><ele>202.20000000000002</ele><time>2026-03-29T10:37:54.762Z</time></trkpt><trkpt lat="42.84211" lon="13.6015133"><ele>201.8</ele><time>2026-03-29T10:37:55.763Z</time></trkpt><trkpt lat="42.8420367" lon="13.6015483"><ele>201.4</ele><time>2026-03-29T10:37:56.763Z</time></trkpt><trkpt lat="42.8419733" lon="13.601685"><ele>201.0</ele><time>2026-03-29T10:37:58.763Z</time></trkpt><trkpt lat="42.8419783" lon="13.6017817"><ele>201.0</ele><time>2026-03-29T10:37:59.762Z</time></trkpt><trkpt lat="42.8419917" lon="13.6018933"><ele>201.0</ele><time>2026-03-29T10:38:00.763Z</time></trkpt><trkpt lat="42.8420167" lon="13.6020267"><ele>201.0</ele><time>2026-03-29T10:38:01.763Z</time></trkpt><trkpt lat="42.8420483" lon="13.60219"><ele>201.0</ele><time>2026-03-29T10:38:02.763Z</time></trkpt><trkpt lat="42.8420883" lon="13.60236"><ele>201.0</ele><time>2026-03-29T10:38:03.763Z</time></trkpt><trkpt lat="42.8421333" lon="13.6025133"><ele>200.60000000000002</ele><time>2026-03-29T10:38:04.763Z</time></trkpt><trkpt lat="42.842195" lon="13.6026333"><ele>200.2</ele><time>2026-03-29T10:38:05.763Z</time></trkpt><trkpt lat="42.8422517" lon="13.6027367"><ele>199.8</ele><time>2026-03-29T10:38:06.763Z</time></trkpt><trkpt lat="42.8422967" lon="13.6028317"><ele>199.39999999999998</ele><time>2026-03-29T10:38:07.763Z</time></trkpt><trkpt lat="42.8423183" lon="13.6029183"><ele>199.0</ele><time>2026-03-29T10:38:08.763Z</time></trkpt><trkpt lat="42.8422667" lon="13.603065"><ele>199.0</ele><time>2026-03-29T10:38:10.762Z</time></trkpt><trkpt lat="42.8421867" lon="13.60313"><ele>199.0</ele><time>2026-03-29T10:38:11.763Z</time></trkpt><trkpt lat="42.8420933" lon="13.6031833"><ele>199.0</ele><time>2026-03-29T10:38:12.763Z</time></trkpt><trkpt lat="42.841985" lon="13.603235"><ele>199.0</ele><time>2026-03-29T10:38:13.763Z</time></trkpt><trkpt lat="42.8418733" lon="13.6033117"><ele>199.0</ele><time>2026-03-29T10:38:14.762Z</time></trkpt><trkpt lat="42.8417633" lon="13.6033967"><ele>199.0</ele><time>2026-03-29T10:38:15.762Z</time></trkpt><trkpt lat="42.841655" lon="13.6034883"><ele>199.0</ele><time>2026-03-29T10:38:16.763Z</time></trkpt><trkpt lat="42.8415417" lon="13.6035617"><ele>199.0</ele><time>2026-03-29T10:38:17.763Z</time></trkpt><trkpt lat="42.8414283" lon="13.603625"><ele>199.0</ele><time>2026-03-29T10:38:18.763Z</time></trkpt><trkpt lat="42.8413233" lon="13.6036933"><ele>199.79999999999998</ele><time>2026-03-29T10:38:19.763Z</time></trkpt><trkpt lat="42.8412233" lon="13.6037667"><ele>200.6</ele><time>2026-03-29T10:38:20.763Z</time></trkpt><trkpt lat="42.8411383" lon="13.6038717"><ele>201.4</ele><time>2026-03-29T10:38:21.762Z</time></trkpt><trkpt lat="42.8410667" lon="13.60399"><ele>202.2</ele><time>2026-03-29T10:38:22.762Z</time></trkpt><trkpt lat="42.8410033" lon="13.6041017"><ele>203.0</ele><time>2026-03-29T10:38:23.763Z</time></trkpt><trkpt lat="42.8409517" lon="13.6042167"><ele>201.4</ele><time>2026-03-29T10:38:24.763Z</time></trkpt><trkpt lat="42.8409017" lon="13.604325"><ele>199.8</ele><time>2026-03-29T10:38:25.763Z</time></trkpt><trkpt lat="42.8408383" lon="13.60442"><ele>198.2</ele><time>2026-03-29T10:38:26.763Z</time></trkpt><trkpt lat="42.8407533" lon="13.60449"><ele>196.6</ele><time>2026-03-29T10:38:27.762Z</time></trkpt><trkpt lat="42.8406367" lon="13.6045217"><ele>195.0</ele><time>2026-03-29T10:38:28.763Z</time></trkpt><trkpt lat="42.8405033" lon="13.6045517"><ele>195.0</ele><time>2026-03-29T10:38:29.763Z</time></trkpt><trkpt lat="42.8403833" lon="13.6045817"><ele>195.0</ele><time>2026-03-29T10:38:30.763Z</time></trkpt><trkpt lat="42.840275" lon="13.6046233"><ele>195.0</ele><time>2026-03-29T10:38:31.763Z</time></trkpt><trkpt lat="42.8401683" lon="13.604705"><ele>195.0</ele><time>2026-03-29T10:38:32.763Z</time></trkpt><trkpt lat="42.840085" lon="13.604815"><ele>193.5</ele><time>2026-03-29T10:38:33.763Z</time></trkpt><trkpt lat="42.840015" lon="13.604955"><ele>192.0</ele><time>2026-03-29T10:38:34.763Z</time></trkpt><trkpt lat="42.8399567" lon="13.6051183"><ele>190.5</ele><time>2026-03-29T10:38:35.763Z</time></trkpt><trkpt lat="42.8399033" lon="13.6052983"><ele>189.0</ele><time>2026-03-29T10:38:36.763Z</time></trkpt><trkpt lat="42.8398567" lon="13.6054983"><ele>188.0</ele><time>2026-03-29T10:38:37.762Z</time></trkpt><trkpt lat="42.8398083" lon="13.60569"><ele>187.0</ele><time>2026-03-29T10:38:38.763Z</time></trkpt><trkpt lat="42.839765" lon="13.60587"><ele>186.0</ele><time>2026-03-29T10:38:39.763Z</time></trkpt><trkpt lat="42.8397067" lon="13.606055"><ele>185.0</ele><time>2026-03-29T10:38:40.763Z</time></trkpt><trkpt lat="42.8396417" lon="13.6062483"><ele>183.66666666666666</ele><time>2026-03-29T10:38:41.763Z</time></trkpt><trkpt lat="42.8395717" lon="13.6064533"><ele>182.33333333333334</ele><time>2026-03-29T10:38:42.763Z</time></trkpt><trkpt lat="42.8395033" lon="13.6066733"><ele>181.0</ele><time>2026-03-29T10:38:43.763Z</time></trkpt><trkpt lat="42.839435" lon="13.6068833"><ele>181.0</ele><time>2026-03-29T10:38:44.763Z</time></trkpt><trkpt lat="42.839365" lon="13.6071017"><ele>181.0</ele><time>2026-03-29T10:38:45.763Z</time></trkpt><trkpt lat="42.8392933" lon="13.6073183"><ele>181.0</ele><time>2026-03-29T10:38:46.763Z</time></trkpt><trkpt lat="42.8392333" lon="13.6075317"><ele>181.25</ele><time>2026-03-29T10:38:47.763Z</time></trkpt><trkpt lat="42.8391717" lon="13.60773"><ele>181.5</ele><time>2026-03-29T10:38:48.763Z</time></trkpt><trkpt lat="42.8391217" lon="13.6079183"><ele>181.75</ele><time>2026-03-29T10:38:49.763Z</time></trkpt><trkpt lat="42.839075" lon="13.6080967"><ele>182.0</ele><time>2026-03-29T10:38:50.763Z</time></trkpt><trkpt lat="42.8390317" lon="13.6082767"><ele>181.0</ele><time>2026-03-29T10:38:51.762Z</time></trkpt><trkpt lat="42.8389917" lon="13.6084567"><ele>180.0</ele><time>2026-03-29T10:38:52.763Z</time></trkpt><trkpt lat="42.8389567" lon="13.608635"><ele>179.0</ele><time>2026-03-29T10:38:53.763Z</time></trkpt><trkpt lat="42.8389217" lon="13.6088267"><ele>178.0</ele><time>2026-03-29T10:38:54.762Z</time></trkpt><trkpt lat="42.8388867" lon="13.6090467"><ele>176.33333333333334</ele><time>2026-03-29T10:38:55.763Z</time></trkpt><trkpt lat="42.83885" lon="13.6092717"><ele>174.66666666666666</ele><time>2026-03-29T10:38:56.762Z</time></trkpt><trkpt lat="42.8388067" lon="13.6094783"><ele>173.0</ele><time>2026-03-29T10:38:57.763Z</time></trkpt><trkpt lat="42.8387683" lon="13.60967"><ele>172.25</ele><time>2026-03-29T10:38:58.763Z</time></trkpt><trkpt lat="42.8387367" lon="13.6098483"><ele>171.5</ele><time>2026-03-29T10:38:59.763Z</time></trkpt><trkpt lat="42.838705" lon="13.6100333"><ele>170.75</ele><time>2026-03-29T10:39:00.762Z</time></trkpt><trkpt lat="42.8386817" lon="13.6102233"><ele>170.0</ele><time>2026-03-29T10:39:01.763Z</time></trkpt><trkpt lat="42.8386583" lon="13.6104117"><ele>169.5</ele><time>2026-03-29T10:39:02.763Z</time></trkpt><trkpt lat="42.8386233" lon="13.6106017"><ele>169.0</ele><time>2026-03-29T10:39:03.763Z</time></trkpt><trkpt lat="42.8385767" lon="13.6107783"><ele>168.5</ele><time>2026-03-29T10:39:04.763Z</time></trkpt><trkpt lat="42.8385367" lon="13.6109567"><ele>168.0</ele><time>2026-03-29T10:39:05.763Z</time></trkpt><trkpt lat="42.8385067" lon="13.611135"><ele>168.4</ele><time>2026-03-29T10:39:06.763Z</time></trkpt><trkpt lat="42.8384817" lon="13.6113017"><ele>168.8</ele><time>2026-03-29T10:39:07.763Z</time></trkpt><trkpt lat="42.83846" lon="13.6114467"><ele>169.2</ele><time>2026-03-29T10:39:08.763Z</time></trkpt><trkpt lat="42.8384317" lon="13.611575"><ele>169.6</ele><time>2026-03-29T10:39:09.762Z</time></trkpt><trkpt lat="42.838395" lon="13.6116783"><ele>170.0</ele><time>2026-03-29T10:39:10.762Z</time></trkpt><trkpt lat="42.838355" lon="13.6117517"><ele>169.0</ele><time>2026-03-29T10:39:11.762Z</time></trkpt><trkpt lat="42.838265" lon="13.6118183"><ele>168.0</ele><time>2026-03-29T10:39:13.763Z</time></trkpt><trkpt lat="42.838145" lon="13.6118483"><ele>167.0</ele><time>2026-03-29T10:39:15.763Z</time></trkpt><trkpt lat="42.8380767" lon="13.6118167"><ele>166.0</ele><time>2026-03-29T10:39:16.763Z</time></trkpt><trkpt lat="42.8379783" lon="13.6118167"><ele>165.0</ele><time>2026-03-29T10:39:18.763Z</time></trkpt><trkpt lat="42.8379017" lon="13.6119483"><ele>164.33333333333334</ele><time>2026-03-29T10:39:20.763Z</time></trkpt><trkpt lat="42.83786" lon="13.6121267"><ele>163.66666666666669</ele><time>2026-03-29T10:39:21.763Z</time></trkpt><trkpt lat="42.8378217" lon="13.612355"><ele>163.0</ele><time>2026-03-29T10:39:22.763Z</time></trkpt><trkpt lat="42.8377717" lon="13.6126117"><ele>162.0</ele><time>2026-03-29T10:39:23.763Z</time></trkpt><trkpt lat="42.8377017" lon="13.6128867"><ele>161.0</ele><time>2026-03-29T10:39:24.763Z</time></trkpt><trkpt lat="42.8376033" lon="13.6131683"><ele>160.0</ele><time>2026-03-29T10:39:25.763Z</time></trkpt><trkpt lat="42.8375167" lon="13.613415"><ele>162.66666666666669</ele><time>2026-03-29T10:39:26.763Z</time></trkpt><trkpt lat="42.83745" lon="13.613655"><ele>165.33333333333334</ele><time>2026-03-29T10:39:27.763Z</time></trkpt><trkpt lat="42.8373983" lon="13.6138983"><ele>168.0</ele><time>2026-03-29T10:39:28.762Z</time></trkpt><trkpt lat="42.8373517" lon="13.6141283"><ele>168.0</ele><time>2026-03-29T10:39:29.763Z</time></trkpt><trkpt lat="42.8373083" lon="13.6143383"><ele>168.0</ele><time>2026-03-29T10:39:30.763Z</time></trkpt><trkpt lat="42.8372667" lon="13.614545"><ele>168.0</ele><time>2026-03-29T10:39:31.763Z</time></trkpt><trkpt lat="42.8372267" lon="13.614765"><ele>165.66666666666666</ele><time>2026-03-29T10:39:32.762Z</time></trkpt><trkpt lat="42.8371883" lon="13.6150083"><ele>163.33333333333331</ele><time>2026-03-29T10:39:33.763Z</time></trkpt><trkpt lat="42.83716" lon="13.6152633"><ele>161.0</ele><time>2026-03-29T10:39:34.762Z</time></trkpt><trkpt lat="42.8371283" lon="13.6155167"><ele>159.0</ele><time>2026-03-29T10:39:35.763Z</time></trkpt><trkpt lat="42.83708" lon="13.6157633"><ele>157.0</ele><time>2026-03-29T10:39:36.763Z</time></trkpt><trkpt lat="42.837025" lon="13.6160167"><ele>155.0</ele><time>2026-03-29T10:39:37.763Z</time></trkpt><trkpt lat="42.83697" lon="13.616265"><ele>154.0</ele><time>2026-03-29T10:39:38.763Z</time></trkpt><trkpt lat="42.8369233" lon="13.61649"><ele>153.0</ele><time>2026-03-29T10:39:39.763Z</time></trkpt><trkpt lat="42.8368867" lon="13.6167"><ele>152.0</ele><time>2026-03-29T10:39:40.763Z</time></trkpt><trkpt lat="42.8368567" lon="13.6168867"><ele>152.4</ele><time>2026-03-29T10:39:41.762Z</time></trkpt><trkpt lat="42.8368217" lon="13.61705"><ele>152.79999999999998</ele><time>2026-03-29T10:39:42.763Z</time></trkpt><trkpt lat="42.8367883" lon="13.6171983"><ele>153.2</ele><time>2026-03-29T10:39:43.763Z</time></trkpt><trkpt lat="42.8367483" lon="13.6173167"><ele>153.6</ele><time>2026-03-29T10:39:44.763Z</time></trkpt><trkpt lat="42.836705" lon="13.61741"><ele>154.0</ele><time>2026-03-29T10:39:45.763Z</time></trkpt><trkpt lat="42.836665" lon="13.6175233"><ele>153.2</ele><time>2026-03-29T10:39:46.763Z</time></trkpt><trkpt lat="42.8366367" lon="13.617675"><ele>152.4</ele><time>2026-03-29T10:39:47.763Z</time></trkpt><trkpt lat="42.8366217" lon="13.6178283"><ele>151.6</ele><time>2026-03-29T10:39:48.763Z</time></trkpt><trkpt lat="42.8366267" lon="13.6179533"><ele>150.8</ele><time>2026-03-29T10:39:49.763Z</time></trkpt><trkpt lat="42.8366517" lon="13.6180617"><ele>150.0</ele><time>2026-03-29T10:39:50.763Z</time></trkpt><trkpt lat="42.8367" lon="13.6181683"><ele>150.0</ele><time>2026-03-29T10:39:51.763Z</time></trkpt><trkpt lat="42.83676" lon="13.6182733"><ele>150.0</ele><time>2026-03-29T10:39:52.763Z</time></trkpt><trkpt lat="42.8368483" lon="13.6183817"><ele>150.0</ele><time>2026-03-29T10:39:53.763Z</time></trkpt><trkpt lat="42.8370033" lon="13.6184967"><ele>150.0</ele><time>2026-03-29T10:39:54.763Z</time></trkpt><trkpt lat="42.8371567" lon="13.6186033"><ele>150.0</ele><time>2026-03-29T10:39:55.763Z</time></trkpt><trkpt lat="42.8372883" lon="13.6187067"><ele>150.0</ele><time>2026-03-29T10:39:56.763Z</time></trkpt><trkpt lat="42.8373933" lon="13.6187883"><ele>150.0</ele><time>2026-03-29T10:39:57.762Z</time></trkpt><trkpt lat="42.8374783" lon="13.6188517"><ele>150.0</ele><time>2026-03-29T10:39:58.763Z</time></trkpt><trkpt lat="42.8375633" lon="13.618915"><ele>151.0</ele><time>2026-03-29T10:39:59.763Z</time></trkpt><trkpt lat="42.8376383" lon="13.61899"><ele>152.0</ele><time>2026-03-29T10:40:00.762Z</time></trkpt><trkpt lat="42.83769" lon="13.6191083"><ele>153.0</ele><time>2026-03-29T10:40:01.762Z</time></trkpt><trkpt lat="42.8377133" lon="13.6192483"><ele>154.0</ele><time>2026-03-29T10:40:02.762Z</time></trkpt><trkpt lat="42.8377167" lon="13.6194433"><ele>155.0</ele><time>2026-03-29T10:40:03.762Z</time></trkpt><trkpt lat="42.8377033" lon="13.619695"><ele>148.5</ele><time>2026-03-29T10:40:04.761Z</time></trkpt><trkpt lat="42.8376883" lon="13.6199967"><ele>142.0</ele><time>2026-03-29T10:40:05.762Z</time></trkpt><trkpt lat="42.8376783" lon="13.6203217"><ele>139.5</ele><time>2026-03-29T10:40:06.762Z</time></trkpt><trkpt lat="42.83767" lon="13.6206433"><ele>137.0</ele><time>2026-03-29T10:40:07.762Z</time></trkpt><trkpt lat="42.8376567" lon="13.6209367"><ele>138.66666666666666</ele><time>2026-03-29T10:40:08.762Z</time></trkpt><trkpt lat="42.8376483" lon="13.6212017"><ele>140.33333333333334</ele><time>2026-03-29T10:40:09.762Z</time></trkpt><trkpt lat="42.8376483" lon="13.6213967"><ele>142.0</ele><time>2026-03-29T10:40:10.762Z</time></trkpt><trkpt lat="42.8376367" lon="13.6215617"><ele>142.0</ele><time>2026-03-29T10:40:11.762Z</time></trkpt><trkpt lat="42.83764" lon="13.6216783"><ele>142.0</ele><time>2026-03-29T10:40:12.762Z</time></trkpt><trkpt lat="42.8376583" lon="13.6217783"><ele>142.0</ele><time>2026-03-29T10:40:13.762Z</time></trkpt><trkpt lat="42.837745" lon="13.6218717"><ele>142.0</ele><time>2026-03-29T10:40:15.762Z</time></trkpt><trkpt lat="42.8378333" lon="13.621885"><ele>142.0</ele><time>2026-03-29T10:40:17.762Z</time></trkpt><trkpt lat="42.8379333" lon="13.621865"><ele>142.0</ele><time>2026-03-29T10:42:06.761Z</time></trkpt><trkpt lat="42.8380367" lon="13.6218717"><ele>142.0</ele><time>2026-03-29T10:42:08.762Z</time></trkpt><trkpt lat="42.8381083" lon="13.6218733"><ele>142.0</ele><time>2026-03-29T10:42:09.762Z</time></trkpt><trkpt lat="42.8381783" lon="13.6218817"><ele>142.0</ele><time>2026-03-29T10:42:10.762Z</time></trkpt><trkpt lat="42.8382683" lon="13.621915"><ele>142.0</ele><time>2026-03-29T10:42:12.762Z</time></trkpt><trkpt lat="42.8383283" lon="13.6219733"><ele>142.0</ele><time>2026-03-29T10:42:17.762Z</time></trkpt><trkpt lat="42.8384167" lon="13.621995"><ele>141.5</ele><time>2026-03-29T10:42:18.761Z</time></trkpt><trkpt lat="42.8385333" lon="13.6219967"><ele>141.0</ele><time>2026-03-29T10:42:19.761Z</time></trkpt><trkpt lat="42.8386717" lon="13.621985"><ele>140.5</ele><time>2026-03-29T10:42:20.762Z</time></trkpt><trkpt lat="42.8388217" lon="13.6219717"><ele>140.0</ele><time>2026-03-29T10:42:21.761Z</time></trkpt><trkpt lat="42.83898" lon="13.6219583"><ele>140.0</ele><time>2026-03-29T10:42:22.762Z</time></trkpt><trkpt lat="42.8391333" lon="13.62194"><ele>140.0</ele><time>2026-03-29T10:42:23.762Z</time></trkpt><trkpt lat="42.8392783" lon="13.6219133"><ele>140.0</ele><time>2026-03-29T10:42:24.761Z</time></trkpt><trkpt lat="42.8394267" lon="13.6218717"><ele>139.33333333333331</ele><time>2026-03-29T10:42:25.762Z</time></trkpt><trkpt lat="42.8395783" lon="13.62182"><ele>138.66666666666666</ele><time>2026-03-29T10:42:26.762Z</time></trkpt><trkpt lat="42.8397267" lon="13.6217667"><ele>138.0</ele><time>2026-03-29T10:42:27.762Z</time></trkpt><trkpt lat="42.8398683" lon="13.62172"><ele>138.0</ele><time>2026-03-29T10:42:28.762Z</time></trkpt><trkpt lat="42.8400117" lon="13.621685"><ele>138.0</ele><time>2026-03-29T10:42:29.762Z</time></trkpt><trkpt lat="42.84016" lon="13.6216733"><ele>138.0</ele><time>2026-03-29T10:42:30.762Z</time></trkpt><trkpt lat="42.840315" lon="13.6216883"><ele>136.33333333333334</ele><time>2026-03-29T10:42:31.762Z</time></trkpt><trkpt lat="42.8404733" lon="13.6217233"><ele>134.66666666666669</ele><time>2026-03-29T10:42:32.762Z</time></trkpt><trkpt lat="42.840635" lon="13.62177"><ele>133.0</ele><time>2026-03-29T10:42:33.761Z</time></trkpt><trkpt lat="42.8408017" lon="13.6218167"><ele>132.66666666666669</ele><time>2026-03-29T10:42:34.762Z</time></trkpt><trkpt lat="42.8409667" lon="13.6218617"><ele>132.33333333333334</ele><time>2026-03-29T10:42:35.762Z</time></trkpt><trkpt lat="42.8411317" lon="13.6219067"><ele>132.0</ele><time>2026-03-29T10:42:36.762Z</time></trkpt><trkpt lat="42.8413017" lon="13.6219517"><ele>131.66666666666666</ele><time>2026-03-29T10:42:37.762Z</time></trkpt><trkpt lat="42.8414717" lon="13.622005"><ele>131.33333333333331</ele><time>2026-03-29T10:42:38.762Z</time></trkpt><trkpt lat="42.8416267" lon="13.622045"><ele>131.0</ele><time>2026-03-29T10:42:39.762Z</time></trkpt><trkpt lat="42.841775" lon="13.6220833"><ele>130.75</ele><time>2026-03-29T10:42:40.762Z</time></trkpt><trkpt lat="42.84191" lon="13.6221183"><ele>130.5</ele><time>2026-03-29T10:42:41.762Z</time></trkpt><trkpt lat="42.8420417" lon="13.6221483"><ele>130.25</ele><time>2026-03-29T10:42:42.761Z</time></trkpt><trkpt lat="42.8421733" lon="13.6221633"><ele>130.0</ele><time>2026-03-29T10:42:43.762Z</time></trkpt><trkpt lat="42.8422883" lon="13.62219"><ele>130.0</ele><time>2026-03-29T10:42:44.762Z</time></trkpt><trkpt lat="42.8424017" lon="13.6222117"><ele>130.0</ele><time>2026-03-29T10:42:45.761Z</time></trkpt><trkpt lat="42.84252" lon="13.6222317"><ele>130.0</ele><time>2026-03-29T10:42:46.762Z</time></trkpt><trkpt lat="42.8426383" lon="13.6222283"><ele>130.0</ele><time>2026-03-29T10:42:47.761Z</time></trkpt><trkpt lat="42.84276" lon="13.6221883"><ele>128.5</ele><time>2026-03-29T10:42:48.762Z</time></trkpt><trkpt lat="42.8428817" lon="13.6221217"><ele>127.0</ele><time>2026-03-29T10:42:49.762Z</time></trkpt><trkpt lat="42.8430033" lon="13.6220383"><ele>125.5</ele><time>2026-03-29T10:42:50.762Z</time></trkpt><trkpt lat="42.8431133" lon="13.6219533"><ele>124.0</ele><time>2026-03-29T10:42:51.762Z</time></trkpt><trkpt lat="42.8432117" lon="13.6218683"><ele>124.00000000000001</ele><time>2026-03-29T10:42:52.762Z</time></trkpt><trkpt lat="42.8432967" lon="13.6217867"><ele>124.0</ele><time>2026-03-29T10:42:53.762Z</time></trkpt><trkpt lat="42.8433733" lon="13.62172"><ele>124.0</ele><time>2026-03-29T10:42:54.761Z</time></trkpt><trkpt lat="42.8434367" lon="13.6216717"><ele>124.0</ele><time>2026-03-29T10:42:55.762Z</time></trkpt><trkpt lat="42.843515" lon="13.62166"><ele>124.00000000000001</ele><time>2026-03-29T10:42:57.762Z</time></trkpt><trkpt lat="42.8435783" lon="13.621715"><ele>124.0</ele><time>2026-03-29T10:42:59.762Z</time></trkpt><trkpt lat="42.8436017" lon="13.62183"><ele>123.0</ele><time>2026-03-29T10:43:01.762Z</time></trkpt><trkpt lat="42.8435767" lon="13.6219233"><ele>122.00000000000001</ele><time>2026-03-29T10:43:03.762Z</time></trkpt><trkpt lat="42.8435417" lon="13.622"><ele>121.0</ele><time>2026-03-29T10:43:05.761Z</time></trkpt><trkpt lat="42.8435117" lon="13.6220783"><ele>120.0</ele><time>2026-03-29T10:43:07.762Z</time></trkpt><trkpt lat="42.8434867" lon="13.62216"><ele>119.00000000000001</ele><time>2026-03-29T10:43:09.761Z</time></trkpt><trkpt lat="42.8434733" lon="13.6222583"><ele>118.0</ele><time>2026-03-29T10:43:11.761Z</time></trkpt><trkpt lat="42.8434767" lon="13.6223633"><ele>117.0</ele><time>2026-03-29T10:43:13.762Z</time></trkpt><trkpt lat="42.8434767" lon="13.622475"><ele>117.66666666666667</ele><time>2026-03-29T10:43:15.761Z</time></trkpt><trkpt lat="42.8434317" lon="13.6226067"><ele>118.33333333333334</ele><time>2026-03-29T10:43:17.762Z</time></trkpt><trkpt lat="42.84338" lon="13.6226817"><ele>119.0</ele><time>2026-03-29T10:43:18.762Z</time></trkpt><trkpt lat="42.8433317" lon="13.62276"><ele>119.66666666666667</ele><time>2026-03-29T10:43:19.762Z</time></trkpt><trkpt lat="42.8433083" lon="13.6228433"><ele>120.33333333333334</ele><time>2026-03-29T10:43:20.762Z</time></trkpt><trkpt lat="42.8433567" lon="13.62298"><ele>121.0</ele><time>2026-03-29T10:43:22.762Z</time></trkpt><trkpt lat="42.8434417" lon="13.623065"><ele>119.75</ele><time>2026-03-29T10:43:24.762Z</time></trkpt><trkpt lat="42.8435517" lon="13.623045"><ele>118.5</ele><time>2026-03-29T10:43:26.762Z</time></trkpt><trkpt lat="42.8436433" lon="13.622955"><ele>117.25</ele><time>2026-03-29T10:43:28.762Z</time></trkpt><trkpt lat="42.8437567" lon="13.6229133"><ele>116.0</ele><time>2026-03-29T10:43:30.762Z</time></trkpt><trkpt lat="42.8438767" lon="13.6229383"><ele>115.99999999999999</ele><time>2026-03-29T10:43:32.762Z</time></trkpt><trkpt lat="42.8439783" lon="13.6229767"><ele>116.0</ele><time>2026-03-29T10:43:34.762Z</time></trkpt><trkpt lat="42.8440533" lon="13.623065"><ele>116.0</ele><time>2026-03-29T10:43:36.762Z</time></trkpt><trkpt lat="42.844075" lon="13.6231483"><ele>116.0</ele><time>2026-03-29T10:43:37.762Z</time></trkpt><trkpt lat="42.8440767" lon="13.6232583"><ele>115.99999999999999</ele><time>2026-03-29T10:43:38.762Z</time></trkpt><trkpt lat="42.84406" lon="13.6233783"><ele>116.0</ele><time>2026-03-29T10:43:39.762Z</time></trkpt><trkpt lat="42.84404" lon="13.6235017"><ele>116.0</ele><time>2026-03-29T10:43:40.762Z</time></trkpt><trkpt lat="42.844025" lon="13.6236217"><ele>116.0</ele><time>2026-03-29T10:43:41.762Z</time></trkpt><trkpt lat="42.8440117" lon="13.6237417"><ele>116.0</ele><time>2026-03-29T10:43:42.762Z</time></trkpt><trkpt lat="42.8440033" lon="13.623865"><ele>116.0</ele><time>2026-03-29T10:43:43.762Z</time></trkpt><trkpt lat="42.8440017" lon="13.6239917"><ele>116.0</ele><time>2026-03-29T10:43:44.762Z</time></trkpt><trkpt lat="42.8439967" lon="13.6241333"><ele>115.6</ele><time>2026-03-29T10:43:45.762Z</time></trkpt><trkpt lat="42.8439967" lon="13.62429"><ele>115.19999999999999</ele><time>2026-03-29T10:43:46.762Z</time></trkpt><trkpt lat="42.844015" lon="13.62443"><ele>114.80000000000001</ele><time>2026-03-29T10:43:47.762Z</time></trkpt><trkpt lat="42.8440633" lon="13.6245533"><ele>114.4</ele><time>2026-03-29T10:43:48.762Z</time></trkpt><trkpt lat="42.8441383" lon="13.6246267"><ele>114.0</ele><time>2026-03-29T10:43:49.762Z</time></trkpt><trkpt lat="42.844225" lon="13.6246583"><ele>114.0</ele><time>2026-03-29T10:43:50.762Z</time></trkpt><trkpt lat="42.8443" lon="13.6246267"><ele>114.0</ele><time>2026-03-29T10:43:51.762Z</time></trkpt><trkpt lat="42.8443667" lon="13.6245533"><ele>114.0</ele><time>2026-03-29T10:43:52.762Z</time></trkpt><trkpt lat="42.8443767" lon="13.6244167"><ele>114.0</ele><time>2026-03-29T10:43:53.762Z</time></trkpt><trkpt lat="42.8443667" lon="13.6242817"><ele>114.0</ele><time>2026-03-29T10:43:54.762Z</time></trkpt><trkpt lat="42.8443067" lon="13.6241567"><ele>114.0</ele><time>2026-03-29T10:43:55.762Z</time></trkpt><trkpt lat="42.8442217" lon="13.6240417"><ele>114.0</ele><time>2026-03-29T10:43:56.762Z</time></trkpt><trkpt lat="42.8441517" lon="13.6239267"><ele>114.0</ele><time>2026-03-29T10:43:57.762Z</time></trkpt><trkpt lat="42.8441117" lon="13.623805"><ele>114.0</ele><time>2026-03-29T10:43:58.762Z</time></trkpt><trkpt lat="42.8441017" lon="13.62366"><ele>114.0</ele><time>2026-03-29T10:43:59.761Z</time></trkpt><trkpt lat="42.8441167" lon="13.623475"><ele>114.5</ele><time>2026-03-29T10:44:00.762Z</time></trkpt><trkpt lat="42.8441433" lon="13.623275"><ele>115.0</ele><time>2026-03-29T10:44:01.762Z</time></trkpt><trkpt lat="42.8441683" lon="13.62308"><ele>115.5</ele><time>2026-03-29T10:44:02.762Z</time></trkpt><trkpt lat="42.8441917" lon="13.62289"><ele>116.0</ele><time>2026-03-29T10:44:03.762Z</time></trkpt><trkpt lat="42.8442183" lon="13.6227"><ele>116.0</ele><time>2026-03-29T10:44:04.762Z</time></trkpt><trkpt lat="42.8442483" lon="13.6225083"><ele>116.0</ele><time>2026-03-29T10:44:05.762Z</time></trkpt><trkpt lat="42.8442767" lon="13.6223117"><ele>116.0</ele><time>2026-03-29T10:44:06.762Z</time></trkpt><trkpt lat="42.844305" lon="13.6221233"><ele>116.0</ele><time>2026-03-29T10:44:07.762Z</time></trkpt><trkpt lat="42.8443283" lon="13.6219467"><ele>115.8</ele><time>2026-03-29T10:44:08.762Z</time></trkpt><trkpt lat="42.844345" lon="13.621785"><ele>115.6</ele><time>2026-03-29T10:44:09.762Z</time></trkpt><trkpt lat="42.8443667" lon="13.6216483"><ele>115.4</ele><time>2026-03-29T10:44:10.762Z</time></trkpt><trkpt lat="42.844395" lon="13.621545"><ele>115.2</ele><time>2026-03-29T10:44:11.761Z</time></trkpt><trkpt lat="42.84448" lon="13.6214583"><ele>115.0</ele><time>2026-03-29T10:44:13.762Z</time></trkpt><trkpt lat="42.8445517" lon="13.6214717"><ele>115.00000000000001</ele><time>2026-03-29T10:44:14.762Z</time></trkpt><trkpt lat="42.8446267" lon="13.6214867"><ele>115.0</ele><time>2026-03-29T10:44:15.762Z</time></trkpt><trkpt lat="42.8447033" lon="13.6214917"><ele>115.0</ele><time>2026-03-29T10:44:16.762Z</time></trkpt><trkpt lat="42.844785" lon="13.6214917"><ele>115.0</ele><time>2026-03-29T10:44:17.762Z</time></trkpt><trkpt lat="42.8448733" lon="13.6214883"><ele>115.00000000000001</ele><time>2026-03-29T10:44:18.762Z</time></trkpt><trkpt lat="42.8449867" lon="13.62148"><ele>115.0</ele><time>2026-03-29T10:44:19.761Z</time></trkpt><trkpt lat="42.84512" lon="13.6214717"><ele>115.25</ele><time>2026-03-29T10:44:20.762Z</time></trkpt><trkpt lat="42.84526" lon="13.62147"><ele>115.5</ele><time>2026-03-29T10:44:21.762Z</time></trkpt><trkpt lat="42.8453917" lon="13.6214767"><ele>115.75</ele><time>2026-03-29T10:44:22.762Z</time></trkpt><trkpt lat="42.8455133" lon="13.6214883"><ele>116.0</ele><time>2026-03-29T10:44:23.762Z</time></trkpt><trkpt lat="42.8456233" lon="13.6214883"><ele>116.0</ele><time>2026-03-29T10:44:24.762Z</time></trkpt><trkpt lat="42.8457267" lon="13.621485"><ele>116.0</ele><time>2026-03-29T10:44:25.762Z</time></trkpt><trkpt lat="42.84583" lon="13.6214833"><ele>116.0</ele><time>2026-03-29T10:44:26.762Z</time></trkpt><trkpt lat="42.8459317" lon="13.62148"><ele>116.0</ele><time>2026-03-29T10:44:27.762Z</time></trkpt><trkpt lat="42.846025" lon="13.621475"><ele>116.0</ele><time>2026-03-29T10:44:28.762Z</time></trkpt><trkpt lat="42.8460983" lon="13.62145"><ele>115.66666666666666</ele><time>2026-03-29T10:44:29.762Z</time></trkpt><trkpt lat="42.846155" lon="13.62139"><ele>115.33333333333333</ele><time>2026-03-29T10:44:30.762Z</time></trkpt><trkpt lat="42.846185" lon="13.62129"><ele>115.0</ele><time>2026-03-29T10:44:31.762Z</time></trkpt><trkpt lat="42.8461967" lon="13.6211683"><ele>114.66666666666666</ele><time>2026-03-29T10:44:32.762Z</time></trkpt><trkpt lat="42.8461933" lon="13.62105"><ele>114.33333333333333</ele><time>2026-03-29T10:44:33.762Z</time></trkpt><trkpt lat="42.846175" lon="13.62096"><ele>114.0</ele><time>2026-03-29T10:44:34.761Z</time></trkpt><trkpt lat="42.8460883" lon="13.6209317"><ele>113.0</ele><time>2026-03-29T10:44:36.762Z</time></trkpt><trkpt lat="42.8460467" lon="13.621055"><ele>113.0</ele><time>2026-03-29T10:44:38.762Z</time></trkpt><trkpt lat="42.845985" lon="13.621135"><ele>113.0</ele><time>2026-03-29T10:44:41.762Z</time></trkpt></trkseg></trk></gpx>